<?xml version="1.0" encoding="UTF-8" standalone="no" ?><gpx xmlns="http://www.topografix.com/GPX/1/1" xmlns:gpxx="http://www.garmin.com/xmlschemas/GpxExtensions/v3" xmlns:wptx1="http://www.garmin.com/xmlschemas/WaypointExtension/v1" xmlns:gpxtpx="http://www.garmin.com/xmlschemas/TrackPointExtension/v1" creator="GuideVTT.com" version="1.1" xmlns:xsi="http://www.w3.org/2001/XMLSchema-instance" xsi:schemaLocation="http://www.topografix.com/GPX/1/1 http://www.topografix.com/GPX/1/1/gpx.xsd http://www.garmin.com/xmlschemas/GpxExtensions/v3 http://www8.garmin.com/xmlschemas/GpxExtensionsv3.xsd http://www.garmin.com/xmlschemas/WaypointExtension/v1 http://www8.garmin.com/xmlschemas/WaypointExtensionv1.xsd http://www.garmin.com/xmlschemas/TrackPointExtension/v1 http://www.garmin.com/xmlschemas/TrackPointExtensionv1.xsd">
<metadata><link href="http://www.garmin.com"><text>Garmin International</text></link><time>2013-06-22T15:13:50Z</time></metadata>
<trk><name>2024rp32cor.gpx</name><extensions><gpxx:TrackExtension><gpxx:DisplayColor>Cyan</gpxx:DisplayColor></gpxx:TrackExtension></extensions><trkseg>
<trkpt lat="46.73998" lon="6.45745"><ele></ele><time>2024-11-24T11:49:35Z</time></trkpt>
<trkpt lat="46.73999" lon="6.45747"><ele></ele><time>2024-11-24T11:49:38Z</time></trkpt>
<trkpt lat="46.73998" lon="6.45749"><ele></ele><time>2024-11-24T11:49:41Z</time></trkpt>
<trkpt lat="46.73998" lon="6.4575"><ele></ele><time>2024-11-24T11:49:44Z</time></trkpt>
<trkpt lat="46.73997" lon="6.45748"><ele></ele><time>2024-11-24T11:49:47Z</time></trkpt>
<trkpt lat="46.73996" lon="6.45745"><ele></ele><time>2024-11-24T11:49:50Z</time></trkpt>
<trkpt lat="46.73996" lon="6.45745"><ele></ele><time>2024-11-24T11:49:53Z</time></trkpt>
<trkpt lat="46.73996" lon="6.45745"><ele></ele><time>2024-11-24T11:49:56Z</time></trkpt>
<trkpt lat="46.73997" lon="6.45746"><ele></ele><time>2024-11-24T11:49:59Z</time></trkpt>
<trkpt lat="46.73997" lon="6.45746"><ele></ele><time>2024-11-24T11:50:2Z</time></trkpt>
<trkpt lat="46.73996" lon="6.45744"><ele></ele><time>2024-11-24T11:50:5Z</time></trkpt>
<trkpt lat="46.73995" lon="6.45742"><ele></ele><time>2024-11-24T11:50:8Z</time></trkpt>
<trkpt lat="46.73995" lon="6.45742"><ele></ele><time>2024-11-24T11:50:11Z</time></trkpt>
<trkpt lat="46.73995" lon="6.45742"><ele></ele><time>2024-11-24T11:50:14Z</time></trkpt>
<trkpt lat="46.73995" lon="6.45742"><ele></ele><time>2024-11-24T11:50:17Z</time></trkpt>
<trkpt lat="46.73996" lon="6.45745"><ele></ele><time>2024-11-24T11:50:20Z</time></trkpt>
<trkpt lat="46.73996" lon="6.45745"><ele></ele><time>2024-11-24T11:50:23Z</time></trkpt>
<trkpt lat="46.73996" lon="6.45745"><ele></ele><time>2024-11-24T11:50:26Z</time></trkpt>
<trkpt lat="46.73996" lon="6.45745"><ele></ele><time>2024-11-24T11:50:29Z</time></trkpt>
<trkpt lat="46.73993" lon="6.45746"><ele></ele><time>2024-11-24T11:50:32Z</time></trkpt>
<trkpt lat="46.7399" lon="6.45748"><ele></ele><time>2024-11-24T11:50:35Z</time></trkpt>
<trkpt lat="46.73987" lon="6.4575"><ele></ele><time>2024-11-24T11:50:38Z</time></trkpt>
<trkpt lat="46.7398" lon="6.45751"><ele></ele><time>2024-11-24T11:50:41Z</time></trkpt>
<trkpt lat="46.73979" lon="6.4575"><ele></ele><time>2024-11-24T11:50:44Z</time></trkpt>
<trkpt lat="46.73977" lon="6.45743"><ele></ele><time>2024-11-24T11:50:47Z</time></trkpt>
<trkpt lat="46.73978" lon="6.4574"><ele></ele><time>2024-11-24T11:50:50Z</time></trkpt>
<trkpt lat="46.73985" lon="6.45716"><ele></ele><time>2024-11-24T11:50:53Z</time></trkpt>
<trkpt lat="46.73988" lon="6.45702"><ele></ele><time>2024-11-24T11:50:56Z</time></trkpt>
<trkpt lat="46.73991" lon="6.45684"><ele></ele><time>2024-11-24T11:50:59Z</time></trkpt>
<trkpt lat="46.73992" lon="6.45665"><ele></ele><time>2024-11-24T11:51:2Z</time></trkpt>
<trkpt lat="46.73995" lon="6.4566"><ele></ele><time>2024-11-24T11:51:5Z</time></trkpt>
<trkpt lat="46.74" lon="6.45659"><ele></ele><time>2024-11-24T11:51:8Z</time></trkpt>
<trkpt lat="46.74003" lon="6.45659"><ele></ele><time>2024-11-24T11:51:11Z</time></trkpt>
<trkpt lat="46.74007" lon="6.4566"><ele></ele><time>2024-11-24T11:51:14Z</time></trkpt>
<trkpt lat="46.74012" lon="6.45658"><ele></ele><time>2024-11-24T11:51:17Z</time></trkpt>
<trkpt lat="46.74013" lon="6.45657"><ele></ele><time>2024-11-24T11:51:20Z</time></trkpt>
<trkpt lat="46.74018" lon="6.45654"><ele></ele><time>2024-11-24T11:51:23Z</time></trkpt>
<trkpt lat="46.7402" lon="6.45654"><ele></ele><time>2024-11-24T11:51:26Z</time></trkpt>
<trkpt lat="46.74025" lon="6.45653"><ele></ele><time>2024-11-24T11:51:29Z</time></trkpt>
<trkpt lat="46.74031" lon="6.45652"><ele></ele><time>2024-11-24T11:51:32Z</time></trkpt>
<trkpt lat="46.74032" lon="6.45653"><ele></ele><time>2024-11-24T11:51:35Z</time></trkpt>
<trkpt lat="46.74033" lon="6.45654"><ele></ele><time>2024-11-24T11:51:38Z</time></trkpt>
<trkpt lat="46.74039" lon="6.4566"><ele></ele><time>2024-11-24T11:51:41Z</time></trkpt>
<trkpt lat="46.74042" lon="6.45663"><ele></ele><time>2024-11-24T11:51:44Z</time></trkpt>
<trkpt lat="46.74047" lon="6.45665"><ele></ele><time>2024-11-24T11:51:47Z</time></trkpt>
<trkpt lat="46.74048" lon="6.45665"><ele></ele><time>2024-11-24T11:51:50Z</time></trkpt>
<trkpt lat="46.74053" lon="6.45668"><ele></ele><time>2024-11-24T11:51:53Z</time></trkpt>
<trkpt lat="46.74055" lon="6.45669"><ele></ele><time>2024-11-24T11:51:56Z</time></trkpt>
<trkpt lat="46.7406" lon="6.45675"><ele></ele><time>2024-11-24T11:51:59Z</time></trkpt>
<trkpt lat="46.74064" lon="6.45686"><ele></ele><time>2024-11-24T11:52:2Z</time></trkpt>
<trkpt lat="46.74065" lon="6.45689"><ele></ele><time>2024-11-24T11:52:5Z</time></trkpt>
<trkpt lat="46.74069" lon="6.45692"><ele></ele><time>2024-11-24T11:52:8Z</time></trkpt>
<trkpt lat="46.74071" lon="6.45695"><ele></ele><time>2024-11-24T11:52:11Z</time></trkpt>
<trkpt lat="46.74071" lon="6.45697"><ele></ele><time>2024-11-24T11:52:14Z</time></trkpt>
<trkpt lat="46.7407" lon="6.45698"><ele></ele><time>2024-11-24T11:52:17Z</time></trkpt>
<trkpt lat="46.7407" lon="6.45698"><ele></ele><time>2024-11-24T11:52:20Z</time></trkpt>
<trkpt lat="46.7407" lon="6.45698"><ele></ele><time>2024-11-24T11:52:23Z</time></trkpt>
<trkpt lat="46.7407" lon="6.45698"><ele></ele><time>2024-11-24T11:52:26Z</time></trkpt>
<trkpt lat="46.7407" lon="6.45698"><ele></ele><time>2024-11-24T11:52:29Z</time></trkpt>
<trkpt lat="46.7407" lon="6.45698"><ele></ele><time>2024-11-24T11:52:32Z</time></trkpt>
<trkpt lat="46.74069" lon="6.457"><ele></ele><time>2024-11-24T11:52:35Z</time></trkpt>
<trkpt lat="46.74069" lon="6.457"><ele></ele><time>2024-11-24T11:52:38Z</time></trkpt>
<trkpt lat="46.74069" lon="6.457"><ele></ele><time>2024-11-24T11:52:41Z</time></trkpt>
<trkpt lat="46.74069" lon="6.457"><ele></ele><time>2024-11-24T11:52:44Z</time></trkpt>
<trkpt lat="46.74069" lon="6.457"><ele></ele><time>2024-11-24T11:52:47Z</time></trkpt>
<trkpt lat="46.74069" lon="6.457"><ele></ele><time>2024-11-24T11:52:50Z</time></trkpt>
<trkpt lat="46.74069" lon="6.457"><ele></ele><time>2024-11-24T11:52:53Z</time></trkpt>
<trkpt lat="46.74069" lon="6.457"><ele></ele><time>2024-11-24T11:52:56Z</time></trkpt>
<trkpt lat="46.74069" lon="6.457"><ele></ele><time>2024-11-24T11:52:59Z</time></trkpt>
<trkpt lat="46.74069" lon="6.457"><ele></ele><time>2024-11-24T11:53:2Z</time></trkpt>
<trkpt lat="46.7407" lon="6.457"><ele></ele><time>2024-11-24T11:53:5Z</time></trkpt>
<trkpt lat="46.74071" lon="6.457"><ele></ele><time>2024-11-24T11:53:8Z</time></trkpt>
<trkpt lat="46.74072" lon="6.45701"><ele></ele><time>2024-11-24T11:53:11Z</time></trkpt>
<trkpt lat="46.7407" lon="6.45702"><ele></ele><time>2024-11-24T11:53:14Z</time></trkpt>
<trkpt lat="46.74069" lon="6.45701"><ele></ele><time>2024-11-24T11:53:17Z</time></trkpt>
<trkpt lat="46.74066" lon="6.45691"><ele></ele><time>2024-11-24T11:53:20Z</time></trkpt>
<trkpt lat="46.74063" lon="6.45671"><ele></ele><time>2024-11-24T11:53:23Z</time></trkpt>
<trkpt lat="46.74064" lon="6.45668"><ele></ele><time>2024-11-24T11:53:26Z</time></trkpt>
<trkpt lat="46.74071" lon="6.45662"><ele></ele><time>2024-11-24T11:53:29Z</time></trkpt>
<trkpt lat="46.74072" lon="6.45661"><ele></ele><time>2024-11-24T11:53:32Z</time></trkpt>
<trkpt lat="46.74079" lon="6.45657"><ele></ele><time>2024-11-24T11:53:35Z</time></trkpt>
<trkpt lat="46.74086" lon="6.45656"><ele></ele><time>2024-11-24T11:53:38Z</time></trkpt>
<trkpt lat="46.74087" lon="6.45655"><ele></ele><time>2024-11-24T11:53:41Z</time></trkpt>
<trkpt lat="46.74092" lon="6.4565"><ele></ele><time>2024-11-24T11:53:44Z</time></trkpt>
<trkpt lat="46.74093" lon="6.4565"><ele></ele><time>2024-11-24T11:53:47Z</time></trkpt>
<trkpt lat="46.741" lon="6.45648"><ele></ele><time>2024-11-24T11:53:50Z</time></trkpt>
<trkpt lat="46.74108" lon="6.4565"><ele></ele><time>2024-11-24T11:53:53Z</time></trkpt>
<trkpt lat="46.74114" lon="6.4565"><ele></ele><time>2024-11-24T11:53:56Z</time></trkpt>
<trkpt lat="46.74115" lon="6.45651"><ele></ele><time>2024-11-24T11:53:59Z</time></trkpt>
<trkpt lat="46.74122" lon="6.45653"><ele></ele><time>2024-11-24T11:54:2Z</time></trkpt>
<trkpt lat="46.74127" lon="6.45658"><ele></ele><time>2024-11-24T11:54:5Z</time></trkpt>
<trkpt lat="46.74128" lon="6.45659"><ele></ele><time>2024-11-24T11:54:8Z</time></trkpt>
<trkpt lat="46.74128" lon="6.4566"><ele></ele><time>2024-11-24T11:54:11Z</time></trkpt>
<trkpt lat="46.7413" lon="6.45665"><ele></ele><time>2024-11-24T11:54:14Z</time></trkpt>
<trkpt lat="46.74134" lon="6.45673"><ele></ele><time>2024-11-24T11:54:17Z</time></trkpt>
<trkpt lat="46.74136" lon="6.45676"><ele></ele><time>2024-11-24T11:54:20Z</time></trkpt>
<trkpt lat="46.7414" lon="6.45679"><ele></ele><time>2024-11-24T11:54:23Z</time></trkpt>
<trkpt lat="46.74141" lon="6.4568"><ele></ele><time>2024-11-24T11:54:26Z</time></trkpt>
<trkpt lat="46.74142" lon="6.45681"><ele></ele><time>2024-11-24T11:54:29Z</time></trkpt>
<trkpt lat="46.74143" lon="6.45682"><ele></ele><time>2024-11-24T11:54:32Z</time></trkpt>
<trkpt lat="46.74144" lon="6.45684"><ele></ele><time>2024-11-24T11:54:35Z</time></trkpt>
<trkpt lat="46.74148" lon="6.45687"><ele></ele><time>2024-11-24T11:54:38Z</time></trkpt>
<trkpt lat="46.7415" lon="6.45689"><ele></ele><time>2024-11-24T11:54:41Z</time></trkpt>
<trkpt lat="46.74156" lon="6.45696"><ele></ele><time>2024-11-24T11:54:44Z</time></trkpt>
<trkpt lat="46.74157" lon="6.45696"><ele></ele><time>2024-11-24T11:54:47Z</time></trkpt>
<trkpt lat="46.74164" lon="6.45694"><ele></ele><time>2024-11-24T11:54:50Z</time></trkpt>
<trkpt lat="46.74165" lon="6.45694"><ele></ele><time>2024-11-24T11:54:53Z</time></trkpt>
<trkpt lat="46.74174" lon="6.45688"><ele></ele><time>2024-11-24T11:54:56Z</time></trkpt>
<trkpt lat="46.74175" lon="6.45687"><ele></ele><time>2024-11-24T11:54:59Z</time></trkpt>
<trkpt lat="46.74178" lon="6.45684"><ele></ele><time>2024-11-24T11:55:2Z</time></trkpt>
<trkpt lat="46.74182" lon="6.45678"><ele></ele><time>2024-11-24T11:55:5Z</time></trkpt>
<trkpt lat="46.74184" lon="6.45676"><ele></ele><time>2024-11-24T11:55:8Z</time></trkpt>
<trkpt lat="46.7419" lon="6.45665"><ele></ele><time>2024-11-24T11:55:11Z</time></trkpt>
<trkpt lat="46.74193" lon="6.45655"><ele></ele><time>2024-11-24T11:55:14Z</time></trkpt>
<trkpt lat="46.74194" lon="6.45653"><ele></ele><time>2024-11-24T11:55:17Z</time></trkpt>
<trkpt lat="46.74196" lon="6.45639"><ele></ele><time>2024-11-24T11:55:20Z</time></trkpt>
<trkpt lat="46.74194" lon="6.45623"><ele></ele><time>2024-11-24T11:55:23Z</time></trkpt>
<trkpt lat="46.74195" lon="6.45614"><ele></ele><time>2024-11-24T11:55:26Z</time></trkpt>
<trkpt lat="46.74196" lon="6.45602"><ele></ele><time>2024-11-24T11:55:29Z</time></trkpt>
<trkpt lat="46.74198" lon="6.45593"><ele></ele><time>2024-11-24T11:55:32Z</time></trkpt>
<trkpt lat="46.742" lon="6.45581"><ele></ele><time>2024-11-24T11:55:35Z</time></trkpt>
<trkpt lat="46.74202" lon="6.45564"><ele></ele><time>2024-11-24T11:55:38Z</time></trkpt>
<trkpt lat="46.74202" lon="6.45562"><ele></ele><time>2024-11-24T11:55:41Z</time></trkpt>
<trkpt lat="46.74203" lon="6.45542"><ele></ele><time>2024-11-24T11:55:44Z</time></trkpt>
<trkpt lat="46.74203" lon="6.4554"><ele></ele><time>2024-11-24T11:55:47Z</time></trkpt>
<trkpt lat="46.74206" lon="6.45521"><ele></ele><time>2024-11-24T11:55:50Z</time></trkpt>
<trkpt lat="46.74206" lon="6.45519"><ele></ele><time>2024-11-24T11:55:53Z</time></trkpt>
<trkpt lat="46.74207" lon="6.45508"><ele></ele><time>2024-11-24T11:55:56Z</time></trkpt>
<trkpt lat="46.74209" lon="6.45497"><ele></ele><time>2024-11-24T11:55:59Z</time></trkpt>
<trkpt lat="46.7421" lon="6.45486"><ele></ele><time>2024-11-24T11:56:2Z</time></trkpt>
<trkpt lat="46.74211" lon="6.45478"><ele></ele><time>2024-11-24T11:56:5Z</time></trkpt>
<trkpt lat="46.74213" lon="6.45459"><ele></ele><time>2024-11-24T11:56:8Z</time></trkpt>
<trkpt lat="46.74214" lon="6.45441"><ele></ele><time>2024-11-24T11:56:11Z</time></trkpt>
<trkpt lat="46.74214" lon="6.45438"><ele></ele><time>2024-11-24T11:56:14Z</time></trkpt>
<trkpt lat="46.74215" lon="6.45419"><ele></ele><time>2024-11-24T11:56:17Z</time></trkpt>
<trkpt lat="46.74215" lon="6.45417"><ele></ele><time>2024-11-24T11:56:20Z</time></trkpt>
<trkpt lat="46.74215" lon="6.45401"><ele></ele><time>2024-11-24T11:56:23Z</time></trkpt>
<trkpt lat="46.74214" lon="6.45398"><ele></ele><time>2024-11-24T11:56:26Z</time></trkpt>
<trkpt lat="46.74214" lon="6.45388"><ele></ele><time>2024-11-24T11:56:29Z</time></trkpt>
<trkpt lat="46.74215" lon="6.45383"><ele></ele><time>2024-11-24T11:56:32Z</time></trkpt>
<trkpt lat="46.74214" lon="6.45374"><ele></ele><time>2024-11-24T11:56:35Z</time></trkpt>
<trkpt lat="46.74213" lon="6.45365"><ele></ele><time>2024-11-24T11:56:38Z</time></trkpt>
<trkpt lat="46.74213" lon="6.45361"><ele></ele><time>2024-11-24T11:56:41Z</time></trkpt>
<trkpt lat="46.74214" lon="6.45347"><ele></ele><time>2024-11-24T11:56:44Z</time></trkpt>
<trkpt lat="46.74214" lon="6.45343"><ele></ele><time>2024-11-24T11:56:47Z</time></trkpt>
<trkpt lat="46.74214" lon="6.45336"><ele></ele><time>2024-11-24T11:56:50Z</time></trkpt>
<trkpt lat="46.74214" lon="6.45332"><ele></ele><time>2024-11-24T11:56:53Z</time></trkpt>
<trkpt lat="46.74215" lon="6.45325"><ele></ele><time>2024-11-24T11:56:56Z</time></trkpt>
<trkpt lat="46.74217" lon="6.45314"><ele></ele><time>2024-11-24T11:56:59Z</time></trkpt>
<trkpt lat="46.74217" lon="6.4531"><ele></ele><time>2024-11-24T11:57:2Z</time></trkpt>
<trkpt lat="46.74217" lon="6.45298"><ele></ele><time>2024-11-24T11:57:5Z</time></trkpt>
<trkpt lat="46.74217" lon="6.45296"><ele></ele><time>2024-11-24T11:57:8Z</time></trkpt>
<trkpt lat="46.74218" lon="6.45282"><ele></ele><time>2024-11-24T11:57:11Z</time></trkpt>
<trkpt lat="46.74219" lon="6.45278"><ele></ele><time>2024-11-24T11:57:14Z</time></trkpt>
<trkpt lat="46.74218" lon="6.45267"><ele></ele><time>2024-11-24T11:57:17Z</time></trkpt>
<trkpt lat="46.74218" lon="6.45265"><ele></ele><time>2024-11-24T11:57:20Z</time></trkpt>
<trkpt lat="46.74216" lon="6.45253"><ele></ele><time>2024-11-24T11:57:23Z</time></trkpt>
<trkpt lat="46.74217" lon="6.45251"><ele></ele><time>2024-11-24T11:57:26Z</time></trkpt>
<trkpt lat="46.74217" lon="6.45249"><ele></ele><time>2024-11-24T11:57:29Z</time></trkpt>
<trkpt lat="46.74215" lon="6.45236"><ele></ele><time>2024-11-24T11:57:32Z</time></trkpt>
<trkpt lat="46.74215" lon="6.45234"><ele></ele><time>2024-11-24T11:57:35Z</time></trkpt>
<trkpt lat="46.74215" lon="6.45222"><ele></ele><time>2024-11-24T11:57:38Z</time></trkpt>
<trkpt lat="46.74215" lon="6.4522"><ele></ele><time>2024-11-24T11:57:41Z</time></trkpt>
<trkpt lat="46.74214" lon="6.45208"><ele></ele><time>2024-11-24T11:57:44Z</time></trkpt>
<trkpt lat="46.74213" lon="6.45197"><ele></ele><time>2024-11-24T11:57:47Z</time></trkpt>
<trkpt lat="46.74213" lon="6.45192"><ele></ele><time>2024-11-24T11:57:50Z</time></trkpt>
<trkpt lat="46.74213" lon="6.45179"><ele></ele><time>2024-11-24T11:57:53Z</time></trkpt>
<trkpt lat="46.74212" lon="6.45177"><ele></ele><time>2024-11-24T11:57:56Z</time></trkpt>
<trkpt lat="46.74211" lon="6.45164"><ele></ele><time>2024-11-24T11:57:59Z</time></trkpt>
<trkpt lat="46.74211" lon="6.45159"><ele></ele><time>2024-11-24T11:58:2Z</time></trkpt>
<trkpt lat="46.74209" lon="6.4515"><ele></ele><time>2024-11-24T11:58:5Z</time></trkpt>
<trkpt lat="46.74207" lon="6.45138"><ele></ele><time>2024-11-24T11:58:8Z</time></trkpt>
<trkpt lat="46.74205" lon="6.45135"><ele></ele><time>2024-11-24T11:58:11Z</time></trkpt>
<trkpt lat="46.74204" lon="6.45125"><ele></ele><time>2024-11-24T11:58:14Z</time></trkpt>
<trkpt lat="46.74203" lon="6.45118"><ele></ele><time>2024-11-24T11:58:17Z</time></trkpt>
<trkpt lat="46.74201" lon="6.4511"><ele></ele><time>2024-11-24T11:58:20Z</time></trkpt>
<trkpt lat="46.74196" lon="6.45095"><ele></ele><time>2024-11-24T11:58:23Z</time></trkpt>
<trkpt lat="46.74193" lon="6.45078"><ele></ele><time>2024-11-24T11:58:26Z</time></trkpt>
<trkpt lat="46.74191" lon="6.45068"><ele></ele><time>2024-11-24T11:58:29Z</time></trkpt>
<trkpt lat="46.7419" lon="6.45061"><ele></ele><time>2024-11-24T11:58:32Z</time></trkpt>
<trkpt lat="46.74187" lon="6.45051"><ele></ele><time>2024-11-24T11:58:35Z</time></trkpt>
<trkpt lat="46.74185" lon="6.45046"><ele></ele><time>2024-11-24T11:58:38Z</time></trkpt>
<trkpt lat="46.74181" lon="6.45035"><ele></ele><time>2024-11-24T11:58:41Z</time></trkpt>
<trkpt lat="46.74179" lon="6.45027"><ele></ele><time>2024-11-24T11:58:44Z</time></trkpt>
<trkpt lat="46.74178" lon="6.45014"><ele></ele><time>2024-11-24T11:58:47Z</time></trkpt>
<trkpt lat="46.74179" lon="6.45012"><ele></ele><time>2024-11-24T11:58:50Z</time></trkpt>
<trkpt lat="46.74175" lon="6.44997"><ele></ele><time>2024-11-24T11:58:53Z</time></trkpt>
<trkpt lat="46.74175" lon="6.44995"><ele></ele><time>2024-11-24T11:58:56Z</time></trkpt>
<trkpt lat="46.74172" lon="6.44977"><ele></ele><time>2024-11-24T11:58:59Z</time></trkpt>
<trkpt lat="46.74171" lon="6.4497"><ele></ele><time>2024-11-24T11:59:2Z</time></trkpt>
<trkpt lat="46.74168" lon="6.44961"><ele></ele><time>2024-11-24T11:59:5Z</time></trkpt>
<trkpt lat="46.74167" lon="6.44956"><ele></ele><time>2024-11-24T11:59:8Z</time></trkpt>
<trkpt lat="46.74165" lon="6.44949"><ele></ele><time>2024-11-24T11:59:11Z</time></trkpt>
<trkpt lat="46.74164" lon="6.44946"><ele></ele><time>2024-11-24T11:59:14Z</time></trkpt>
<trkpt lat="46.74159" lon="6.44929"><ele></ele><time>2024-11-24T11:59:17Z</time></trkpt>
<trkpt lat="46.74158" lon="6.44925"><ele></ele><time>2024-11-24T11:59:20Z</time></trkpt>
<trkpt lat="46.74155" lon="6.44918"><ele></ele><time>2024-11-24T11:59:23Z</time></trkpt>
<trkpt lat="46.74151" lon="6.44901"><ele></ele><time>2024-11-24T11:59:26Z</time></trkpt>
<trkpt lat="46.74146" lon="6.44889"><ele></ele><time>2024-11-24T11:59:29Z</time></trkpt>
<trkpt lat="46.74145" lon="6.44884"><ele></ele><time>2024-11-24T11:59:32Z</time></trkpt>
<trkpt lat="46.74143" lon="6.44874"><ele></ele><time>2024-11-24T11:59:35Z</time></trkpt>
<trkpt lat="46.74141" lon="6.44863"><ele></ele><time>2024-11-24T11:59:38Z</time></trkpt>
<trkpt lat="46.74141" lon="6.4486"><ele></ele><time>2024-11-24T11:59:41Z</time></trkpt>
<trkpt lat="46.74143" lon="6.4485"><ele></ele><time>2024-11-24T11:59:44Z</time></trkpt>
<trkpt lat="46.74146" lon="6.44845"><ele></ele><time>2024-11-24T11:59:47Z</time></trkpt>
<trkpt lat="46.74149" lon="6.44842"><ele></ele><time>2024-11-24T11:59:50Z</time></trkpt>
<trkpt lat="46.74155" lon="6.44842"><ele></ele><time>2024-11-24T11:59:53Z</time></trkpt>
<trkpt lat="46.74159" lon="6.44844"><ele></ele><time>2024-11-24T11:59:56Z</time></trkpt>
<trkpt lat="46.74165" lon="6.44854"><ele></ele><time>2024-11-24T11:59:59Z</time></trkpt>
<trkpt lat="46.74172" lon="6.44865"><ele></ele><time>2024-11-24T12:0:2Z</time></trkpt>
<trkpt lat="46.74176" lon="6.44873"><ele></ele><time>2024-11-24T12:0:5Z</time></trkpt>
<trkpt lat="46.74182" lon="6.44884"><ele></ele><time>2024-11-24T12:0:8Z</time></trkpt>
<trkpt lat="46.74187" lon="6.44889"><ele></ele><time>2024-11-24T12:0:11Z</time></trkpt>
<trkpt lat="46.74194" lon="6.44899"><ele></ele><time>2024-11-24T12:0:14Z</time></trkpt>
<trkpt lat="46.74197" lon="6.44903"><ele></ele><time>2024-11-24T12:0:17Z</time></trkpt>
<trkpt lat="46.74205" lon="6.44911"><ele></ele><time>2024-11-24T12:0:20Z</time></trkpt>
<trkpt lat="46.74212" lon="6.44918"><ele></ele><time>2024-11-24T12:0:23Z</time></trkpt>
<trkpt lat="46.74216" lon="6.44923"><ele></ele><time>2024-11-24T12:0:26Z</time></trkpt>
<trkpt lat="46.74224" lon="6.44933"><ele></ele><time>2024-11-24T12:0:29Z</time></trkpt>
<trkpt lat="46.74229" lon="6.44936"><ele></ele><time>2024-11-24T12:0:32Z</time></trkpt>
<trkpt lat="46.74236" lon="6.44944"><ele></ele><time>2024-11-24T12:0:35Z</time></trkpt>
<trkpt lat="46.74237" lon="6.44946"><ele></ele><time>2024-11-24T12:0:38Z</time></trkpt>
<trkpt lat="46.74247" lon="6.44954"><ele></ele><time>2024-11-24T12:0:41Z</time></trkpt>
<trkpt lat="46.7425" lon="6.44957"><ele></ele><time>2024-11-24T12:0:44Z</time></trkpt>
<trkpt lat="46.74256" lon="6.44964"><ele></ele><time>2024-11-24T12:0:47Z</time></trkpt>
<trkpt lat="46.74259" lon="6.44966"><ele></ele><time>2024-11-24T12:0:50Z</time></trkpt>
<trkpt lat="46.74266" lon="6.44973"><ele></ele><time>2024-11-24T12:0:53Z</time></trkpt>
<trkpt lat="46.74269" lon="6.44975"><ele></ele><time>2024-11-24T12:0:56Z</time></trkpt>
<trkpt lat="46.74277" lon="6.44984"><ele></ele><time>2024-11-24T12:0:59Z</time></trkpt>
<trkpt lat="46.74279" lon="6.44985"><ele></ele><time>2024-11-24T12:1:2Z</time></trkpt>
<trkpt lat="46.7429" lon="6.44995"><ele></ele><time>2024-11-24T12:1:5Z</time></trkpt>
<trkpt lat="46.74301" lon="6.45006"><ele></ele><time>2024-11-24T12:1:8Z</time></trkpt>
<trkpt lat="46.7431" lon="6.45015"><ele></ele><time>2024-11-24T12:1:11Z</time></trkpt>
<trkpt lat="46.74313" lon="6.45018"><ele></ele><time>2024-11-24T12:1:14Z</time></trkpt>
<trkpt lat="46.74318" lon="6.45022"><ele></ele><time>2024-11-24T12:1:17Z</time></trkpt>
<trkpt lat="46.74324" lon="6.45029"><ele></ele><time>2024-11-24T12:1:20Z</time></trkpt>
<trkpt lat="46.74331" lon="6.45035"><ele></ele><time>2024-11-24T12:1:23Z</time></trkpt>
<trkpt lat="46.74334" lon="6.4504"><ele></ele><time>2024-11-24T12:1:26Z</time></trkpt>
<trkpt lat="46.74339" lon="6.45047"><ele></ele><time>2024-11-24T12:1:29Z</time></trkpt>
<trkpt lat="46.74344" lon="6.45053"><ele></ele><time>2024-11-24T12:1:32Z</time></trkpt>
<trkpt lat="46.74348" lon="6.45056"><ele></ele><time>2024-11-24T12:1:35Z</time></trkpt>
<trkpt lat="46.74356" lon="6.45062"><ele></ele><time>2024-11-24T12:1:38Z</time></trkpt>
<trkpt lat="46.74363" lon="6.45066"><ele></ele><time>2024-11-24T12:1:41Z</time></trkpt>
<trkpt lat="46.74364" lon="6.45067"><ele></ele><time>2024-11-24T12:1:44Z</time></trkpt>
<trkpt lat="46.74373" lon="6.45069"><ele></ele><time>2024-11-24T12:1:47Z</time></trkpt>
<trkpt lat="46.74374" lon="6.45069"><ele></ele><time>2024-11-24T12:1:50Z</time></trkpt>
<trkpt lat="46.74379" lon="6.45072"><ele></ele><time>2024-11-24T12:1:53Z</time></trkpt>
<trkpt lat="46.74383" lon="6.45072"><ele></ele><time>2024-11-24T12:1:56Z</time></trkpt>
<trkpt lat="46.74389" lon="6.45071"><ele></ele><time>2024-11-24T12:1:59Z</time></trkpt>
<trkpt lat="46.74391" lon="6.45071"><ele></ele><time>2024-11-24T12:2:2Z</time></trkpt>
<trkpt lat="46.74396" lon="6.45073"><ele></ele><time>2024-11-24T12:2:5Z</time></trkpt>
<trkpt lat="46.74399" lon="6.45075"><ele></ele><time>2024-11-24T12:2:8Z</time></trkpt>
<trkpt lat="46.74404" lon="6.45079"><ele></ele><time>2024-11-24T12:2:11Z</time></trkpt>
<trkpt lat="46.74407" lon="6.45082"><ele></ele><time>2024-11-24T12:2:14Z</time></trkpt>
<trkpt lat="46.74414" lon="6.45087"><ele></ele><time>2024-11-24T12:2:17Z</time></trkpt>
<trkpt lat="46.74416" lon="6.45089"><ele></ele><time>2024-11-24T12:2:20Z</time></trkpt>
<trkpt lat="46.7442" lon="6.45093"><ele></ele><time>2024-11-24T12:2:23Z</time></trkpt>
<trkpt lat="46.74425" lon="6.45099"><ele></ele><time>2024-11-24T12:2:26Z</time></trkpt>
<trkpt lat="46.74426" lon="6.45102"><ele></ele><time>2024-11-24T12:2:29Z</time></trkpt>
<trkpt lat="46.74431" lon="6.45111"><ele></ele><time>2024-11-24T12:2:32Z</time></trkpt>
<trkpt lat="46.74434" lon="6.45117"><ele></ele><time>2024-11-24T12:2:35Z</time></trkpt>
<trkpt lat="46.7444" lon="6.45124"><ele></ele><time>2024-11-24T12:2:38Z</time></trkpt>
<trkpt lat="46.74443" lon="6.45129"><ele></ele><time>2024-11-24T12:2:41Z</time></trkpt>
<trkpt lat="46.74447" lon="6.45136"><ele></ele><time>2024-11-24T12:2:44Z</time></trkpt>
<trkpt lat="46.74452" lon="6.4514"><ele></ele><time>2024-11-24T12:2:47Z</time></trkpt>
<trkpt lat="46.74456" lon="6.45143"><ele></ele><time>2024-11-24T12:2:50Z</time></trkpt>
<trkpt lat="46.74465" lon="6.45146"><ele></ele><time>2024-11-24T12:2:53Z</time></trkpt>
<trkpt lat="46.74468" lon="6.45146"><ele></ele><time>2024-11-24T12:2:56Z</time></trkpt>
<trkpt lat="46.74477" lon="6.45147"><ele></ele><time>2024-11-24T12:2:59Z</time></trkpt>
<trkpt lat="46.74479" lon="6.45147"><ele></ele><time>2024-11-24T12:3:2Z</time></trkpt>
<trkpt lat="46.74487" lon="6.45153"><ele></ele><time>2024-11-24T12:3:5Z</time></trkpt>
<trkpt lat="46.74488" lon="6.45154"><ele></ele><time>2024-11-24T12:3:8Z</time></trkpt>
<trkpt lat="46.74495" lon="6.45162"><ele></ele><time>2024-11-24T12:3:11Z</time></trkpt>
<trkpt lat="46.745" lon="6.4517"><ele></ele><time>2024-11-24T12:3:14Z</time></trkpt>
<trkpt lat="46.74502" lon="6.45174"><ele></ele><time>2024-11-24T12:3:17Z</time></trkpt>
<trkpt lat="46.74507" lon="6.45182"><ele></ele><time>2024-11-24T12:3:20Z</time></trkpt>
<trkpt lat="46.74509" lon="6.45187"><ele></ele><time>2024-11-24T12:3:23Z</time></trkpt>
<trkpt lat="46.74512" lon="6.45192"><ele></ele><time>2024-11-24T12:3:26Z</time></trkpt>
<trkpt lat="46.74517" lon="6.452"><ele></ele><time>2024-11-24T12:3:29Z</time></trkpt>
<trkpt lat="46.7452" lon="6.45202"><ele></ele><time>2024-11-24T12:3:32Z</time></trkpt>
<trkpt lat="46.74525" lon="6.45208"><ele></ele><time>2024-11-24T12:3:35Z</time></trkpt>
<trkpt lat="46.74529" lon="6.45212"><ele></ele><time>2024-11-24T12:3:38Z</time></trkpt>
<trkpt lat="46.74534" lon="6.45219"><ele></ele><time>2024-11-24T12:3:41Z</time></trkpt>
<trkpt lat="46.74535" lon="6.4522"><ele></ele><time>2024-11-24T12:3:44Z</time></trkpt>
<trkpt lat="46.74543" lon="6.45227"><ele></ele><time>2024-11-24T12:3:47Z</time></trkpt>
<trkpt lat="46.74551" lon="6.45232"><ele></ele><time>2024-11-24T12:3:50Z</time></trkpt>
<trkpt lat="46.74554" lon="6.45235"><ele></ele><time>2024-11-24T12:3:53Z</time></trkpt>
<trkpt lat="46.74556" lon="6.45236"><ele></ele><time>2024-11-24T12:3:56Z</time></trkpt>
<trkpt lat="46.7456" lon="6.4524"><ele></ele><time>2024-11-24T12:3:59Z</time></trkpt>
<trkpt lat="46.74563" lon="6.45242"><ele></ele><time>2024-11-24T12:4:2Z</time></trkpt>
<trkpt lat="46.74569" lon="6.45246"><ele></ele><time>2024-11-24T12:4:5Z</time></trkpt>
<trkpt lat="46.74573" lon="6.45247"><ele></ele><time>2024-11-24T12:4:8Z</time></trkpt>
<trkpt lat="46.74578" lon="6.45248"><ele></ele><time>2024-11-24T12:4:11Z</time></trkpt>
<trkpt lat="46.74584" lon="6.45251"><ele></ele><time>2024-11-24T12:4:14Z</time></trkpt>
<trkpt lat="46.74588" lon="6.45251"><ele></ele><time>2024-11-24T12:4:17Z</time></trkpt>
<trkpt lat="46.74593" lon="6.45249"><ele></ele><time>2024-11-24T12:4:20Z</time></trkpt>
<trkpt lat="46.74597" lon="6.45253"><ele></ele><time>2024-11-24T12:4:23Z</time></trkpt>
<trkpt lat="46.74599" lon="6.45254"><ele></ele><time>2024-11-24T12:4:26Z</time></trkpt>
<trkpt lat="46.74607" lon="6.45256"><ele></ele><time>2024-11-24T12:4:29Z</time></trkpt>
<trkpt lat="46.74611" lon="6.45255"><ele></ele><time>2024-11-24T12:4:32Z</time></trkpt>
<trkpt lat="46.74618" lon="6.45256"><ele></ele><time>2024-11-24T12:4:35Z</time></trkpt>
<trkpt lat="46.74625" lon="6.45256"><ele></ele><time>2024-11-24T12:4:38Z</time></trkpt>
<trkpt lat="46.74627" lon="6.45255"><ele></ele><time>2024-11-24T12:4:41Z</time></trkpt>
<trkpt lat="46.74635" lon="6.45255"><ele></ele><time>2024-11-24T12:4:44Z</time></trkpt>
<trkpt lat="46.74636" lon="6.45255"><ele></ele><time>2024-11-24T12:4:47Z</time></trkpt>
<trkpt lat="46.74644" lon="6.45253"><ele></ele><time>2024-11-24T12:4:50Z</time></trkpt>
<trkpt lat="46.74648" lon="6.45252"><ele></ele><time>2024-11-24T12:4:53Z</time></trkpt>
<trkpt lat="46.74653" lon="6.45251"><ele></ele><time>2024-11-24T12:4:56Z</time></trkpt>
<trkpt lat="46.7466" lon="6.4525"><ele></ele><time>2024-11-24T12:4:59Z</time></trkpt>
<trkpt lat="46.74664" lon="6.45249"><ele></ele><time>2024-11-24T12:5:2Z</time></trkpt>
<trkpt lat="46.74674" lon="6.45245"><ele></ele><time>2024-11-24T12:5:5Z</time></trkpt>
<trkpt lat="46.74684" lon="6.45246"><ele></ele><time>2024-11-24T12:5:8Z</time></trkpt>
<trkpt lat="46.74692" lon="6.45259"><ele></ele><time>2024-11-24T12:5:11Z</time></trkpt>
<trkpt lat="46.74693" lon="6.45263"><ele></ele><time>2024-11-24T12:5:14Z</time></trkpt>
<trkpt lat="46.74695" lon="6.45268"><ele></ele><time>2024-11-24T12:5:17Z</time></trkpt>
<trkpt lat="46.74697" lon="6.45274"><ele></ele><time>2024-11-24T12:5:20Z</time></trkpt>
<trkpt lat="46.747" lon="6.45281"><ele></ele><time>2024-11-24T12:5:23Z</time></trkpt>
<trkpt lat="46.747" lon="6.45296"><ele></ele><time>2024-11-24T12:5:26Z</time></trkpt>
<trkpt lat="46.747" lon="6.45298"><ele></ele><time>2024-11-24T12:5:29Z</time></trkpt>
<trkpt lat="46.74701" lon="6.45309"><ele></ele><time>2024-11-24T12:5:32Z</time></trkpt>
<trkpt lat="46.74703" lon="6.45314"><ele></ele><time>2024-11-24T12:5:35Z</time></trkpt>
<trkpt lat="46.74705" lon="6.4532"><ele></ele><time>2024-11-24T12:5:38Z</time></trkpt>
<trkpt lat="46.74709" lon="6.45333"><ele></ele><time>2024-11-24T12:5:41Z</time></trkpt>
<trkpt lat="46.74713" lon="6.45345"><ele></ele><time>2024-11-24T12:5:44Z</time></trkpt>
<trkpt lat="46.74716" lon="6.45349"><ele></ele><time>2024-11-24T12:5:47Z</time></trkpt>
<trkpt lat="46.7472" lon="6.45354"><ele></ele><time>2024-11-24T12:5:50Z</time></trkpt>
<trkpt lat="46.74721" lon="6.45356"><ele></ele><time>2024-11-24T12:5:53Z</time></trkpt>
<trkpt lat="46.74725" lon="6.45363"><ele></ele><time>2024-11-24T12:5:56Z</time></trkpt>
<trkpt lat="46.74726" lon="6.45366"><ele></ele><time>2024-11-24T12:5:59Z</time></trkpt>
<trkpt lat="46.74733" lon="6.45376"><ele></ele><time>2024-11-24T12:6:2Z</time></trkpt>
<trkpt lat="46.74733" lon="6.45378"><ele></ele><time>2024-11-24T12:6:5Z</time></trkpt>
<trkpt lat="46.74736" lon="6.45389"><ele></ele><time>2024-11-24T12:6:8Z</time></trkpt>
<trkpt lat="46.74735" lon="6.45393"><ele></ele><time>2024-11-24T12:6:11Z</time></trkpt>
<trkpt lat="46.74734" lon="6.45403"><ele></ele><time>2024-11-24T12:6:14Z</time></trkpt>
<trkpt lat="46.74733" lon="6.45409"><ele></ele><time>2024-11-24T12:6:17Z</time></trkpt>
<trkpt lat="46.7473" lon="6.45414"><ele></ele><time>2024-11-24T12:6:20Z</time></trkpt>
<trkpt lat="46.7473" lon="6.45418"><ele></ele><time>2024-11-24T12:6:23Z</time></trkpt>
<trkpt lat="46.74729" lon="6.45421"><ele></ele><time>2024-11-24T12:6:26Z</time></trkpt>
<trkpt lat="46.74727" lon="6.45426"><ele></ele><time>2024-11-24T12:6:29Z</time></trkpt>
<trkpt lat="46.74727" lon="6.45435"><ele></ele><time>2024-11-24T12:6:32Z</time></trkpt>
<trkpt lat="46.74726" lon="6.45437"><ele></ele><time>2024-11-24T12:6:35Z</time></trkpt>
<trkpt lat="46.74724" lon="6.45443"><ele></ele><time>2024-11-24T12:6:38Z</time></trkpt>
<trkpt lat="46.74724" lon="6.45446"><ele></ele><time>2024-11-24T12:6:41Z</time></trkpt>
<trkpt lat="46.74727" lon="6.45451"><ele></ele><time>2024-11-24T12:6:44Z</time></trkpt>
<trkpt lat="46.74728" lon="6.45453"><ele></ele><time>2024-11-24T12:6:47Z</time></trkpt>
<trkpt lat="46.74731" lon="6.45458"><ele></ele><time>2024-11-24T12:6:50Z</time></trkpt>
<trkpt lat="46.74732" lon="6.45461"><ele></ele><time>2024-11-24T12:6:53Z</time></trkpt>
<trkpt lat="46.74733" lon="6.45464"><ele></ele><time>2024-11-24T12:6:56Z</time></trkpt>
<trkpt lat="46.74735" lon="6.45466"><ele></ele><time>2024-11-24T12:6:59Z</time></trkpt>
<trkpt lat="46.74738" lon="6.45471"><ele></ele><time>2024-11-24T12:7:2Z</time></trkpt>
<trkpt lat="46.74739" lon="6.45473"><ele></ele><time>2024-11-24T12:7:5Z</time></trkpt>
<trkpt lat="46.74743" lon="6.45475"><ele></ele><time>2024-11-24T12:7:8Z</time></trkpt>
<trkpt lat="46.74746" lon="6.4548"><ele></ele><time>2024-11-24T12:7:11Z</time></trkpt>
<trkpt lat="46.74747" lon="6.45483"><ele></ele><time>2024-11-24T12:7:14Z</time></trkpt>
<trkpt lat="46.74749" lon="6.45488"><ele></ele><time>2024-11-24T12:7:17Z</time></trkpt>
<trkpt lat="46.74751" lon="6.45491"><ele></ele><time>2024-11-24T12:7:20Z</time></trkpt>
<trkpt lat="46.74754" lon="6.45495"><ele></ele><time>2024-11-24T12:7:23Z</time></trkpt>
<trkpt lat="46.74754" lon="6.45497"><ele></ele><time>2024-11-24T12:7:26Z</time></trkpt>
<trkpt lat="46.74756" lon="6.45505"><ele></ele><time>2024-11-24T12:7:29Z</time></trkpt>
<trkpt lat="46.74758" lon="6.45508"><ele></ele><time>2024-11-24T12:7:32Z</time></trkpt>
<trkpt lat="46.7476" lon="6.45511"><ele></ele><time>2024-11-24T12:7:35Z</time></trkpt>
<trkpt lat="46.74761" lon="6.45518"><ele></ele><time>2024-11-24T12:7:38Z</time></trkpt>
<trkpt lat="46.74762" lon="6.45521"><ele></ele><time>2024-11-24T12:7:41Z</time></trkpt>
<trkpt lat="46.74762" lon="6.45522"><ele></ele><time>2024-11-24T12:7:44Z</time></trkpt>
<trkpt lat="46.74764" lon="6.45525"><ele></ele><time>2024-11-24T12:7:47Z</time></trkpt>
<trkpt lat="46.74768" lon="6.45529"><ele></ele><time>2024-11-24T12:7:50Z</time></trkpt>
<trkpt lat="46.7477" lon="6.45531"><ele></ele><time>2024-11-24T12:7:53Z</time></trkpt>
<trkpt lat="46.74774" lon="6.45533"><ele></ele><time>2024-11-24T12:7:56Z</time></trkpt>
<trkpt lat="46.74776" lon="6.45535"><ele></ele><time>2024-11-24T12:7:59Z</time></trkpt>
<trkpt lat="46.7478" lon="6.45536"><ele></ele><time>2024-11-24T12:8:2Z</time></trkpt>
<trkpt lat="46.74785" lon="6.45537"><ele></ele><time>2024-11-24T12:8:5Z</time></trkpt>
<trkpt lat="46.74788" lon="6.45537"><ele></ele><time>2024-11-24T12:8:8Z</time></trkpt>
<trkpt lat="46.74797" lon="6.45535"><ele></ele><time>2024-11-24T12:8:11Z</time></trkpt>
<trkpt lat="46.74803" lon="6.45535"><ele></ele><time>2024-11-24T12:8:14Z</time></trkpt>
<trkpt lat="46.74804" lon="6.45535"><ele></ele><time>2024-11-24T12:8:17Z</time></trkpt>
<trkpt lat="46.74811" lon="6.45537"><ele></ele><time>2024-11-24T12:8:20Z</time></trkpt>
<trkpt lat="46.74812" lon="6.45537"><ele></ele><time>2024-11-24T12:8:23Z</time></trkpt>
<trkpt lat="46.74819" lon="6.4554"><ele></ele><time>2024-11-24T12:8:26Z</time></trkpt>
<trkpt lat="46.74821" lon="6.45541"><ele></ele><time>2024-11-24T12:8:29Z</time></trkpt>
<trkpt lat="46.74827" lon="6.45545"><ele></ele><time>2024-11-24T12:8:32Z</time></trkpt>
<trkpt lat="46.74832" lon="6.45555"><ele></ele><time>2024-11-24T12:8:35Z</time></trkpt>
<trkpt lat="46.74832" lon="6.45556"><ele></ele><time>2024-11-24T12:8:38Z</time></trkpt>
<trkpt lat="46.74834" lon="6.45564"><ele></ele><time>2024-11-24T12:8:41Z</time></trkpt>
<trkpt lat="46.74835" lon="6.45575"><ele></ele><time>2024-11-24T12:8:44Z</time></trkpt>
<trkpt lat="46.74835" lon="6.4558"><ele></ele><time>2024-11-24T12:8:47Z</time></trkpt>
<trkpt lat="46.74835" lon="6.45587"><ele></ele><time>2024-11-24T12:8:50Z</time></trkpt>
<trkpt lat="46.74835" lon="6.45592"><ele></ele><time>2024-11-24T12:8:53Z</time></trkpt>
<trkpt lat="46.74835" lon="6.45598"><ele></ele><time>2024-11-24T12:8:56Z</time></trkpt>
<trkpt lat="46.74835" lon="6.45602"><ele></ele><time>2024-11-24T12:8:59Z</time></trkpt>
<trkpt lat="46.74837" lon="6.45609"><ele></ele><time>2024-11-24T12:9:2Z</time></trkpt>
<trkpt lat="46.74839" lon="6.45614"><ele></ele><time>2024-11-24T12:9:5Z</time></trkpt>
<trkpt lat="46.74839" lon="6.45622"><ele></ele><time>2024-11-24T12:9:8Z</time></trkpt>
<trkpt lat="46.74841" lon="6.45626"><ele></ele><time>2024-11-24T12:9:11Z</time></trkpt>
<trkpt lat="46.74843" lon="6.45632"><ele></ele><time>2024-11-24T12:9:14Z</time></trkpt>
<trkpt lat="46.74845" lon="6.45636"><ele></ele><time>2024-11-24T12:9:17Z</time></trkpt>
<trkpt lat="46.74848" lon="6.45642"><ele></ele><time>2024-11-24T12:9:20Z</time></trkpt>
<trkpt lat="46.74851" lon="6.45647"><ele></ele><time>2024-11-24T12:9:23Z</time></trkpt>
<trkpt lat="46.74854" lon="6.45654"><ele></ele><time>2024-11-24T12:9:26Z</time></trkpt>
<trkpt lat="46.74856" lon="6.45658"><ele></ele><time>2024-11-24T12:9:29Z</time></trkpt>
<trkpt lat="46.74858" lon="6.45663"><ele></ele><time>2024-11-24T12:9:32Z</time></trkpt>
<trkpt lat="46.74861" lon="6.45668"><ele></ele><time>2024-11-24T12:9:35Z</time></trkpt>
<trkpt lat="46.74862" lon="6.45671"><ele></ele><time>2024-11-24T12:9:38Z</time></trkpt>
<trkpt lat="46.74865" lon="6.45673"><ele></ele><time>2024-11-24T12:9:41Z</time></trkpt>
<trkpt lat="46.74867" lon="6.45675"><ele></ele><time>2024-11-24T12:9:44Z</time></trkpt>
<trkpt lat="46.74869" lon="6.45674"><ele></ele><time>2024-11-24T12:9:47Z</time></trkpt>
<trkpt lat="46.74869" lon="6.45671"><ele></ele><time>2024-11-24T12:9:50Z</time></trkpt>
<trkpt lat="46.74869" lon="6.45664"><ele></ele><time>2024-11-24T12:9:53Z</time></trkpt>
<trkpt lat="46.74869" lon="6.45663"><ele></ele><time>2024-11-24T12:9:56Z</time></trkpt>
<trkpt lat="46.74869" lon="6.45655"><ele></ele><time>2024-11-24T12:9:59Z</time></trkpt>
<trkpt lat="46.74868" lon="6.45646"><ele></ele><time>2024-11-24T12:10:2Z</time></trkpt>
<trkpt lat="46.74868" lon="6.45644"><ele></ele><time>2024-11-24T12:10:5Z</time></trkpt>
<trkpt lat="46.74868" lon="6.45636"><ele></ele><time>2024-11-24T12:10:8Z</time></trkpt>
<trkpt lat="46.74868" lon="6.45633"><ele></ele><time>2024-11-24T12:10:11Z</time></trkpt>
<trkpt lat="46.74868" lon="6.45631"><ele></ele><time>2024-11-24T12:10:14Z</time></trkpt>
<trkpt lat="46.7487" lon="6.45627"><ele></ele><time>2024-11-24T12:10:17Z</time></trkpt>
<trkpt lat="46.74872" lon="6.45623"><ele></ele><time>2024-11-24T12:10:20Z</time></trkpt>
<trkpt lat="46.74874" lon="6.45617"><ele></ele><time>2024-11-24T12:10:23Z</time></trkpt>
<trkpt lat="46.74875" lon="6.45613"><ele></ele><time>2024-11-24T12:10:26Z</time></trkpt>
<trkpt lat="46.74877" lon="6.45608"><ele></ele><time>2024-11-24T12:10:29Z</time></trkpt>
<trkpt lat="46.74879" lon="6.45601"><ele></ele><time>2024-11-24T12:10:32Z</time></trkpt>
<trkpt lat="46.7488" lon="6.45596"><ele></ele><time>2024-11-24T12:10:35Z</time></trkpt>
<trkpt lat="46.74881" lon="6.45588"><ele></ele><time>2024-11-24T12:10:38Z</time></trkpt>
<trkpt lat="46.74881" lon="6.45585"><ele></ele><time>2024-11-24T12:10:41Z</time></trkpt>
<trkpt lat="46.74882" lon="6.45579"><ele></ele><time>2024-11-24T12:10:44Z</time></trkpt>
<trkpt lat="46.74882" lon="6.45577"><ele></ele><time>2024-11-24T12:10:47Z</time></trkpt>
<trkpt lat="46.74882" lon="6.45569"><ele></ele><time>2024-11-24T12:10:50Z</time></trkpt>
<trkpt lat="46.74882" lon="6.45565"><ele></ele><time>2024-11-24T12:10:53Z</time></trkpt>
<trkpt lat="46.74879" lon="6.45559"><ele></ele><time>2024-11-24T12:10:56Z</time></trkpt>
<trkpt lat="46.74878" lon="6.45553"><ele></ele><time>2024-11-24T12:10:59Z</time></trkpt>
<trkpt lat="46.74877" lon="6.45546"><ele></ele><time>2024-11-24T12:11:2Z</time></trkpt>
<trkpt lat="46.74877" lon="6.45544"><ele></ele><time>2024-11-24T12:11:5Z</time></trkpt>
<trkpt lat="46.74876" lon="6.45537"><ele></ele><time>2024-11-24T12:11:8Z</time></trkpt>
<trkpt lat="46.74875" lon="6.45534"><ele></ele><time>2024-11-24T12:11:11Z</time></trkpt>
<trkpt lat="46.74873" lon="6.45529"><ele></ele><time>2024-11-24T12:11:14Z</time></trkpt>
<trkpt lat="46.74873" lon="6.45527"><ele></ele><time>2024-11-24T12:11:17Z</time></trkpt>
<trkpt lat="46.74872" lon="6.45522"><ele></ele><time>2024-11-24T12:11:20Z</time></trkpt>
<trkpt lat="46.74873" lon="6.45518"><ele></ele><time>2024-11-24T12:11:23Z</time></trkpt>
<trkpt lat="46.74873" lon="6.45511"><ele></ele><time>2024-11-24T12:11:26Z</time></trkpt>
<trkpt lat="46.74872" lon="6.455"><ele></ele><time>2024-11-24T12:11:29Z</time></trkpt>
<trkpt lat="46.74872" lon="6.45499"><ele></ele><time>2024-11-24T12:11:32Z</time></trkpt>
<trkpt lat="46.74871" lon="6.45492"><ele></ele><time>2024-11-24T12:11:35Z</time></trkpt>
<trkpt lat="46.74871" lon="6.45486"><ele></ele><time>2024-11-24T12:11:38Z</time></trkpt>
<trkpt lat="46.74871" lon="6.4548"><ele></ele><time>2024-11-24T12:11:41Z</time></trkpt>
<trkpt lat="46.7487" lon="6.45477"><ele></ele><time>2024-11-24T12:11:44Z</time></trkpt>
<trkpt lat="46.74868" lon="6.45474"><ele></ele><time>2024-11-24T12:11:47Z</time></trkpt>
<trkpt lat="46.74868" lon="6.4547"><ele></ele><time>2024-11-24T12:11:50Z</time></trkpt>
<trkpt lat="46.74867" lon="6.45465"><ele></ele><time>2024-11-24T12:11:53Z</time></trkpt>
<trkpt lat="46.74865" lon="6.45462"><ele></ele><time>2024-11-24T12:11:56Z</time></trkpt>
<trkpt lat="46.74864" lon="6.45458"><ele></ele><time>2024-11-24T12:11:59Z</time></trkpt>
<trkpt lat="46.74863" lon="6.45456"><ele></ele><time>2024-11-24T12:12:2Z</time></trkpt>
<trkpt lat="46.74863" lon="6.45455"><ele></ele><time>2024-11-24T12:12:5Z</time></trkpt>
<trkpt lat="46.74866" lon="6.45449"><ele></ele><time>2024-11-24T12:12:8Z</time></trkpt>
<trkpt lat="46.74866" lon="6.45447"><ele></ele><time>2024-11-24T12:12:11Z</time></trkpt>
<trkpt lat="46.74871" lon="6.45444"><ele></ele><time>2024-11-24T12:12:14Z</time></trkpt>
<trkpt lat="46.74874" lon="6.45444"><ele></ele><time>2024-11-24T12:12:17Z</time></trkpt>
<trkpt lat="46.74874" lon="6.45444"><ele></ele><time>2024-11-24T12:12:20Z</time></trkpt>
<trkpt lat="46.74875" lon="6.45444"><ele></ele><time>2024-11-24T12:12:23Z</time></trkpt>
<trkpt lat="46.74875" lon="6.45444"><ele></ele><time>2024-11-24T12:12:26Z</time></trkpt>
<trkpt lat="46.74874" lon="6.45444"><ele></ele><time>2024-11-24T12:12:29Z</time></trkpt>
<trkpt lat="46.74874" lon="6.45446"><ele></ele><time>2024-11-24T12:12:32Z</time></trkpt>
<trkpt lat="46.74873" lon="6.45445"><ele></ele><time>2024-11-24T12:12:35Z</time></trkpt>
<trkpt lat="46.74873" lon="6.45447"><ele></ele><time>2024-11-24T12:12:38Z</time></trkpt>
<trkpt lat="46.74873" lon="6.45445"><ele></ele><time>2024-11-24T12:12:41Z</time></trkpt>
<trkpt lat="46.74873" lon="6.45445"><ele></ele><time>2024-11-24T12:12:44Z</time></trkpt>
<trkpt lat="46.74873" lon="6.45445"><ele></ele><time>2024-11-24T12:12:47Z</time></trkpt>
<trkpt lat="46.74872" lon="6.45445"><ele></ele><time>2024-11-24T12:12:50Z</time></trkpt>
<trkpt lat="46.74873" lon="6.45445"><ele></ele><time>2024-11-24T12:12:53Z</time></trkpt>
<trkpt lat="46.74873" lon="6.45445"><ele></ele><time>2024-11-24T12:12:56Z</time></trkpt>
<trkpt lat="46.74873" lon="6.45445"><ele></ele><time>2024-11-24T12:12:59Z</time></trkpt>
<trkpt lat="46.74873" lon="6.45446"><ele></ele><time>2024-11-24T12:13:2Z</time></trkpt>
<trkpt lat="46.74873" lon="6.45445"><ele></ele><time>2024-11-24T12:13:5Z</time></trkpt>
<trkpt lat="46.74875" lon="6.45445"><ele></ele><time>2024-11-24T12:13:8Z</time></trkpt>
<trkpt lat="46.74874" lon="6.45446"><ele></ele><time>2024-11-24T12:13:11Z</time></trkpt>
<trkpt lat="46.74874" lon="6.45446"><ele></ele><time>2024-11-24T12:13:14Z</time></trkpt>
<trkpt lat="46.74873" lon="6.45446"><ele></ele><time>2024-11-24T12:13:17Z</time></trkpt>
<trkpt lat="46.74872" lon="6.45446"><ele></ele><time>2024-11-24T12:13:20Z</time></trkpt>
<trkpt lat="46.74873" lon="6.45445"><ele></ele><time>2024-11-24T12:13:23Z</time></trkpt>
<trkpt lat="46.74873" lon="6.45444"><ele></ele><time>2024-11-24T12:13:26Z</time></trkpt>
<trkpt lat="46.74873" lon="6.45445"><ele></ele><time>2024-11-24T12:13:29Z</time></trkpt>
<trkpt lat="46.74873" lon="6.45444"><ele></ele><time>2024-11-24T12:13:32Z</time></trkpt>
<trkpt lat="46.74873" lon="6.45444"><ele></ele><time>2024-11-24T12:13:35Z</time></trkpt>
<trkpt lat="46.74874" lon="6.45445"><ele></ele><time>2024-11-24T12:13:38Z</time></trkpt>
<trkpt lat="46.74874" lon="6.45445"><ele></ele><time>2024-11-24T12:13:41Z</time></trkpt>
<trkpt lat="46.74873" lon="6.45445"><ele></ele><time>2024-11-24T12:13:44Z</time></trkpt>
<trkpt lat="46.74875" lon="6.45447"><ele></ele><time>2024-11-24T12:13:47Z</time></trkpt>
<trkpt lat="46.74879" lon="6.45455"><ele></ele><time>2024-11-24T12:13:50Z</time></trkpt>
<trkpt lat="46.74883" lon="6.45461"><ele></ele><time>2024-11-24T12:13:53Z</time></trkpt>
<trkpt lat="46.74884" lon="6.45462"><ele></ele><time>2024-11-24T12:13:56Z</time></trkpt>
<trkpt lat="46.74885" lon="6.45463"><ele></ele><time>2024-11-24T12:13:59Z</time></trkpt>
<trkpt lat="46.74889" lon="6.45471"><ele></ele><time>2024-11-24T12:14:2Z</time></trkpt>
<trkpt lat="46.7489" lon="6.45475"><ele></ele><time>2024-11-24T12:14:5Z</time></trkpt>
<trkpt lat="46.74892" lon="6.45482"><ele></ele><time>2024-11-24T12:14:8Z</time></trkpt>
<trkpt lat="46.74894" lon="6.45485"><ele></ele><time>2024-11-24T12:14:11Z</time></trkpt>
<trkpt lat="46.74896" lon="6.45492"><ele></ele><time>2024-11-24T12:14:14Z</time></trkpt>
<trkpt lat="46.74897" lon="6.45494"><ele></ele><time>2024-11-24T12:14:17Z</time></trkpt>
<trkpt lat="46.74898" lon="6.45497"><ele></ele><time>2024-11-24T12:14:20Z</time></trkpt>
<trkpt lat="46.74899" lon="6.45502"><ele></ele><time>2024-11-24T12:14:23Z</time></trkpt>
<trkpt lat="46.749" lon="6.45504"><ele></ele><time>2024-11-24T12:14:26Z</time></trkpt>
<trkpt lat="46.74902" lon="6.45509"><ele></ele><time>2024-11-24T12:14:29Z</time></trkpt>
<trkpt lat="46.74904" lon="6.45514"><ele></ele><time>2024-11-24T12:14:32Z</time></trkpt>
<trkpt lat="46.74906" lon="6.4552"><ele></ele><time>2024-11-24T12:14:35Z</time></trkpt>
<trkpt lat="46.74907" lon="6.45524"><ele></ele><time>2024-11-24T12:14:38Z</time></trkpt>
<trkpt lat="46.74909" lon="6.45528"><ele></ele><time>2024-11-24T12:14:41Z</time></trkpt>
<trkpt lat="46.74911" lon="6.45531"><ele></ele><time>2024-11-24T12:14:44Z</time></trkpt>
<trkpt lat="46.74913" lon="6.45535"><ele></ele><time>2024-11-24T12:14:47Z</time></trkpt>
<trkpt lat="46.74917" lon="6.45541"><ele></ele><time>2024-11-24T12:14:50Z</time></trkpt>
<trkpt lat="46.7492" lon="6.45544"><ele></ele><time>2024-11-24T12:14:53Z</time></trkpt>
<trkpt lat="46.74923" lon="6.45548"><ele></ele><time>2024-11-24T12:14:56Z</time></trkpt>
<trkpt lat="46.74927" lon="6.45552"><ele></ele><time>2024-11-24T12:14:59Z</time></trkpt>
<trkpt lat="46.7493" lon="6.45557"><ele></ele><time>2024-11-24T12:15:2Z</time></trkpt>
<trkpt lat="46.74932" lon="6.45561"><ele></ele><time>2024-11-24T12:15:5Z</time></trkpt>
<trkpt lat="46.74935" lon="6.45571"><ele></ele><time>2024-11-24T12:15:8Z</time></trkpt>
<trkpt lat="46.74935" lon="6.45576"><ele></ele><time>2024-11-24T12:15:11Z</time></trkpt>
<trkpt lat="46.74936" lon="6.45585"><ele></ele><time>2024-11-24T12:15:14Z</time></trkpt>
<trkpt lat="46.74936" lon="6.45588"><ele></ele><time>2024-11-24T12:15:17Z</time></trkpt>
<trkpt lat="46.74938" lon="6.45598"><ele></ele><time>2024-11-24T12:15:20Z</time></trkpt>
<trkpt lat="46.74938" lon="6.456"><ele></ele><time>2024-11-24T12:15:23Z</time></trkpt>
<trkpt lat="46.7494" lon="6.45612"><ele></ele><time>2024-11-24T12:15:26Z</time></trkpt>
<trkpt lat="46.74941" lon="6.45616"><ele></ele><time>2024-11-24T12:15:29Z</time></trkpt>
<trkpt lat="46.74942" lon="6.45622"><ele></ele><time>2024-11-24T12:15:32Z</time></trkpt>
<trkpt lat="46.74945" lon="6.45631"><ele></ele><time>2024-11-24T12:15:35Z</time></trkpt>
<trkpt lat="46.74946" lon="6.45634"><ele></ele><time>2024-11-24T12:15:38Z</time></trkpt>
<trkpt lat="46.74951" lon="6.45635"><ele></ele><time>2024-11-24T12:15:41Z</time></trkpt>
<trkpt lat="46.74952" lon="6.45633"><ele></ele><time>2024-11-24T12:15:44Z</time></trkpt>
<trkpt lat="46.74954" lon="6.45623"><ele></ele><time>2024-11-24T12:15:47Z</time></trkpt>
<trkpt lat="46.74954" lon="6.45621"><ele></ele><time>2024-11-24T12:15:50Z</time></trkpt>
<trkpt lat="46.74953" lon="6.45615"><ele></ele><time>2024-11-24T12:15:53Z</time></trkpt>
<trkpt lat="46.74952" lon="6.45607"><ele></ele><time>2024-11-24T12:15:56Z</time></trkpt>
<trkpt lat="46.74951" lon="6.45596"><ele></ele><time>2024-11-24T12:15:59Z</time></trkpt>
<trkpt lat="46.74951" lon="6.45593"><ele></ele><time>2024-11-24T12:16:2Z</time></trkpt>
<trkpt lat="46.7495" lon="6.45579"><ele></ele><time>2024-11-24T12:16:5Z</time></trkpt>
<trkpt lat="46.7495" lon="6.45577"><ele></ele><time>2024-11-24T12:16:8Z</time></trkpt>
<trkpt lat="46.7495" lon="6.45562"><ele></ele><time>2024-11-24T12:16:11Z</time></trkpt>
<trkpt lat="46.74949" lon="6.45546"><ele></ele><time>2024-11-24T12:16:14Z</time></trkpt>
<trkpt lat="46.74949" lon="6.45543"><ele></ele><time>2024-11-24T12:16:17Z</time></trkpt>
<trkpt lat="46.74943" lon="6.4553"><ele></ele><time>2024-11-24T12:16:20Z</time></trkpt>
<trkpt lat="46.74942" lon="6.45527"><ele></ele><time>2024-11-24T12:16:23Z</time></trkpt>
<trkpt lat="46.74938" lon="6.45508"><ele></ele><time>2024-11-24T12:16:26Z</time></trkpt>
<trkpt lat="46.74938" lon="6.455"><ele></ele><time>2024-11-24T12:16:29Z</time></trkpt>
<trkpt lat="46.74936" lon="6.4549"><ele></ele><time>2024-11-24T12:16:32Z</time></trkpt>
<trkpt lat="46.74936" lon="6.4548"><ele></ele><time>2024-11-24T12:16:35Z</time></trkpt>
<trkpt lat="46.74935" lon="6.45472"><ele></ele><time>2024-11-24T12:16:38Z</time></trkpt>
<trkpt lat="46.74935" lon="6.45455"><ele></ele><time>2024-11-24T12:16:41Z</time></trkpt>
<trkpt lat="46.74935" lon="6.45449"><ele></ele><time>2024-11-24T12:16:44Z</time></trkpt>
<trkpt lat="46.74935" lon="6.45435"><ele></ele><time>2024-11-24T12:16:47Z</time></trkpt>
<trkpt lat="46.74935" lon="6.45428"><ele></ele><time>2024-11-24T12:16:50Z</time></trkpt>
<trkpt lat="46.74935" lon="6.45416"><ele></ele><time>2024-11-24T12:16:53Z</time></trkpt>
<trkpt lat="46.74932" lon="6.45401"><ele></ele><time>2024-11-24T12:16:56Z</time></trkpt>
<trkpt lat="46.74931" lon="6.45393"><ele></ele><time>2024-11-24T12:16:59Z</time></trkpt>
<trkpt lat="46.7493" lon="6.45379"><ele></ele><time>2024-11-24T12:17:2Z</time></trkpt>
<trkpt lat="46.7493" lon="6.45377"><ele></ele><time>2024-11-24T12:17:5Z</time></trkpt>
<trkpt lat="46.7493" lon="6.4537"><ele></ele><time>2024-11-24T12:17:8Z</time></trkpt>
<trkpt lat="46.74929" lon="6.45363"><ele></ele><time>2024-11-24T12:17:11Z</time></trkpt>
<trkpt lat="46.74929" lon="6.45362"><ele></ele><time>2024-11-24T12:17:14Z</time></trkpt>
<trkpt lat="46.7493" lon="6.4536"><ele></ele><time>2024-11-24T12:17:17Z</time></trkpt>
<trkpt lat="46.74928" lon="6.45357"><ele></ele><time>2024-11-24T12:17:20Z</time></trkpt>
<trkpt lat="46.74927" lon="6.45357"><ele></ele><time>2024-11-24T12:17:23Z</time></trkpt>
<trkpt lat="46.74927" lon="6.45354"><ele></ele><time>2024-11-24T12:17:26Z</time></trkpt>
<trkpt lat="46.74928" lon="6.45353"><ele></ele><time>2024-11-24T12:17:29Z</time></trkpt>
<trkpt lat="46.74929" lon="6.45354"><ele></ele><time>2024-11-24T12:17:32Z</time></trkpt>
<trkpt lat="46.7493" lon="6.45354"><ele></ele><time>2024-11-24T12:17:35Z</time></trkpt>
<trkpt lat="46.7493" lon="6.45353"><ele></ele><time>2024-11-24T12:17:38Z</time></trkpt>
<trkpt lat="46.7493" lon="6.45353"><ele></ele><time>2024-11-24T12:17:41Z</time></trkpt>
<trkpt lat="46.7493" lon="6.45353"><ele></ele><time>2024-11-24T12:17:44Z</time></trkpt>
<trkpt lat="46.7493" lon="6.45353"><ele></ele><time>2024-11-24T12:17:47Z</time></trkpt>
<trkpt lat="46.74929" lon="6.45357"><ele></ele><time>2024-11-24T12:17:50Z</time></trkpt>
<trkpt lat="46.74929" lon="6.45358"><ele></ele><time>2024-11-24T12:17:53Z</time></trkpt>
<trkpt lat="46.74929" lon="6.4536"><ele></ele><time>2024-11-24T12:17:56Z</time></trkpt>
<trkpt lat="46.74929" lon="6.4536"><ele></ele><time>2024-11-24T12:17:59Z</time></trkpt>
<trkpt lat="46.7493" lon="6.4536"><ele></ele><time>2024-11-24T12:18:2Z</time></trkpt>
<trkpt lat="46.74932" lon="6.45362"><ele></ele><time>2024-11-24T12:18:5Z</time></trkpt>
<trkpt lat="46.74929" lon="6.4536"><ele></ele><time>2024-11-24T12:18:8Z</time></trkpt>
<trkpt lat="46.74928" lon="6.4536"><ele></ele><time>2024-11-24T12:18:11Z</time></trkpt>
<trkpt lat="46.74927" lon="6.45361"><ele></ele><time>2024-11-24T12:18:14Z</time></trkpt>
<trkpt lat="46.74927" lon="6.45361"><ele></ele><time>2024-11-24T12:18:17Z</time></trkpt>
<trkpt lat="46.74928" lon="6.45362"><ele></ele><time>2024-11-24T12:18:20Z</time></trkpt>
<trkpt lat="46.74928" lon="6.45361"><ele></ele><time>2024-11-24T12:18:23Z</time></trkpt>
<trkpt lat="46.74928" lon="6.4536"><ele></ele><time>2024-11-24T12:18:26Z</time></trkpt>
<trkpt lat="46.74928" lon="6.45358"><ele></ele><time>2024-11-24T12:18:29Z</time></trkpt>
<trkpt lat="46.74928" lon="6.45358"><ele></ele><time>2024-11-24T12:18:32Z</time></trkpt>
<trkpt lat="46.74932" lon="6.45362"><ele></ele><time>2024-11-24T12:18:35Z</time></trkpt>
<trkpt lat="46.74932" lon="6.45362"><ele></ele><time>2024-11-24T12:18:38Z</time></trkpt>
<trkpt lat="46.7493" lon="6.45363"><ele></ele><time>2024-11-24T12:18:41Z</time></trkpt>
<trkpt lat="46.74928" lon="6.45361"><ele></ele><time>2024-11-24T12:18:44Z</time></trkpt>
<trkpt lat="46.74928" lon="6.45361"><ele></ele><time>2024-11-24T12:18:47Z</time></trkpt>
<trkpt lat="46.74931" lon="6.45365"><ele></ele><time>2024-11-24T12:18:50Z</time></trkpt>
<trkpt lat="46.74933" lon="6.45363"><ele></ele><time>2024-11-24T12:18:53Z</time></trkpt>
<trkpt lat="46.74932" lon="6.45362"><ele></ele><time>2024-11-24T12:18:56Z</time></trkpt>
<trkpt lat="46.74928" lon="6.4536"><ele></ele><time>2024-11-24T12:18:59Z</time></trkpt>
<trkpt lat="46.74929" lon="6.45358"><ele></ele><time>2024-11-24T12:19:2Z</time></trkpt>
<trkpt lat="46.74934" lon="6.4536"><ele></ele><time>2024-11-24T12:19:5Z</time></trkpt>
<trkpt lat="46.74933" lon="6.45361"><ele></ele><time>2024-11-24T12:19:8Z</time></trkpt>
<trkpt lat="46.74933" lon="6.45359"><ele></ele><time>2024-11-24T12:19:11Z</time></trkpt>
<trkpt lat="46.74931" lon="6.45362"><ele></ele><time>2024-11-24T12:19:14Z</time></trkpt>
<trkpt lat="46.74929" lon="6.45357"><ele></ele><time>2024-11-24T12:19:17Z</time></trkpt>
<trkpt lat="46.74929" lon="6.45356"><ele></ele><time>2024-11-24T12:19:20Z</time></trkpt>
<trkpt lat="46.7493" lon="6.45349"><ele></ele><time>2024-11-24T12:19:23Z</time></trkpt>
<trkpt lat="46.74928" lon="6.45341"><ele></ele><time>2024-11-24T12:19:26Z</time></trkpt>
<trkpt lat="46.74928" lon="6.45339"><ele></ele><time>2024-11-24T12:19:29Z</time></trkpt>
<trkpt lat="46.74928" lon="6.45337"><ele></ele><time>2024-11-24T12:19:32Z</time></trkpt>
<trkpt lat="46.74927" lon="6.45328"><ele></ele><time>2024-11-24T12:19:35Z</time></trkpt>
<trkpt lat="46.74927" lon="6.45324"><ele></ele><time>2024-11-24T12:19:38Z</time></trkpt>
<trkpt lat="46.74927" lon="6.45321"><ele></ele><time>2024-11-24T12:19:41Z</time></trkpt>
<trkpt lat="46.74928" lon="6.45313"><ele></ele><time>2024-11-24T12:19:44Z</time></trkpt>
<trkpt lat="46.74929" lon="6.45307"><ele></ele><time>2024-11-24T12:19:47Z</time></trkpt>
<trkpt lat="46.7493" lon="6.45305"><ele></ele><time>2024-11-24T12:19:50Z</time></trkpt>
<trkpt lat="46.74931" lon="6.45304"><ele></ele><time>2024-11-24T12:19:53Z</time></trkpt>
<trkpt lat="46.7493" lon="6.45302"><ele></ele><time>2024-11-24T12:19:56Z</time></trkpt>
<trkpt lat="46.7493" lon="6.45291"><ele></ele><time>2024-11-24T12:19:59Z</time></trkpt>
<trkpt lat="46.74929" lon="6.45288"><ele></ele><time>2024-11-24T12:20:2Z</time></trkpt>
<trkpt lat="46.74928" lon="6.45281"><ele></ele><time>2024-11-24T12:20:5Z</time></trkpt>
<trkpt lat="46.74928" lon="6.45275"><ele></ele><time>2024-11-24T12:20:8Z</time></trkpt>
<trkpt lat="46.74927" lon="6.45273"><ele></ele><time>2024-11-24T12:20:11Z</time></trkpt>
<trkpt lat="46.74926" lon="6.45266"><ele></ele><time>2024-11-24T12:20:14Z</time></trkpt>
<trkpt lat="46.74925" lon="6.4526"><ele></ele><time>2024-11-24T12:20:17Z</time></trkpt>
<trkpt lat="46.74924" lon="6.45253"><ele></ele><time>2024-11-24T12:20:20Z</time></trkpt>
<trkpt lat="46.74924" lon="6.45249"><ele></ele><time>2024-11-24T12:20:23Z</time></trkpt>
<trkpt lat="46.74923" lon="6.4524"><ele></ele><time>2024-11-24T12:20:26Z</time></trkpt>
<trkpt lat="46.74924" lon="6.45236"><ele></ele><time>2024-11-24T12:20:29Z</time></trkpt>
<trkpt lat="46.74923" lon="6.45234"><ele></ele><time>2024-11-24T12:20:32Z</time></trkpt>
<trkpt lat="46.74924" lon="6.45227"><ele></ele><time>2024-11-24T12:20:35Z</time></trkpt>
<trkpt lat="46.74924" lon="6.45226"><ele></ele><time>2024-11-24T12:20:38Z</time></trkpt>
<trkpt lat="46.74927" lon="6.4522"><ele></ele><time>2024-11-24T12:20:41Z</time></trkpt>
<trkpt lat="46.74929" lon="6.45219"><ele></ele><time>2024-11-24T12:20:44Z</time></trkpt>
<trkpt lat="46.74933" lon="6.45221"><ele></ele><time>2024-11-24T12:20:47Z</time></trkpt>
<trkpt lat="46.74935" lon="6.45222"><ele></ele><time>2024-11-24T12:20:50Z</time></trkpt>
<trkpt lat="46.74935" lon="6.45223"><ele></ele><time>2024-11-24T12:20:53Z</time></trkpt>
<trkpt lat="46.74935" lon="6.45222"><ele></ele><time>2024-11-24T12:20:56Z</time></trkpt>
<trkpt lat="46.74936" lon="6.45221"><ele></ele><time>2024-11-24T12:20:59Z</time></trkpt>
<trkpt lat="46.74935" lon="6.45221"><ele></ele><time>2024-11-24T12:21:2Z</time></trkpt>
<trkpt lat="46.7493" lon="6.45223"><ele></ele><time>2024-11-24T12:21:5Z</time></trkpt>
<trkpt lat="46.74926" lon="6.45223"><ele></ele><time>2024-11-24T12:21:8Z</time></trkpt>
<trkpt lat="46.74921" lon="6.45227"><ele></ele><time>2024-11-24T12:21:11Z</time></trkpt>
<trkpt lat="46.7492" lon="6.4523"><ele></ele><time>2024-11-24T12:21:14Z</time></trkpt>
<trkpt lat="46.74919" lon="6.45233"><ele></ele><time>2024-11-24T12:21:17Z</time></trkpt>
<trkpt lat="46.7492" lon="6.45238"><ele></ele><time>2024-11-24T12:21:20Z</time></trkpt>
<trkpt lat="46.74921" lon="6.45238"><ele></ele><time>2024-11-24T12:21:23Z</time></trkpt>
<trkpt lat="46.74921" lon="6.4523"><ele></ele><time>2024-11-24T12:21:26Z</time></trkpt>
<trkpt lat="46.74925" lon="6.4522"><ele></ele><time>2024-11-24T12:21:29Z</time></trkpt>
<trkpt lat="46.74927" lon="6.45218"><ele></ele><time>2024-11-24T12:21:32Z</time></trkpt>
<trkpt lat="46.74932" lon="6.45219"><ele></ele><time>2024-11-24T12:21:35Z</time></trkpt>
<trkpt lat="46.74933" lon="6.45221"><ele></ele><time>2024-11-24T12:21:38Z</time></trkpt>
<trkpt lat="46.74934" lon="6.45223"><ele></ele><time>2024-11-24T12:21:41Z</time></trkpt>
<trkpt lat="46.74935" lon="6.45225"><ele></ele><time>2024-11-24T12:21:44Z</time></trkpt>
<trkpt lat="46.74936" lon="6.45223"><ele></ele><time>2024-11-24T12:21:47Z</time></trkpt>
<trkpt lat="46.74934" lon="6.45225"><ele></ele><time>2024-11-24T12:21:50Z</time></trkpt>
<trkpt lat="46.74936" lon="6.45227"><ele></ele><time>2024-11-24T12:21:53Z</time></trkpt>
<trkpt lat="46.74935" lon="6.45231"><ele></ele><time>2024-11-24T12:21:56Z</time></trkpt>
<trkpt lat="46.74937" lon="6.4524"><ele></ele><time>2024-11-24T12:21:59Z</time></trkpt>
<trkpt lat="46.74938" lon="6.45246"><ele></ele><time>2024-11-24T12:22:2Z</time></trkpt>
<trkpt lat="46.74938" lon="6.45248"><ele></ele><time>2024-11-24T12:22:5Z</time></trkpt>
<trkpt lat="46.74939" lon="6.45252"><ele></ele><time>2024-11-24T12:22:8Z</time></trkpt>
<trkpt lat="46.74938" lon="6.45254"><ele></ele><time>2024-11-24T12:22:11Z</time></trkpt>
<trkpt lat="46.74939" lon="6.4526"><ele></ele><time>2024-11-24T12:22:14Z</time></trkpt>
<trkpt lat="46.74941" lon="6.45266"><ele></ele><time>2024-11-24T12:22:17Z</time></trkpt>
<trkpt lat="46.74944" lon="6.45271"><ele></ele><time>2024-11-24T12:22:20Z</time></trkpt>
<trkpt lat="46.74947" lon="6.45276"><ele></ele><time>2024-11-24T12:22:23Z</time></trkpt>
<trkpt lat="46.74947" lon="6.45279"><ele></ele><time>2024-11-24T12:22:26Z</time></trkpt>
<trkpt lat="46.7495" lon="6.45286"><ele></ele><time>2024-11-24T12:22:29Z</time></trkpt>
<trkpt lat="46.74952" lon="6.45292"><ele></ele><time>2024-11-24T12:22:32Z</time></trkpt>
<trkpt lat="46.74952" lon="6.45298"><ele></ele><time>2024-11-24T12:22:35Z</time></trkpt>
<trkpt lat="46.74953" lon="6.45303"><ele></ele><time>2024-11-24T12:22:38Z</time></trkpt>
<trkpt lat="46.74954" lon="6.45307"><ele></ele><time>2024-11-24T12:22:41Z</time></trkpt>
<trkpt lat="46.74956" lon="6.45313"><ele></ele><time>2024-11-24T12:22:44Z</time></trkpt>
<trkpt lat="46.74958" lon="6.45318"><ele></ele><time>2024-11-24T12:22:47Z</time></trkpt>
<trkpt lat="46.74961" lon="6.45322"><ele></ele><time>2024-11-24T12:22:50Z</time></trkpt>
<trkpt lat="46.74965" lon="6.45329"><ele></ele><time>2024-11-24T12:22:53Z</time></trkpt>
<trkpt lat="46.74966" lon="6.45331"><ele></ele><time>2024-11-24T12:22:56Z</time></trkpt>
<trkpt lat="46.74971" lon="6.45343"><ele></ele><time>2024-11-24T12:22:59Z</time></trkpt>
<trkpt lat="46.74977" lon="6.45353"><ele></ele><time>2024-11-24T12:23:2Z</time></trkpt>
<trkpt lat="46.74979" lon="6.45362"><ele></ele><time>2024-11-24T12:23:5Z</time></trkpt>
<trkpt lat="46.74979" lon="6.45364"><ele></ele><time>2024-11-24T12:23:8Z</time></trkpt>
<trkpt lat="46.74982" lon="6.45373"><ele></ele><time>2024-11-24T12:23:11Z</time></trkpt>
<trkpt lat="46.74983" lon="6.45376"><ele></ele><time>2024-11-24T12:23:14Z</time></trkpt>
<trkpt lat="46.74985" lon="6.45383"><ele></ele><time>2024-11-24T12:23:17Z</time></trkpt>
<trkpt lat="46.74986" lon="6.45388"><ele></ele><time>2024-11-24T12:23:20Z</time></trkpt>
<trkpt lat="46.74986" lon="6.45394"><ele></ele><time>2024-11-24T12:23:23Z</time></trkpt>
<trkpt lat="46.74988" lon="6.45401"><ele></ele><time>2024-11-24T12:23:26Z</time></trkpt>
<trkpt lat="46.74989" lon="6.45405"><ele></ele><time>2024-11-24T12:23:29Z</time></trkpt>
<trkpt lat="46.7499" lon="6.45409"><ele></ele><time>2024-11-24T12:23:32Z</time></trkpt>
<trkpt lat="46.74992" lon="6.45416"><ele></ele><time>2024-11-24T12:23:35Z</time></trkpt>
<trkpt lat="46.74993" lon="6.45421"><ele></ele><time>2024-11-24T12:23:38Z</time></trkpt>
<trkpt lat="46.74995" lon="6.45427"><ele></ele><time>2024-11-24T12:23:41Z</time></trkpt>
<trkpt lat="46.74997" lon="6.45431"><ele></ele><time>2024-11-24T12:23:44Z</time></trkpt>
<trkpt lat="46.74997" lon="6.45432"><ele></ele><time>2024-11-24T12:23:47Z</time></trkpt>
<trkpt lat="46.75" lon="6.45438"><ele></ele><time>2024-11-24T12:23:50Z</time></trkpt>
<trkpt lat="46.75002" lon="6.45444"><ele></ele><time>2024-11-24T12:23:53Z</time></trkpt>
<trkpt lat="46.75004" lon="6.45449"><ele></ele><time>2024-11-24T12:23:56Z</time></trkpt>
<trkpt lat="46.75005" lon="6.45453"><ele></ele><time>2024-11-24T12:23:59Z</time></trkpt>
<trkpt lat="46.75007" lon="6.4546"><ele></ele><time>2024-11-24T12:24:2Z</time></trkpt>
<trkpt lat="46.75009" lon="6.45464"><ele></ele><time>2024-11-24T12:24:5Z</time></trkpt>
<trkpt lat="46.7501" lon="6.45466"><ele></ele><time>2024-11-24T12:24:8Z</time></trkpt>
<trkpt lat="46.75011" lon="6.45469"><ele></ele><time>2024-11-24T12:24:11Z</time></trkpt>
<trkpt lat="46.75012" lon="6.4547"><ele></ele><time>2024-11-24T12:24:14Z</time></trkpt>
<trkpt lat="46.75013" lon="6.45473"><ele></ele><time>2024-11-24T12:24:17Z</time></trkpt>
<trkpt lat="46.75015" lon="6.45478"><ele></ele><time>2024-11-24T12:24:20Z</time></trkpt>
<trkpt lat="46.75018" lon="6.45481"><ele></ele><time>2024-11-24T12:24:23Z</time></trkpt>
<trkpt lat="46.75019" lon="6.45485"><ele></ele><time>2024-11-24T12:24:26Z</time></trkpt>
<trkpt lat="46.7502" lon="6.45488"><ele></ele><time>2024-11-24T12:24:29Z</time></trkpt>
<trkpt lat="46.75021" lon="6.45492"><ele></ele><time>2024-11-24T12:24:32Z</time></trkpt>
<trkpt lat="46.75023" lon="6.45497"><ele></ele><time>2024-11-24T12:24:35Z</time></trkpt>
<trkpt lat="46.75025" lon="6.455"><ele></ele><time>2024-11-24T12:24:38Z</time></trkpt>
<trkpt lat="46.75027" lon="6.45505"><ele></ele><time>2024-11-24T12:24:41Z</time></trkpt>
<trkpt lat="46.75029" lon="6.45509"><ele></ele><time>2024-11-24T12:24:44Z</time></trkpt>
<trkpt lat="46.75033" lon="6.45515"><ele></ele><time>2024-11-24T12:24:47Z</time></trkpt>
<trkpt lat="46.75034" lon="6.45519"><ele></ele><time>2024-11-24T12:24:50Z</time></trkpt>
<trkpt lat="46.75037" lon="6.45527"><ele></ele><time>2024-11-24T12:24:53Z</time></trkpt>
<trkpt lat="46.75038" lon="6.45534"><ele></ele><time>2024-11-24T12:24:56Z</time></trkpt>
<trkpt lat="46.75039" lon="6.45539"><ele></ele><time>2024-11-24T12:24:59Z</time></trkpt>
<trkpt lat="46.7504" lon="6.45544"><ele></ele><time>2024-11-24T12:25:2Z</time></trkpt>
<trkpt lat="46.7504" lon="6.4555"><ele></ele><time>2024-11-24T12:25:5Z</time></trkpt>
<trkpt lat="46.75042" lon="6.45556"><ele></ele><time>2024-11-24T12:25:8Z</time></trkpt>
<trkpt lat="46.75042" lon="6.45559"><ele></ele><time>2024-11-24T12:25:11Z</time></trkpt>
<trkpt lat="46.75044" lon="6.45567"><ele></ele><time>2024-11-24T12:25:14Z</time></trkpt>
<trkpt lat="46.75046" lon="6.45571"><ele></ele><time>2024-11-24T12:25:17Z</time></trkpt>
<trkpt lat="46.75048" lon="6.45578"><ele></ele><time>2024-11-24T12:25:20Z</time></trkpt>
<trkpt lat="46.7505" lon="6.45582"><ele></ele><time>2024-11-24T12:25:23Z</time></trkpt>
<trkpt lat="46.75053" lon="6.4559"><ele></ele><time>2024-11-24T12:25:26Z</time></trkpt>
<trkpt lat="46.75055" lon="6.45595"><ele></ele><time>2024-11-24T12:25:29Z</time></trkpt>
<trkpt lat="46.75057" lon="6.45599"><ele></ele><time>2024-11-24T12:25:32Z</time></trkpt>
<trkpt lat="46.75058" lon="6.45603"><ele></ele><time>2024-11-24T12:25:35Z</time></trkpt>
<trkpt lat="46.75059" lon="6.45606"><ele></ele><time>2024-11-24T12:25:38Z</time></trkpt>
<trkpt lat="46.75061" lon="6.45608"><ele></ele><time>2024-11-24T12:25:41Z</time></trkpt>
<trkpt lat="46.75062" lon="6.45611"><ele></ele><time>2024-11-24T12:25:44Z</time></trkpt>
<trkpt lat="46.75065" lon="6.45617"><ele></ele><time>2024-11-24T12:25:47Z</time></trkpt>
<trkpt lat="46.75067" lon="6.45623"><ele></ele><time>2024-11-24T12:25:50Z</time></trkpt>
<trkpt lat="46.75069" lon="6.45628"><ele></ele><time>2024-11-24T12:25:53Z</time></trkpt>
<trkpt lat="46.75072" lon="6.45635"><ele></ele><time>2024-11-24T12:25:56Z</time></trkpt>
<trkpt lat="46.75074" lon="6.45637"><ele></ele><time>2024-11-24T12:25:59Z</time></trkpt>
<trkpt lat="46.75075" lon="6.45642"><ele></ele><time>2024-11-24T12:26:2Z</time></trkpt>
<trkpt lat="46.75076" lon="6.45648"><ele></ele><time>2024-11-24T12:26:5Z</time></trkpt>
<trkpt lat="46.75077" lon="6.45652"><ele></ele><time>2024-11-24T12:26:8Z</time></trkpt>
<trkpt lat="46.75077" lon="6.45655"><ele></ele><time>2024-11-24T12:26:11Z</time></trkpt>
<trkpt lat="46.75078" lon="6.45659"><ele></ele><time>2024-11-24T12:26:14Z</time></trkpt>
<trkpt lat="46.75082" lon="6.45669"><ele></ele><time>2024-11-24T12:26:17Z</time></trkpt>
<trkpt lat="46.75083" lon="6.45669"><ele></ele><time>2024-11-24T12:26:20Z</time></trkpt>
<trkpt lat="46.75086" lon="6.45675"><ele></ele><time>2024-11-24T12:26:23Z</time></trkpt>
<trkpt lat="46.75089" lon="6.4568"><ele></ele><time>2024-11-24T12:26:26Z</time></trkpt>
<trkpt lat="46.75093" lon="6.45686"><ele></ele><time>2024-11-24T12:26:29Z</time></trkpt>
<trkpt lat="46.75095" lon="6.45689"><ele></ele><time>2024-11-24T12:26:32Z</time></trkpt>
<trkpt lat="46.75098" lon="6.45695"><ele></ele><time>2024-11-24T12:26:35Z</time></trkpt>
<trkpt lat="46.751" lon="6.45698"><ele></ele><time>2024-11-24T12:26:38Z</time></trkpt>
<trkpt lat="46.75102" lon="6.457"><ele></ele><time>2024-11-24T12:26:41Z</time></trkpt>
<trkpt lat="46.75103" lon="6.45702"><ele></ele><time>2024-11-24T12:26:44Z</time></trkpt>
<trkpt lat="46.75108" lon="6.45709"><ele></ele><time>2024-11-24T12:26:47Z</time></trkpt>
<trkpt lat="46.7511" lon="6.45713"><ele></ele><time>2024-11-24T12:26:50Z</time></trkpt>
<trkpt lat="46.75112" lon="6.45718"><ele></ele><time>2024-11-24T12:26:53Z</time></trkpt>
<trkpt lat="46.75113" lon="6.45719"><ele></ele><time>2024-11-24T12:26:56Z</time></trkpt>
<trkpt lat="46.75113" lon="6.4572"><ele></ele><time>2024-11-24T12:26:59Z</time></trkpt>
<trkpt lat="46.75115" lon="6.45723"><ele></ele><time>2024-11-24T12:27:2Z</time></trkpt>
<trkpt lat="46.75117" lon="6.45726"><ele></ele><time>2024-11-24T12:27:5Z</time></trkpt>
<trkpt lat="46.75122" lon="6.45733"><ele></ele><time>2024-11-24T12:27:8Z</time></trkpt>
<trkpt lat="46.75123" lon="6.45736"><ele></ele><time>2024-11-24T12:27:11Z</time></trkpt>
<trkpt lat="46.75127" lon="6.45744"><ele></ele><time>2024-11-24T12:27:14Z</time></trkpt>
<trkpt lat="46.75129" lon="6.45746"><ele></ele><time>2024-11-24T12:27:17Z</time></trkpt>
<trkpt lat="46.75131" lon="6.4575"><ele></ele><time>2024-11-24T12:27:20Z</time></trkpt>
<trkpt lat="46.75132" lon="6.45751"><ele></ele><time>2024-11-24T12:27:23Z</time></trkpt>
<trkpt lat="46.75133" lon="6.45753"><ele></ele><time>2024-11-24T12:27:26Z</time></trkpt>
<trkpt lat="46.75134" lon="6.45754"><ele></ele><time>2024-11-24T12:27:29Z</time></trkpt>
<trkpt lat="46.75135" lon="6.45756"><ele></ele><time>2024-11-24T12:27:32Z</time></trkpt>
<trkpt lat="46.75139" lon="6.45764"><ele></ele><time>2024-11-24T12:27:35Z</time></trkpt>
<trkpt lat="46.7514" lon="6.45769"><ele></ele><time>2024-11-24T12:27:38Z</time></trkpt>
<trkpt lat="46.75141" lon="6.45772"><ele></ele><time>2024-11-24T12:27:41Z</time></trkpt>
<trkpt lat="46.75142" lon="6.45773"><ele></ele><time>2024-11-24T12:27:44Z</time></trkpt>
<trkpt lat="46.75143" lon="6.45776"><ele></ele><time>2024-11-24T12:27:47Z</time></trkpt>
<trkpt lat="46.75143" lon="6.45779"><ele></ele><time>2024-11-24T12:27:50Z</time></trkpt>
<trkpt lat="46.75145" lon="6.45782"><ele></ele><time>2024-11-24T12:27:53Z</time></trkpt>
<trkpt lat="46.75147" lon="6.45788"><ele></ele><time>2024-11-24T12:27:56Z</time></trkpt>
<trkpt lat="46.75149" lon="6.45791"><ele></ele><time>2024-11-24T12:27:59Z</time></trkpt>
<trkpt lat="46.75151" lon="6.45796"><ele></ele><time>2024-11-24T12:28:2Z</time></trkpt>
<trkpt lat="46.75152" lon="6.458"><ele></ele><time>2024-11-24T12:28:5Z</time></trkpt>
<trkpt lat="46.75153" lon="6.45802"><ele></ele><time>2024-11-24T12:28:8Z</time></trkpt>
<trkpt lat="46.75157" lon="6.45808"><ele></ele><time>2024-11-24T12:28:11Z</time></trkpt>
<trkpt lat="46.75158" lon="6.45809"><ele></ele><time>2024-11-24T12:28:14Z</time></trkpt>
<trkpt lat="46.75162" lon="6.45811"><ele></ele><time>2024-11-24T12:28:17Z</time></trkpt>
<trkpt lat="46.75164" lon="6.45811"><ele></ele><time>2024-11-24T12:28:20Z</time></trkpt>
<trkpt lat="46.75165" lon="6.45811"><ele></ele><time>2024-11-24T12:28:23Z</time></trkpt>
<trkpt lat="46.75165" lon="6.4581"><ele></ele><time>2024-11-24T12:28:26Z</time></trkpt>
<trkpt lat="46.75167" lon="6.45809"><ele></ele><time>2024-11-24T12:28:29Z</time></trkpt>
<trkpt lat="46.75167" lon="6.45802"><ele></ele><time>2024-11-24T12:28:32Z</time></trkpt>
<trkpt lat="46.75166" lon="6.458"><ele></ele><time>2024-11-24T12:28:35Z</time></trkpt>
<trkpt lat="46.75164" lon="6.4579"><ele></ele><time>2024-11-24T12:28:38Z</time></trkpt>
<trkpt lat="46.75161" lon="6.45782"><ele></ele><time>2024-11-24T12:28:41Z</time></trkpt>
<trkpt lat="46.75161" lon="6.4578"><ele></ele><time>2024-11-24T12:28:44Z</time></trkpt>
<trkpt lat="46.75161" lon="6.45772"><ele></ele><time>2024-11-24T12:28:47Z</time></trkpt>
<trkpt lat="46.7516" lon="6.4577"><ele></ele><time>2024-11-24T12:28:50Z</time></trkpt>
<trkpt lat="46.75158" lon="6.45766"><ele></ele><time>2024-11-24T12:28:53Z</time></trkpt>
<trkpt lat="46.75156" lon="6.45762"><ele></ele><time>2024-11-24T12:28:56Z</time></trkpt>
<trkpt lat="46.75156" lon="6.4576"><ele></ele><time>2024-11-24T12:28:59Z</time></trkpt>
<trkpt lat="46.75154" lon="6.45752"><ele></ele><time>2024-11-24T12:29:2Z</time></trkpt>
<trkpt lat="46.75152" lon="6.45748"><ele></ele><time>2024-11-24T12:29:5Z</time></trkpt>
<trkpt lat="46.7515" lon="6.45743"><ele></ele><time>2024-11-24T12:29:8Z</time></trkpt>
<trkpt lat="46.7515" lon="6.45738"><ele></ele><time>2024-11-24T12:29:11Z</time></trkpt>
<trkpt lat="46.75149" lon="6.45733"><ele></ele><time>2024-11-24T12:29:14Z</time></trkpt>
<trkpt lat="46.75148" lon="6.45725"><ele></ele><time>2024-11-24T12:29:17Z</time></trkpt>
<trkpt lat="46.75147" lon="6.45723"><ele></ele><time>2024-11-24T12:29:20Z</time></trkpt>
<trkpt lat="46.75146" lon="6.45715"><ele></ele><time>2024-11-24T12:29:23Z</time></trkpt>
<trkpt lat="46.75145" lon="6.45713"><ele></ele><time>2024-11-24T12:29:26Z</time></trkpt>
<trkpt lat="46.75144" lon="6.45704"><ele></ele><time>2024-11-24T12:29:29Z</time></trkpt>
<trkpt lat="46.7514" lon="6.45696"><ele></ele><time>2024-11-24T12:29:32Z</time></trkpt>
<trkpt lat="46.75139" lon="6.45695"><ele></ele><time>2024-11-24T12:29:35Z</time></trkpt>
<trkpt lat="46.75139" lon="6.45694"><ele></ele><time>2024-11-24T12:29:38Z</time></trkpt>
<trkpt lat="46.75139" lon="6.45694"><ele></ele><time>2024-11-24T12:29:41Z</time></trkpt>
<trkpt lat="46.75139" lon="6.45692"><ele></ele><time>2024-11-24T12:29:44Z</time></trkpt>
<trkpt lat="46.75138" lon="6.45685"><ele></ele><time>2024-11-24T12:29:47Z</time></trkpt>
<trkpt lat="46.75137" lon="6.45681"><ele></ele><time>2024-11-24T12:29:50Z</time></trkpt>
<trkpt lat="46.75136" lon="6.45677"><ele></ele><time>2024-11-24T12:29:53Z</time></trkpt>
<trkpt lat="46.75134" lon="6.45668"><ele></ele><time>2024-11-24T12:29:56Z</time></trkpt>
<trkpt lat="46.75134" lon="6.45665"><ele></ele><time>2024-11-24T12:29:59Z</time></trkpt>
<trkpt lat="46.75132" lon="6.45658"><ele></ele><time>2024-11-24T12:30:2Z</time></trkpt>
<trkpt lat="46.75132" lon="6.45655"><ele></ele><time>2024-11-24T12:30:5Z</time></trkpt>
<trkpt lat="46.75132" lon="6.45645"><ele></ele><time>2024-11-24T12:30:8Z</time></trkpt>
<trkpt lat="46.75131" lon="6.4563"><ele></ele><time>2024-11-24T12:30:11Z</time></trkpt>
<trkpt lat="46.7513" lon="6.45619"><ele></ele><time>2024-11-24T12:30:14Z</time></trkpt>
<trkpt lat="46.7513" lon="6.45618"><ele></ele><time>2024-11-24T12:30:17Z</time></trkpt>
<trkpt lat="46.75127" lon="6.45608"><ele></ele><time>2024-11-24T12:30:20Z</time></trkpt>
<trkpt lat="46.75126" lon="6.45606"><ele></ele><time>2024-11-24T12:30:23Z</time></trkpt>
<trkpt lat="46.75125" lon="6.45602"><ele></ele><time>2024-11-24T12:30:26Z</time></trkpt>
<trkpt lat="46.75125" lon="6.45599"><ele></ele><time>2024-11-24T12:30:29Z</time></trkpt>
<trkpt lat="46.75124" lon="6.45596"><ele></ele><time>2024-11-24T12:30:32Z</time></trkpt>
<trkpt lat="46.75122" lon="6.45587"><ele></ele><time>2024-11-24T12:30:35Z</time></trkpt>
<trkpt lat="46.75122" lon="6.45581"><ele></ele><time>2024-11-24T12:30:38Z</time></trkpt>
<trkpt lat="46.75123" lon="6.45576"><ele></ele><time>2024-11-24T12:30:41Z</time></trkpt>
<trkpt lat="46.75121" lon="6.45568"><ele></ele><time>2024-11-24T12:30:44Z</time></trkpt>
<trkpt lat="46.75121" lon="6.45566"><ele></ele><time>2024-11-24T12:30:47Z</time></trkpt>
<trkpt lat="46.7512" lon="6.45557"><ele></ele><time>2024-11-24T12:30:50Z</time></trkpt>
<trkpt lat="46.75119" lon="6.45543"><ele></ele><time>2024-11-24T12:30:53Z</time></trkpt>
<trkpt lat="46.75118" lon="6.45531"><ele></ele><time>2024-11-24T12:30:56Z</time></trkpt>
<trkpt lat="46.75118" lon="6.45528"><ele></ele><time>2024-11-24T12:30:59Z</time></trkpt>
<trkpt lat="46.75117" lon="6.45517"><ele></ele><time>2024-11-24T12:31:2Z</time></trkpt>
<trkpt lat="46.75117" lon="6.45516"><ele></ele><time>2024-11-24T12:31:5Z</time></trkpt>
<trkpt lat="46.75118" lon="6.45507"><ele></ele><time>2024-11-24T12:31:8Z</time></trkpt>
<trkpt lat="46.75119" lon="6.45503"><ele></ele><time>2024-11-24T12:31:11Z</time></trkpt>
<trkpt lat="46.75118" lon="6.45495"><ele></ele><time>2024-11-24T12:31:14Z</time></trkpt>
<trkpt lat="46.75116" lon="6.4549"><ele></ele><time>2024-11-24T12:31:17Z</time></trkpt>
<trkpt lat="46.75114" lon="6.45482"><ele></ele><time>2024-11-24T12:31:20Z</time></trkpt>
<trkpt lat="46.75114" lon="6.45478"><ele></ele><time>2024-11-24T12:31:23Z</time></trkpt>
<trkpt lat="46.75114" lon="6.4547"><ele></ele><time>2024-11-24T12:31:26Z</time></trkpt>
<trkpt lat="46.75114" lon="6.45466"><ele></ele><time>2024-11-24T12:31:29Z</time></trkpt>
<trkpt lat="46.75114" lon="6.45463"><ele></ele><time>2024-11-24T12:31:32Z</time></trkpt>
<trkpt lat="46.75113" lon="6.45457"><ele></ele><time>2024-11-24T12:31:35Z</time></trkpt>
<trkpt lat="46.75112" lon="6.45454"><ele></ele><time>2024-11-24T12:31:38Z</time></trkpt>
<trkpt lat="46.7511" lon="6.45446"><ele></ele><time>2024-11-24T12:31:41Z</time></trkpt>
<trkpt lat="46.75108" lon="6.45438"><ele></ele><time>2024-11-24T12:31:44Z</time></trkpt>
<trkpt lat="46.75108" lon="6.45436"><ele></ele><time>2024-11-24T12:31:47Z</time></trkpt>
<trkpt lat="46.75108" lon="6.45429"><ele></ele><time>2024-11-24T12:31:50Z</time></trkpt>
<trkpt lat="46.75108" lon="6.45427"><ele></ele><time>2024-11-24T12:31:53Z</time></trkpt>
<trkpt lat="46.75103" lon="6.45415"><ele></ele><time>2024-11-24T12:31:56Z</time></trkpt>
<trkpt lat="46.75103" lon="6.45414"><ele></ele><time>2024-11-24T12:31:59Z</time></trkpt>
<trkpt lat="46.75102" lon="6.45405"><ele></ele><time>2024-11-24T12:32:2Z</time></trkpt>
<trkpt lat="46.75102" lon="6.454"><ele></ele><time>2024-11-24T12:32:5Z</time></trkpt>
<trkpt lat="46.751" lon="6.45394"><ele></ele><time>2024-11-24T12:32:8Z</time></trkpt>
<trkpt lat="46.75096" lon="6.45389"><ele></ele><time>2024-11-24T12:32:11Z</time></trkpt>
<trkpt lat="46.75094" lon="6.45386"><ele></ele><time>2024-11-24T12:32:14Z</time></trkpt>
<trkpt lat="46.75091" lon="6.45379"><ele></ele><time>2024-11-24T12:32:17Z</time></trkpt>
<trkpt lat="46.75087" lon="6.45372"><ele></ele><time>2024-11-24T12:32:20Z</time></trkpt>
<trkpt lat="46.75086" lon="6.4537"><ele></ele><time>2024-11-24T12:32:23Z</time></trkpt>
<trkpt lat="46.75082" lon="6.45365"><ele></ele><time>2024-11-24T12:32:26Z</time></trkpt>
<trkpt lat="46.75082" lon="6.45364"><ele></ele><time>2024-11-24T12:32:29Z</time></trkpt>
<trkpt lat="46.75078" lon="6.45358"><ele></ele><time>2024-11-24T12:32:32Z</time></trkpt>
<trkpt lat="46.75078" lon="6.45355"><ele></ele><time>2024-11-24T12:32:35Z</time></trkpt>
<trkpt lat="46.75074" lon="6.45346"><ele></ele><time>2024-11-24T12:32:38Z</time></trkpt>
<trkpt lat="46.75074" lon="6.45345"><ele></ele><time>2024-11-24T12:32:41Z</time></trkpt>
<trkpt lat="46.75071" lon="6.45334"><ele></ele><time>2024-11-24T12:32:44Z</time></trkpt>
<trkpt lat="46.7507" lon="6.45325"><ele></ele><time>2024-11-24T12:32:47Z</time></trkpt>
<trkpt lat="46.7507" lon="6.45322"><ele></ele><time>2024-11-24T12:32:50Z</time></trkpt>
<trkpt lat="46.7507" lon="6.45316"><ele></ele><time>2024-11-24T12:32:53Z</time></trkpt>
<trkpt lat="46.75071" lon="6.45309"><ele></ele><time>2024-11-24T12:32:56Z</time></trkpt>
<trkpt lat="46.75072" lon="6.45303"><ele></ele><time>2024-11-24T12:32:59Z</time></trkpt>
<trkpt lat="46.75075" lon="6.45292"><ele></ele><time>2024-11-24T12:33:2Z</time></trkpt>
<trkpt lat="46.75076" lon="6.45289"><ele></ele><time>2024-11-24T12:33:5Z</time></trkpt>
<trkpt lat="46.75077" lon="6.45281"><ele></ele><time>2024-11-24T12:33:8Z</time></trkpt>
<trkpt lat="46.75077" lon="6.45277"><ele></ele><time>2024-11-24T12:33:11Z</time></trkpt>
<trkpt lat="46.75076" lon="6.45268"><ele></ele><time>2024-11-24T12:33:14Z</time></trkpt>
<trkpt lat="46.75076" lon="6.45264"><ele></ele><time>2024-11-24T12:33:17Z</time></trkpt>
<trkpt lat="46.75076" lon="6.4526"><ele></ele><time>2024-11-24T12:33:20Z</time></trkpt>
<trkpt lat="46.75074" lon="6.45253"><ele></ele><time>2024-11-24T12:33:23Z</time></trkpt>
<trkpt lat="46.75072" lon="6.45248"><ele></ele><time>2024-11-24T12:33:26Z</time></trkpt>
<trkpt lat="46.75071" lon="6.45241"><ele></ele><time>2024-11-24T12:33:29Z</time></trkpt>
<trkpt lat="46.75069" lon="6.45236"><ele></ele><time>2024-11-24T12:33:32Z</time></trkpt>
<trkpt lat="46.75068" lon="6.45228"><ele></ele><time>2024-11-24T12:33:35Z</time></trkpt>
<trkpt lat="46.75069" lon="6.45216"><ele></ele><time>2024-11-24T12:33:38Z</time></trkpt>
<trkpt lat="46.75068" lon="6.45213"><ele></ele><time>2024-11-24T12:33:41Z</time></trkpt>
<trkpt lat="46.75067" lon="6.452"><ele></ele><time>2024-11-24T12:33:44Z</time></trkpt>
<trkpt lat="46.75066" lon="6.45195"><ele></ele><time>2024-11-24T12:33:47Z</time></trkpt>
<trkpt lat="46.75065" lon="6.45185"><ele></ele><time>2024-11-24T12:33:50Z</time></trkpt>
<trkpt lat="46.75064" lon="6.45178"><ele></ele><time>2024-11-24T12:33:53Z</time></trkpt>
<trkpt lat="46.75063" lon="6.45176"><ele></ele><time>2024-11-24T12:33:56Z</time></trkpt>
<trkpt lat="46.75063" lon="6.45174"><ele></ele><time>2024-11-24T12:33:59Z</time></trkpt>
<trkpt lat="46.75063" lon="6.45162"><ele></ele><time>2024-11-24T12:34:2Z</time></trkpt>
<trkpt lat="46.75063" lon="6.4516"><ele></ele><time>2024-11-24T12:34:5Z</time></trkpt>
<trkpt lat="46.75066" lon="6.45148"><ele></ele><time>2024-11-24T12:34:8Z</time></trkpt>
<trkpt lat="46.75067" lon="6.45144"><ele></ele><time>2024-11-24T12:34:11Z</time></trkpt>
<trkpt lat="46.75067" lon="6.45137"><ele></ele><time>2024-11-24T12:34:14Z</time></trkpt>
<trkpt lat="46.75067" lon="6.45134"><ele></ele><time>2024-11-24T12:34:17Z</time></trkpt>
<trkpt lat="46.75067" lon="6.45128"><ele></ele><time>2024-11-24T12:34:20Z</time></trkpt>
<trkpt lat="46.75066" lon="6.45123"><ele></ele><time>2024-11-24T12:34:23Z</time></trkpt>
<trkpt lat="46.75066" lon="6.45118"><ele></ele><time>2024-11-24T12:34:26Z</time></trkpt>
<trkpt lat="46.75065" lon="6.45109"><ele></ele><time>2024-11-24T12:34:29Z</time></trkpt>
<trkpt lat="46.75064" lon="6.45106"><ele></ele><time>2024-11-24T12:34:32Z</time></trkpt>
<trkpt lat="46.7506" lon="6.45099"><ele></ele><time>2024-11-24T12:34:35Z</time></trkpt>
<trkpt lat="46.75059" lon="6.45095"><ele></ele><time>2024-11-24T12:34:38Z</time></trkpt>
<trkpt lat="46.75058" lon="6.45089"><ele></ele><time>2024-11-24T12:34:41Z</time></trkpt>
<trkpt lat="46.75057" lon="6.45088"><ele></ele><time>2024-11-24T12:34:44Z</time></trkpt>
<trkpt lat="46.75056" lon="6.45083"><ele></ele><time>2024-11-24T12:34:47Z</time></trkpt>
<trkpt lat="46.75055" lon="6.45079"><ele></ele><time>2024-11-24T12:34:50Z</time></trkpt>
<trkpt lat="46.75055" lon="6.45069"><ele></ele><time>2024-11-24T12:34:53Z</time></trkpt>
<trkpt lat="46.75055" lon="6.45065"><ele></ele><time>2024-11-24T12:34:56Z</time></trkpt>
<trkpt lat="46.75056" lon="6.45058"><ele></ele><time>2024-11-24T12:34:59Z</time></trkpt>
<trkpt lat="46.75056" lon="6.45056"><ele></ele><time>2024-11-24T12:35:2Z</time></trkpt>
<trkpt lat="46.75056" lon="6.45048"><ele></ele><time>2024-11-24T12:35:5Z</time></trkpt>
<trkpt lat="46.75057" lon="6.45045"><ele></ele><time>2024-11-24T12:35:8Z</time></trkpt>
<trkpt lat="46.75057" lon="6.45041"><ele></ele><time>2024-11-24T12:35:11Z</time></trkpt>
<trkpt lat="46.75057" lon="6.45038"><ele></ele><time>2024-11-24T12:35:14Z</time></trkpt>
<trkpt lat="46.75058" lon="6.45034"><ele></ele><time>2024-11-24T12:35:17Z</time></trkpt>
<trkpt lat="46.75058" lon="6.45029"><ele></ele><time>2024-11-24T12:35:20Z</time></trkpt>
<trkpt lat="46.7506" lon="6.45022"><ele></ele><time>2024-11-24T12:35:23Z</time></trkpt>
<trkpt lat="46.75061" lon="6.45017"><ele></ele><time>2024-11-24T12:35:26Z</time></trkpt>
<trkpt lat="46.75061" lon="6.45011"><ele></ele><time>2024-11-24T12:35:29Z</time></trkpt>
<trkpt lat="46.75061" lon="6.45002"><ele></ele><time>2024-11-24T12:35:32Z</time></trkpt>
<trkpt lat="46.75061" lon="6.45"><ele></ele><time>2024-11-24T12:35:35Z</time></trkpt>
<trkpt lat="46.75061" lon="6.44992"><ele></ele><time>2024-11-24T12:35:38Z</time></trkpt>
<trkpt lat="46.75062" lon="6.44987"><ele></ele><time>2024-11-24T12:35:41Z</time></trkpt>
<trkpt lat="46.75065" lon="6.44982"><ele></ele><time>2024-11-24T12:35:44Z</time></trkpt>
<trkpt lat="46.75065" lon="6.44981"><ele></ele><time>2024-11-24T12:35:47Z</time></trkpt>
<trkpt lat="46.75071" lon="6.44983"><ele></ele><time>2024-11-24T12:35:50Z</time></trkpt>
<trkpt lat="46.75072" lon="6.44993"><ele></ele><time>2024-11-24T12:35:53Z</time></trkpt>
<trkpt lat="46.75071" lon="6.44995"><ele></ele><time>2024-11-24T12:35:56Z</time></trkpt>
<trkpt lat="46.75071" lon="6.45001"><ele></ele><time>2024-11-24T12:35:59Z</time></trkpt>
<trkpt lat="46.75071" lon="6.45013"><ele></ele><time>2024-11-24T12:36:2Z</time></trkpt>
<trkpt lat="46.7507" lon="6.45014"><ele></ele><time>2024-11-24T12:36:5Z</time></trkpt>
<trkpt lat="46.75071" lon="6.45022"><ele></ele><time>2024-11-24T12:36:8Z</time></trkpt>
<trkpt lat="46.75072" lon="6.45027"><ele></ele><time>2024-11-24T12:36:11Z</time></trkpt>
<trkpt lat="46.75073" lon="6.45032"><ele></ele><time>2024-11-24T12:36:14Z</time></trkpt>
<trkpt lat="46.75074" lon="6.45038"><ele></ele><time>2024-11-24T12:36:17Z</time></trkpt>
<trkpt lat="46.75074" lon="6.4504"><ele></ele><time>2024-11-24T12:36:20Z</time></trkpt>
<trkpt lat="46.75077" lon="6.45049"><ele></ele><time>2024-11-24T12:36:23Z</time></trkpt>
<trkpt lat="46.75078" lon="6.45052"><ele></ele><time>2024-11-24T12:36:26Z</time></trkpt>
<trkpt lat="46.75079" lon="6.45056"><ele></ele><time>2024-11-24T12:36:29Z</time></trkpt>
<trkpt lat="46.75081" lon="6.45059"><ele></ele><time>2024-11-24T12:36:32Z</time></trkpt>
<trkpt lat="46.75081" lon="6.45061"><ele></ele><time>2024-11-24T12:36:35Z</time></trkpt>
<trkpt lat="46.75081" lon="6.45061"><ele></ele><time>2024-11-24T12:36:38Z</time></trkpt>
<trkpt lat="46.75081" lon="6.45062"><ele></ele><time>2024-11-24T12:36:41Z</time></trkpt>
<trkpt lat="46.75081" lon="6.45062"><ele></ele><time>2024-11-24T12:36:44Z</time></trkpt>
<trkpt lat="46.75082" lon="6.45063"><ele></ele><time>2024-11-24T12:36:47Z</time></trkpt>
<trkpt lat="46.75083" lon="6.45065"><ele></ele><time>2024-11-24T12:36:50Z</time></trkpt>
<trkpt lat="46.75083" lon="6.45066"><ele></ele><time>2024-11-24T12:36:53Z</time></trkpt>
<trkpt lat="46.75084" lon="6.45068"><ele></ele><time>2024-11-24T12:36:56Z</time></trkpt>
<trkpt lat="46.75085" lon="6.45069"><ele></ele><time>2024-11-24T12:36:59Z</time></trkpt>
<trkpt lat="46.75089" lon="6.45074"><ele></ele><time>2024-11-24T12:37:2Z</time></trkpt>
<trkpt lat="46.75092" lon="6.45077"><ele></ele><time>2024-11-24T12:37:5Z</time></trkpt>
<trkpt lat="46.75095" lon="6.45083"><ele></ele><time>2024-11-24T12:37:8Z</time></trkpt>
<trkpt lat="46.75096" lon="6.45084"><ele></ele><time>2024-11-24T12:37:11Z</time></trkpt>
<trkpt lat="46.751" lon="6.45092"><ele></ele><time>2024-11-24T12:37:14Z</time></trkpt>
<trkpt lat="46.75101" lon="6.45094"><ele></ele><time>2024-11-24T12:37:17Z</time></trkpt>
<trkpt lat="46.75103" lon="6.45101"><ele></ele><time>2024-11-24T12:37:20Z</time></trkpt>
<trkpt lat="46.75106" lon="6.45113"><ele></ele><time>2024-11-24T12:37:23Z</time></trkpt>
<trkpt lat="46.75107" lon="6.45115"><ele></ele><time>2024-11-24T12:37:26Z</time></trkpt>
<trkpt lat="46.75111" lon="6.45125"><ele></ele><time>2024-11-24T12:37:29Z</time></trkpt>
<trkpt lat="46.75111" lon="6.45127"><ele></ele><time>2024-11-24T12:37:32Z</time></trkpt>
<trkpt lat="46.75114" lon="6.45137"><ele></ele><time>2024-11-24T12:37:35Z</time></trkpt>
<trkpt lat="46.75114" lon="6.45139"><ele></ele><time>2024-11-24T12:37:38Z</time></trkpt>
<trkpt lat="46.75117" lon="6.45147"><ele></ele><time>2024-11-24T12:37:41Z</time></trkpt>
<trkpt lat="46.75117" lon="6.45149"><ele></ele><time>2024-11-24T12:37:44Z</time></trkpt>
<trkpt lat="46.75121" lon="6.45159"><ele></ele><time>2024-11-24T12:37:47Z</time></trkpt>
<trkpt lat="46.75122" lon="6.45162"><ele></ele><time>2024-11-24T12:37:50Z</time></trkpt>
<trkpt lat="46.75126" lon="6.45171"><ele></ele><time>2024-11-24T12:37:53Z</time></trkpt>
<trkpt lat="46.75126" lon="6.45173"><ele></ele><time>2024-11-24T12:37:56Z</time></trkpt>
<trkpt lat="46.75129" lon="6.45184"><ele></ele><time>2024-11-24T12:37:59Z</time></trkpt>
<trkpt lat="46.75131" lon="6.45189"><ele></ele><time>2024-11-24T12:38:2Z</time></trkpt>
<trkpt lat="46.75134" lon="6.45195"><ele></ele><time>2024-11-24T12:38:5Z</time></trkpt>
<trkpt lat="46.75136" lon="6.45199"><ele></ele><time>2024-11-24T12:38:8Z</time></trkpt>
<trkpt lat="46.7514" lon="6.45212"><ele></ele><time>2024-11-24T12:38:11Z</time></trkpt>
<trkpt lat="46.75142" lon="6.45216"><ele></ele><time>2024-11-24T12:38:14Z</time></trkpt>
<trkpt lat="46.75147" lon="6.45226"><ele></ele><time>2024-11-24T12:38:17Z</time></trkpt>
<trkpt lat="46.75148" lon="6.45229"><ele></ele><time>2024-11-24T12:38:20Z</time></trkpt>
<trkpt lat="46.75155" lon="6.45242"><ele></ele><time>2024-11-24T12:38:23Z</time></trkpt>
<trkpt lat="46.75162" lon="6.45257"><ele></ele><time>2024-11-24T12:38:26Z</time></trkpt>
<trkpt lat="46.75163" lon="6.45259"><ele></ele><time>2024-11-24T12:38:29Z</time></trkpt>
<trkpt lat="46.75175" lon="6.45274"><ele></ele><time>2024-11-24T12:38:32Z</time></trkpt>
<trkpt lat="46.75179" lon="6.45275"><ele></ele><time>2024-11-24T12:38:35Z</time></trkpt>
<trkpt lat="46.75186" lon="6.4528"><ele></ele><time>2024-11-24T12:38:38Z</time></trkpt>
<trkpt lat="46.75197" lon="6.45285"><ele></ele><time>2024-11-24T12:38:41Z</time></trkpt>
<trkpt lat="46.75203" lon="6.45287"><ele></ele><time>2024-11-24T12:38:44Z</time></trkpt>
<trkpt lat="46.75215" lon="6.45295"><ele></ele><time>2024-11-24T12:38:47Z</time></trkpt>
<trkpt lat="46.75222" lon="6.45299"><ele></ele><time>2024-11-24T12:38:50Z</time></trkpt>
<trkpt lat="46.75226" lon="6.453"><ele></ele><time>2024-11-24T12:38:53Z</time></trkpt>
<trkpt lat="46.75236" lon="6.45306"><ele></ele><time>2024-11-24T12:38:56Z</time></trkpt>
<trkpt lat="46.7524" lon="6.45308"><ele></ele><time>2024-11-24T12:38:59Z</time></trkpt>
<trkpt lat="46.75245" lon="6.45312"><ele></ele><time>2024-11-24T12:39:2Z</time></trkpt>
<trkpt lat="46.7525" lon="6.45315"><ele></ele><time>2024-11-24T12:39:5Z</time></trkpt>
<trkpt lat="46.75256" lon="6.45319"><ele></ele><time>2024-11-24T12:39:8Z</time></trkpt>
<trkpt lat="46.75259" lon="6.45319"><ele></ele><time>2024-11-24T12:39:11Z</time></trkpt>
<trkpt lat="46.75262" lon="6.45316"><ele></ele><time>2024-11-24T12:39:14Z</time></trkpt>
<trkpt lat="46.7526" lon="6.45306"><ele></ele><time>2024-11-24T12:39:17Z</time></trkpt>
<trkpt lat="46.75259" lon="6.45303"><ele></ele><time>2024-11-24T12:39:20Z</time></trkpt>
<trkpt lat="46.75256" lon="6.45291"><ele></ele><time>2024-11-24T12:39:23Z</time></trkpt>
<trkpt lat="46.75255" lon="6.45283"><ele></ele><time>2024-11-24T12:39:26Z</time></trkpt>
<trkpt lat="46.75253" lon="6.45279"><ele></ele><time>2024-11-24T12:39:29Z</time></trkpt>
<trkpt lat="46.75249" lon="6.45264"><ele></ele><time>2024-11-24T12:39:32Z</time></trkpt>
<trkpt lat="46.75247" lon="6.45262"><ele></ele><time>2024-11-24T12:39:35Z</time></trkpt>
<trkpt lat="46.75244" lon="6.45253"><ele></ele><time>2024-11-24T12:39:38Z</time></trkpt>
<trkpt lat="46.75238" lon="6.45242"><ele></ele><time>2024-11-24T12:39:41Z</time></trkpt>
<trkpt lat="46.75237" lon="6.4524"><ele></ele><time>2024-11-24T12:39:44Z</time></trkpt>
<trkpt lat="46.75231" lon="6.45228"><ele></ele><time>2024-11-24T12:39:47Z</time></trkpt>
<trkpt lat="46.7523" lon="6.45226"><ele></ele><time>2024-11-24T12:39:50Z</time></trkpt>
<trkpt lat="46.75225" lon="6.45207"><ele></ele><time>2024-11-24T12:39:53Z</time></trkpt>
<trkpt lat="46.75222" lon="6.45186"><ele></ele><time>2024-11-24T12:39:56Z</time></trkpt>
<trkpt lat="46.75222" lon="6.45179"><ele></ele><time>2024-11-24T12:39:59Z</time></trkpt>
<trkpt lat="46.75217" lon="6.4516"><ele></ele><time>2024-11-24T12:40:2Z</time></trkpt>
<trkpt lat="46.75216" lon="6.45154"><ele></ele><time>2024-11-24T12:40:5Z</time></trkpt>
<trkpt lat="46.75212" lon="6.45137"><ele></ele><time>2024-11-24T12:40:8Z</time></trkpt>
<trkpt lat="46.75209" lon="6.45132"><ele></ele><time>2024-11-24T12:40:11Z</time></trkpt>
<trkpt lat="46.75205" lon="6.4512"><ele></ele><time>2024-11-24T12:40:14Z</time></trkpt>
<trkpt lat="46.75203" lon="6.45116"><ele></ele><time>2024-11-24T12:40:17Z</time></trkpt>
<trkpt lat="46.75201" lon="6.45104"><ele></ele><time>2024-11-24T12:40:20Z</time></trkpt>
<trkpt lat="46.75199" lon="6.45098"><ele></ele><time>2024-11-24T12:40:23Z</time></trkpt>
<trkpt lat="46.75193" lon="6.45074"><ele></ele><time>2024-11-24T12:40:26Z</time></trkpt>
<trkpt lat="46.75191" lon="6.45067"><ele></ele><time>2024-11-24T12:40:29Z</time></trkpt>
<trkpt lat="46.75187" lon="6.4504"><ele></ele><time>2024-11-24T12:40:32Z</time></trkpt>
<trkpt lat="46.75185" lon="6.45028"><ele></ele><time>2024-11-24T12:40:35Z</time></trkpt>
<trkpt lat="46.75181" lon="6.45006"><ele></ele><time>2024-11-24T12:40:38Z</time></trkpt>
<trkpt lat="46.75178" lon="6.44969"><ele></ele><time>2024-11-24T12:40:41Z</time></trkpt>
<trkpt lat="46.7518" lon="6.44929"><ele></ele><time>2024-11-24T12:40:44Z</time></trkpt>
<trkpt lat="46.75182" lon="6.44922"><ele></ele><time>2024-11-24T12:40:47Z</time></trkpt>
<trkpt lat="46.75187" lon="6.44899"><ele></ele><time>2024-11-24T12:40:50Z</time></trkpt>
<trkpt lat="46.75193" lon="6.4488"><ele></ele><time>2024-11-24T12:40:53Z</time></trkpt>
<trkpt lat="46.75201" lon="6.44863"><ele></ele><time>2024-11-24T12:40:56Z</time></trkpt>
<trkpt lat="46.75202" lon="6.4486"><ele></ele><time>2024-11-24T12:40:59Z</time></trkpt>
<trkpt lat="46.75206" lon="6.44852"><ele></ele><time>2024-11-24T12:41:2Z</time></trkpt>
<trkpt lat="46.75213" lon="6.44842"><ele></ele><time>2024-11-24T12:41:5Z</time></trkpt>
<trkpt lat="46.75218" lon="6.44835"><ele></ele><time>2024-11-24T12:41:8Z</time></trkpt>
<trkpt lat="46.75222" lon="6.44829"><ele></ele><time>2024-11-24T12:41:11Z</time></trkpt>
<trkpt lat="46.75227" lon="6.4482"><ele></ele><time>2024-11-24T12:41:14Z</time></trkpt>
<trkpt lat="46.75233" lon="6.44813"><ele></ele><time>2024-11-24T12:41:17Z</time></trkpt>
<trkpt lat="46.75238" lon="6.44806"><ele></ele><time>2024-11-24T12:41:20Z</time></trkpt>
<trkpt lat="46.75245" lon="6.44798"><ele></ele><time>2024-11-24T12:41:23Z</time></trkpt>
<trkpt lat="46.75248" lon="6.44796"><ele></ele><time>2024-11-24T12:41:26Z</time></trkpt>
<trkpt lat="46.75262" lon="6.44785"><ele></ele><time>2024-11-24T12:41:29Z</time></trkpt>
<trkpt lat="46.7528" lon="6.44769"><ele></ele><time>2024-11-24T12:41:32Z</time></trkpt>
<trkpt lat="46.75283" lon="6.44766"><ele></ele><time>2024-11-24T12:41:35Z</time></trkpt>
<trkpt lat="46.75298" lon="6.4475"><ele></ele><time>2024-11-24T12:41:38Z</time></trkpt>
<trkpt lat="46.753" lon="6.44749"><ele></ele><time>2024-11-24T12:41:41Z</time></trkpt>
<trkpt lat="46.75313" lon="6.44746"><ele></ele><time>2024-11-24T12:41:44Z</time></trkpt>
<trkpt lat="46.75326" lon="6.44749"><ele></ele><time>2024-11-24T12:41:47Z</time></trkpt>
<trkpt lat="46.75327" lon="6.4475"><ele></ele><time>2024-11-24T12:41:50Z</time></trkpt>
<trkpt lat="46.75327" lon="6.44752"><ele></ele><time>2024-11-24T12:41:53Z</time></trkpt>
<trkpt lat="46.75325" lon="6.44755"><ele></ele><time>2024-11-24T12:41:56Z</time></trkpt>
<trkpt lat="46.7532" lon="6.44758"><ele></ele><time>2024-11-24T12:41:59Z</time></trkpt>
<trkpt lat="46.75316" lon="6.44761"><ele></ele><time>2024-11-24T12:42:2Z</time></trkpt>
<trkpt lat="46.75312" lon="6.44766"><ele></ele><time>2024-11-24T12:42:5Z</time></trkpt>
<trkpt lat="46.75308" lon="6.44773"><ele></ele><time>2024-11-24T12:42:8Z</time></trkpt>
<trkpt lat="46.75306" lon="6.44777"><ele></ele><time>2024-11-24T12:42:11Z</time></trkpt>
<trkpt lat="46.75302" lon="6.44785"><ele></ele><time>2024-11-24T12:42:14Z</time></trkpt>
<trkpt lat="46.75299" lon="6.44791"><ele></ele><time>2024-11-24T12:42:17Z</time></trkpt>
<trkpt lat="46.75295" lon="6.44801"><ele></ele><time>2024-11-24T12:42:20Z</time></trkpt>
<trkpt lat="46.75293" lon="6.44808"><ele></ele><time>2024-11-24T12:42:23Z</time></trkpt>
<trkpt lat="46.7529" lon="6.44819"><ele></ele><time>2024-11-24T12:42:26Z</time></trkpt>
<trkpt lat="46.75288" lon="6.44826"><ele></ele><time>2024-11-24T12:42:29Z</time></trkpt>
<trkpt lat="46.75285" lon="6.44836"><ele></ele><time>2024-11-24T12:42:32Z</time></trkpt>
<trkpt lat="46.75283" lon="6.4484"><ele></ele><time>2024-11-24T12:42:35Z</time></trkpt>
<trkpt lat="46.75276" lon="6.44856"><ele></ele><time>2024-11-24T12:42:38Z</time></trkpt>
<trkpt lat="46.75276" lon="6.44858"><ele></ele><time>2024-11-24T12:42:41Z</time></trkpt>
<trkpt lat="46.75269" lon="6.44876"><ele></ele><time>2024-11-24T12:42:44Z</time></trkpt>
<trkpt lat="46.75264" lon="6.4489"><ele></ele><time>2024-11-24T12:42:47Z</time></trkpt>
<trkpt lat="46.75264" lon="6.44892"><ele></ele><time>2024-11-24T12:42:50Z</time></trkpt>
<trkpt lat="46.75262" lon="6.44909"><ele></ele><time>2024-11-24T12:42:53Z</time></trkpt>
<trkpt lat="46.75262" lon="6.44914"><ele></ele><time>2024-11-24T12:42:56Z</time></trkpt>
<trkpt lat="46.75261" lon="6.44926"><ele></ele><time>2024-11-24T12:42:59Z</time></trkpt>
<trkpt lat="46.7526" lon="6.44928"><ele></ele><time>2024-11-24T12:43:2Z</time></trkpt>
<trkpt lat="46.75259" lon="6.44938"><ele></ele><time>2024-11-24T12:43:5Z</time></trkpt>
<trkpt lat="46.75259" lon="6.44945"><ele></ele><time>2024-11-24T12:43:8Z</time></trkpt>
<trkpt lat="46.7526" lon="6.44955"><ele></ele><time>2024-11-24T12:43:11Z</time></trkpt>
<trkpt lat="46.75262" lon="6.44967"><ele></ele><time>2024-11-24T12:43:14Z</time></trkpt>
<trkpt lat="46.75263" lon="6.44971"><ele></ele><time>2024-11-24T12:43:17Z</time></trkpt>
<trkpt lat="46.75265" lon="6.44985"><ele></ele><time>2024-11-24T12:43:20Z</time></trkpt>
<trkpt lat="46.75265" lon="6.44987"><ele></ele><time>2024-11-24T12:43:23Z</time></trkpt>
<trkpt lat="46.75267" lon="6.45003"><ele></ele><time>2024-11-24T12:43:26Z</time></trkpt>
<trkpt lat="46.75268" lon="6.45004"><ele></ele><time>2024-11-24T12:43:29Z</time></trkpt>
<trkpt lat="46.75273" lon="6.45018"><ele></ele><time>2024-11-24T12:43:32Z</time></trkpt>
<trkpt lat="46.75276" lon="6.45026"><ele></ele><time>2024-11-24T12:43:35Z</time></trkpt>
<trkpt lat="46.75277" lon="6.45029"><ele></ele><time>2024-11-24T12:43:38Z</time></trkpt>
<trkpt lat="46.75279" lon="6.45033"><ele></ele><time>2024-11-24T12:43:41Z</time></trkpt>
<trkpt lat="46.75284" lon="6.45046"><ele></ele><time>2024-11-24T12:43:44Z</time></trkpt>
<trkpt lat="46.75288" lon="6.45052"><ele></ele><time>2024-11-24T12:43:47Z</time></trkpt>
<trkpt lat="46.75295" lon="6.45068"><ele></ele><time>2024-11-24T12:43:50Z</time></trkpt>
<trkpt lat="46.75302" lon="6.45081"><ele></ele><time>2024-11-24T12:43:53Z</time></trkpt>
<trkpt lat="46.75303" lon="6.45084"><ele></ele><time>2024-11-24T12:43:56Z</time></trkpt>
<trkpt lat="46.75309" lon="6.45093"><ele></ele><time>2024-11-24T12:43:59Z</time></trkpt>
<trkpt lat="46.7531" lon="6.45095"><ele></ele><time>2024-11-24T12:44:2Z</time></trkpt>
<trkpt lat="46.75317" lon="6.45106"><ele></ele><time>2024-11-24T12:44:5Z</time></trkpt>
<trkpt lat="46.7532" lon="6.45109"><ele></ele><time>2024-11-24T12:44:8Z</time></trkpt>
<trkpt lat="46.7533" lon="6.45118"><ele></ele><time>2024-11-24T12:44:11Z</time></trkpt>
<trkpt lat="46.75331" lon="6.4512"><ele></ele><time>2024-11-24T12:44:14Z</time></trkpt>
<trkpt lat="46.75339" lon="6.45128"><ele></ele><time>2024-11-24T12:44:17Z</time></trkpt>
<trkpt lat="46.7534" lon="6.45129"><ele></ele><time>2024-11-24T12:44:20Z</time></trkpt>
<trkpt lat="46.75347" lon="6.45134"><ele></ele><time>2024-11-24T12:44:23Z</time></trkpt>
<trkpt lat="46.7535" lon="6.45136"><ele></ele><time>2024-11-24T12:44:26Z</time></trkpt>
<trkpt lat="46.75358" lon="6.45142"><ele></ele><time>2024-11-24T12:44:29Z</time></trkpt>
<trkpt lat="46.75362" lon="6.45143"><ele></ele><time>2024-11-24T12:44:32Z</time></trkpt>
<trkpt lat="46.75368" lon="6.45145"><ele></ele><time>2024-11-24T12:44:35Z</time></trkpt>
<trkpt lat="46.75376" lon="6.45149"><ele></ele><time>2024-11-24T12:44:38Z</time></trkpt>
<trkpt lat="46.75381" lon="6.45152"><ele></ele><time>2024-11-24T12:44:41Z</time></trkpt>
<trkpt lat="46.75392" lon="6.45157"><ele></ele><time>2024-11-24T12:44:44Z</time></trkpt>
<trkpt lat="46.75395" lon="6.45159"><ele></ele><time>2024-11-24T12:44:47Z</time></trkpt>
<trkpt lat="46.75404" lon="6.45165"><ele></ele><time>2024-11-24T12:44:50Z</time></trkpt>
<trkpt lat="46.75405" lon="6.45166"><ele></ele><time>2024-11-24T12:44:53Z</time></trkpt>
<trkpt lat="46.75414" lon="6.4517"><ele></ele><time>2024-11-24T12:44:56Z</time></trkpt>
<trkpt lat="46.75417" lon="6.45173"><ele></ele><time>2024-11-24T12:44:59Z</time></trkpt>
<trkpt lat="46.75425" lon="6.45178"><ele></ele><time>2024-11-24T12:45:2Z</time></trkpt>
<trkpt lat="46.75431" lon="6.45181"><ele></ele><time>2024-11-24T12:45:5Z</time></trkpt>
<trkpt lat="46.75438" lon="6.45185"><ele></ele><time>2024-11-24T12:45:8Z</time></trkpt>
<trkpt lat="46.75444" lon="6.45188"><ele></ele><time>2024-11-24T12:45:11Z</time></trkpt>
<trkpt lat="46.75452" lon="6.45194"><ele></ele><time>2024-11-24T12:45:14Z</time></trkpt>
<trkpt lat="46.75455" lon="6.45197"><ele></ele><time>2024-11-24T12:45:17Z</time></trkpt>
<trkpt lat="46.75465" lon="6.45202"><ele></ele><time>2024-11-24T12:45:20Z</time></trkpt>
<trkpt lat="46.75466" lon="6.45203"><ele></ele><time>2024-11-24T12:45:23Z</time></trkpt>
<trkpt lat="46.75476" lon="6.45206"><ele></ele><time>2024-11-24T12:45:26Z</time></trkpt>
<trkpt lat="46.75478" lon="6.45207"><ele></ele><time>2024-11-24T12:45:29Z</time></trkpt>
<trkpt lat="46.75492" lon="6.45212"><ele></ele><time>2024-11-24T12:45:32Z</time></trkpt>
<trkpt lat="46.75494" lon="6.45213"><ele></ele><time>2024-11-24T12:45:35Z</time></trkpt>
<trkpt lat="46.75507" lon="6.45215"><ele></ele><time>2024-11-24T12:45:38Z</time></trkpt>
<trkpt lat="46.75516" lon="6.45217"><ele></ele><time>2024-11-24T12:45:41Z</time></trkpt>
<trkpt lat="46.75517" lon="6.45218"><ele></ele><time>2024-11-24T12:45:44Z</time></trkpt>
<trkpt lat="46.75528" lon="6.4522"><ele></ele><time>2024-11-24T12:45:47Z</time></trkpt>
<trkpt lat="46.75542" lon="6.45224"><ele></ele><time>2024-11-24T12:45:50Z</time></trkpt>
<trkpt lat="46.75544" lon="6.45225"><ele></ele><time>2024-11-24T12:45:53Z</time></trkpt>
<trkpt lat="46.75558" lon="6.45227"><ele></ele><time>2024-11-24T12:45:56Z</time></trkpt>
<trkpt lat="46.75568" lon="6.45229"><ele></ele><time>2024-11-24T12:45:59Z</time></trkpt>
<trkpt lat="46.75572" lon="6.45229"><ele></ele><time>2024-11-24T12:46:2Z</time></trkpt>
<trkpt lat="46.75584" lon="6.45231"><ele></ele><time>2024-11-24T12:46:5Z</time></trkpt>
<trkpt lat="46.75587" lon="6.4523"><ele></ele><time>2024-11-24T12:46:8Z</time></trkpt>
<trkpt lat="46.75596" lon="6.45231"><ele></ele><time>2024-11-24T12:46:11Z</time></trkpt>
<trkpt lat="46.75599" lon="6.45231"><ele></ele><time>2024-11-24T12:46:14Z</time></trkpt>
<trkpt lat="46.75609" lon="6.45232"><ele></ele><time>2024-11-24T12:46:17Z</time></trkpt>
<trkpt lat="46.75611" lon="6.45232"><ele></ele><time>2024-11-24T12:46:20Z</time></trkpt>
<trkpt lat="46.75624" lon="6.45234"><ele></ele><time>2024-11-24T12:46:23Z</time></trkpt>
<trkpt lat="46.75625" lon="6.45234"><ele></ele><time>2024-11-24T12:46:26Z</time></trkpt>
<trkpt lat="46.7564" lon="6.45235"><ele></ele><time>2024-11-24T12:46:29Z</time></trkpt>
<trkpt lat="46.7565" lon="6.45235"><ele></ele><time>2024-11-24T12:46:32Z</time></trkpt>
<trkpt lat="46.75651" lon="6.45235"><ele></ele><time>2024-11-24T12:46:35Z</time></trkpt>
<trkpt lat="46.75667" lon="6.45236"><ele></ele><time>2024-11-24T12:46:38Z</time></trkpt>
<trkpt lat="46.75669" lon="6.45236"><ele></ele><time>2024-11-24T12:46:41Z</time></trkpt>
<trkpt lat="46.75677" lon="6.45236"><ele></ele><time>2024-11-24T12:46:44Z</time></trkpt>
<trkpt lat="46.75678" lon="6.45235"><ele></ele><time>2024-11-24T12:46:47Z</time></trkpt>
<trkpt lat="46.75686" lon="6.45237"><ele></ele><time>2024-11-24T12:46:50Z</time></trkpt>
<trkpt lat="46.75689" lon="6.45237"><ele></ele><time>2024-11-24T12:46:53Z</time></trkpt>
<trkpt lat="46.75695" lon="6.45237"><ele></ele><time>2024-11-24T12:46:56Z</time></trkpt>
<trkpt lat="46.75705" lon="6.45238"><ele></ele><time>2024-11-24T12:46:59Z</time></trkpt>
<trkpt lat="46.75715" lon="6.45237"><ele></ele><time>2024-11-24T12:47:2Z</time></trkpt>
<trkpt lat="46.75719" lon="6.45236"><ele></ele><time>2024-11-24T12:47:5Z</time></trkpt>
<trkpt lat="46.75724" lon="6.45234"><ele></ele><time>2024-11-24T12:47:8Z</time></trkpt>
<trkpt lat="46.75725" lon="6.45234"><ele></ele><time>2024-11-24T12:47:11Z</time></trkpt>
<trkpt lat="46.75725" lon="6.45234"><ele></ele><time>2024-11-24T12:47:14Z</time></trkpt>
<trkpt lat="46.75725" lon="6.45234"><ele></ele><time>2024-11-24T12:47:17Z</time></trkpt>
<trkpt lat="46.75726" lon="6.45234"><ele></ele><time>2024-11-24T12:47:20Z</time></trkpt>
<trkpt lat="46.75725" lon="6.45233"><ele></ele><time>2024-11-24T12:47:23Z</time></trkpt>
<trkpt lat="46.75725" lon="6.45233"><ele></ele><time>2024-11-24T12:47:26Z</time></trkpt>
<trkpt lat="46.75727" lon="6.45232"><ele></ele><time>2024-11-24T12:47:29Z</time></trkpt>
<trkpt lat="46.75729" lon="6.45235"><ele></ele><time>2024-11-24T12:47:32Z</time></trkpt>
<trkpt lat="46.75736" lon="6.45239"><ele></ele><time>2024-11-24T12:47:35Z</time></trkpt>
<trkpt lat="46.75741" lon="6.45241"><ele></ele><time>2024-11-24T12:47:38Z</time></trkpt>
<trkpt lat="46.75741" lon="6.45241"><ele></ele><time>2024-11-24T12:47:41Z</time></trkpt>
<trkpt lat="46.75741" lon="6.45244"><ele></ele><time>2024-11-24T12:47:44Z</time></trkpt>
<trkpt lat="46.75742" lon="6.45243"><ele></ele><time>2024-11-24T12:47:47Z</time></trkpt>
<trkpt lat="46.75742" lon="6.45243"><ele></ele><time>2024-11-24T12:47:50Z</time></trkpt>
<trkpt lat="46.75742" lon="6.45244"><ele></ele><time>2024-11-24T12:47:53Z</time></trkpt>
<trkpt lat="46.75742" lon="6.45243"><ele></ele><time>2024-11-24T12:47:56Z</time></trkpt>
<trkpt lat="46.75743" lon="6.45244"><ele></ele><time>2024-11-24T12:47:59Z</time></trkpt>
<trkpt lat="46.75743" lon="6.45244"><ele></ele><time>2024-11-24T12:48:2Z</time></trkpt>
<trkpt lat="46.75742" lon="6.45242"><ele></ele><time>2024-11-24T12:48:5Z</time></trkpt>
<trkpt lat="46.75742" lon="6.45242"><ele></ele><time>2024-11-24T12:48:8Z</time></trkpt>
<trkpt lat="46.75742" lon="6.45242"><ele></ele><time>2024-11-24T12:48:11Z</time></trkpt>
<trkpt lat="46.75741" lon="6.45245"><ele></ele><time>2024-11-24T12:48:14Z</time></trkpt>
<trkpt lat="46.75741" lon="6.45245"><ele></ele><time>2024-11-24T12:48:17Z</time></trkpt>
<trkpt lat="46.75742" lon="6.45245"><ele></ele><time>2024-11-24T12:48:20Z</time></trkpt>
<trkpt lat="46.75741" lon="6.45245"><ele></ele><time>2024-11-24T12:48:23Z</time></trkpt>
<trkpt lat="46.7574" lon="6.45242"><ele></ele><time>2024-11-24T12:48:26Z</time></trkpt>
<trkpt lat="46.75741" lon="6.45242"><ele></ele><time>2024-11-24T12:48:29Z</time></trkpt>
<trkpt lat="46.75742" lon="6.45244"><ele></ele><time>2024-11-24T12:48:32Z</time></trkpt>
<trkpt lat="46.75742" lon="6.45244"><ele></ele><time>2024-11-24T12:48:35Z</time></trkpt>
<trkpt lat="46.75742" lon="6.45243"><ele></ele><time>2024-11-24T12:48:38Z</time></trkpt>
<trkpt lat="46.75741" lon="6.45244"><ele></ele><time>2024-11-24T12:48:41Z</time></trkpt>
<trkpt lat="46.75741" lon="6.45242"><ele></ele><time>2024-11-24T12:48:44Z</time></trkpt>
<trkpt lat="46.75742" lon="6.45243"><ele></ele><time>2024-11-24T12:48:47Z</time></trkpt>
<trkpt lat="46.75742" lon="6.45243"><ele></ele><time>2024-11-24T12:48:50Z</time></trkpt>
<trkpt lat="46.75743" lon="6.45244"><ele></ele><time>2024-11-24T12:48:53Z</time></trkpt>
<trkpt lat="46.75742" lon="6.45243"><ele></ele><time>2024-11-24T12:48:56Z</time></trkpt>
<trkpt lat="46.75737" lon="6.45237"><ele></ele><time>2024-11-24T12:48:59Z</time></trkpt>
<trkpt lat="46.75734" lon="6.45229"><ele></ele><time>2024-11-24T12:49:2Z</time></trkpt>
<trkpt lat="46.75734" lon="6.45225"><ele></ele><time>2024-11-24T12:49:5Z</time></trkpt>
<trkpt lat="46.75736" lon="6.45223"><ele></ele><time>2024-11-24T12:49:8Z</time></trkpt>
<trkpt lat="46.75739" lon="6.4522"><ele></ele><time>2024-11-24T12:49:11Z</time></trkpt>
<trkpt lat="46.75743" lon="6.45214"><ele></ele><time>2024-11-24T12:49:14Z</time></trkpt>
<trkpt lat="46.75746" lon="6.45208"><ele></ele><time>2024-11-24T12:49:17Z</time></trkpt>
<trkpt lat="46.7575" lon="6.45197"><ele></ele><time>2024-11-24T12:49:20Z</time></trkpt>
<trkpt lat="46.75751" lon="6.45195"><ele></ele><time>2024-11-24T12:49:23Z</time></trkpt>
<trkpt lat="46.75753" lon="6.45186"><ele></ele><time>2024-11-24T12:49:26Z</time></trkpt>
<trkpt lat="46.75755" lon="6.45175"><ele></ele><time>2024-11-24T12:49:29Z</time></trkpt>
<trkpt lat="46.75755" lon="6.45156"><ele></ele><time>2024-11-24T12:49:32Z</time></trkpt>
<trkpt lat="46.75755" lon="6.45153"><ele></ele><time>2024-11-24T12:49:35Z</time></trkpt>
<trkpt lat="46.75753" lon="6.45135"><ele></ele><time>2024-11-24T12:49:38Z</time></trkpt>
<trkpt lat="46.75749" lon="6.45118"><ele></ele><time>2024-11-24T12:49:41Z</time></trkpt>
<trkpt lat="46.75747" lon="6.45113"><ele></ele><time>2024-11-24T12:49:44Z</time></trkpt>
<trkpt lat="46.75744" lon="6.45099"><ele></ele><time>2024-11-24T12:49:47Z</time></trkpt>
<trkpt lat="46.75742" lon="6.45094"><ele></ele><time>2024-11-24T12:49:50Z</time></trkpt>
<trkpt lat="46.75739" lon="6.45081"><ele></ele><time>2024-11-24T12:49:53Z</time></trkpt>
<trkpt lat="46.75738" lon="6.45076"><ele></ele><time>2024-11-24T12:49:56Z</time></trkpt>
<trkpt lat="46.75737" lon="6.45071"><ele></ele><time>2024-11-24T12:49:59Z</time></trkpt>
<trkpt lat="46.75736" lon="6.45069"><ele></ele><time>2024-11-24T12:50:2Z</time></trkpt>
<trkpt lat="46.75735" lon="6.45064"><ele></ele><time>2024-11-24T12:50:5Z</time></trkpt>
<trkpt lat="46.75734" lon="6.45057"><ele></ele><time>2024-11-24T12:50:8Z</time></trkpt>
<trkpt lat="46.75732" lon="6.45048"><ele></ele><time>2024-11-24T12:50:11Z</time></trkpt>
<trkpt lat="46.75728" lon="6.45034"><ele></ele><time>2024-11-24T12:50:14Z</time></trkpt>
<trkpt lat="46.75725" lon="6.45019"><ele></ele><time>2024-11-24T12:50:17Z</time></trkpt>
<trkpt lat="46.75721" lon="6.45004"><ele></ele><time>2024-11-24T12:50:20Z</time></trkpt>
<trkpt lat="46.7572" lon="6.45002"><ele></ele><time>2024-11-24T12:50:23Z</time></trkpt>
<trkpt lat="46.75718" lon="6.44989"><ele></ele><time>2024-11-24T12:50:26Z</time></trkpt>
<trkpt lat="46.75717" lon="6.44985"><ele></ele><time>2024-11-24T12:50:29Z</time></trkpt>
<trkpt lat="46.75716" lon="6.44976"><ele></ele><time>2024-11-24T12:50:32Z</time></trkpt>
<trkpt lat="46.75715" lon="6.44961"><ele></ele><time>2024-11-24T12:50:35Z</time></trkpt>
<trkpt lat="46.75713" lon="6.44944"><ele></ele><time>2024-11-24T12:50:38Z</time></trkpt>
<trkpt lat="46.75713" lon="6.44941"><ele></ele><time>2024-11-24T12:50:41Z</time></trkpt>
<trkpt lat="46.75715" lon="6.44927"><ele></ele><time>2024-11-24T12:50:44Z</time></trkpt>
<trkpt lat="46.75716" lon="6.44923"><ele></ele><time>2024-11-24T12:50:47Z</time></trkpt>
<trkpt lat="46.75718" lon="6.44916"><ele></ele><time>2024-11-24T12:50:50Z</time></trkpt>
<trkpt lat="46.75721" lon="6.44908"><ele></ele><time>2024-11-24T12:50:53Z</time></trkpt>
<trkpt lat="46.75724" lon="6.44904"><ele></ele><time>2024-11-24T12:50:56Z</time></trkpt>
<trkpt lat="46.75726" lon="6.44901"><ele></ele><time>2024-11-24T12:50:59Z</time></trkpt>
<trkpt lat="46.75735" lon="6.44895"><ele></ele><time>2024-11-24T12:51:2Z</time></trkpt>
<trkpt lat="46.75739" lon="6.44893"><ele></ele><time>2024-11-24T12:51:5Z</time></trkpt>
<trkpt lat="46.75746" lon="6.44889"><ele></ele><time>2024-11-24T12:51:8Z</time></trkpt>
<trkpt lat="46.75752" lon="6.44888"><ele></ele><time>2024-11-24T12:51:11Z</time></trkpt>
<trkpt lat="46.75753" lon="6.44887"><ele></ele><time>2024-11-24T12:51:14Z</time></trkpt>
<trkpt lat="46.75759" lon="6.44886"><ele></ele><time>2024-11-24T12:51:17Z</time></trkpt>
<trkpt lat="46.75761" lon="6.44885"><ele></ele><time>2024-11-24T12:51:20Z</time></trkpt>
<trkpt lat="46.75765" lon="6.44884"><ele></ele><time>2024-11-24T12:51:23Z</time></trkpt>
<trkpt lat="46.75766" lon="6.44884"><ele></ele><time>2024-11-24T12:51:26Z</time></trkpt>
<trkpt lat="46.75768" lon="6.44883"><ele></ele><time>2024-11-24T12:51:29Z</time></trkpt>
<trkpt lat="46.75773" lon="6.44884"><ele></ele><time>2024-11-24T12:51:32Z</time></trkpt>
<trkpt lat="46.75781" lon="6.44886"><ele></ele><time>2024-11-24T12:51:35Z</time></trkpt>
<trkpt lat="46.75785" lon="6.44886"><ele></ele><time>2024-11-24T12:51:38Z</time></trkpt>
<trkpt lat="46.7579" lon="6.44885"><ele></ele><time>2024-11-24T12:51:41Z</time></trkpt>
<trkpt lat="46.75797" lon="6.44885"><ele></ele><time>2024-11-24T12:51:44Z</time></trkpt>
<trkpt lat="46.75801" lon="6.44885"><ele></ele><time>2024-11-24T12:51:47Z</time></trkpt>
<trkpt lat="46.75811" lon="6.44881"><ele></ele><time>2024-11-24T12:51:50Z</time></trkpt>
<trkpt lat="46.75816" lon="6.4488"><ele></ele><time>2024-11-24T12:51:53Z</time></trkpt>
<trkpt lat="46.7583" lon="6.44878"><ele></ele><time>2024-11-24T12:51:56Z</time></trkpt>
<trkpt lat="46.75844" lon="6.44876"><ele></ele><time>2024-11-24T12:51:59Z</time></trkpt>
<trkpt lat="46.75848" lon="6.44875"><ele></ele><time>2024-11-24T12:52:2Z</time></trkpt>
<trkpt lat="46.75856" lon="6.4487"><ele></ele><time>2024-11-24T12:52:5Z</time></trkpt>
<trkpt lat="46.75863" lon="6.44861"><ele></ele><time>2024-11-24T12:52:8Z</time></trkpt>
<trkpt lat="46.75868" lon="6.44853"><ele></ele><time>2024-11-24T12:52:11Z</time></trkpt>
<trkpt lat="46.75883" lon="6.44836"><ele></ele><time>2024-11-24T12:52:14Z</time></trkpt>
<trkpt lat="46.75886" lon="6.44834"><ele></ele><time>2024-11-24T12:52:17Z</time></trkpt>
<trkpt lat="46.75899" lon="6.44826"><ele></ele><time>2024-11-24T12:52:20Z</time></trkpt>
<trkpt lat="46.75901" lon="6.44825"><ele></ele><time>2024-11-24T12:52:23Z</time></trkpt>
<trkpt lat="46.75904" lon="6.44825"><ele></ele><time>2024-11-24T12:52:26Z</time></trkpt>
<trkpt lat="46.75918" lon="6.44825"><ele></ele><time>2024-11-24T12:52:29Z</time></trkpt>
<trkpt lat="46.75936" lon="6.44833"><ele></ele><time>2024-11-24T12:52:32Z</time></trkpt>
<trkpt lat="46.75946" lon="6.44837"><ele></ele><time>2024-11-24T12:52:35Z</time></trkpt>
<trkpt lat="46.75955" lon="6.44837"><ele></ele><time>2024-11-24T12:52:38Z</time></trkpt>
<trkpt lat="46.75969" lon="6.44844"><ele></ele><time>2024-11-24T12:52:41Z</time></trkpt>
<trkpt lat="46.75974" lon="6.44846"><ele></ele><time>2024-11-24T12:52:44Z</time></trkpt>
<trkpt lat="46.75991" lon="6.44854"><ele></ele><time>2024-11-24T12:52:47Z</time></trkpt>
<trkpt lat="46.76002" lon="6.44857"><ele></ele><time>2024-11-24T12:52:50Z</time></trkpt>
<trkpt lat="46.76006" lon="6.44858"><ele></ele><time>2024-11-24T12:52:53Z</time></trkpt>
<trkpt lat="46.76014" lon="6.44862"><ele></ele><time>2024-11-24T12:52:56Z</time></trkpt>
<trkpt lat="46.7602" lon="6.44862"><ele></ele><time>2024-11-24T12:52:59Z</time></trkpt>
<trkpt lat="46.76028" lon="6.44863"><ele></ele><time>2024-11-24T12:53:2Z</time></trkpt>
<trkpt lat="46.76034" lon="6.44866"><ele></ele><time>2024-11-24T12:53:5Z</time></trkpt>
<trkpt lat="46.76043" lon="6.44873"><ele></ele><time>2024-11-24T12:53:8Z</time></trkpt>
<trkpt lat="46.76046" lon="6.44877"><ele></ele><time>2024-11-24T12:53:11Z</time></trkpt>
<trkpt lat="46.7606" lon="6.44892"><ele></ele><time>2024-11-24T12:53:14Z</time></trkpt>
<trkpt lat="46.76075" lon="6.44911"><ele></ele><time>2024-11-24T12:53:17Z</time></trkpt>
<trkpt lat="46.7609" lon="6.44931"><ele></ele><time>2024-11-24T12:53:20Z</time></trkpt>
<trkpt lat="46.76092" lon="6.44933"><ele></ele><time>2024-11-24T12:53:23Z</time></trkpt>
<trkpt lat="46.76104" lon="6.44953"><ele></ele><time>2024-11-24T12:53:26Z</time></trkpt>
<trkpt lat="46.76106" lon="6.44956"><ele></ele><time>2024-11-24T12:53:29Z</time></trkpt>
<trkpt lat="46.76114" lon="6.44973"><ele></ele><time>2024-11-24T12:53:32Z</time></trkpt>
<trkpt lat="46.76123" lon="6.44994"><ele></ele><time>2024-11-24T12:53:35Z</time></trkpt>
<trkpt lat="46.76125" lon="6.44998"><ele></ele><time>2024-11-24T12:53:38Z</time></trkpt>
<trkpt lat="46.76127" lon="6.45006"><ele></ele><time>2024-11-24T12:53:41Z</time></trkpt>
<trkpt lat="46.76134" lon="6.45031"><ele></ele><time>2024-11-24T12:53:44Z</time></trkpt>
<trkpt lat="46.76134" lon="6.45036"><ele></ele><time>2024-11-24T12:53:47Z</time></trkpt>
<trkpt lat="46.76142" lon="6.45071"><ele></ele><time>2024-11-24T12:53:50Z</time></trkpt>
<trkpt lat="46.76146" lon="6.45102"><ele></ele><time>2024-11-24T12:53:53Z</time></trkpt>
<trkpt lat="46.76146" lon="6.45114"><ele></ele><time>2024-11-24T12:53:56Z</time></trkpt>
<trkpt lat="46.76145" lon="6.45136"><ele></ele><time>2024-11-24T12:53:59Z</time></trkpt>
<trkpt lat="46.7614" lon="6.45172"><ele></ele><time>2024-11-24T12:54:2Z</time></trkpt>
<trkpt lat="46.76135" lon="6.45211"><ele></ele><time>2024-11-24T12:54:5Z</time></trkpt>
<trkpt lat="46.76135" lon="6.45221"><ele></ele><time>2024-11-24T12:54:8Z</time></trkpt>
<trkpt lat="46.76135" lon="6.45236"><ele></ele><time>2024-11-24T12:54:11Z</time></trkpt>
<trkpt lat="46.76136" lon="6.45245"><ele></ele><time>2024-11-24T12:54:14Z</time></trkpt>
<trkpt lat="46.76136" lon="6.45261"><ele></ele><time>2024-11-24T12:54:17Z</time></trkpt>
<trkpt lat="46.76137" lon="6.45265"><ele></ele><time>2024-11-24T12:54:20Z</time></trkpt>
<trkpt lat="46.76137" lon="6.45269"><ele></ele><time>2024-11-24T12:54:23Z</time></trkpt>
<trkpt lat="46.7614" lon="6.45288"><ele></ele><time>2024-11-24T12:54:26Z</time></trkpt>
<trkpt lat="46.76141" lon="6.453"><ele></ele><time>2024-11-24T12:54:29Z</time></trkpt>
<trkpt lat="46.76142" lon="6.45327"><ele></ele><time>2024-11-24T12:54:32Z</time></trkpt>
<trkpt lat="46.76145" lon="6.45335"><ele></ele><time>2024-11-24T12:54:35Z</time></trkpt>
<trkpt lat="46.7615" lon="6.45336"><ele></ele><time>2024-11-24T12:54:38Z</time></trkpt>
<trkpt lat="46.76154" lon="6.45336"><ele></ele><time>2024-11-24T12:54:41Z</time></trkpt>
<trkpt lat="46.76154" lon="6.45337"><ele></ele><time>2024-11-24T12:54:44Z</time></trkpt>
<trkpt lat="46.76154" lon="6.45337"><ele></ele><time>2024-11-24T12:54:47Z</time></trkpt>
<trkpt lat="46.76154" lon="6.45337"><ele></ele><time>2024-11-24T12:54:50Z</time></trkpt>
<trkpt lat="46.76154" lon="6.45337"><ele></ele><time>2024-11-24T12:54:53Z</time></trkpt>
<trkpt lat="46.76154" lon="6.45337"><ele></ele><time>2024-11-24T12:54:56Z</time></trkpt>
<trkpt lat="46.76154" lon="6.45337"><ele></ele><time>2024-11-24T12:54:59Z</time></trkpt>
<trkpt lat="46.76154" lon="6.45337"><ele></ele><time>2024-11-24T12:55:2Z</time></trkpt>
<trkpt lat="46.76154" lon="6.45337"><ele></ele><time>2024-11-24T12:55:5Z</time></trkpt>
<trkpt lat="46.76154" lon="6.45337"><ele></ele><time>2024-11-24T12:55:8Z</time></trkpt>
<trkpt lat="46.76156" lon="6.45338"><ele></ele><time>2024-11-24T12:55:11Z</time></trkpt>
<trkpt lat="46.76156" lon="6.45339"><ele></ele><time>2024-11-24T12:55:14Z</time></trkpt>
<trkpt lat="46.76158" lon="6.45342"><ele></ele><time>2024-11-24T12:55:17Z</time></trkpt>
<trkpt lat="46.76156" lon="6.45343"><ele></ele><time>2024-11-24T12:55:20Z</time></trkpt>
<trkpt lat="46.76154" lon="6.45345"><ele></ele><time>2024-11-24T12:55:23Z</time></trkpt>
<trkpt lat="46.76153" lon="6.45347"><ele></ele><time>2024-11-24T12:55:26Z</time></trkpt>
<trkpt lat="46.76154" lon="6.45357"><ele></ele><time>2024-11-24T12:55:29Z</time></trkpt>
<trkpt lat="46.76154" lon="6.45379"><ele></ele><time>2024-11-24T12:55:32Z</time></trkpt>
<trkpt lat="46.76154" lon="6.45403"><ele></ele><time>2024-11-24T12:55:35Z</time></trkpt>
<trkpt lat="46.7615" lon="6.45438"><ele></ele><time>2024-11-24T12:55:38Z</time></trkpt>
<trkpt lat="46.76145" lon="6.4547"><ele></ele><time>2024-11-24T12:55:41Z</time></trkpt>
<trkpt lat="46.76143" lon="6.45479"><ele></ele><time>2024-11-24T12:55:44Z</time></trkpt>
<trkpt lat="46.76142" lon="6.45489"><ele></ele><time>2024-11-24T12:55:47Z</time></trkpt>
<trkpt lat="46.76141" lon="6.45488"><ele></ele><time>2024-11-24T12:55:50Z</time></trkpt>
<trkpt lat="46.76141" lon="6.45488"><ele></ele><time>2024-11-24T12:55:53Z</time></trkpt>
<trkpt lat="46.76141" lon="6.45488"><ele></ele><time>2024-11-24T12:55:56Z</time></trkpt>
<trkpt lat="46.76143" lon="6.4549"><ele></ele><time>2024-11-24T12:55:59Z</time></trkpt>
<trkpt lat="46.76145" lon="6.45491"><ele></ele><time>2024-11-24T12:56:2Z</time></trkpt>
<trkpt lat="46.76145" lon="6.45491"><ele></ele><time>2024-11-24T12:56:5Z</time></trkpt>
<trkpt lat="46.76143" lon="6.45489"><ele></ele><time>2024-11-24T12:56:8Z</time></trkpt>
<trkpt lat="46.76143" lon="6.45489"><ele></ele><time>2024-11-24T12:56:11Z</time></trkpt>
<trkpt lat="46.76144" lon="6.45489"><ele></ele><time>2024-11-24T12:56:14Z</time></trkpt>
<trkpt lat="46.76144" lon="6.4549"><ele></ele><time>2024-11-24T12:56:17Z</time></trkpt>
<trkpt lat="46.76144" lon="6.45489"><ele></ele><time>2024-11-24T12:56:20Z</time></trkpt>
<trkpt lat="46.76143" lon="6.45488"><ele></ele><time>2024-11-24T12:56:23Z</time></trkpt>
<trkpt lat="46.76144" lon="6.45488"><ele></ele><time>2024-11-24T12:56:26Z</time></trkpt>
<trkpt lat="46.76144" lon="6.4549"><ele></ele><time>2024-11-24T12:56:29Z</time></trkpt>
<trkpt lat="46.76142" lon="6.45488"><ele></ele><time>2024-11-24T12:56:32Z</time></trkpt>
<trkpt lat="46.76143" lon="6.45487"><ele></ele><time>2024-11-24T12:56:35Z</time></trkpt>
<trkpt lat="46.76144" lon="6.4548"><ele></ele><time>2024-11-24T12:56:38Z</time></trkpt>
<trkpt lat="46.76148" lon="6.45455"><ele></ele><time>2024-11-24T12:56:41Z</time></trkpt>
<trkpt lat="46.76152" lon="6.45426"><ele></ele><time>2024-11-24T12:56:44Z</time></trkpt>
<trkpt lat="46.76152" lon="6.45431"><ele></ele><time>2024-11-24T12:56:47Z</time></trkpt>
<trkpt lat="46.76151" lon="6.45443"><ele></ele><time>2024-11-24T12:56:50Z</time></trkpt>
<trkpt lat="46.76149" lon="6.4545"><ele></ele><time>2024-11-24T12:56:53Z</time></trkpt>
<trkpt lat="46.76143" lon="6.45481"><ele></ele><time>2024-11-24T12:56:56Z</time></trkpt>
<trkpt lat="46.76143" lon="6.45489"><ele></ele><time>2024-11-24T12:56:59Z</time></trkpt>
<trkpt lat="46.76142" lon="6.45497"><ele></ele><time>2024-11-24T12:57:2Z</time></trkpt>
<trkpt lat="46.76142" lon="6.45504"><ele></ele><time>2024-11-24T12:57:5Z</time></trkpt>
<trkpt lat="46.76142" lon="6.45502"><ele></ele><time>2024-11-24T12:57:8Z</time></trkpt>
<trkpt lat="46.76142" lon="6.455"><ele></ele><time>2024-11-24T12:57:11Z</time></trkpt>
<trkpt lat="46.76141" lon="6.45492"><ele></ele><time>2024-11-24T12:57:14Z</time></trkpt>
<trkpt lat="46.76141" lon="6.45487"><ele></ele><time>2024-11-24T12:57:17Z</time></trkpt>
<trkpt lat="46.76141" lon="6.45487"><ele></ele><time>2024-11-24T12:57:20Z</time></trkpt>
<trkpt lat="46.76141" lon="6.45487"><ele></ele><time>2024-11-24T12:57:23Z</time></trkpt>
<trkpt lat="46.76143" lon="6.45486"><ele></ele><time>2024-11-24T12:57:26Z</time></trkpt>
<trkpt lat="46.76144" lon="6.45487"><ele></ele><time>2024-11-24T12:57:29Z</time></trkpt>
<trkpt lat="46.76145" lon="6.45488"><ele></ele><time>2024-11-24T12:57:32Z</time></trkpt>
<trkpt lat="46.76145" lon="6.4549"><ele></ele><time>2024-11-24T12:57:35Z</time></trkpt>
<trkpt lat="46.76144" lon="6.455"><ele></ele><time>2024-11-24T12:57:38Z</time></trkpt>
<trkpt lat="46.76142" lon="6.45523"><ele></ele><time>2024-11-24T12:57:41Z</time></trkpt>
<trkpt lat="46.76142" lon="6.45526"><ele></ele><time>2024-11-24T12:57:44Z</time></trkpt>
<trkpt lat="46.76141" lon="6.4554"><ele></ele><time>2024-11-24T12:57:47Z</time></trkpt>
<trkpt lat="46.7614" lon="6.45557"><ele></ele><time>2024-11-24T12:57:50Z</time></trkpt>
<trkpt lat="46.76139" lon="6.45569"><ele></ele><time>2024-11-24T12:57:53Z</time></trkpt>
<trkpt lat="46.76139" lon="6.45576"><ele></ele><time>2024-11-24T12:57:56Z</time></trkpt>
<trkpt lat="46.76139" lon="6.45591"><ele></ele><time>2024-11-24T12:57:59Z</time></trkpt>
<trkpt lat="46.76137" lon="6.45615"><ele></ele><time>2024-11-24T12:58:2Z</time></trkpt>
<trkpt lat="46.76136" lon="6.45627"><ele></ele><time>2024-11-24T12:58:5Z</time></trkpt>
<trkpt lat="46.76135" lon="6.45648"><ele></ele><time>2024-11-24T12:58:8Z</time></trkpt>
<trkpt lat="46.76134" lon="6.45662"><ele></ele><time>2024-11-24T12:58:11Z</time></trkpt>
<trkpt lat="46.76132" lon="6.45677"><ele></ele><time>2024-11-24T12:58:14Z</time></trkpt>
<trkpt lat="46.76131" lon="6.45702"><ele></ele><time>2024-11-24T12:58:17Z</time></trkpt>
<trkpt lat="46.7613" lon="6.4571"><ele></ele><time>2024-11-24T12:58:20Z</time></trkpt>
<trkpt lat="46.76128" lon="6.45738"><ele></ele><time>2024-11-24T12:58:23Z</time></trkpt>
<trkpt lat="46.76126" lon="6.45766"><ele></ele><time>2024-11-24T12:58:26Z</time></trkpt>
<trkpt lat="46.76125" lon="6.45776"><ele></ele><time>2024-11-24T12:58:29Z</time></trkpt>
<trkpt lat="46.76124" lon="6.45795"><ele></ele><time>2024-11-24T12:58:32Z</time></trkpt>
<trkpt lat="46.76124" lon="6.45817"><ele></ele><time>2024-11-24T12:58:35Z</time></trkpt>
<trkpt lat="46.76125" lon="6.4583"><ele></ele><time>2024-11-24T12:58:38Z</time></trkpt>
<trkpt lat="46.76125" lon="6.45849"><ele></ele><time>2024-11-24T12:58:41Z</time></trkpt>
<trkpt lat="46.76126" lon="6.45855"><ele></ele><time>2024-11-24T12:58:44Z</time></trkpt>
<trkpt lat="46.76126" lon="6.45854"><ele></ele><time>2024-11-24T12:58:47Z</time></trkpt>
<trkpt lat="46.76126" lon="6.45854"><ele></ele><time>2024-11-24T12:58:50Z</time></trkpt>
<trkpt lat="46.76126" lon="6.45854"><ele></ele><time>2024-11-24T12:58:53Z</time></trkpt>
<trkpt lat="46.76126" lon="6.45854"><ele></ele><time>2024-11-24T12:58:56Z</time></trkpt>
<trkpt lat="46.76126" lon="6.45854"><ele></ele><time>2024-11-24T12:58:59Z</time></trkpt>
<trkpt lat="46.76125" lon="6.45853"><ele></ele><time>2024-11-24T12:59:2Z</time></trkpt>
<trkpt lat="46.76126" lon="6.45853"><ele></ele><time>2024-11-24T12:59:5Z</time></trkpt>
<trkpt lat="46.76127" lon="6.45853"><ele></ele><time>2024-11-24T12:59:8Z</time></trkpt>
<trkpt lat="46.76126" lon="6.45854"><ele></ele><time>2024-11-24T12:59:11Z</time></trkpt>
<trkpt lat="46.76127" lon="6.45861"><ele></ele><time>2024-11-24T12:59:14Z</time></trkpt>
<trkpt lat="46.76128" lon="6.45877"><ele></ele><time>2024-11-24T12:59:17Z</time></trkpt>
<trkpt lat="46.76129" lon="6.45884"><ele></ele><time>2024-11-24T12:59:20Z</time></trkpt>
<trkpt lat="46.7613" lon="6.45893"><ele></ele><time>2024-11-24T12:59:23Z</time></trkpt>
<trkpt lat="46.76132" lon="6.45911"><ele></ele><time>2024-11-24T12:59:26Z</time></trkpt>
<trkpt lat="46.76135" lon="6.45931"><ele></ele><time>2024-11-24T12:59:29Z</time></trkpt>
<trkpt lat="46.76137" lon="6.45941"><ele></ele><time>2024-11-24T12:59:32Z</time></trkpt>
<trkpt lat="46.76146" lon="6.45985"><ele></ele><time>2024-11-24T12:59:35Z</time></trkpt>
<trkpt lat="46.76151" lon="6.46008"><ele></ele><time>2024-11-24T12:59:38Z</time></trkpt>
<trkpt lat="46.76156" lon="6.4603"><ele></ele><time>2024-11-24T12:59:41Z</time></trkpt>
<trkpt lat="46.7616" lon="6.46049"><ele></ele><time>2024-11-24T12:59:44Z</time></trkpt>
<trkpt lat="46.76166" lon="6.46075"><ele></ele><time>2024-11-24T12:59:47Z</time></trkpt>
<trkpt lat="46.76175" lon="6.46116"><ele></ele><time>2024-11-24T12:59:50Z</time></trkpt>
<trkpt lat="46.76178" lon="6.46133"><ele></ele><time>2024-11-24T12:59:53Z</time></trkpt>
<trkpt lat="46.76184" lon="6.46163"><ele></ele><time>2024-11-24T12:59:56Z</time></trkpt>
<trkpt lat="46.76186" lon="6.46174"><ele></ele><time>2024-11-24T12:59:59Z</time></trkpt>
<trkpt lat="46.76188" lon="6.46185"><ele></ele><time>2024-11-24T13:0:2Z</time></trkpt>
<trkpt lat="46.76193" lon="6.46231"><ele></ele><time>2024-11-24T13:0:5Z</time></trkpt>
<trkpt lat="46.76194" lon="6.46244"><ele></ele><time>2024-11-24T13:0:8Z</time></trkpt>
<trkpt lat="46.76195" lon="6.46255"><ele></ele><time>2024-11-24T13:0:11Z</time></trkpt>
<trkpt lat="46.76197" lon="6.46278"><ele></ele><time>2024-11-24T13:0:14Z</time></trkpt>
<trkpt lat="46.76199" lon="6.46301"><ele></ele><time>2024-11-24T13:0:17Z</time></trkpt>
<trkpt lat="46.76203" lon="6.46321"><ele></ele><time>2024-11-24T13:0:20Z</time></trkpt>
<trkpt lat="46.76207" lon="6.46341"><ele></ele><time>2024-11-24T13:0:23Z</time></trkpt>
<trkpt lat="46.76213" lon="6.46362"><ele></ele><time>2024-11-24T13:0:26Z</time></trkpt>
<trkpt lat="46.76217" lon="6.46372"><ele></ele><time>2024-11-24T13:0:29Z</time></trkpt>
<trkpt lat="46.76227" lon="6.46403"><ele></ele><time>2024-11-24T13:0:32Z</time></trkpt>
<trkpt lat="46.76231" lon="6.46413"><ele></ele><time>2024-11-24T13:0:35Z</time></trkpt>
<trkpt lat="46.76238" lon="6.46434"><ele></ele><time>2024-11-24T13:0:38Z</time></trkpt>
<trkpt lat="46.76245" lon="6.46454"><ele></ele><time>2024-11-24T13:0:41Z</time></trkpt>
<trkpt lat="46.76253" lon="6.46474"><ele></ele><time>2024-11-24T13:0:44Z</time></trkpt>
<trkpt lat="46.76261" lon="6.46494"><ele></ele><time>2024-11-24T13:0:47Z</time></trkpt>
<trkpt lat="46.76273" lon="6.46523"><ele></ele><time>2024-11-24T13:0:50Z</time></trkpt>
<trkpt lat="46.76283" lon="6.46541"><ele></ele><time>2024-11-24T13:0:53Z</time></trkpt>
<trkpt lat="46.76297" lon="6.46568"><ele></ele><time>2024-11-24T13:0:56Z</time></trkpt>
<trkpt lat="46.76308" lon="6.46586"><ele></ele><time>2024-11-24T13:0:59Z</time></trkpt>
<trkpt lat="46.76317" lon="6.46603"><ele></ele><time>2024-11-24T13:1:2Z</time></trkpt>
<trkpt lat="46.76322" lon="6.46611"><ele></ele><time>2024-11-24T13:1:5Z</time></trkpt>
<trkpt lat="46.76337" lon="6.46637"><ele></ele><time>2024-11-24T13:1:8Z</time></trkpt>
<trkpt lat="46.76352" lon="6.46663"><ele></ele><time>2024-11-24T13:1:11Z</time></trkpt>
<trkpt lat="46.76357" lon="6.46673"><ele></ele><time>2024-11-24T13:1:14Z</time></trkpt>
<trkpt lat="46.76366" lon="6.46692"><ele></ele><time>2024-11-24T13:1:17Z</time></trkpt>
<trkpt lat="46.76381" lon="6.4672"><ele></ele><time>2024-11-24T13:1:20Z</time></trkpt>
<trkpt lat="46.7639" lon="6.46738"><ele></ele><time>2024-11-24T13:1:23Z</time></trkpt>
<trkpt lat="46.76402" lon="6.46768"><ele></ele><time>2024-11-24T13:1:26Z</time></trkpt>
<trkpt lat="46.76409" lon="6.46789"><ele></ele><time>2024-11-24T13:1:29Z</time></trkpt>
<trkpt lat="46.76412" lon="6.468"><ele></ele><time>2024-11-24T13:1:32Z</time></trkpt>
<trkpt lat="46.76423" lon="6.46832"><ele></ele><time>2024-11-24T13:1:35Z</time></trkpt>
<trkpt lat="46.76433" lon="6.46851"><ele></ele><time>2024-11-24T13:1:38Z</time></trkpt>
<trkpt lat="46.76444" lon="6.46869"><ele></ele><time>2024-11-24T13:1:41Z</time></trkpt>
<trkpt lat="46.76454" lon="6.4689"><ele></ele><time>2024-11-24T13:1:44Z</time></trkpt>
<trkpt lat="46.76459" lon="6.469"><ele></ele><time>2024-11-24T13:1:47Z</time></trkpt>
<trkpt lat="46.76473" lon="6.46928"><ele></ele><time>2024-11-24T13:1:50Z</time></trkpt>
<trkpt lat="46.7648" lon="6.46944"><ele></ele><time>2024-11-24T13:1:53Z</time></trkpt>
<trkpt lat="46.76487" lon="6.4696"><ele></ele><time>2024-11-24T13:1:56Z</time></trkpt>
<trkpt lat="46.76489" lon="6.46965"><ele></ele><time>2024-11-24T13:1:59Z</time></trkpt>
<trkpt lat="46.76493" lon="6.46975"><ele></ele><time>2024-11-24T13:2:2Z</time></trkpt>
<trkpt lat="46.76497" lon="6.46982"><ele></ele><time>2024-11-24T13:2:5Z</time></trkpt>
<trkpt lat="46.76498" lon="6.46984"><ele></ele><time>2024-11-24T13:2:8Z</time></trkpt>
<trkpt lat="46.76501" lon="6.46993"><ele></ele><time>2024-11-24T13:2:11Z</time></trkpt>
<trkpt lat="46.76501" lon="6.46996"><ele></ele><time>2024-11-24T13:2:14Z</time></trkpt>
<trkpt lat="46.76507" lon="6.47017"><ele></ele><time>2024-11-24T13:2:17Z</time></trkpt>
<trkpt lat="46.76509" lon="6.47024"><ele></ele><time>2024-11-24T13:2:20Z</time></trkpt>
<trkpt lat="46.76512" lon="6.47032"><ele></ele><time>2024-11-24T13:2:23Z</time></trkpt>
<trkpt lat="46.76519" lon="6.47061"><ele></ele><time>2024-11-24T13:2:26Z</time></trkpt>
<trkpt lat="46.76521" lon="6.47072"><ele></ele><time>2024-11-24T13:2:29Z</time></trkpt>
<trkpt lat="46.76528" lon="6.47095"><ele></ele><time>2024-11-24T13:2:32Z</time></trkpt>
<trkpt lat="46.76532" lon="6.47105"><ele></ele><time>2024-11-24T13:2:35Z</time></trkpt>
<trkpt lat="46.76535" lon="6.47114"><ele></ele><time>2024-11-24T13:2:38Z</time></trkpt>
<trkpt lat="46.76538" lon="6.47125"><ele></ele><time>2024-11-24T13:2:41Z</time></trkpt>
<trkpt lat="46.76541" lon="6.47134"><ele></ele><time>2024-11-24T13:2:44Z</time></trkpt>
<trkpt lat="46.76546" lon="6.47139"><ele></ele><time>2024-11-24T13:2:47Z</time></trkpt>
<trkpt lat="46.7655" lon="6.47142"><ele></ele><time>2024-11-24T13:2:50Z</time></trkpt>
<trkpt lat="46.76555" lon="6.47147"><ele></ele><time>2024-11-24T13:2:53Z</time></trkpt>
<trkpt lat="46.76556" lon="6.47149"><ele></ele><time>2024-11-24T13:2:56Z</time></trkpt>
<trkpt lat="46.76558" lon="6.47149"><ele></ele><time>2024-11-24T13:2:59Z</time></trkpt>
<trkpt lat="46.76559" lon="6.4715"><ele></ele><time>2024-11-24T13:3:2Z</time></trkpt>
<trkpt lat="46.76562" lon="6.47154"><ele></ele><time>2024-11-24T13:3:5Z</time></trkpt>
<trkpt lat="46.76564" lon="6.47157"><ele></ele><time>2024-11-24T13:3:8Z</time></trkpt>
<trkpt lat="46.76565" lon="6.47158"><ele></ele><time>2024-11-24T13:3:11Z</time></trkpt>
<trkpt lat="46.7657" lon="6.47163"><ele></ele><time>2024-11-24T13:3:14Z</time></trkpt>
<trkpt lat="46.76573" lon="6.47163"><ele></ele><time>2024-11-24T13:3:17Z</time></trkpt>
<trkpt lat="46.76574" lon="6.47163"><ele></ele><time>2024-11-24T13:3:20Z</time></trkpt>
<trkpt lat="46.76575" lon="6.47164"><ele></ele><time>2024-11-24T13:3:23Z</time></trkpt>
<trkpt lat="46.76581" lon="6.47169"><ele></ele><time>2024-11-24T13:3:26Z</time></trkpt>
<trkpt lat="46.76583" lon="6.47172"><ele></ele><time>2024-11-24T13:3:29Z</time></trkpt>
<trkpt lat="46.76586" lon="6.47175"><ele></ele><time>2024-11-24T13:3:32Z</time></trkpt>
<trkpt lat="46.76592" lon="6.47182"><ele></ele><time>2024-11-24T13:3:35Z</time></trkpt>
<trkpt lat="46.76594" lon="6.47185"><ele></ele><time>2024-11-24T13:3:38Z</time></trkpt>
<trkpt lat="46.76599" lon="6.4719"><ele></ele><time>2024-11-24T13:3:41Z</time></trkpt>
<trkpt lat="46.76602" lon="6.47194"><ele></ele><time>2024-11-24T13:3:44Z</time></trkpt>
<trkpt lat="46.76605" lon="6.47198"><ele></ele><time>2024-11-24T13:3:47Z</time></trkpt>
<trkpt lat="46.7661" lon="6.47205"><ele></ele><time>2024-11-24T13:3:50Z</time></trkpt>
<trkpt lat="46.76612" lon="6.47208"><ele></ele><time>2024-11-24T13:3:53Z</time></trkpt>
<trkpt lat="46.76615" lon="6.47213"><ele></ele><time>2024-11-24T13:3:56Z</time></trkpt>
<trkpt lat="46.76616" lon="6.47215"><ele></ele><time>2024-11-24T13:3:59Z</time></trkpt>
<trkpt lat="46.76617" lon="6.47216"><ele></ele><time>2024-11-24T13:4:2Z</time></trkpt>
<trkpt lat="46.76617" lon="6.47218"><ele></ele><time>2024-11-24T13:4:5Z</time></trkpt>
<trkpt lat="46.76618" lon="6.47219"><ele></ele><time>2024-11-24T13:4:8Z</time></trkpt>
<trkpt lat="46.76619" lon="6.4722"><ele></ele><time>2024-11-24T13:4:11Z</time></trkpt>
<trkpt lat="46.76625" lon="6.47229"><ele></ele><time>2024-11-24T13:4:14Z</time></trkpt>
<trkpt lat="46.76632" lon="6.4724"><ele></ele><time>2024-11-24T13:4:17Z</time></trkpt>
<trkpt lat="46.76634" lon="6.47245"><ele></ele><time>2024-11-24T13:4:20Z</time></trkpt>
<trkpt lat="46.76638" lon="6.47251"><ele></ele><time>2024-11-24T13:4:23Z</time></trkpt>
<trkpt lat="46.76641" lon="6.47256"><ele></ele><time>2024-11-24T13:4:26Z</time></trkpt>
<trkpt lat="46.76644" lon="6.47261"><ele></ele><time>2024-11-24T13:4:29Z</time></trkpt>
<trkpt lat="46.76652" lon="6.47269"><ele></ele><time>2024-11-24T13:4:32Z</time></trkpt>
<trkpt lat="46.76653" lon="6.47271"><ele></ele><time>2024-11-24T13:4:35Z</time></trkpt>
<trkpt lat="46.7666" lon="6.47279"><ele></ele><time>2024-11-24T13:4:38Z</time></trkpt>
<trkpt lat="46.76665" lon="6.47285"><ele></ele><time>2024-11-24T13:4:41Z</time></trkpt>
<trkpt lat="46.76666" lon="6.47286"><ele></ele><time>2024-11-24T13:4:44Z</time></trkpt>
<trkpt lat="46.7667" lon="6.4729"><ele></ele><time>2024-11-24T13:4:47Z</time></trkpt>
<trkpt lat="46.76673" lon="6.47292"><ele></ele><time>2024-11-24T13:4:50Z</time></trkpt>
<trkpt lat="46.76679" lon="6.47301"><ele></ele><time>2024-11-24T13:4:53Z</time></trkpt>
<trkpt lat="46.7668" lon="6.47303"><ele></ele><time>2024-11-24T13:4:56Z</time></trkpt>
<trkpt lat="46.76693" lon="6.47315"><ele></ele><time>2024-11-24T13:4:59Z</time></trkpt>
<trkpt lat="46.76702" lon="6.47323"><ele></ele><time>2024-11-24T13:5:2Z</time></trkpt>
<trkpt lat="46.76704" lon="6.47326"><ele></ele><time>2024-11-24T13:5:5Z</time></trkpt>
<trkpt lat="46.76711" lon="6.47333"><ele></ele><time>2024-11-24T13:5:8Z</time></trkpt>
<trkpt lat="46.76712" lon="6.47335"><ele></ele><time>2024-11-24T13:5:11Z</time></trkpt>
<trkpt lat="46.76713" lon="6.47334"><ele></ele><time>2024-11-24T13:5:14Z</time></trkpt>
<trkpt lat="46.76718" lon="6.47338"><ele></ele><time>2024-11-24T13:5:17Z</time></trkpt>
<trkpt lat="46.76719" lon="6.4734"><ele></ele><time>2024-11-24T13:5:20Z</time></trkpt>
<trkpt lat="46.76724" lon="6.47345"><ele></ele><time>2024-11-24T13:5:23Z</time></trkpt>
<trkpt lat="46.76727" lon="6.4735"><ele></ele><time>2024-11-24T13:5:26Z</time></trkpt>
<trkpt lat="46.76732" lon="6.47354"><ele></ele><time>2024-11-24T13:5:29Z</time></trkpt>
<trkpt lat="46.76737" lon="6.4736"><ele></ele><time>2024-11-24T13:5:32Z</time></trkpt>
<trkpt lat="46.76739" lon="6.47363"><ele></ele><time>2024-11-24T13:5:35Z</time></trkpt>
<trkpt lat="46.76748" lon="6.4737"><ele></ele><time>2024-11-24T13:5:38Z</time></trkpt>
<trkpt lat="46.76751" lon="6.47373"><ele></ele><time>2024-11-24T13:5:41Z</time></trkpt>
<trkpt lat="46.76758" lon="6.47381"><ele></ele><time>2024-11-24T13:5:44Z</time></trkpt>
<trkpt lat="46.76759" lon="6.47382"><ele></ele><time>2024-11-24T13:5:47Z</time></trkpt>
<trkpt lat="46.76765" lon="6.47389"><ele></ele><time>2024-11-24T13:5:50Z</time></trkpt>
<trkpt lat="46.76766" lon="6.4739"><ele></ele><time>2024-11-24T13:5:53Z</time></trkpt>
<trkpt lat="46.76772" lon="6.47397"><ele></ele><time>2024-11-24T13:5:56Z</time></trkpt>
<trkpt lat="46.76773" lon="6.474"><ele></ele><time>2024-11-24T13:5:59Z</time></trkpt>
<trkpt lat="46.7678" lon="6.4741"><ele></ele><time>2024-11-24T13:6:2Z</time></trkpt>
<trkpt lat="46.76786" lon="6.47419"><ele></ele><time>2024-11-24T13:6:5Z</time></trkpt>
<trkpt lat="46.76789" lon="6.47422"><ele></ele><time>2024-11-24T13:6:8Z</time></trkpt>
<trkpt lat="46.76795" lon="6.47429"><ele></ele><time>2024-11-24T13:6:11Z</time></trkpt>
<trkpt lat="46.76801" lon="6.47433"><ele></ele><time>2024-11-24T13:6:14Z</time></trkpt>
<trkpt lat="46.76804" lon="6.47436"><ele></ele><time>2024-11-24T13:6:17Z</time></trkpt>
<trkpt lat="46.76811" lon="6.47443"><ele></ele><time>2024-11-24T13:6:20Z</time></trkpt>
<trkpt lat="46.76813" lon="6.47444"><ele></ele><time>2024-11-24T13:6:23Z</time></trkpt>
<trkpt lat="46.76819" lon="6.47451"><ele></ele><time>2024-11-24T13:6:26Z</time></trkpt>
<trkpt lat="46.76822" lon="6.47452"><ele></ele><time>2024-11-24T13:6:29Z</time></trkpt>
<trkpt lat="46.76824" lon="6.47454"><ele></ele><time>2024-11-24T13:6:32Z</time></trkpt>
<trkpt lat="46.76826" lon="6.47457"><ele></ele><time>2024-11-24T13:6:35Z</time></trkpt>
<trkpt lat="46.76827" lon="6.47458"><ele></ele><time>2024-11-24T13:6:38Z</time></trkpt>
<trkpt lat="46.76832" lon="6.47461"><ele></ele><time>2024-11-24T13:6:41Z</time></trkpt>
<trkpt lat="46.76836" lon="6.47464"><ele></ele><time>2024-11-24T13:6:44Z</time></trkpt>
<trkpt lat="46.7684" lon="6.47468"><ele></ele><time>2024-11-24T13:6:47Z</time></trkpt>
<trkpt lat="46.76844" lon="6.4747"><ele></ele><time>2024-11-24T13:6:50Z</time></trkpt>
<trkpt lat="46.76847" lon="6.47472"><ele></ele><time>2024-11-24T13:6:53Z</time></trkpt>
<trkpt lat="46.76853" lon="6.47477"><ele></ele><time>2024-11-24T13:6:56Z</time></trkpt>
<trkpt lat="46.76857" lon="6.47481"><ele></ele><time>2024-11-24T13:6:59Z</time></trkpt>
<trkpt lat="46.76863" lon="6.47487"><ele></ele><time>2024-11-24T13:7:2Z</time></trkpt>
<trkpt lat="46.76865" lon="6.4749"><ele></ele><time>2024-11-24T13:7:5Z</time></trkpt>
<trkpt lat="46.76871" lon="6.475"><ele></ele><time>2024-11-24T13:7:8Z</time></trkpt>
<trkpt lat="46.76871" lon="6.47501"><ele></ele><time>2024-11-24T13:7:11Z</time></trkpt>
<trkpt lat="46.76872" lon="6.47503"><ele></ele><time>2024-11-24T13:7:14Z</time></trkpt>
<trkpt lat="46.76874" lon="6.47505"><ele></ele><time>2024-11-24T13:7:17Z</time></trkpt>
<trkpt lat="46.7688" lon="6.47512"><ele></ele><time>2024-11-24T13:7:20Z</time></trkpt>
<trkpt lat="46.76886" lon="6.47519"><ele></ele><time>2024-11-24T13:7:23Z</time></trkpt>
<trkpt lat="46.7689" lon="6.47523"><ele></ele><time>2024-11-24T13:7:26Z</time></trkpt>
<trkpt lat="46.76893" lon="6.47527"><ele></ele><time>2024-11-24T13:7:29Z</time></trkpt>
<trkpt lat="46.76898" lon="6.47532"><ele></ele><time>2024-11-24T13:7:32Z</time></trkpt>
<trkpt lat="46.76899" lon="6.47533"><ele></ele><time>2024-11-24T13:7:35Z</time></trkpt>
<trkpt lat="46.76907" lon="6.47537"><ele></ele><time>2024-11-24T13:7:38Z</time></trkpt>
<trkpt lat="46.76908" lon="6.47538"><ele></ele><time>2024-11-24T13:7:41Z</time></trkpt>
<trkpt lat="46.76909" lon="6.47539"><ele></ele><time>2024-11-24T13:7:44Z</time></trkpt>
<trkpt lat="46.76918" lon="6.47546"><ele></ele><time>2024-11-24T13:7:47Z</time></trkpt>
<trkpt lat="46.76921" lon="6.47548"><ele></ele><time>2024-11-24T13:7:50Z</time></trkpt>
<trkpt lat="46.76927" lon="6.47549"><ele></ele><time>2024-11-24T13:7:53Z</time></trkpt>
<trkpt lat="46.76928" lon="6.4755"><ele></ele><time>2024-11-24T13:7:56Z</time></trkpt>
<trkpt lat="46.7693" lon="6.47554"><ele></ele><time>2024-11-24T13:7:59Z</time></trkpt>
<trkpt lat="46.76932" lon="6.47557"><ele></ele><time>2024-11-24T13:8:2Z</time></trkpt>
<trkpt lat="46.76937" lon="6.47561"><ele></ele><time>2024-11-24T13:8:5Z</time></trkpt>
<trkpt lat="46.76942" lon="6.47565"><ele></ele><time>2024-11-24T13:8:8Z</time></trkpt>
<trkpt lat="46.76946" lon="6.47568"><ele></ele><time>2024-11-24T13:8:11Z</time></trkpt>
<trkpt lat="46.76951" lon="6.4757"><ele></ele><time>2024-11-24T13:8:14Z</time></trkpt>
<trkpt lat="46.76955" lon="6.47573"><ele></ele><time>2024-11-24T13:8:17Z</time></trkpt>
<trkpt lat="46.7696" lon="6.47578"><ele></ele><time>2024-11-24T13:8:20Z</time></trkpt>
<trkpt lat="46.76968" lon="6.47585"><ele></ele><time>2024-11-24T13:8:23Z</time></trkpt>
<trkpt lat="46.76969" lon="6.47587"><ele></ele><time>2024-11-24T13:8:26Z</time></trkpt>
<trkpt lat="46.76973" lon="6.47592"><ele></ele><time>2024-11-24T13:8:29Z</time></trkpt>
<trkpt lat="46.76979" lon="6.47596"><ele></ele><time>2024-11-24T13:8:32Z</time></trkpt>
<trkpt lat="46.76982" lon="6.47599"><ele></ele><time>2024-11-24T13:8:35Z</time></trkpt>
<trkpt lat="46.76988" lon="6.47604"><ele></ele><time>2024-11-24T13:8:38Z</time></trkpt>
<trkpt lat="46.76991" lon="6.47608"><ele></ele><time>2024-11-24T13:8:41Z</time></trkpt>
<trkpt lat="46.76994" lon="6.4761"><ele></ele><time>2024-11-24T13:8:44Z</time></trkpt>
<trkpt lat="46.76999" lon="6.47614"><ele></ele><time>2024-11-24T13:8:47Z</time></trkpt>
<trkpt lat="46.77003" lon="6.4762"><ele></ele><time>2024-11-24T13:8:50Z</time></trkpt>
<trkpt lat="46.77005" lon="6.47624"><ele></ele><time>2024-11-24T13:8:53Z</time></trkpt>
<trkpt lat="46.7701" lon="6.47628"><ele></ele><time>2024-11-24T13:8:56Z</time></trkpt>
<trkpt lat="46.77014" lon="6.47632"><ele></ele><time>2024-11-24T13:8:59Z</time></trkpt>
<trkpt lat="46.77017" lon="6.47638"><ele></ele><time>2024-11-24T13:9:2Z</time></trkpt>
<trkpt lat="46.77024" lon="6.47645"><ele></ele><time>2024-11-24T13:9:5Z</time></trkpt>
<trkpt lat="46.77025" lon="6.47646"><ele></ele><time>2024-11-24T13:9:8Z</time></trkpt>
<trkpt lat="46.77034" lon="6.47653"><ele></ele><time>2024-11-24T13:9:11Z</time></trkpt>
<trkpt lat="46.77035" lon="6.47654"><ele></ele><time>2024-11-24T13:9:14Z</time></trkpt>
<trkpt lat="46.77043" lon="6.47661"><ele></ele><time>2024-11-24T13:9:17Z</time></trkpt>
<trkpt lat="46.77045" lon="6.47663"><ele></ele><time>2024-11-24T13:9:20Z</time></trkpt>
<trkpt lat="46.77052" lon="6.4767"><ele></ele><time>2024-11-24T13:9:23Z</time></trkpt>
<trkpt lat="46.77053" lon="6.47671"><ele></ele><time>2024-11-24T13:9:26Z</time></trkpt>
<trkpt lat="46.7706" lon="6.47677"><ele></ele><time>2024-11-24T13:9:29Z</time></trkpt>
<trkpt lat="46.77061" lon="6.47678"><ele></ele><time>2024-11-24T13:9:32Z</time></trkpt>
<trkpt lat="46.77068" lon="6.47685"><ele></ele><time>2024-11-24T13:9:35Z</time></trkpt>
<trkpt lat="46.77075" lon="6.47692"><ele></ele><time>2024-11-24T13:9:38Z</time></trkpt>
<trkpt lat="46.77078" lon="6.47694"><ele></ele><time>2024-11-24T13:9:41Z</time></trkpt>
<trkpt lat="46.77081" lon="6.47696"><ele></ele><time>2024-11-24T13:9:44Z</time></trkpt>
<trkpt lat="46.77084" lon="6.47698"><ele></ele><time>2024-11-24T13:9:47Z</time></trkpt>
<trkpt lat="46.77091" lon="6.47705"><ele></ele><time>2024-11-24T13:9:50Z</time></trkpt>
<trkpt lat="46.77093" lon="6.47707"><ele></ele><time>2024-11-24T13:9:53Z</time></trkpt>
<trkpt lat="46.77099" lon="6.47713"><ele></ele><time>2024-11-24T13:9:56Z</time></trkpt>
<trkpt lat="46.771" lon="6.47714"><ele></ele><time>2024-11-24T13:9:59Z</time></trkpt>
<trkpt lat="46.77108" lon="6.4772"><ele></ele><time>2024-11-24T13:10:2Z</time></trkpt>
<trkpt lat="46.77109" lon="6.47721"><ele></ele><time>2024-11-24T13:10:5Z</time></trkpt>
<trkpt lat="46.77118" lon="6.47728"><ele></ele><time>2024-11-24T13:10:8Z</time></trkpt>
<trkpt lat="46.77125" lon="6.47735"><ele></ele><time>2024-11-24T13:10:11Z</time></trkpt>
<trkpt lat="46.77127" lon="6.47735"><ele></ele><time>2024-11-24T13:10:14Z</time></trkpt>
<trkpt lat="46.77135" lon="6.47741"><ele></ele><time>2024-11-24T13:10:17Z</time></trkpt>
<trkpt lat="46.77137" lon="6.47743"><ele></ele><time>2024-11-24T13:10:20Z</time></trkpt>
<trkpt lat="46.77143" lon="6.47746"><ele></ele><time>2024-11-24T13:10:23Z</time></trkpt>
<trkpt lat="46.77145" lon="6.47746"><ele></ele><time>2024-11-24T13:10:26Z</time></trkpt>
<trkpt lat="46.77152" lon="6.47749"><ele></ele><time>2024-11-24T13:10:29Z</time></trkpt>
<trkpt lat="46.77155" lon="6.4775"><ele></ele><time>2024-11-24T13:10:32Z</time></trkpt>
<trkpt lat="46.77162" lon="6.47753"><ele></ele><time>2024-11-24T13:10:35Z</time></trkpt>
<trkpt lat="46.77166" lon="6.47755"><ele></ele><time>2024-11-24T13:10:38Z</time></trkpt>
<trkpt lat="46.77171" lon="6.47756"><ele></ele><time>2024-11-24T13:10:41Z</time></trkpt>
<trkpt lat="46.77175" lon="6.47758"><ele></ele><time>2024-11-24T13:10:44Z</time></trkpt>
<trkpt lat="46.77179" lon="6.47758"><ele></ele><time>2024-11-24T13:10:47Z</time></trkpt>
<trkpt lat="46.77181" lon="6.47758"><ele></ele><time>2024-11-24T13:10:50Z</time></trkpt>
<trkpt lat="46.77182" lon="6.47757"><ele></ele><time>2024-11-24T13:10:53Z</time></trkpt>
<trkpt lat="46.77183" lon="6.47756"><ele></ele><time>2024-11-24T13:10:56Z</time></trkpt>
<trkpt lat="46.77185" lon="6.47756"><ele></ele><time>2024-11-24T13:10:59Z</time></trkpt>
<trkpt lat="46.77188" lon="6.47753"><ele></ele><time>2024-11-24T13:11:2Z</time></trkpt>
<trkpt lat="46.77193" lon="6.47748"><ele></ele><time>2024-11-24T13:11:5Z</time></trkpt>
<trkpt lat="46.77196" lon="6.47745"><ele></ele><time>2024-11-24T13:11:8Z</time></trkpt>
<trkpt lat="46.77202" lon="6.47734"><ele></ele><time>2024-11-24T13:11:11Z</time></trkpt>
<trkpt lat="46.77203" lon="6.4773"><ele></ele><time>2024-11-24T13:11:14Z</time></trkpt>
<trkpt lat="46.77207" lon="6.47724"><ele></ele><time>2024-11-24T13:11:17Z</time></trkpt>
<trkpt lat="46.77209" lon="6.47724"><ele></ele><time>2024-11-24T13:11:20Z</time></trkpt>
<trkpt lat="46.77211" lon="6.47726"><ele></ele><time>2024-11-24T13:11:23Z</time></trkpt>
<trkpt lat="46.77215" lon="6.47725"><ele></ele><time>2024-11-24T13:11:26Z</time></trkpt>
<trkpt lat="46.7722" lon="6.47725"><ele></ele><time>2024-11-24T13:11:29Z</time></trkpt>
<trkpt lat="46.77222" lon="6.47726"><ele></ele><time>2024-11-24T13:11:32Z</time></trkpt>
<trkpt lat="46.77229" lon="6.4773"><ele></ele><time>2024-11-24T13:11:35Z</time></trkpt>
<trkpt lat="46.77233" lon="6.47733"><ele></ele><time>2024-11-24T13:11:38Z</time></trkpt>
<trkpt lat="46.77238" lon="6.47738"><ele></ele><time>2024-11-24T13:11:41Z</time></trkpt>
<trkpt lat="46.77239" lon="6.47739"><ele></ele><time>2024-11-24T13:11:44Z</time></trkpt>
<trkpt lat="46.77244" lon="6.47742"><ele></ele><time>2024-11-24T13:11:47Z</time></trkpt>
<trkpt lat="46.77247" lon="6.47745"><ele></ele><time>2024-11-24T13:11:50Z</time></trkpt>
<trkpt lat="46.77252" lon="6.47751"><ele></ele><time>2024-11-24T13:11:53Z</time></trkpt>
<trkpt lat="46.77254" lon="6.47753"><ele></ele><time>2024-11-24T13:11:56Z</time></trkpt>
<trkpt lat="46.77262" lon="6.47758"><ele></ele><time>2024-11-24T13:11:59Z</time></trkpt>
<trkpt lat="46.77264" lon="6.4776"><ele></ele><time>2024-11-24T13:12:2Z</time></trkpt>
<trkpt lat="46.77269" lon="6.47767"><ele></ele><time>2024-11-24T13:12:5Z</time></trkpt>
<trkpt lat="46.77271" lon="6.47769"><ele></ele><time>2024-11-24T13:12:8Z</time></trkpt>
<trkpt lat="46.77279" lon="6.47773"><ele></ele><time>2024-11-24T13:12:11Z</time></trkpt>
<trkpt lat="46.7728" lon="6.47775"><ele></ele><time>2024-11-24T13:12:14Z</time></trkpt>
<trkpt lat="46.77289" lon="6.47781"><ele></ele><time>2024-11-24T13:12:17Z</time></trkpt>
<trkpt lat="46.77293" lon="6.47783"><ele></ele><time>2024-11-24T13:12:20Z</time></trkpt>
<trkpt lat="46.77302" lon="6.4779"><ele></ele><time>2024-11-24T13:12:23Z</time></trkpt>
<trkpt lat="46.77308" lon="6.47796"><ele></ele><time>2024-11-24T13:12:26Z</time></trkpt>
<trkpt lat="46.77312" lon="6.47799"><ele></ele><time>2024-11-24T13:12:29Z</time></trkpt>
<trkpt lat="46.77317" lon="6.47801"><ele></ele><time>2024-11-24T13:12:32Z</time></trkpt>
<trkpt lat="46.77324" lon="6.47805"><ele></ele><time>2024-11-24T13:12:35Z</time></trkpt>
<trkpt lat="46.77325" lon="6.47806"><ele></ele><time>2024-11-24T13:12:38Z</time></trkpt>
<trkpt lat="46.77334" lon="6.4781"><ele></ele><time>2024-11-24T13:12:41Z</time></trkpt>
<trkpt lat="46.77335" lon="6.4781"><ele></ele><time>2024-11-24T13:12:44Z</time></trkpt>
<trkpt lat="46.77343" lon="6.47814"><ele></ele><time>2024-11-24T13:12:47Z</time></trkpt>
<trkpt lat="46.77346" lon="6.47814"><ele></ele><time>2024-11-24T13:12:50Z</time></trkpt>
<trkpt lat="46.77353" lon="6.47815"><ele></ele><time>2024-11-24T13:12:53Z</time></trkpt>
<trkpt lat="46.77358" lon="6.47814"><ele></ele><time>2024-11-24T13:12:56Z</time></trkpt>
<trkpt lat="46.77366" lon="6.47813"><ele></ele><time>2024-11-24T13:12:59Z</time></trkpt>
<trkpt lat="46.77366" lon="6.47812"><ele></ele><time>2024-11-24T13:13:2Z</time></trkpt>
<trkpt lat="46.77374" lon="6.47809"><ele></ele><time>2024-11-24T13:13:5Z</time></trkpt>
<trkpt lat="46.77375" lon="6.47808"><ele></ele><time>2024-11-24T13:13:8Z</time></trkpt>
<trkpt lat="46.77382" lon="6.47803"><ele></ele><time>2024-11-24T13:13:11Z</time></trkpt>
<trkpt lat="46.77383" lon="6.47802"><ele></ele><time>2024-11-24T13:13:14Z</time></trkpt>
<trkpt lat="46.7739" lon="6.47798"><ele></ele><time>2024-11-24T13:13:17Z</time></trkpt>
<trkpt lat="46.77396" lon="6.47796"><ele></ele><time>2024-11-24T13:13:20Z</time></trkpt>
<trkpt lat="46.77399" lon="6.47796"><ele></ele><time>2024-11-24T13:13:23Z</time></trkpt>
<trkpt lat="46.77407" lon="6.47794"><ele></ele><time>2024-11-24T13:13:26Z</time></trkpt>
<trkpt lat="46.77414" lon="6.47794"><ele></ele><time>2024-11-24T13:13:29Z</time></trkpt>
<trkpt lat="46.77416" lon="6.47794"><ele></ele><time>2024-11-24T13:13:32Z</time></trkpt>
<trkpt lat="46.77423" lon="6.47794"><ele></ele><time>2024-11-24T13:13:35Z</time></trkpt>
<trkpt lat="46.77431" lon="6.47798"><ele></ele><time>2024-11-24T13:13:38Z</time></trkpt>
<trkpt lat="46.77433" lon="6.47798"><ele></ele><time>2024-11-24T13:13:41Z</time></trkpt>
<trkpt lat="46.77444" lon="6.47799"><ele></ele><time>2024-11-24T13:13:44Z</time></trkpt>
<trkpt lat="46.77447" lon="6.47799"><ele></ele><time>2024-11-24T13:13:47Z</time></trkpt>
<trkpt lat="46.77456" lon="6.47803"><ele></ele><time>2024-11-24T13:13:50Z</time></trkpt>
<trkpt lat="46.77458" lon="6.47805"><ele></ele><time>2024-11-24T13:13:53Z</time></trkpt>
<trkpt lat="46.77463" lon="6.47807"><ele></ele><time>2024-11-24T13:13:56Z</time></trkpt>
<trkpt lat="46.77468" lon="6.4781"><ele></ele><time>2024-11-24T13:13:59Z</time></trkpt>
<trkpt lat="46.77475" lon="6.47814"><ele></ele><time>2024-11-24T13:14:2Z</time></trkpt>
<trkpt lat="46.77482" lon="6.47815"><ele></ele><time>2024-11-24T13:14:5Z</time></trkpt>
<trkpt lat="46.77485" lon="6.47813"><ele></ele><time>2024-11-24T13:14:8Z</time></trkpt>
<trkpt lat="46.77488" lon="6.47808"><ele></ele><time>2024-11-24T13:14:11Z</time></trkpt>
<trkpt lat="46.77488" lon="6.47804"><ele></ele><time>2024-11-24T13:14:14Z</time></trkpt>
<trkpt lat="46.77482" lon="6.47793"><ele></ele><time>2024-11-24T13:14:17Z</time></trkpt>
<trkpt lat="46.77479" lon="6.47791"><ele></ele><time>2024-11-24T13:14:20Z</time></trkpt>
<trkpt lat="46.77471" lon="6.47788"><ele></ele><time>2024-11-24T13:14:23Z</time></trkpt>
<trkpt lat="46.7747" lon="6.47788"><ele></ele><time>2024-11-24T13:14:26Z</time></trkpt>
<trkpt lat="46.77465" lon="6.47781"><ele></ele><time>2024-11-24T13:14:29Z</time></trkpt>
<trkpt lat="46.7746" lon="6.47778"><ele></ele><time>2024-11-24T13:14:32Z</time></trkpt>
<trkpt lat="46.77458" lon="6.47777"><ele></ele><time>2024-11-24T13:14:35Z</time></trkpt>
<trkpt lat="46.77451" lon="6.47771"><ele></ele><time>2024-11-24T13:14:38Z</time></trkpt>
<trkpt lat="46.77449" lon="6.47769"><ele></ele><time>2024-11-24T13:14:41Z</time></trkpt>
<trkpt lat="46.77444" lon="6.47764"><ele></ele><time>2024-11-24T13:14:44Z</time></trkpt>
<trkpt lat="46.77441" lon="6.4776"><ele></ele><time>2024-11-24T13:14:47Z</time></trkpt>
<trkpt lat="46.77436" lon="6.47752"><ele></ele><time>2024-11-24T13:14:50Z</time></trkpt>
<trkpt lat="46.77435" lon="6.4775"><ele></ele><time>2024-11-24T13:14:53Z</time></trkpt>
<trkpt lat="46.77429" lon="6.47743"><ele></ele><time>2024-11-24T13:14:56Z</time></trkpt>
<trkpt lat="46.77426" lon="6.47741"><ele></ele><time>2024-11-24T13:14:59Z</time></trkpt>
<trkpt lat="46.77424" lon="6.47737"><ele></ele><time>2024-11-24T13:15:2Z</time></trkpt>
<trkpt lat="46.77417" lon="6.47729"><ele></ele><time>2024-11-24T13:15:5Z</time></trkpt>
<trkpt lat="46.77416" lon="6.47728"><ele></ele><time>2024-11-24T13:15:8Z</time></trkpt>
<trkpt lat="46.77415" lon="6.47727"><ele></ele><time>2024-11-24T13:15:11Z</time></trkpt>
<trkpt lat="46.77411" lon="6.47721"><ele></ele><time>2024-11-24T13:15:14Z</time></trkpt>
<trkpt lat="46.77408" lon="6.47716"><ele></ele><time>2024-11-24T13:15:17Z</time></trkpt>
<trkpt lat="46.77407" lon="6.47714"><ele></ele><time>2024-11-24T13:15:20Z</time></trkpt>
<trkpt lat="46.77403" lon="6.47708"><ele></ele><time>2024-11-24T13:15:23Z</time></trkpt>
<trkpt lat="46.774" lon="6.47704"><ele></ele><time>2024-11-24T13:15:26Z</time></trkpt>
<trkpt lat="46.77397" lon="6.47697"><ele></ele><time>2024-11-24T13:15:29Z</time></trkpt>
<trkpt lat="46.77393" lon="6.47691"><ele></ele><time>2024-11-24T13:15:32Z</time></trkpt>
<trkpt lat="46.77385" lon="6.47685"><ele></ele><time>2024-11-24T13:15:35Z</time></trkpt>
<trkpt lat="46.7738" lon="6.47683"><ele></ele><time>2024-11-24T13:15:38Z</time></trkpt>
<trkpt lat="46.77376" lon="6.47681"><ele></ele><time>2024-11-24T13:15:41Z</time></trkpt>
<trkpt lat="46.7737" lon="6.4768"><ele></ele><time>2024-11-24T13:15:44Z</time></trkpt>
<trkpt lat="46.77368" lon="6.47679"><ele></ele><time>2024-11-24T13:15:47Z</time></trkpt>
<trkpt lat="46.77359" lon="6.4768"><ele></ele><time>2024-11-24T13:15:50Z</time></trkpt>
<trkpt lat="46.77356" lon="6.4768"><ele></ele><time>2024-11-24T13:15:53Z</time></trkpt>
<trkpt lat="46.7735" lon="6.4768"><ele></ele><time>2024-11-24T13:15:56Z</time></trkpt>
<trkpt lat="46.77343" lon="6.4768"><ele></ele><time>2024-11-24T13:15:59Z</time></trkpt>
<trkpt lat="46.77339" lon="6.47678"><ele></ele><time>2024-11-24T13:16:2Z</time></trkpt>
<trkpt lat="46.77334" lon="6.47676"><ele></ele><time>2024-11-24T13:16:5Z</time></trkpt>
<trkpt lat="46.77328" lon="6.47673"><ele></ele><time>2024-11-24T13:16:8Z</time></trkpt>
<trkpt lat="46.77325" lon="6.47671"><ele></ele><time>2024-11-24T13:16:11Z</time></trkpt>
<trkpt lat="46.7732" lon="6.47666"><ele></ele><time>2024-11-24T13:16:14Z</time></trkpt>
<trkpt lat="46.77317" lon="6.47662"><ele></ele><time>2024-11-24T13:16:17Z</time></trkpt>
<trkpt lat="46.77312" lon="6.47656"><ele></ele><time>2024-11-24T13:16:20Z</time></trkpt>
<trkpt lat="46.77307" lon="6.4765"><ele></ele><time>2024-11-24T13:16:23Z</time></trkpt>
<trkpt lat="46.77305" lon="6.47648"><ele></ele><time>2024-11-24T13:16:26Z</time></trkpt>
<trkpt lat="46.77299" lon="6.47643"><ele></ele><time>2024-11-24T13:16:29Z</time></trkpt>
<trkpt lat="46.77295" lon="6.47639"><ele></ele><time>2024-11-24T13:16:32Z</time></trkpt>
<trkpt lat="46.77293" lon="6.47634"><ele></ele><time>2024-11-24T13:16:35Z</time></trkpt>
<trkpt lat="46.77288" lon="6.47624"><ele></ele><time>2024-11-24T13:16:38Z</time></trkpt>
<trkpt lat="46.77287" lon="6.47623"><ele></ele><time>2024-11-24T13:16:41Z</time></trkpt>
<trkpt lat="46.77279" lon="6.47614"><ele></ele><time>2024-11-24T13:16:44Z</time></trkpt>
<trkpt lat="46.77272" lon="6.47603"><ele></ele><time>2024-11-24T13:16:47Z</time></trkpt>
<trkpt lat="46.77266" lon="6.47591"><ele></ele><time>2024-11-24T13:16:50Z</time></trkpt>
<trkpt lat="46.77265" lon="6.4759"><ele></ele><time>2024-11-24T13:16:53Z</time></trkpt>
<trkpt lat="46.77258" lon="6.47583"><ele></ele><time>2024-11-24T13:16:56Z</time></trkpt>
<trkpt lat="46.77257" lon="6.47581"><ele></ele><time>2024-11-24T13:16:59Z</time></trkpt>
<trkpt lat="46.77251" lon="6.47574"><ele></ele><time>2024-11-24T13:17:2Z</time></trkpt>
<trkpt lat="46.77249" lon="6.47571"><ele></ele><time>2024-11-24T13:17:5Z</time></trkpt>
<trkpt lat="46.77245" lon="6.47566"><ele></ele><time>2024-11-24T13:17:8Z</time></trkpt>
<trkpt lat="46.7724" lon="6.47561"><ele></ele><time>2024-11-24T13:17:11Z</time></trkpt>
<trkpt lat="46.77237" lon="6.47555"><ele></ele><time>2024-11-24T13:17:14Z</time></trkpt>
<trkpt lat="46.77233" lon="6.4755"><ele></ele><time>2024-11-24T13:17:17Z</time></trkpt>
<trkpt lat="46.77229" lon="6.47545"><ele></ele><time>2024-11-24T13:17:20Z</time></trkpt>
<trkpt lat="46.77225" lon="6.4754"><ele></ele><time>2024-11-24T13:17:23Z</time></trkpt>
<trkpt lat="46.77221" lon="6.47535"><ele></ele><time>2024-11-24T13:17:26Z</time></trkpt>
<trkpt lat="46.77217" lon="6.4753"><ele></ele><time>2024-11-24T13:17:29Z</time></trkpt>
<trkpt lat="46.77216" lon="6.47529"><ele></ele><time>2024-11-24T13:17:32Z</time></trkpt>
<trkpt lat="46.77215" lon="6.47527"><ele></ele><time>2024-11-24T13:17:35Z</time></trkpt>
<trkpt lat="46.77208" lon="6.47518"><ele></ele><time>2024-11-24T13:17:38Z</time></trkpt>
<trkpt lat="46.77207" lon="6.47516"><ele></ele><time>2024-11-24T13:17:41Z</time></trkpt>
<trkpt lat="46.77199" lon="6.47509"><ele></ele><time>2024-11-24T13:17:44Z</time></trkpt>
<trkpt lat="46.77193" lon="6.47499"><ele></ele><time>2024-11-24T13:17:47Z</time></trkpt>
<trkpt lat="46.77192" lon="6.47497"><ele></ele><time>2024-11-24T13:17:50Z</time></trkpt>
<trkpt lat="46.77186" lon="6.4749"><ele></ele><time>2024-11-24T13:17:53Z</time></trkpt>
<trkpt lat="46.77184" lon="6.47487"><ele></ele><time>2024-11-24T13:17:56Z</time></trkpt>
<trkpt lat="46.77179" lon="6.47479"><ele></ele><time>2024-11-24T13:17:59Z</time></trkpt>
<trkpt lat="46.77177" lon="6.47476"><ele></ele><time>2024-11-24T13:18:2Z</time></trkpt>
<trkpt lat="46.77172" lon="6.47469"><ele></ele><time>2024-11-24T13:18:5Z</time></trkpt>
<trkpt lat="46.7717" lon="6.47466"><ele></ele><time>2024-11-24T13:18:8Z</time></trkpt>
<trkpt lat="46.77165" lon="6.47459"><ele></ele><time>2024-11-24T13:18:11Z</time></trkpt>
<trkpt lat="46.77163" lon="6.47455"><ele></ele><time>2024-11-24T13:18:14Z</time></trkpt>
<trkpt lat="46.77161" lon="6.47451"><ele></ele><time>2024-11-24T13:18:17Z</time></trkpt>
<trkpt lat="46.77156" lon="6.47445"><ele></ele><time>2024-11-24T13:18:20Z</time></trkpt>
<trkpt lat="46.77155" lon="6.47443"><ele></ele><time>2024-11-24T13:18:23Z</time></trkpt>
<trkpt lat="46.77149" lon="6.47433"><ele></ele><time>2024-11-24T13:18:26Z</time></trkpt>
<trkpt lat="46.77144" lon="6.4742"><ele></ele><time>2024-11-24T13:18:29Z</time></trkpt>
<trkpt lat="46.77143" lon="6.47419"><ele></ele><time>2024-11-24T13:18:32Z</time></trkpt>
<trkpt lat="46.77141" lon="6.47413"><ele></ele><time>2024-11-24T13:18:35Z</time></trkpt>
<trkpt lat="46.77139" lon="6.4741"><ele></ele><time>2024-11-24T13:18:38Z</time></trkpt>
<trkpt lat="46.77138" lon="6.47406"><ele></ele><time>2024-11-24T13:18:41Z</time></trkpt>
<trkpt lat="46.77134" lon="6.47398"><ele></ele><time>2024-11-24T13:18:44Z</time></trkpt>
<trkpt lat="46.77132" lon="6.47395"><ele></ele><time>2024-11-24T13:18:47Z</time></trkpt>
<trkpt lat="46.77127" lon="6.47387"><ele></ele><time>2024-11-24T13:18:50Z</time></trkpt>
<trkpt lat="46.77123" lon="6.4738"><ele></ele><time>2024-11-24T13:18:53Z</time></trkpt>
<trkpt lat="46.77119" lon="6.47374"><ele></ele><time>2024-11-24T13:18:56Z</time></trkpt>
<trkpt lat="46.77117" lon="6.47371"><ele></ele><time>2024-11-24T13:18:59Z</time></trkpt>
<trkpt lat="46.77114" lon="6.47362"><ele></ele><time>2024-11-24T13:19:2Z</time></trkpt>
<trkpt lat="46.77113" lon="6.47359"><ele></ele><time>2024-11-24T13:19:5Z</time></trkpt>
<trkpt lat="46.77109" lon="6.47354"><ele></ele><time>2024-11-24T13:19:8Z</time></trkpt>
<trkpt lat="46.77105" lon="6.47347"><ele></ele><time>2024-11-24T13:19:11Z</time></trkpt>
<trkpt lat="46.77101" lon="6.4734"><ele></ele><time>2024-11-24T13:19:14Z</time></trkpt>
<trkpt lat="46.77099" lon="6.47335"><ele></ele><time>2024-11-24T13:19:17Z</time></trkpt>
<trkpt lat="46.77094" lon="6.47326"><ele></ele><time>2024-11-24T13:19:20Z</time></trkpt>
<trkpt lat="46.77093" lon="6.47323"><ele></ele><time>2024-11-24T13:19:23Z</time></trkpt>
<trkpt lat="46.77089" lon="6.47313"><ele></ele><time>2024-11-24T13:19:26Z</time></trkpt>
<trkpt lat="46.77087" lon="6.47309"><ele></ele><time>2024-11-24T13:19:29Z</time></trkpt>
<trkpt lat="46.77082" lon="6.47297"><ele></ele><time>2024-11-24T13:19:32Z</time></trkpt>
<trkpt lat="46.7708" lon="6.47293"><ele></ele><time>2024-11-24T13:19:35Z</time></trkpt>
<trkpt lat="46.77077" lon="6.47286"><ele></ele><time>2024-11-24T13:19:38Z</time></trkpt>
<trkpt lat="46.77076" lon="6.47281"><ele></ele><time>2024-11-24T13:19:41Z</time></trkpt>
<trkpt lat="46.77074" lon="6.47278"><ele></ele><time>2024-11-24T13:19:44Z</time></trkpt>
<trkpt lat="46.7707" lon="6.47267"><ele></ele><time>2024-11-24T13:19:47Z</time></trkpt>
<trkpt lat="46.77067" lon="6.47257"><ele></ele><time>2024-11-24T13:19:50Z</time></trkpt>
<trkpt lat="46.77066" lon="6.47254"><ele></ele><time>2024-11-24T13:19:53Z</time></trkpt>
<trkpt lat="46.77064" lon="6.47247"><ele></ele><time>2024-11-24T13:19:56Z</time></trkpt>
<trkpt lat="46.77062" lon="6.4724"><ele></ele><time>2024-11-24T13:19:59Z</time></trkpt>
<trkpt lat="46.77061" lon="6.47236"><ele></ele><time>2024-11-24T13:20:2Z</time></trkpt>
<trkpt lat="46.77058" lon="6.47223"><ele></ele><time>2024-11-24T13:20:5Z</time></trkpt>
<trkpt lat="46.77057" lon="6.47222"><ele></ele><time>2024-11-24T13:20:8Z</time></trkpt>
<trkpt lat="46.77055" lon="6.47209"><ele></ele><time>2024-11-24T13:20:11Z</time></trkpt>
<trkpt lat="46.77053" lon="6.47204"><ele></ele><time>2024-11-24T13:20:14Z</time></trkpt>
<trkpt lat="46.77051" lon="6.47196"><ele></ele><time>2024-11-24T13:20:17Z</time></trkpt>
<trkpt lat="46.77049" lon="6.47189"><ele></ele><time>2024-11-24T13:20:20Z</time></trkpt>
<trkpt lat="46.77047" lon="6.47181"><ele></ele><time>2024-11-24T13:20:23Z</time></trkpt>
<trkpt lat="46.77044" lon="6.47173"><ele></ele><time>2024-11-24T13:20:26Z</time></trkpt>
<trkpt lat="46.77044" lon="6.47171"><ele></ele><time>2024-11-24T13:20:29Z</time></trkpt>
<trkpt lat="46.77041" lon="6.47161"><ele></ele><time>2024-11-24T13:20:32Z</time></trkpt>
<trkpt lat="46.77037" lon="6.47145"><ele></ele><time>2024-11-24T13:20:35Z</time></trkpt>
<trkpt lat="46.77037" lon="6.47144"><ele></ele><time>2024-11-24T13:20:38Z</time></trkpt>
<trkpt lat="46.77035" lon="6.47132"><ele></ele><time>2024-11-24T13:20:41Z</time></trkpt>
<trkpt lat="46.77034" lon="6.47126"><ele></ele><time>2024-11-24T13:20:44Z</time></trkpt>
<trkpt lat="46.77033" lon="6.47124"><ele></ele><time>2024-11-24T13:20:47Z</time></trkpt>
<trkpt lat="46.77027" lon="6.4711"><ele></ele><time>2024-11-24T13:20:50Z</time></trkpt>
<trkpt lat="46.77027" lon="6.47108"><ele></ele><time>2024-11-24T13:20:53Z</time></trkpt>
<trkpt lat="46.77022" lon="6.47095"><ele></ele><time>2024-11-24T13:20:56Z</time></trkpt>
<trkpt lat="46.77021" lon="6.47093"><ele></ele><time>2024-11-24T13:20:59Z</time></trkpt>
<trkpt lat="46.77017" lon="6.47081"><ele></ele><time>2024-11-24T13:21:2Z</time></trkpt>
<trkpt lat="46.77016" lon="6.4708"><ele></ele><time>2024-11-24T13:21:5Z</time></trkpt>
<trkpt lat="46.7701" lon="6.47067"><ele></ele><time>2024-11-24T13:21:8Z</time></trkpt>
<trkpt lat="46.77005" lon="6.47053"><ele></ele><time>2024-11-24T13:21:11Z</time></trkpt>
<trkpt lat="46.77004" lon="6.47051"><ele></ele><time>2024-11-24T13:21:14Z</time></trkpt>
<trkpt lat="46.76998" lon="6.47039"><ele></ele><time>2024-11-24T13:21:17Z</time></trkpt>
<trkpt lat="46.76997" lon="6.47034"><ele></ele><time>2024-11-24T13:21:20Z</time></trkpt>
<trkpt lat="46.76994" lon="6.47025"><ele></ele><time>2024-11-24T13:21:23Z</time></trkpt>
<trkpt lat="46.76993" lon="6.47023"><ele></ele><time>2024-11-24T13:21:26Z</time></trkpt>
<trkpt lat="46.7699" lon="6.47011"><ele></ele><time>2024-11-24T13:21:29Z</time></trkpt>
<trkpt lat="46.76989" lon="6.4701"><ele></ele><time>2024-11-24T13:21:32Z</time></trkpt>
<trkpt lat="46.76984" lon="6.46996"><ele></ele><time>2024-11-24T13:21:35Z</time></trkpt>
<trkpt lat="46.76984" lon="6.46995"><ele></ele><time>2024-11-24T13:21:38Z</time></trkpt>
<trkpt lat="46.76981" lon="6.46987"><ele></ele><time>2024-11-24T13:21:41Z</time></trkpt>
<trkpt lat="46.76979" lon="6.46983"><ele></ele><time>2024-11-24T13:21:44Z</time></trkpt>
<trkpt lat="46.76979" lon="6.46978"><ele></ele><time>2024-11-24T13:21:47Z</time></trkpt>
<trkpt lat="46.76977" lon="6.4697"><ele></ele><time>2024-11-24T13:21:50Z</time></trkpt>
<trkpt lat="46.76977" lon="6.46968"><ele></ele><time>2024-11-24T13:21:53Z</time></trkpt>
<trkpt lat="46.76976" lon="6.46957"><ele></ele><time>2024-11-24T13:21:56Z</time></trkpt>
<trkpt lat="46.76975" lon="6.46953"><ele></ele><time>2024-11-24T13:21:59Z</time></trkpt>
<trkpt lat="46.76974" lon="6.46944"><ele></ele><time>2024-11-24T13:22:2Z</time></trkpt>
<trkpt lat="46.76974" lon="6.46942"><ele></ele><time>2024-11-24T13:22:5Z</time></trkpt>
<trkpt lat="46.76972" lon="6.46938"><ele></ele><time>2024-11-24T13:22:8Z</time></trkpt>
<trkpt lat="46.76972" lon="6.46934"><ele></ele><time>2024-11-24T13:22:11Z</time></trkpt>
<trkpt lat="46.76972" lon="6.46928"><ele></ele><time>2024-11-24T13:22:14Z</time></trkpt>
<trkpt lat="46.76971" lon="6.46926"><ele></ele><time>2024-11-24T13:22:17Z</time></trkpt>
<trkpt lat="46.76972" lon="6.46924"><ele></ele><time>2024-11-24T13:22:20Z</time></trkpt>
<trkpt lat="46.76969" lon="6.46914"><ele></ele><time>2024-11-24T13:22:23Z</time></trkpt>
<trkpt lat="46.76969" lon="6.46909"><ele></ele><time>2024-11-24T13:22:26Z</time></trkpt>
<trkpt lat="46.76968" lon="6.46901"><ele></ele><time>2024-11-24T13:22:29Z</time></trkpt>
<trkpt lat="46.76968" lon="6.46899"><ele></ele><time>2024-11-24T13:22:32Z</time></trkpt>
<trkpt lat="46.76965" lon="6.46888"><ele></ele><time>2024-11-24T13:22:35Z</time></trkpt>
<trkpt lat="46.76964" lon="6.46886"><ele></ele><time>2024-11-24T13:22:38Z</time></trkpt>
<trkpt lat="46.76963" lon="6.46878"><ele></ele><time>2024-11-24T13:22:41Z</time></trkpt>
<trkpt lat="46.76961" lon="6.46875"><ele></ele><time>2024-11-24T13:22:44Z</time></trkpt>
<trkpt lat="46.76958" lon="6.46868"><ele></ele><time>2024-11-24T13:22:47Z</time></trkpt>
<trkpt lat="46.76957" lon="6.46863"><ele></ele><time>2024-11-24T13:22:50Z</time></trkpt>
<trkpt lat="46.76955" lon="6.4686"><ele></ele><time>2024-11-24T13:22:53Z</time></trkpt>
<trkpt lat="46.76952" lon="6.4685"><ele></ele><time>2024-11-24T13:22:56Z</time></trkpt>
<trkpt lat="46.76951" lon="6.46848"><ele></ele><time>2024-11-24T13:22:59Z</time></trkpt>
<trkpt lat="46.76946" lon="6.46836"><ele></ele><time>2024-11-24T13:23:2Z</time></trkpt>
<trkpt lat="46.76946" lon="6.46834"><ele></ele><time>2024-11-24T13:23:5Z</time></trkpt>
<trkpt lat="46.76942" lon="6.46826"><ele></ele><time>2024-11-24T13:23:8Z</time></trkpt>
<trkpt lat="46.76941" lon="6.46825"><ele></ele><time>2024-11-24T13:23:11Z</time></trkpt>
<trkpt lat="46.76937" lon="6.46818"><ele></ele><time>2024-11-24T13:23:14Z</time></trkpt>
<trkpt lat="46.76935" lon="6.46811"><ele></ele><time>2024-11-24T13:23:17Z</time></trkpt>
<trkpt lat="46.76933" lon="6.46804"><ele></ele><time>2024-11-24T13:23:20Z</time></trkpt>
<trkpt lat="46.76929" lon="6.46793"><ele></ele><time>2024-11-24T13:23:23Z</time></trkpt>
<trkpt lat="46.76928" lon="6.4679"><ele></ele><time>2024-11-24T13:23:26Z</time></trkpt>
<trkpt lat="46.76925" lon="6.46781"><ele></ele><time>2024-11-24T13:23:29Z</time></trkpt>
<trkpt lat="46.76922" lon="6.46774"><ele></ele><time>2024-11-24T13:23:32Z</time></trkpt>
<trkpt lat="46.76921" lon="6.4677"><ele></ele><time>2024-11-24T13:23:35Z</time></trkpt>
<trkpt lat="46.76919" lon="6.46758"><ele></ele><time>2024-11-24T13:23:38Z</time></trkpt>
<trkpt lat="46.76918" lon="6.46755"><ele></ele><time>2024-11-24T13:23:41Z</time></trkpt>
<trkpt lat="46.76915" lon="6.46748"><ele></ele><time>2024-11-24T13:23:44Z</time></trkpt>
<trkpt lat="46.76915" lon="6.46744"><ele></ele><time>2024-11-24T13:23:47Z</time></trkpt>
<trkpt lat="46.76911" lon="6.46731"><ele></ele><time>2024-11-24T13:23:50Z</time></trkpt>
<trkpt lat="46.7691" lon="6.46719"><ele></ele><time>2024-11-24T13:23:53Z</time></trkpt>
<trkpt lat="46.76909" lon="6.46715"><ele></ele><time>2024-11-24T13:23:56Z</time></trkpt>
<trkpt lat="46.76909" lon="6.46705"><ele></ele><time>2024-11-24T13:23:59Z</time></trkpt>
<trkpt lat="46.76909" lon="6.467"><ele></ele><time>2024-11-24T13:24:2Z</time></trkpt>
<trkpt lat="46.76909" lon="6.4669"><ele></ele><time>2024-11-24T13:24:5Z</time></trkpt>
<trkpt lat="46.7691" lon="6.46683"><ele></ele><time>2024-11-24T13:24:8Z</time></trkpt>
<trkpt lat="46.7691" lon="6.46676"><ele></ele><time>2024-11-24T13:24:11Z</time></trkpt>
<trkpt lat="46.7691" lon="6.46669"><ele></ele><time>2024-11-24T13:24:14Z</time></trkpt>
<trkpt lat="46.76911" lon="6.4666"><ele></ele><time>2024-11-24T13:24:17Z</time></trkpt>
<trkpt lat="46.76911" lon="6.46656"><ele></ele><time>2024-11-24T13:24:20Z</time></trkpt>
<trkpt lat="46.76913" lon="6.46646"><ele></ele><time>2024-11-24T13:24:23Z</time></trkpt>
<trkpt lat="46.76913" lon="6.46642"><ele></ele><time>2024-11-24T13:24:26Z</time></trkpt>
<trkpt lat="46.76913" lon="6.46634"><ele></ele><time>2024-11-24T13:24:29Z</time></trkpt>
<trkpt lat="46.76913" lon="6.4663"><ele></ele><time>2024-11-24T13:24:32Z</time></trkpt>
<trkpt lat="46.76914" lon="6.4662"><ele></ele><time>2024-11-24T13:24:35Z</time></trkpt>
<trkpt lat="46.76915" lon="6.46607"><ele></ele><time>2024-11-24T13:24:38Z</time></trkpt>
<trkpt lat="46.76915" lon="6.46604"><ele></ele><time>2024-11-24T13:24:41Z</time></trkpt>
<trkpt lat="46.76915" lon="6.46598"><ele></ele><time>2024-11-24T13:24:44Z</time></trkpt>
<trkpt lat="46.76915" lon="6.46595"><ele></ele><time>2024-11-24T13:24:47Z</time></trkpt>
<trkpt lat="46.76914" lon="6.46588"><ele></ele><time>2024-11-24T13:24:50Z</time></trkpt>
<trkpt lat="46.76912" lon="6.46582"><ele></ele><time>2024-11-24T13:24:53Z</time></trkpt>
<trkpt lat="46.7691" lon="6.46572"><ele></ele><time>2024-11-24T13:24:56Z</time></trkpt>
<trkpt lat="46.7691" lon="6.4657"><ele></ele><time>2024-11-24T13:24:59Z</time></trkpt>
<trkpt lat="46.76909" lon="6.4657"><ele></ele><time>2024-11-24T13:25:2Z</time></trkpt>
<trkpt lat="46.76909" lon="6.4657"><ele></ele><time>2024-11-24T13:25:5Z</time></trkpt>
<trkpt lat="46.7691" lon="6.46569"><ele></ele><time>2024-11-24T13:25:8Z</time></trkpt>
<trkpt lat="46.76909" lon="6.4657"><ele></ele><time>2024-11-24T13:25:11Z</time></trkpt>
<trkpt lat="46.7691" lon="6.46569"><ele></ele><time>2024-11-24T13:25:14Z</time></trkpt>
<trkpt lat="46.7691" lon="6.46569"><ele></ele><time>2024-11-24T13:25:17Z</time></trkpt>
<trkpt lat="46.7691" lon="6.46569"><ele></ele><time>2024-11-24T13:25:20Z</time></trkpt>
<trkpt lat="46.76909" lon="6.46566"><ele></ele><time>2024-11-24T13:25:23Z</time></trkpt>
<trkpt lat="46.76901" lon="6.46565"><ele></ele><time>2024-11-24T13:25:26Z</time></trkpt>
<trkpt lat="46.76887" lon="6.46555"><ele></ele><time>2024-11-24T13:25:29Z</time></trkpt>
<trkpt lat="46.76871" lon="6.46538"><ele></ele><time>2024-11-24T13:25:32Z</time></trkpt>
<trkpt lat="46.76869" lon="6.46537"><ele></ele><time>2024-11-24T13:25:35Z</time></trkpt>
<trkpt lat="46.76857" lon="6.4652"><ele></ele><time>2024-11-24T13:25:38Z</time></trkpt>
<trkpt lat="46.76853" lon="6.4651"><ele></ele><time>2024-11-24T13:25:41Z</time></trkpt>
<trkpt lat="46.76852" lon="6.46508"><ele></ele><time>2024-11-24T13:25:44Z</time></trkpt>
<trkpt lat="46.76851" lon="6.465"><ele></ele><time>2024-11-24T13:25:47Z</time></trkpt>
<trkpt lat="46.76851" lon="6.46497"><ele></ele><time>2024-11-24T13:25:50Z</time></trkpt>
<trkpt lat="46.7685" lon="6.46493"><ele></ele><time>2024-11-24T13:25:53Z</time></trkpt>
<trkpt lat="46.76849" lon="6.4649"><ele></ele><time>2024-11-24T13:25:56Z</time></trkpt>
<trkpt lat="46.76848" lon="6.46488"><ele></ele><time>2024-11-24T13:25:59Z</time></trkpt>
<trkpt lat="46.76847" lon="6.46485"><ele></ele><time>2024-11-24T13:26:2Z</time></trkpt>
<trkpt lat="46.76847" lon="6.46483"><ele></ele><time>2024-11-24T13:26:5Z</time></trkpt>
<trkpt lat="46.76847" lon="6.46483"><ele></ele><time>2024-11-24T13:26:8Z</time></trkpt>
<trkpt lat="46.76847" lon="6.46483"><ele></ele><time>2024-11-24T13:26:11Z</time></trkpt>
<trkpt lat="46.76847" lon="6.46482"><ele></ele><time>2024-11-24T13:26:14Z</time></trkpt>
<trkpt lat="46.76847" lon="6.46481"><ele></ele><time>2024-11-24T13:26:17Z</time></trkpt>
<trkpt lat="46.76847" lon="6.4648"><ele></ele><time>2024-11-24T13:26:20Z</time></trkpt>
<trkpt lat="46.76846" lon="6.46481"><ele></ele><time>2024-11-24T13:26:23Z</time></trkpt>
<trkpt lat="46.76846" lon="6.4648"><ele></ele><time>2024-11-24T13:26:26Z</time></trkpt>
<trkpt lat="46.76845" lon="6.46478"><ele></ele><time>2024-11-24T13:26:29Z</time></trkpt>
<trkpt lat="46.76842" lon="6.46475"><ele></ele><time>2024-11-24T13:26:32Z</time></trkpt>
<trkpt lat="46.7684" lon="6.4647"><ele></ele><time>2024-11-24T13:26:35Z</time></trkpt>
<trkpt lat="46.76839" lon="6.46469"><ele></ele><time>2024-11-24T13:26:38Z</time></trkpt>
<trkpt lat="46.76839" lon="6.46468"><ele></ele><time>2024-11-24T13:26:41Z</time></trkpt>
<trkpt lat="46.76837" lon="6.46463"><ele></ele><time>2024-11-24T13:26:44Z</time></trkpt>
<trkpt lat="46.76833" lon="6.46457"><ele></ele><time>2024-11-24T13:26:47Z</time></trkpt>
<trkpt lat="46.76832" lon="6.46455"><ele></ele><time>2024-11-24T13:26:50Z</time></trkpt>
<trkpt lat="46.76831" lon="6.46452"><ele></ele><time>2024-11-24T13:26:53Z</time></trkpt>
<trkpt lat="46.7683" lon="6.46449"><ele></ele><time>2024-11-24T13:26:56Z</time></trkpt>
<trkpt lat="46.76828" lon="6.46446"><ele></ele><time>2024-11-24T13:26:59Z</time></trkpt>
<trkpt lat="46.76827" lon="6.4644"><ele></ele><time>2024-11-24T13:27:2Z</time></trkpt>
<trkpt lat="46.76825" lon="6.46435"><ele></ele><time>2024-11-24T13:27:5Z</time></trkpt>
<trkpt lat="46.76823" lon="6.4643"><ele></ele><time>2024-11-24T13:27:8Z</time></trkpt>
<trkpt lat="46.76821" lon="6.46427"><ele></ele><time>2024-11-24T13:27:11Z</time></trkpt>
<trkpt lat="46.76821" lon="6.46425"><ele></ele><time>2024-11-24T13:27:14Z</time></trkpt>
<trkpt lat="46.76821" lon="6.46422"><ele></ele><time>2024-11-24T13:27:17Z</time></trkpt>
<trkpt lat="46.76819" lon="6.46415"><ele></ele><time>2024-11-24T13:27:20Z</time></trkpt>
<trkpt lat="46.76818" lon="6.46413"><ele></ele><time>2024-11-24T13:27:23Z</time></trkpt>
<trkpt lat="46.76816" lon="6.46408"><ele></ele><time>2024-11-24T13:27:26Z</time></trkpt>
<trkpt lat="46.76815" lon="6.46407"><ele></ele><time>2024-11-24T13:27:29Z</time></trkpt>
<trkpt lat="46.76813" lon="6.464"><ele></ele><time>2024-11-24T13:27:32Z</time></trkpt>
<trkpt lat="46.76812" lon="6.46399"><ele></ele><time>2024-11-24T13:27:35Z</time></trkpt>
<trkpt lat="46.76812" lon="6.46394"><ele></ele><time>2024-11-24T13:27:38Z</time></trkpt>
<trkpt lat="46.76811" lon="6.46391"><ele></ele><time>2024-11-24T13:27:41Z</time></trkpt>
<trkpt lat="46.76811" lon="6.4639"><ele></ele><time>2024-11-24T13:27:44Z</time></trkpt>
<trkpt lat="46.7681" lon="6.46388"><ele></ele><time>2024-11-24T13:27:47Z</time></trkpt>
<trkpt lat="46.76809" lon="6.46382"><ele></ele><time>2024-11-24T13:27:50Z</time></trkpt>
<trkpt lat="46.76807" lon="6.46377"><ele></ele><time>2024-11-24T13:27:53Z</time></trkpt>
<trkpt lat="46.76807" lon="6.46376"><ele></ele><time>2024-11-24T13:27:56Z</time></trkpt>
<trkpt lat="46.76807" lon="6.46375"><ele></ele><time>2024-11-24T13:27:59Z</time></trkpt>
<trkpt lat="46.76807" lon="6.46369"><ele></ele><time>2024-11-24T13:28:2Z</time></trkpt>
<trkpt lat="46.76806" lon="6.46367"><ele></ele><time>2024-11-24T13:28:5Z</time></trkpt>
<trkpt lat="46.76805" lon="6.46365"><ele></ele><time>2024-11-24T13:28:8Z</time></trkpt>
<trkpt lat="46.76804" lon="6.46362"><ele></ele><time>2024-11-24T13:28:11Z</time></trkpt>
<trkpt lat="46.76805" lon="6.46357"><ele></ele><time>2024-11-24T13:28:14Z</time></trkpt>
<trkpt lat="46.76804" lon="6.46356"><ele></ele><time>2024-11-24T13:28:17Z</time></trkpt>
<trkpt lat="46.76805" lon="6.46357"><ele></ele><time>2024-11-24T13:28:20Z</time></trkpt>
<trkpt lat="46.76804" lon="6.46357"><ele></ele><time>2024-11-24T13:28:23Z</time></trkpt>
<trkpt lat="46.76804" lon="6.46357"><ele></ele><time>2024-11-24T13:28:26Z</time></trkpt>
<trkpt lat="46.76804" lon="6.46356"><ele></ele><time>2024-11-24T13:28:29Z</time></trkpt>
<trkpt lat="46.76803" lon="6.46356"><ele></ele><time>2024-11-24T13:28:32Z</time></trkpt>
<trkpt lat="46.76802" lon="6.46352"><ele></ele><time>2024-11-24T13:28:35Z</time></trkpt>
<trkpt lat="46.76802" lon="6.46348"><ele></ele><time>2024-11-24T13:28:38Z</time></trkpt>
<trkpt lat="46.76802" lon="6.46344"><ele></ele><time>2024-11-24T13:28:41Z</time></trkpt>
<trkpt lat="46.76803" lon="6.46342"><ele></ele><time>2024-11-24T13:28:44Z</time></trkpt>
<trkpt lat="46.76806" lon="6.46339"><ele></ele><time>2024-11-24T13:28:47Z</time></trkpt>
<trkpt lat="46.76807" lon="6.4634"><ele></ele><time>2024-11-24T13:28:50Z</time></trkpt>
<trkpt lat="46.76813" lon="6.46341"><ele></ele><time>2024-11-24T13:28:53Z</time></trkpt>
<trkpt lat="46.76815" lon="6.46342"><ele></ele><time>2024-11-24T13:28:56Z</time></trkpt>
<trkpt lat="46.7682" lon="6.46343"><ele></ele><time>2024-11-24T13:28:59Z</time></trkpt>
<trkpt lat="46.76826" lon="6.46347"><ele></ele><time>2024-11-24T13:29:2Z</time></trkpt>
<trkpt lat="46.76837" lon="6.46353"><ele></ele><time>2024-11-24T13:29:5Z</time></trkpt>
<trkpt lat="46.76847" lon="6.46358"><ele></ele><time>2024-11-24T13:29:8Z</time></trkpt>
<trkpt lat="46.76857" lon="6.46365"><ele></ele><time>2024-11-24T13:29:11Z</time></trkpt>
<trkpt lat="46.76858" lon="6.46367"><ele></ele><time>2024-11-24T13:29:14Z</time></trkpt>
<trkpt lat="46.76864" lon="6.46372"><ele></ele><time>2024-11-24T13:29:17Z</time></trkpt>
<trkpt lat="46.76867" lon="6.46375"><ele></ele><time>2024-11-24T13:29:20Z</time></trkpt>
<trkpt lat="46.76871" lon="6.46377"><ele></ele><time>2024-11-24T13:29:23Z</time></trkpt>
<trkpt lat="46.76875" lon="6.46381"><ele></ele><time>2024-11-24T13:29:26Z</time></trkpt>
<trkpt lat="46.76881" lon="6.46386"><ele></ele><time>2024-11-24T13:29:29Z</time></trkpt>
<trkpt lat="46.76882" lon="6.46387"><ele></ele><time>2024-11-24T13:29:32Z</time></trkpt>
<trkpt lat="46.76882" lon="6.46388"><ele></ele><time>2024-11-24T13:29:35Z</time></trkpt>
<trkpt lat="46.76884" lon="6.46391"><ele></ele><time>2024-11-24T13:29:38Z</time></trkpt>
<trkpt lat="46.76891" lon="6.46398"><ele></ele><time>2024-11-24T13:29:41Z</time></trkpt>
<trkpt lat="46.76895" lon="6.46404"><ele></ele><time>2024-11-24T13:29:44Z</time></trkpt>
<trkpt lat="46.76898" lon="6.46406"><ele></ele><time>2024-11-24T13:29:47Z</time></trkpt>
<trkpt lat="46.76904" lon="6.46414"><ele></ele><time>2024-11-24T13:29:50Z</time></trkpt>
<trkpt lat="46.76912" lon="6.46422"><ele></ele><time>2024-11-24T13:29:53Z</time></trkpt>
<trkpt lat="46.76912" lon="6.46423"><ele></ele><time>2024-11-24T13:29:56Z</time></trkpt>
<trkpt lat="46.7692" lon="6.46434"><ele></ele><time>2024-11-24T13:29:59Z</time></trkpt>
<trkpt lat="46.76922" lon="6.4644"><ele></ele><time>2024-11-24T13:30:2Z</time></trkpt>
<trkpt lat="46.76924" lon="6.46442"><ele></ele><time>2024-11-24T13:30:5Z</time></trkpt>
<trkpt lat="46.76932" lon="6.46448"><ele></ele><time>2024-11-24T13:30:8Z</time></trkpt>
<trkpt lat="46.76935" lon="6.46456"><ele></ele><time>2024-11-24T13:30:11Z</time></trkpt>
<trkpt lat="46.76936" lon="6.46459"><ele></ele><time>2024-11-24T13:30:14Z</time></trkpt>
<trkpt lat="46.76936" lon="6.46459"><ele></ele><time>2024-11-24T13:30:17Z</time></trkpt>
<trkpt lat="46.76935" lon="6.46458"><ele></ele><time>2024-11-24T13:30:20Z</time></trkpt>
<trkpt lat="46.76936" lon="6.46458"><ele></ele><time>2024-11-24T13:30:23Z</time></trkpt>
<trkpt lat="46.76937" lon="6.4646"><ele></ele><time>2024-11-24T13:30:26Z</time></trkpt>
<trkpt lat="46.76938" lon="6.46463"><ele></ele><time>2024-11-24T13:30:29Z</time></trkpt>
<trkpt lat="46.76944" lon="6.4647"><ele></ele><time>2024-11-24T13:30:32Z</time></trkpt>
<trkpt lat="46.76945" lon="6.46472"><ele></ele><time>2024-11-24T13:30:35Z</time></trkpt>
<trkpt lat="46.7695" lon="6.4648"><ele></ele><time>2024-11-24T13:30:38Z</time></trkpt>
<trkpt lat="46.76952" lon="6.46484"><ele></ele><time>2024-11-24T13:30:41Z</time></trkpt>
<trkpt lat="46.76959" lon="6.46488"><ele></ele><time>2024-11-24T13:30:44Z</time></trkpt>
<trkpt lat="46.76964" lon="6.46492"><ele></ele><time>2024-11-24T13:30:47Z</time></trkpt>
<trkpt lat="46.76966" lon="6.46495"><ele></ele><time>2024-11-24T13:30:50Z</time></trkpt>
<trkpt lat="46.76973" lon="6.46499"><ele></ele><time>2024-11-24T13:30:53Z</time></trkpt>
<trkpt lat="46.76979" lon="6.46503"><ele></ele><time>2024-11-24T13:30:56Z</time></trkpt>
<trkpt lat="46.7698" lon="6.46503"><ele></ele><time>2024-11-24T13:30:59Z</time></trkpt>
<trkpt lat="46.76986" lon="6.46506"><ele></ele><time>2024-11-24T13:31:2Z</time></trkpt>
<trkpt lat="46.76989" lon="6.46508"><ele></ele><time>2024-11-24T13:31:5Z</time></trkpt>
<trkpt lat="46.76991" lon="6.46509"><ele></ele><time>2024-11-24T13:31:8Z</time></trkpt>
<trkpt lat="46.76992" lon="6.4651"><ele></ele><time>2024-11-24T13:31:11Z</time></trkpt>
<trkpt lat="46.76997" lon="6.46513"><ele></ele><time>2024-11-24T13:31:14Z</time></trkpt>
<trkpt lat="46.77001" lon="6.46514"><ele></ele><time>2024-11-24T13:31:17Z</time></trkpt>
<trkpt lat="46.77001" lon="6.46515"><ele></ele><time>2024-11-24T13:31:20Z</time></trkpt>
<trkpt lat="46.77005" lon="6.46516"><ele></ele><time>2024-11-24T13:31:23Z</time></trkpt>
<trkpt lat="46.77009" lon="6.46519"><ele></ele><time>2024-11-24T13:31:26Z</time></trkpt>
<trkpt lat="46.77011" lon="6.46521"><ele></ele><time>2024-11-24T13:31:29Z</time></trkpt>
<trkpt lat="46.77012" lon="6.46521"><ele></ele><time>2024-11-24T13:31:32Z</time></trkpt>
<trkpt lat="46.77015" lon="6.46523"><ele></ele><time>2024-11-24T13:31:35Z</time></trkpt>
<trkpt lat="46.77017" lon="6.46525"><ele></ele><time>2024-11-24T13:31:38Z</time></trkpt>
<trkpt lat="46.77024" lon="6.46529"><ele></ele><time>2024-11-24T13:31:41Z</time></trkpt>
<trkpt lat="46.77027" lon="6.46532"><ele></ele><time>2024-11-24T13:31:44Z</time></trkpt>
<trkpt lat="46.77029" lon="6.46534"><ele></ele><time>2024-11-24T13:31:47Z</time></trkpt>
<trkpt lat="46.77032" lon="6.46535"><ele></ele><time>2024-11-24T13:31:50Z</time></trkpt>
<trkpt lat="46.77034" lon="6.46537"><ele></ele><time>2024-11-24T13:31:53Z</time></trkpt>
<trkpt lat="46.77035" lon="6.46537"><ele></ele><time>2024-11-24T13:31:56Z</time></trkpt>
<trkpt lat="46.77038" lon="6.46543"><ele></ele><time>2024-11-24T13:31:59Z</time></trkpt>
<trkpt lat="46.77038" lon="6.46543"><ele></ele><time>2024-11-24T13:32:2Z</time></trkpt>
<trkpt lat="46.77037" lon="6.46543"><ele></ele><time>2024-11-24T13:32:5Z</time></trkpt>
<trkpt lat="46.77037" lon="6.46542"><ele></ele><time>2024-11-24T13:32:8Z</time></trkpt>
<trkpt lat="46.77037" lon="6.46542"><ele></ele><time>2024-11-24T13:32:11Z</time></trkpt>
<trkpt lat="46.77036" lon="6.46539"><ele></ele><time>2024-11-24T13:32:14Z</time></trkpt>
<trkpt lat="46.77036" lon="6.46538"><ele></ele><time>2024-11-24T13:32:17Z</time></trkpt>
<trkpt lat="46.77036" lon="6.46538"><ele></ele><time>2024-11-24T13:32:20Z</time></trkpt>
<trkpt lat="46.77036" lon="6.46538"><ele></ele><time>2024-11-24T13:32:23Z</time></trkpt>
<trkpt lat="46.77036" lon="6.46538"><ele></ele><time>2024-11-24T13:32:26Z</time></trkpt>
<trkpt lat="46.77036" lon="6.46539"><ele></ele><time>2024-11-24T13:32:29Z</time></trkpt>
<trkpt lat="46.77034" lon="6.46538"><ele></ele><time>2024-11-24T13:32:32Z</time></trkpt>
<trkpt lat="46.77023" lon="6.46528"><ele></ele><time>2024-11-24T13:32:35Z</time></trkpt>
<trkpt lat="46.7702" lon="6.46527"><ele></ele><time>2024-11-24T13:32:38Z</time></trkpt>
<trkpt lat="46.77021" lon="6.46529"><ele></ele><time>2024-11-24T13:32:41Z</time></trkpt>
<trkpt lat="46.77021" lon="6.46529"><ele></ele><time>2024-11-24T13:32:44Z</time></trkpt>
<trkpt lat="46.77026" lon="6.4653"><ele></ele><time>2024-11-24T13:32:47Z</time></trkpt>
<trkpt lat="46.77032" lon="6.46535"><ele></ele><time>2024-11-24T13:32:50Z</time></trkpt>
<trkpt lat="46.77037" lon="6.46542"><ele></ele><time>2024-11-24T13:32:53Z</time></trkpt>
<trkpt lat="46.7704" lon="6.46546"><ele></ele><time>2024-11-24T13:32:56Z</time></trkpt>
<trkpt lat="46.77038" lon="6.46544"><ele></ele><time>2024-11-24T13:32:59Z</time></trkpt>
<trkpt lat="46.77037" lon="6.46542"><ele></ele><time>2024-11-24T13:33:2Z</time></trkpt>
<trkpt lat="46.77036" lon="6.4654"><ele></ele><time>2024-11-24T13:33:5Z</time></trkpt>
<trkpt lat="46.77036" lon="6.4654"><ele></ele><time>2024-11-24T13:33:8Z</time></trkpt>
<trkpt lat="46.77036" lon="6.4654"><ele></ele><time>2024-11-24T13:33:11Z</time></trkpt>
<trkpt lat="46.77036" lon="6.46542"><ele></ele><time>2024-11-24T13:33:14Z</time></trkpt>
<trkpt lat="46.77036" lon="6.46542"><ele></ele><time>2024-11-24T13:33:17Z</time></trkpt>
<trkpt lat="46.77036" lon="6.46542"><ele></ele><time>2024-11-24T13:33:20Z</time></trkpt>
<trkpt lat="46.77035" lon="6.46543"><ele></ele><time>2024-11-24T13:33:23Z</time></trkpt>
<trkpt lat="46.77036" lon="6.46543"><ele></ele><time>2024-11-24T13:33:26Z</time></trkpt>
<trkpt lat="46.7704" lon="6.46547"><ele></ele><time>2024-11-24T13:33:29Z</time></trkpt>
<trkpt lat="46.77045" lon="6.46557"><ele></ele><time>2024-11-24T13:33:32Z</time></trkpt>
<trkpt lat="46.77053" lon="6.46563"><ele></ele><time>2024-11-24T13:33:35Z</time></trkpt>
<trkpt lat="46.77054" lon="6.46562"><ele></ele><time>2024-11-24T13:33:38Z</time></trkpt>
<trkpt lat="46.77055" lon="6.46562"><ele></ele><time>2024-11-24T13:33:41Z</time></trkpt>
<trkpt lat="46.77059" lon="6.46564"><ele></ele><time>2024-11-24T13:33:44Z</time></trkpt>
<trkpt lat="46.77061" lon="6.46564"><ele></ele><time>2024-11-24T13:33:47Z</time></trkpt>
<trkpt lat="46.77063" lon="6.46563"><ele></ele><time>2024-11-24T13:33:50Z</time></trkpt>
<trkpt lat="46.77064" lon="6.46563"><ele></ele><time>2024-11-24T13:33:53Z</time></trkpt>
<trkpt lat="46.77067" lon="6.46563"><ele></ele><time>2024-11-24T13:33:56Z</time></trkpt>
<trkpt lat="46.7707" lon="6.46562"><ele></ele><time>2024-11-24T13:33:59Z</time></trkpt>
<trkpt lat="46.7707" lon="6.46562"><ele></ele><time>2024-11-24T13:34:2Z</time></trkpt>
<trkpt lat="46.77072" lon="6.46562"><ele></ele><time>2024-11-24T13:34:5Z</time></trkpt>
<trkpt lat="46.77076" lon="6.46563"><ele></ele><time>2024-11-24T13:34:8Z</time></trkpt>
<trkpt lat="46.77077" lon="6.46562"><ele></ele><time>2024-11-24T13:34:11Z</time></trkpt>
<trkpt lat="46.77077" lon="6.46562"><ele></ele><time>2024-11-24T13:34:14Z</time></trkpt>
<trkpt lat="46.77076" lon="6.46562"><ele></ele><time>2024-11-24T13:34:17Z</time></trkpt>
<trkpt lat="46.77078" lon="6.46561"><ele></ele><time>2024-11-24T13:34:20Z</time></trkpt>
<trkpt lat="46.77079" lon="6.46561"><ele></ele><time>2024-11-24T13:34:23Z</time></trkpt>
<trkpt lat="46.77082" lon="6.46561"><ele></ele><time>2024-11-24T13:34:26Z</time></trkpt>
<trkpt lat="46.77083" lon="6.46561"><ele></ele><time>2024-11-24T13:34:29Z</time></trkpt>
<trkpt lat="46.77087" lon="6.46559"><ele></ele><time>2024-11-24T13:34:32Z</time></trkpt>
<trkpt lat="46.77088" lon="6.46559"><ele></ele><time>2024-11-24T13:34:35Z</time></trkpt>
<trkpt lat="46.77089" lon="6.46558"><ele></ele><time>2024-11-24T13:34:38Z</time></trkpt>
<trkpt lat="46.77089" lon="6.46557"><ele></ele><time>2024-11-24T13:34:41Z</time></trkpt>
<trkpt lat="46.77093" lon="6.46556"><ele></ele><time>2024-11-24T13:34:44Z</time></trkpt>
<trkpt lat="46.77096" lon="6.46556"><ele></ele><time>2024-11-24T13:34:47Z</time></trkpt>
<trkpt lat="46.77098" lon="6.46556"><ele></ele><time>2024-11-24T13:34:50Z</time></trkpt>
<trkpt lat="46.771" lon="6.46556"><ele></ele><time>2024-11-24T13:34:53Z</time></trkpt>
<trkpt lat="46.77102" lon="6.46557"><ele></ele><time>2024-11-24T13:34:56Z</time></trkpt>
<trkpt lat="46.77107" lon="6.46557"><ele></ele><time>2024-11-24T13:34:59Z</time></trkpt>
<trkpt lat="46.77107" lon="6.46556"><ele></ele><time>2024-11-24T13:35:2Z</time></trkpt>
<trkpt lat="46.77109" lon="6.46556"><ele></ele><time>2024-11-24T13:35:5Z</time></trkpt>
<trkpt lat="46.77109" lon="6.46556"><ele></ele><time>2024-11-24T13:35:8Z</time></trkpt>
<trkpt lat="46.77111" lon="6.46556"><ele></ele><time>2024-11-24T13:35:11Z</time></trkpt>
<trkpt lat="46.77112" lon="6.46556"><ele></ele><time>2024-11-24T13:35:14Z</time></trkpt>
<trkpt lat="46.77115" lon="6.46555"><ele></ele><time>2024-11-24T13:35:17Z</time></trkpt>
<trkpt lat="46.77115" lon="6.46555"><ele></ele><time>2024-11-24T13:35:20Z</time></trkpt>
<trkpt lat="46.77116" lon="6.46555"><ele></ele><time>2024-11-24T13:35:23Z</time></trkpt>
<trkpt lat="46.77119" lon="6.46557"><ele></ele><time>2024-11-24T13:35:26Z</time></trkpt>
<trkpt lat="46.77121" lon="6.46556"><ele></ele><time>2024-11-24T13:35:29Z</time></trkpt>
<trkpt lat="46.77122" lon="6.46556"><ele></ele><time>2024-11-24T13:35:32Z</time></trkpt>
<trkpt lat="46.77124" lon="6.46555"><ele></ele><time>2024-11-24T13:35:35Z</time></trkpt>
<trkpt lat="46.77125" lon="6.46556"><ele></ele><time>2024-11-24T13:35:38Z</time></trkpt>
<trkpt lat="46.77128" lon="6.46554"><ele></ele><time>2024-11-24T13:35:41Z</time></trkpt>
<trkpt lat="46.77129" lon="6.46554"><ele></ele><time>2024-11-24T13:35:44Z</time></trkpt>
<trkpt lat="46.77132" lon="6.46554"><ele></ele><time>2024-11-24T13:35:47Z</time></trkpt>
<trkpt lat="46.77132" lon="6.46553"><ele></ele><time>2024-11-24T13:35:50Z</time></trkpt>
<trkpt lat="46.77135" lon="6.46553"><ele></ele><time>2024-11-24T13:35:53Z</time></trkpt>
<trkpt lat="46.77136" lon="6.46553"><ele></ele><time>2024-11-24T13:35:56Z</time></trkpt>
<trkpt lat="46.77138" lon="6.46554"><ele></ele><time>2024-11-24T13:35:59Z</time></trkpt>
<trkpt lat="46.77141" lon="6.46556"><ele></ele><time>2024-11-24T13:36:2Z</time></trkpt>
<trkpt lat="46.77142" lon="6.46556"><ele></ele><time>2024-11-24T13:36:5Z</time></trkpt>
<trkpt lat="46.77145" lon="6.46557"><ele></ele><time>2024-11-24T13:36:8Z</time></trkpt>
<trkpt lat="46.77148" lon="6.46562"><ele></ele><time>2024-11-24T13:36:11Z</time></trkpt>
<trkpt lat="46.77151" lon="6.46566"><ele></ele><time>2024-11-24T13:36:14Z</time></trkpt>
<trkpt lat="46.77153" lon="6.46571"><ele></ele><time>2024-11-24T13:36:17Z</time></trkpt>
<trkpt lat="46.77153" lon="6.46572"><ele></ele><time>2024-11-24T13:36:20Z</time></trkpt>
<trkpt lat="46.77155" lon="6.46575"><ele></ele><time>2024-11-24T13:36:23Z</time></trkpt>
<trkpt lat="46.77158" lon="6.46579"><ele></ele><time>2024-11-24T13:36:26Z</time></trkpt>
<trkpt lat="46.77158" lon="6.4658"><ele></ele><time>2024-11-24T13:36:29Z</time></trkpt>
<trkpt lat="46.7716" lon="6.46583"><ele></ele><time>2024-11-24T13:36:32Z</time></trkpt>
<trkpt lat="46.77161" lon="6.46584"><ele></ele><time>2024-11-24T13:36:35Z</time></trkpt>
<trkpt lat="46.77163" lon="6.46586"><ele></ele><time>2024-11-24T13:36:38Z</time></trkpt>
<trkpt lat="46.77163" lon="6.46587"><ele></ele><time>2024-11-24T13:36:41Z</time></trkpt>
<trkpt lat="46.77167" lon="6.46589"><ele></ele><time>2024-11-24T13:36:44Z</time></trkpt>
<trkpt lat="46.77167" lon="6.46589"><ele></ele><time>2024-11-24T13:36:47Z</time></trkpt>
<trkpt lat="46.77168" lon="6.46591"><ele></ele><time>2024-11-24T13:36:50Z</time></trkpt>
<trkpt lat="46.77169" lon="6.46592"><ele></ele><time>2024-11-24T13:36:53Z</time></trkpt>
<trkpt lat="46.7717" lon="6.46595"><ele></ele><time>2024-11-24T13:36:56Z</time></trkpt>
<trkpt lat="46.7717" lon="6.46597"><ele></ele><time>2024-11-24T13:36:59Z</time></trkpt>
<trkpt lat="46.77172" lon="6.46599"><ele></ele><time>2024-11-24T13:37:2Z</time></trkpt>
<trkpt lat="46.77173" lon="6.46599"><ele></ele><time>2024-11-24T13:37:5Z</time></trkpt>
<trkpt lat="46.77176" lon="6.46601"><ele></ele><time>2024-11-24T13:37:8Z</time></trkpt>
<trkpt lat="46.77176" lon="6.46601"><ele></ele><time>2024-11-24T13:37:11Z</time></trkpt>
<trkpt lat="46.77177" lon="6.46603"><ele></ele><time>2024-11-24T13:37:14Z</time></trkpt>
<trkpt lat="46.77177" lon="6.46603"><ele></ele><time>2024-11-24T13:37:17Z</time></trkpt>
<trkpt lat="46.77178" lon="6.46606"><ele></ele><time>2024-11-24T13:37:20Z</time></trkpt>
<trkpt lat="46.77179" lon="6.46607"><ele></ele><time>2024-11-24T13:37:23Z</time></trkpt>
<trkpt lat="46.77181" lon="6.4661"><ele></ele><time>2024-11-24T13:37:26Z</time></trkpt>
<trkpt lat="46.77181" lon="6.4661"><ele></ele><time>2024-11-24T13:37:29Z</time></trkpt>
<trkpt lat="46.77185" lon="6.46611"><ele></ele><time>2024-11-24T13:37:32Z</time></trkpt>
<trkpt lat="46.77185" lon="6.46611"><ele></ele><time>2024-11-24T13:37:35Z</time></trkpt>
<trkpt lat="46.77188" lon="6.46612"><ele></ele><time>2024-11-24T13:37:38Z</time></trkpt>
<trkpt lat="46.77188" lon="6.46612"><ele></ele><time>2024-11-24T13:37:41Z</time></trkpt>
<trkpt lat="46.77188" lon="6.46612"><ele></ele><time>2024-11-24T13:37:44Z</time></trkpt>
<trkpt lat="46.77188" lon="6.46612"><ele></ele><time>2024-11-24T13:37:47Z</time></trkpt>
<trkpt lat="46.77189" lon="6.46613"><ele></ele><time>2024-11-24T13:37:50Z</time></trkpt>
<trkpt lat="46.77193" lon="6.46614"><ele></ele><time>2024-11-24T13:37:53Z</time></trkpt>
<trkpt lat="46.77197" lon="6.46612"><ele></ele><time>2024-11-24T13:37:56Z</time></trkpt>
<trkpt lat="46.77199" lon="6.46612"><ele></ele><time>2024-11-24T13:37:59Z</time></trkpt>
<trkpt lat="46.772" lon="6.46612"><ele></ele><time>2024-11-24T13:38:2Z</time></trkpt>
<trkpt lat="46.77203" lon="6.46614"><ele></ele><time>2024-11-24T13:38:5Z</time></trkpt>
<trkpt lat="46.77206" lon="6.4662"><ele></ele><time>2024-11-24T13:38:8Z</time></trkpt>
<trkpt lat="46.77207" lon="6.46621"><ele></ele><time>2024-11-24T13:38:11Z</time></trkpt>
<trkpt lat="46.7721" lon="6.46622"><ele></ele><time>2024-11-24T13:38:14Z</time></trkpt>
<trkpt lat="46.77212" lon="6.46622"><ele></ele><time>2024-11-24T13:38:17Z</time></trkpt>
<trkpt lat="46.77214" lon="6.46623"><ele></ele><time>2024-11-24T13:38:20Z</time></trkpt>
<trkpt lat="46.77218" lon="6.46625"><ele></ele><time>2024-11-24T13:38:23Z</time></trkpt>
<trkpt lat="46.7722" lon="6.46625"><ele></ele><time>2024-11-24T13:38:26Z</time></trkpt>
<trkpt lat="46.77222" lon="6.46625"><ele></ele><time>2024-11-24T13:38:29Z</time></trkpt>
<trkpt lat="46.77223" lon="6.46624"><ele></ele><time>2024-11-24T13:38:32Z</time></trkpt>
<trkpt lat="46.77226" lon="6.46625"><ele></ele><time>2024-11-24T13:38:35Z</time></trkpt>
<trkpt lat="46.77227" lon="6.46626"><ele></ele><time>2024-11-24T13:38:38Z</time></trkpt>
<trkpt lat="46.77229" lon="6.46627"><ele></ele><time>2024-11-24T13:38:41Z</time></trkpt>
<trkpt lat="46.7723" lon="6.46628"><ele></ele><time>2024-11-24T13:38:44Z</time></trkpt>
<trkpt lat="46.77232" lon="6.46629"><ele></ele><time>2024-11-24T13:38:47Z</time></trkpt>
<trkpt lat="46.77232" lon="6.4663"><ele></ele><time>2024-11-24T13:38:50Z</time></trkpt>
<trkpt lat="46.77232" lon="6.4663"><ele></ele><time>2024-11-24T13:38:53Z</time></trkpt>
<trkpt lat="46.77234" lon="6.46628"><ele></ele><time>2024-11-24T13:38:56Z</time></trkpt>
<trkpt lat="46.77234" lon="6.46628"><ele></ele><time>2024-11-24T13:38:59Z</time></trkpt>
<trkpt lat="46.77235" lon="6.46627"><ele></ele><time>2024-11-24T13:39:2Z</time></trkpt>
<trkpt lat="46.77235" lon="6.46627"><ele></ele><time>2024-11-24T13:39:5Z</time></trkpt>
<trkpt lat="46.77233" lon="6.46627"><ele></ele><time>2024-11-24T13:39:8Z</time></trkpt>
<trkpt lat="46.77225" lon="6.46622"><ele></ele><time>2024-11-24T13:39:11Z</time></trkpt>
<trkpt lat="46.77224" lon="6.46623"><ele></ele><time>2024-11-24T13:39:14Z</time></trkpt>
<trkpt lat="46.77225" lon="6.46625"><ele></ele><time>2024-11-24T13:39:17Z</time></trkpt>
<trkpt lat="46.77234" lon="6.46628"><ele></ele><time>2024-11-24T13:39:20Z</time></trkpt>
<trkpt lat="46.77235" lon="6.46628"><ele></ele><time>2024-11-24T13:39:23Z</time></trkpt>
<trkpt lat="46.77235" lon="6.46628"><ele></ele><time>2024-11-24T13:39:26Z</time></trkpt>
<trkpt lat="46.77234" lon="6.46628"><ele></ele><time>2024-11-24T13:39:29Z</time></trkpt>
<trkpt lat="46.77234" lon="6.46628"><ele></ele><time>2024-11-24T13:39:32Z</time></trkpt>
<trkpt lat="46.77235" lon="6.46629"><ele></ele><time>2024-11-24T13:39:35Z</time></trkpt>
<trkpt lat="46.77236" lon="6.4663"><ele></ele><time>2024-11-24T13:39:38Z</time></trkpt>
<trkpt lat="46.77236" lon="6.46632"><ele></ele><time>2024-11-24T13:39:41Z</time></trkpt>
<trkpt lat="46.77231" lon="6.4664"><ele></ele><time>2024-11-24T13:39:44Z</time></trkpt>
<trkpt lat="46.77234" lon="6.46646"><ele></ele><time>2024-11-24T13:39:47Z</time></trkpt>
<trkpt lat="46.77233" lon="6.46647"><ele></ele><time>2024-11-24T13:39:50Z</time></trkpt>
<trkpt lat="46.77233" lon="6.46647"><ele></ele><time>2024-11-24T13:39:53Z</time></trkpt>
<trkpt lat="46.77233" lon="6.46646"><ele></ele><time>2024-11-24T13:39:56Z</time></trkpt>
<trkpt lat="46.77233" lon="6.46646"><ele></ele><time>2024-11-24T13:39:59Z</time></trkpt>
<trkpt lat="46.77233" lon="6.46646"><ele></ele><time>2024-11-24T13:40:2Z</time></trkpt>
<trkpt lat="46.77233" lon="6.46646"><ele></ele><time>2024-11-24T13:40:5Z</time></trkpt>
<trkpt lat="46.77233" lon="6.46646"><ele></ele><time>2024-11-24T13:40:8Z</time></trkpt>
<trkpt lat="46.77234" lon="6.46645"><ele></ele><time>2024-11-24T13:40:11Z</time></trkpt>
<trkpt lat="46.77233" lon="6.46647"><ele></ele><time>2024-11-24T13:40:14Z</time></trkpt>
<trkpt lat="46.77233" lon="6.46646"><ele></ele><time>2024-11-24T13:40:17Z</time></trkpt>
<trkpt lat="46.77233" lon="6.46646"><ele></ele><time>2024-11-24T13:40:20Z</time></trkpt>
<trkpt lat="46.77233" lon="6.46647"><ele></ele><time>2024-11-24T13:40:23Z</time></trkpt>
<trkpt lat="46.77233" lon="6.46647"><ele></ele><time>2024-11-24T13:40:26Z</time></trkpt>
<trkpt lat="46.77233" lon="6.46646"><ele></ele><time>2024-11-24T13:40:29Z</time></trkpt>
<trkpt lat="46.77233" lon="6.46646"><ele></ele><time>2024-11-24T13:40:32Z</time></trkpt>
<trkpt lat="46.77233" lon="6.46646"><ele></ele><time>2024-11-24T13:40:35Z</time></trkpt>
<trkpt lat="46.77233" lon="6.46646"><ele></ele><time>2024-11-24T13:40:38Z</time></trkpt>
<trkpt lat="46.77233" lon="6.46646"><ele></ele><time>2024-11-24T13:40:41Z</time></trkpt>
<trkpt lat="46.77233" lon="6.46646"><ele></ele><time>2024-11-24T13:40:44Z</time></trkpt>
<trkpt lat="46.77233" lon="6.46646"><ele></ele><time>2024-11-24T13:40:47Z</time></trkpt>
<trkpt lat="46.77233" lon="6.46646"><ele></ele><time>2024-11-24T13:40:50Z</time></trkpt>
<trkpt lat="46.77233" lon="6.46646"><ele></ele><time>2024-11-24T13:40:53Z</time></trkpt>
<trkpt lat="46.77233" lon="6.46646"><ele></ele><time>2024-11-24T13:40:56Z</time></trkpt>
<trkpt lat="46.77233" lon="6.46646"><ele></ele><time>2024-11-24T13:40:59Z</time></trkpt>
<trkpt lat="46.77233" lon="6.46646"><ele></ele><time>2024-11-24T13:41:2Z</time></trkpt>
<trkpt lat="46.77234" lon="6.46647"><ele></ele><time>2024-11-24T13:41:5Z</time></trkpt>
<trkpt lat="46.77233" lon="6.46646"><ele></ele><time>2024-11-24T13:41:8Z</time></trkpt>
<trkpt lat="46.77233" lon="6.46646"><ele></ele><time>2024-11-24T13:41:11Z</time></trkpt>
<trkpt lat="46.77233" lon="6.46646"><ele></ele><time>2024-11-24T13:41:14Z</time></trkpt>
<trkpt lat="46.77233" lon="6.46646"><ele></ele><time>2024-11-24T13:41:17Z</time></trkpt>
<trkpt lat="46.77233" lon="6.46646"><ele></ele><time>2024-11-24T13:41:20Z</time></trkpt>
<trkpt lat="46.77233" lon="6.46647"><ele></ele><time>2024-11-24T13:41:23Z</time></trkpt>
<trkpt lat="46.77234" lon="6.46647"><ele></ele><time>2024-11-24T13:41:26Z</time></trkpt>
<trkpt lat="46.77233" lon="6.46647"><ele></ele><time>2024-11-24T13:41:29Z</time></trkpt>
<trkpt lat="46.77234" lon="6.46646"><ele></ele><time>2024-11-24T13:41:32Z</time></trkpt>
<trkpt lat="46.77233" lon="6.46646"><ele></ele><time>2024-11-24T13:41:35Z</time></trkpt>
<trkpt lat="46.77233" lon="6.46646"><ele></ele><time>2024-11-24T13:41:38Z</time></trkpt>
<trkpt lat="46.77233" lon="6.46647"><ele></ele><time>2024-11-24T13:41:41Z</time></trkpt>
<trkpt lat="46.77234" lon="6.46645"><ele></ele><time>2024-11-24T13:41:44Z</time></trkpt>
<trkpt lat="46.77233" lon="6.46648"><ele></ele><time>2024-11-24T13:41:47Z</time></trkpt>
<trkpt lat="46.77233" lon="6.46648"><ele></ele><time>2024-11-24T13:41:50Z</time></trkpt>
<trkpt lat="46.77233" lon="6.46648"><ele></ele><time>2024-11-24T13:41:53Z</time></trkpt>
<trkpt lat="46.77233" lon="6.46646"><ele></ele><time>2024-11-24T13:41:56Z</time></trkpt>
<trkpt lat="46.77233" lon="6.46646"><ele></ele><time>2024-11-24T13:41:59Z</time></trkpt>
<trkpt lat="46.77233" lon="6.46646"><ele></ele><time>2024-11-24T13:42:2Z</time></trkpt>
<trkpt lat="46.77233" lon="6.46646"><ele></ele><time>2024-11-24T13:42:5Z</time></trkpt>
<trkpt lat="46.77234" lon="6.46647"><ele></ele><time>2024-11-24T13:42:8Z</time></trkpt>
<trkpt lat="46.77233" lon="6.46647"><ele></ele><time>2024-11-24T13:42:11Z</time></trkpt>
<trkpt lat="46.77233" lon="6.46647"><ele></ele><time>2024-11-24T13:42:14Z</time></trkpt>
<trkpt lat="46.77234" lon="6.46648"><ele></ele><time>2024-11-24T13:42:17Z</time></trkpt>
<trkpt lat="46.77234" lon="6.46646"><ele></ele><time>2024-11-24T13:42:20Z</time></trkpt>
<trkpt lat="46.77234" lon="6.46645"><ele></ele><time>2024-11-24T13:42:23Z</time></trkpt>
<trkpt lat="46.77234" lon="6.46645"><ele></ele><time>2024-11-24T13:42:26Z</time></trkpt>
<trkpt lat="46.77234" lon="6.46646"><ele></ele><time>2024-11-24T13:42:29Z</time></trkpt>
<trkpt lat="46.77234" lon="6.46645"><ele></ele><time>2024-11-24T13:42:32Z</time></trkpt>
<trkpt lat="46.77234" lon="6.46645"><ele></ele><time>2024-11-24T13:42:35Z</time></trkpt>
<trkpt lat="46.77234" lon="6.46646"><ele></ele><time>2024-11-24T13:42:38Z</time></trkpt>
<trkpt lat="46.77234" lon="6.46648"><ele></ele><time>2024-11-24T13:42:41Z</time></trkpt>
<trkpt lat="46.77234" lon="6.46645"><ele></ele><time>2024-11-24T13:42:44Z</time></trkpt>
<trkpt lat="46.77233" lon="6.46646"><ele></ele><time>2024-11-24T13:42:47Z</time></trkpt>
<trkpt lat="46.77233" lon="6.46646"><ele></ele><time>2024-11-24T13:42:50Z</time></trkpt>
<trkpt lat="46.77235" lon="6.46648"><ele></ele><time>2024-11-24T13:42:53Z</time></trkpt>
<trkpt lat="46.77235" lon="6.46648"><ele></ele><time>2024-11-24T13:42:56Z</time></trkpt>
<trkpt lat="46.77235" lon="6.46647"><ele></ele><time>2024-11-24T13:42:59Z</time></trkpt>
<trkpt lat="46.77235" lon="6.46647"><ele></ele><time>2024-11-24T13:43:2Z</time></trkpt>
<trkpt lat="46.77234" lon="6.46646"><ele></ele><time>2024-11-24T13:43:5Z</time></trkpt>
<trkpt lat="46.77235" lon="6.46646"><ele></ele><time>2024-11-24T13:43:8Z</time></trkpt>
<trkpt lat="46.77236" lon="6.46645"><ele></ele><time>2024-11-24T13:43:11Z</time></trkpt>
<trkpt lat="46.77236" lon="6.46644"><ele></ele><time>2024-11-24T13:43:14Z</time></trkpt>
<trkpt lat="46.77234" lon="6.46646"><ele></ele><time>2024-11-24T13:43:17Z</time></trkpt>
<trkpt lat="46.77235" lon="6.46646"><ele></ele><time>2024-11-24T13:43:20Z</time></trkpt>
<trkpt lat="46.77235" lon="6.46646"><ele></ele><time>2024-11-24T13:43:23Z</time></trkpt>
<trkpt lat="46.77235" lon="6.46646"><ele></ele><time>2024-11-24T13:43:26Z</time></trkpt>
<trkpt lat="46.77236" lon="6.46646"><ele></ele><time>2024-11-24T13:43:29Z</time></trkpt>
<trkpt lat="46.77235" lon="6.46646"><ele></ele><time>2024-11-24T13:43:32Z</time></trkpt>
<trkpt lat="46.77235" lon="6.46645"><ele></ele><time>2024-11-24T13:43:35Z</time></trkpt>
<trkpt lat="46.77235" lon="6.46645"><ele></ele><time>2024-11-24T13:43:38Z</time></trkpt>
<trkpt lat="46.77234" lon="6.46646"><ele></ele><time>2024-11-24T13:43:41Z</time></trkpt>
<trkpt lat="46.77235" lon="6.46646"><ele></ele><time>2024-11-24T13:43:44Z</time></trkpt>
<trkpt lat="46.77235" lon="6.46646"><ele></ele><time>2024-11-24T13:43:47Z</time></trkpt>
<trkpt lat="46.77236" lon="6.46645"><ele></ele><time>2024-11-24T13:43:50Z</time></trkpt>
<trkpt lat="46.77236" lon="6.46645"><ele></ele><time>2024-11-24T13:43:53Z</time></trkpt>
<trkpt lat="46.77235" lon="6.46645"><ele></ele><time>2024-11-24T13:43:56Z</time></trkpt>
<trkpt lat="46.77235" lon="6.46646"><ele></ele><time>2024-11-24T13:43:59Z</time></trkpt>
<trkpt lat="46.77234" lon="6.46646"><ele></ele><time>2024-11-24T13:44:2Z</time></trkpt>
<trkpt lat="46.77234" lon="6.46647"><ele></ele><time>2024-11-24T13:44:5Z</time></trkpt>
<trkpt lat="46.77235" lon="6.46645"><ele></ele><time>2024-11-24T13:44:8Z</time></trkpt>
<trkpt lat="46.77235" lon="6.46646"><ele></ele><time>2024-11-24T13:44:11Z</time></trkpt>
<trkpt lat="46.77236" lon="6.46645"><ele></ele><time>2024-11-24T13:44:14Z</time></trkpt>
<trkpt lat="46.77236" lon="6.46646"><ele></ele><time>2024-11-24T13:44:17Z</time></trkpt>
<trkpt lat="46.77237" lon="6.46644"><ele></ele><time>2024-11-24T13:44:20Z</time></trkpt>
<trkpt lat="46.77237" lon="6.46645"><ele></ele><time>2024-11-24T13:44:23Z</time></trkpt>
<trkpt lat="46.77237" lon="6.46644"><ele></ele><time>2024-11-24T13:44:26Z</time></trkpt>
<trkpt lat="46.77237" lon="6.46644"><ele></ele><time>2024-11-24T13:44:29Z</time></trkpt>
<trkpt lat="46.77237" lon="6.46643"><ele></ele><time>2024-11-24T13:44:32Z</time></trkpt>
<trkpt lat="46.77236" lon="6.46644"><ele></ele><time>2024-11-24T13:44:35Z</time></trkpt>
<trkpt lat="46.77235" lon="6.46645"><ele></ele><time>2024-11-24T13:44:38Z</time></trkpt>
<trkpt lat="46.77235" lon="6.46647"><ele></ele><time>2024-11-24T13:44:41Z</time></trkpt>
<trkpt lat="46.77234" lon="6.46648"><ele></ele><time>2024-11-24T13:44:44Z</time></trkpt>
<trkpt lat="46.77234" lon="6.46647"><ele></ele><time>2024-11-24T13:44:47Z</time></trkpt>
<trkpt lat="46.77234" lon="6.46647"><ele></ele><time>2024-11-24T13:44:50Z</time></trkpt>
<trkpt lat="46.77235" lon="6.46646"><ele></ele><time>2024-11-24T13:44:53Z</time></trkpt>
<trkpt lat="46.77234" lon="6.46647"><ele></ele><time>2024-11-24T13:44:56Z</time></trkpt>
<trkpt lat="46.77234" lon="6.46648"><ele></ele><time>2024-11-24T13:44:59Z</time></trkpt>
<trkpt lat="46.77234" lon="6.46648"><ele></ele><time>2024-11-24T13:45:2Z</time></trkpt>
<trkpt lat="46.77234" lon="6.46647"><ele></ele><time>2024-11-24T13:45:5Z</time></trkpt>
<trkpt lat="46.77235" lon="6.46647"><ele></ele><time>2024-11-24T13:45:8Z</time></trkpt>
<trkpt lat="46.77234" lon="6.46647"><ele></ele><time>2024-11-24T13:45:11Z</time></trkpt>
<trkpt lat="46.77234" lon="6.46648"><ele></ele><time>2024-11-24T13:45:14Z</time></trkpt>
<trkpt lat="46.77235" lon="6.46648"><ele></ele><time>2024-11-24T13:45:17Z</time></trkpt>
<trkpt lat="46.77234" lon="6.46648"><ele></ele><time>2024-11-24T13:45:20Z</time></trkpt>
<trkpt lat="46.77234" lon="6.46646"><ele></ele><time>2024-11-24T13:45:23Z</time></trkpt>
<trkpt lat="46.77234" lon="6.46646"><ele></ele><time>2024-11-24T13:45:26Z</time></trkpt>
<trkpt lat="46.77234" lon="6.46648"><ele></ele><time>2024-11-24T13:45:29Z</time></trkpt>
<trkpt lat="46.77234" lon="6.46648"><ele></ele><time>2024-11-24T13:45:32Z</time></trkpt>
<trkpt lat="46.77234" lon="6.46648"><ele></ele><time>2024-11-24T13:45:35Z</time></trkpt>
<trkpt lat="46.77235" lon="6.46647"><ele></ele><time>2024-11-24T13:45:38Z</time></trkpt>
<trkpt lat="46.77235" lon="6.46647"><ele></ele><time>2024-11-24T13:45:41Z</time></trkpt>
<trkpt lat="46.77235" lon="6.46647"><ele></ele><time>2024-11-24T13:45:44Z</time></trkpt>
<trkpt lat="46.77235" lon="6.46647"><ele></ele><time>2024-11-24T13:45:47Z</time></trkpt>
<trkpt lat="46.77235" lon="6.46647"><ele></ele><time>2024-11-24T13:45:50Z</time></trkpt>
<trkpt lat="46.77235" lon="6.46647"><ele></ele><time>2024-11-24T13:45:53Z</time></trkpt>
<trkpt lat="46.77234" lon="6.46648"><ele></ele><time>2024-11-24T13:45:56Z</time></trkpt>
<trkpt lat="46.77235" lon="6.46647"><ele></ele><time>2024-11-24T13:45:59Z</time></trkpt>
<trkpt lat="46.77235" lon="6.46648"><ele></ele><time>2024-11-24T13:46:2Z</time></trkpt>
<trkpt lat="46.77234" lon="6.46649"><ele></ele><time>2024-11-24T13:46:5Z</time></trkpt>
<trkpt lat="46.77234" lon="6.46648"><ele></ele><time>2024-11-24T13:46:8Z</time></trkpt>
<trkpt lat="46.77234" lon="6.46648"><ele></ele><time>2024-11-24T13:46:11Z</time></trkpt>
<trkpt lat="46.77234" lon="6.46647"><ele></ele><time>2024-11-24T13:46:14Z</time></trkpt>
<trkpt lat="46.77234" lon="6.46647"><ele></ele><time>2024-11-24T13:46:17Z</time></trkpt>
<trkpt lat="46.77235" lon="6.46648"><ele></ele><time>2024-11-24T13:46:20Z</time></trkpt>
<trkpt lat="46.77234" lon="6.46648"><ele></ele><time>2024-11-24T13:46:23Z</time></trkpt>
<trkpt lat="46.77237" lon="6.46647"><ele></ele><time>2024-11-24T13:46:26Z</time></trkpt>
<trkpt lat="46.77234" lon="6.46647"><ele></ele><time>2024-11-24T13:46:29Z</time></trkpt>
<trkpt lat="46.77234" lon="6.46648"><ele></ele><time>2024-11-24T13:46:32Z</time></trkpt>
<trkpt lat="46.77232" lon="6.46649"><ele></ele><time>2024-11-24T13:46:35Z</time></trkpt>
<trkpt lat="46.77234" lon="6.46648"><ele></ele><time>2024-11-24T13:46:38Z</time></trkpt>
<trkpt lat="46.77234" lon="6.46648"><ele></ele><time>2024-11-24T13:46:41Z</time></trkpt>
<trkpt lat="46.77234" lon="6.46648"><ele></ele><time>2024-11-24T13:46:44Z</time></trkpt>
<trkpt lat="46.77234" lon="6.46648"><ele></ele><time>2024-11-24T13:46:47Z</time></trkpt>
<trkpt lat="46.77234" lon="6.46648"><ele></ele><time>2024-11-24T13:46:50Z</time></trkpt>
<trkpt lat="46.77234" lon="6.46648"><ele></ele><time>2024-11-24T13:46:53Z</time></trkpt>
<trkpt lat="46.77234" lon="6.46648"><ele></ele><time>2024-11-24T13:46:56Z</time></trkpt>
<trkpt lat="46.77234" lon="6.46648"><ele></ele><time>2024-11-24T13:46:59Z</time></trkpt>
<trkpt lat="46.77234" lon="6.46648"><ele></ele><time>2024-11-24T13:47:2Z</time></trkpt>
<trkpt lat="46.77234" lon="6.46648"><ele></ele><time>2024-11-24T13:47:5Z</time></trkpt>
<trkpt lat="46.77235" lon="6.46648"><ele></ele><time>2024-11-24T13:47:8Z</time></trkpt>
<trkpt lat="46.77234" lon="6.46648"><ele></ele><time>2024-11-24T13:47:11Z</time></trkpt>
<trkpt lat="46.77234" lon="6.46648"><ele></ele><time>2024-11-24T13:47:14Z</time></trkpt>
<trkpt lat="46.77234" lon="6.46648"><ele></ele><time>2024-11-24T13:47:17Z</time></trkpt>
<trkpt lat="46.77234" lon="6.46648"><ele></ele><time>2024-11-24T13:47:20Z</time></trkpt>
<trkpt lat="46.77234" lon="6.46648"><ele></ele><time>2024-11-24T13:47:23Z</time></trkpt>
<trkpt lat="46.77234" lon="6.46648"><ele></ele><time>2024-11-24T13:47:26Z</time></trkpt>
<trkpt lat="46.77234" lon="6.46648"><ele></ele><time>2024-11-24T13:47:29Z</time></trkpt>
<trkpt lat="46.77234" lon="6.46648"><ele></ele><time>2024-11-24T13:47:32Z</time></trkpt>
<trkpt lat="46.77234" lon="6.46648"><ele></ele><time>2024-11-24T13:47:35Z</time></trkpt>
<trkpt lat="46.77234" lon="6.46648"><ele></ele><time>2024-11-24T13:47:38Z</time></trkpt>
<trkpt lat="46.77234" lon="6.46648"><ele></ele><time>2024-11-24T13:47:41Z</time></trkpt>
<trkpt lat="46.77234" lon="6.46648"><ele></ele><time>2024-11-24T13:47:44Z</time></trkpt>
<trkpt lat="46.77234" lon="6.46648"><ele></ele><time>2024-11-24T13:47:47Z</time></trkpt>
<trkpt lat="46.77234" lon="6.46648"><ele></ele><time>2024-11-24T13:47:50Z</time></trkpt>
<trkpt lat="46.77234" lon="6.46648"><ele></ele><time>2024-11-24T13:47:53Z</time></trkpt>
<trkpt lat="46.77234" lon="6.46648"><ele></ele><time>2024-11-24T13:47:56Z</time></trkpt>
<trkpt lat="46.77234" lon="6.46648"><ele></ele><time>2024-11-24T13:47:59Z</time></trkpt>
<trkpt lat="46.77233" lon="6.46648"><ele></ele><time>2024-11-24T13:48:2Z</time></trkpt>
<trkpt lat="46.77233" lon="6.46648"><ele></ele><time>2024-11-24T13:48:5Z</time></trkpt>
<trkpt lat="46.77233" lon="6.46648"><ele></ele><time>2024-11-24T13:48:8Z</time></trkpt>
<trkpt lat="46.77233" lon="6.46648"><ele></ele><time>2024-11-24T13:48:11Z</time></trkpt>
<trkpt lat="46.77234" lon="6.46648"><ele></ele><time>2024-11-24T13:48:14Z</time></trkpt>
<trkpt lat="46.77233" lon="6.46648"><ele></ele><time>2024-11-24T13:48:17Z</time></trkpt>
<trkpt lat="46.77234" lon="6.46648"><ele></ele><time>2024-11-24T13:48:20Z</time></trkpt>
<trkpt lat="46.77234" lon="6.46648"><ele></ele><time>2024-11-24T13:48:23Z</time></trkpt>
<trkpt lat="46.77234" lon="6.46646"><ele></ele><time>2024-11-24T13:48:26Z</time></trkpt>
<trkpt lat="46.77234" lon="6.46647"><ele></ele><time>2024-11-24T13:48:29Z</time></trkpt>
<trkpt lat="46.77234" lon="6.46646"><ele></ele><time>2024-11-24T13:48:32Z</time></trkpt>
<trkpt lat="46.77234" lon="6.46647"><ele></ele><time>2024-11-24T13:48:35Z</time></trkpt>
<trkpt lat="46.77235" lon="6.46647"><ele></ele><time>2024-11-24T13:48:38Z</time></trkpt>
<trkpt lat="46.77234" lon="6.46649"><ele></ele><time>2024-11-24T13:48:41Z</time></trkpt>
<trkpt lat="46.77234" lon="6.46646"><ele></ele><time>2024-11-24T13:48:44Z</time></trkpt>
<trkpt lat="46.77235" lon="6.46648"><ele></ele><time>2024-11-24T13:48:47Z</time></trkpt>
<trkpt lat="46.77235" lon="6.46648"><ele></ele><time>2024-11-24T13:48:50Z</time></trkpt>
<trkpt lat="46.77235" lon="6.46648"><ele></ele><time>2024-11-24T13:48:53Z</time></trkpt>
<trkpt lat="46.77235" lon="6.46647"><ele></ele><time>2024-11-24T13:48:56Z</time></trkpt>
<trkpt lat="46.77235" lon="6.46647"><ele></ele><time>2024-11-24T13:48:59Z</time></trkpt>
<trkpt lat="46.77234" lon="6.46647"><ele></ele><time>2024-11-24T13:49:2Z</time></trkpt>
<trkpt lat="46.77234" lon="6.46647"><ele></ele><time>2024-11-24T13:49:5Z</time></trkpt>
<trkpt lat="46.77235" lon="6.46645"><ele></ele><time>2024-11-24T13:49:8Z</time></trkpt>
<trkpt lat="46.77234" lon="6.46646"><ele></ele><time>2024-11-24T13:49:11Z</time></trkpt>
<trkpt lat="46.77235" lon="6.46646"><ele></ele><time>2024-11-24T13:49:14Z</time></trkpt>
<trkpt lat="46.77235" lon="6.46646"><ele></ele><time>2024-11-24T13:49:17Z</time></trkpt>
<trkpt lat="46.77235" lon="6.46645"><ele></ele><time>2024-11-24T13:49:20Z</time></trkpt>
<trkpt lat="46.77234" lon="6.46646"><ele></ele><time>2024-11-24T13:49:23Z</time></trkpt>
<trkpt lat="46.77234" lon="6.46647"><ele></ele><time>2024-11-24T13:49:26Z</time></trkpt>
<trkpt lat="46.77235" lon="6.46647"><ele></ele><time>2024-11-24T13:49:29Z</time></trkpt>
<trkpt lat="46.77235" lon="6.46647"><ele></ele><time>2024-11-24T13:49:32Z</time></trkpt>
<trkpt lat="46.77235" lon="6.46647"><ele></ele><time>2024-11-24T13:49:35Z</time></trkpt>
<trkpt lat="46.77236" lon="6.46647"><ele></ele><time>2024-11-24T13:49:38Z</time></trkpt>
<trkpt lat="46.77234" lon="6.46648"><ele></ele><time>2024-11-24T13:49:41Z</time></trkpt>
<trkpt lat="46.77234" lon="6.46648"><ele></ele><time>2024-11-24T13:49:44Z</time></trkpt>
<trkpt lat="46.77234" lon="6.46648"><ele></ele><time>2024-11-24T13:49:47Z</time></trkpt>
<trkpt lat="46.77234" lon="6.46648"><ele></ele><time>2024-11-24T13:49:50Z</time></trkpt>
<trkpt lat="46.77234" lon="6.46648"><ele></ele><time>2024-11-24T13:49:53Z</time></trkpt>
<trkpt lat="46.77234" lon="6.46648"><ele></ele><time>2024-11-24T13:49:56Z</time></trkpt>
<trkpt lat="46.77234" lon="6.46648"><ele></ele><time>2024-11-24T13:49:59Z</time></trkpt>
<trkpt lat="46.77234" lon="6.46648"><ele></ele><time>2024-11-24T13:50:2Z</time></trkpt>
<trkpt lat="46.77234" lon="6.46648"><ele></ele><time>2024-11-24T13:50:5Z</time></trkpt>
<trkpt lat="46.77234" lon="6.46648"><ele></ele><time>2024-11-24T13:50:8Z</time></trkpt>
<trkpt lat="46.77234" lon="6.46648"><ele></ele><time>2024-11-24T13:50:11Z</time></trkpt>
<trkpt lat="46.77234" lon="6.46648"><ele></ele><time>2024-11-24T13:50:14Z</time></trkpt>
<trkpt lat="46.77234" lon="6.46648"><ele></ele><time>2024-11-24T13:50:17Z</time></trkpt>
<trkpt lat="46.77234" lon="6.46648"><ele></ele><time>2024-11-24T13:50:20Z</time></trkpt>
<trkpt lat="46.77234" lon="6.46646"><ele></ele><time>2024-11-24T13:50:23Z</time></trkpt>
<trkpt lat="46.77234" lon="6.46645"><ele></ele><time>2024-11-24T13:50:26Z</time></trkpt>
<trkpt lat="46.77234" lon="6.46648"><ele></ele><time>2024-11-24T13:50:29Z</time></trkpt>
<trkpt lat="46.77234" lon="6.46647"><ele></ele><time>2024-11-24T13:50:32Z</time></trkpt>
<trkpt lat="46.77234" lon="6.46646"><ele></ele><time>2024-11-24T13:50:35Z</time></trkpt>
<trkpt lat="46.77234" lon="6.46646"><ele></ele><time>2024-11-24T13:50:38Z</time></trkpt>
<trkpt lat="46.77234" lon="6.46647"><ele></ele><time>2024-11-24T13:50:41Z</time></trkpt>
<trkpt lat="46.77234" lon="6.46646"><ele></ele><time>2024-11-24T13:50:44Z</time></trkpt>
<trkpt lat="46.77234" lon="6.46646"><ele></ele><time>2024-11-24T13:50:47Z</time></trkpt>
<trkpt lat="46.77235" lon="6.46646"><ele></ele><time>2024-11-24T13:50:50Z</time></trkpt>
<trkpt lat="46.77235" lon="6.46646"><ele></ele><time>2024-11-24T13:50:53Z</time></trkpt>
<trkpt lat="46.77235" lon="6.46646"><ele></ele><time>2024-11-24T13:50:56Z</time></trkpt>
<trkpt lat="46.77234" lon="6.46648"><ele></ele><time>2024-11-24T13:50:59Z</time></trkpt>
<trkpt lat="46.77235" lon="6.46646"><ele></ele><time>2024-11-24T13:51:2Z</time></trkpt>
<trkpt lat="46.77235" lon="6.46645"><ele></ele><time>2024-11-24T13:51:5Z</time></trkpt>
<trkpt lat="46.77235" lon="6.46646"><ele></ele><time>2024-11-24T13:51:8Z</time></trkpt>
<trkpt lat="46.77235" lon="6.46646"><ele></ele><time>2024-11-24T13:51:11Z</time></trkpt>
<trkpt lat="46.77235" lon="6.46646"><ele></ele><time>2024-11-24T13:51:14Z</time></trkpt>
<trkpt lat="46.77235" lon="6.46646"><ele></ele><time>2024-11-24T13:51:17Z</time></trkpt>
<trkpt lat="46.77234" lon="6.46648"><ele></ele><time>2024-11-24T13:51:20Z</time></trkpt>
<trkpt lat="46.77234" lon="6.46647"><ele></ele><time>2024-11-24T13:51:23Z</time></trkpt>
<trkpt lat="46.77233" lon="6.46648"><ele></ele><time>2024-11-24T13:51:26Z</time></trkpt>
<trkpt lat="46.77233" lon="6.46647"><ele></ele><time>2024-11-24T13:51:29Z</time></trkpt>
<trkpt lat="46.77233" lon="6.46648"><ele></ele><time>2024-11-24T13:51:32Z</time></trkpt>
<trkpt lat="46.77234" lon="6.46647"><ele></ele><time>2024-11-24T13:51:35Z</time></trkpt>
<trkpt lat="46.77234" lon="6.46647"><ele></ele><time>2024-11-24T13:51:38Z</time></trkpt>
<trkpt lat="46.77234" lon="6.46647"><ele></ele><time>2024-11-24T13:51:41Z</time></trkpt>
<trkpt lat="46.77234" lon="6.46647"><ele></ele><time>2024-11-24T13:51:44Z</time></trkpt>
<trkpt lat="46.77234" lon="6.46647"><ele></ele><time>2024-11-24T13:51:47Z</time></trkpt>
<trkpt lat="46.77234" lon="6.46647"><ele></ele><time>2024-11-24T13:51:50Z</time></trkpt>
<trkpt lat="46.77234" lon="6.46648"><ele></ele><time>2024-11-24T13:51:53Z</time></trkpt>
<trkpt lat="46.77233" lon="6.46648"><ele></ele><time>2024-11-24T13:51:56Z</time></trkpt>
<trkpt lat="46.77234" lon="6.46646"><ele></ele><time>2024-11-24T13:51:59Z</time></trkpt>
<trkpt lat="46.77234" lon="6.46646"><ele></ele><time>2024-11-24T13:52:2Z</time></trkpt>
<trkpt lat="46.77234" lon="6.46646"><ele></ele><time>2024-11-24T13:52:5Z</time></trkpt>
<trkpt lat="46.77234" lon="6.46646"><ele></ele><time>2024-11-24T13:52:8Z</time></trkpt>
<trkpt lat="46.77234" lon="6.46646"><ele></ele><time>2024-11-24T13:52:11Z</time></trkpt>
<trkpt lat="46.77234" lon="6.46646"><ele></ele><time>2024-11-24T13:52:14Z</time></trkpt>
<trkpt lat="46.77234" lon="6.46646"><ele></ele><time>2024-11-24T13:52:17Z</time></trkpt>
<trkpt lat="46.77234" lon="6.46646"><ele></ele><time>2024-11-24T13:52:20Z</time></trkpt>
<trkpt lat="46.77234" lon="6.46646"><ele></ele><time>2024-11-24T13:52:23Z</time></trkpt>
<trkpt lat="46.77234" lon="6.46646"><ele></ele><time>2024-11-24T13:52:26Z</time></trkpt>
<trkpt lat="46.77235" lon="6.46645"><ele></ele><time>2024-11-24T13:52:29Z</time></trkpt>
<trkpt lat="46.77234" lon="6.46646"><ele></ele><time>2024-11-24T13:52:32Z</time></trkpt>
<trkpt lat="46.77234" lon="6.46646"><ele></ele><time>2024-11-24T13:52:35Z</time></trkpt>
<trkpt lat="46.77234" lon="6.46646"><ele></ele><time>2024-11-24T13:52:38Z</time></trkpt>
<trkpt lat="46.77236" lon="6.46645"><ele></ele><time>2024-11-24T13:52:41Z</time></trkpt>
<trkpt lat="46.77236" lon="6.46645"><ele></ele><time>2024-11-24T13:52:44Z</time></trkpt>
<trkpt lat="46.77236" lon="6.46645"><ele></ele><time>2024-11-24T13:52:47Z</time></trkpt>
<trkpt lat="46.77234" lon="6.46647"><ele></ele><time>2024-11-24T13:52:50Z</time></trkpt>
<trkpt lat="46.77234" lon="6.46647"><ele></ele><time>2024-11-24T13:52:53Z</time></trkpt>
<trkpt lat="46.77234" lon="6.46647"><ele></ele><time>2024-11-24T13:52:56Z</time></trkpt>
<trkpt lat="46.77234" lon="6.46647"><ele></ele><time>2024-11-24T13:52:59Z</time></trkpt>
<trkpt lat="46.77234" lon="6.46647"><ele></ele><time>2024-11-24T13:53:2Z</time></trkpt>
<trkpt lat="46.77234" lon="6.46647"><ele></ele><time>2024-11-24T13:53:5Z</time></trkpt>
<trkpt lat="46.77234" lon="6.46647"><ele></ele><time>2024-11-24T13:53:8Z</time></trkpt>
<trkpt lat="46.77234" lon="6.46647"><ele></ele><time>2024-11-24T13:53:11Z</time></trkpt>
<trkpt lat="46.77234" lon="6.46647"><ele></ele><time>2024-11-24T13:53:14Z</time></trkpt>
<trkpt lat="46.77234" lon="6.46647"><ele></ele><time>2024-11-24T13:53:17Z</time></trkpt>
<trkpt lat="46.77234" lon="6.46647"><ele></ele><time>2024-11-24T13:53:20Z</time></trkpt>
<trkpt lat="46.77234" lon="6.46647"><ele></ele><time>2024-11-24T13:53:23Z</time></trkpt>
<trkpt lat="46.77234" lon="6.46648"><ele></ele><time>2024-11-24T13:53:26Z</time></trkpt>
<trkpt lat="46.77234" lon="6.46647"><ele></ele><time>2024-11-24T13:53:29Z</time></trkpt>
<trkpt lat="46.77234" lon="6.46647"><ele></ele><time>2024-11-24T13:53:32Z</time></trkpt>
<trkpt lat="46.77234" lon="6.46647"><ele></ele><time>2024-11-24T13:53:35Z</time></trkpt>
<trkpt lat="46.77233" lon="6.46648"><ele></ele><time>2024-11-24T13:53:38Z</time></trkpt>
<trkpt lat="46.77234" lon="6.46647"><ele></ele><time>2024-11-24T13:53:41Z</time></trkpt>
<trkpt lat="46.77233" lon="6.46647"><ele></ele><time>2024-11-24T13:53:44Z</time></trkpt>
<trkpt lat="46.77234" lon="6.46646"><ele></ele><time>2024-11-24T13:53:47Z</time></trkpt>
<trkpt lat="46.77235" lon="6.46645"><ele></ele><time>2024-11-24T13:53:50Z</time></trkpt>
<trkpt lat="46.77235" lon="6.46645"><ele></ele><time>2024-11-24T13:53:53Z</time></trkpt>
<trkpt lat="46.77235" lon="6.46646"><ele></ele><time>2024-11-24T13:53:56Z</time></trkpt>
<trkpt lat="46.77236" lon="6.46646"><ele></ele><time>2024-11-24T13:53:59Z</time></trkpt>
<trkpt lat="46.77235" lon="6.46646"><ele></ele><time>2024-11-24T13:54:2Z</time></trkpt>
<trkpt lat="46.77235" lon="6.46646"><ele></ele><time>2024-11-24T13:54:5Z</time></trkpt>
<trkpt lat="46.77235" lon="6.46646"><ele></ele><time>2024-11-24T13:54:8Z</time></trkpt>
<trkpt lat="46.77235" lon="6.46646"><ele></ele><time>2024-11-24T13:54:11Z</time></trkpt>
<trkpt lat="46.77235" lon="6.46646"><ele></ele><time>2024-11-24T13:54:14Z</time></trkpt>
<trkpt lat="46.77235" lon="6.46646"><ele></ele><time>2024-11-24T13:54:17Z</time></trkpt>
<trkpt lat="46.77235" lon="6.46646"><ele></ele><time>2024-11-24T13:54:20Z</time></trkpt>
<trkpt lat="46.77235" lon="6.46646"><ele></ele><time>2024-11-24T13:54:23Z</time></trkpt>
<trkpt lat="46.77235" lon="6.46646"><ele></ele><time>2024-11-24T13:54:26Z</time></trkpt>
<trkpt lat="46.77235" lon="6.46646"><ele></ele><time>2024-11-24T13:54:29Z</time></trkpt>
<trkpt lat="46.77234" lon="6.46647"><ele></ele><time>2024-11-24T13:54:32Z</time></trkpt>
<trkpt lat="46.77234" lon="6.46646"><ele></ele><time>2024-11-24T13:54:35Z</time></trkpt>
<trkpt lat="46.77234" lon="6.46646"><ele></ele><time>2024-11-24T13:54:38Z</time></trkpt>
<trkpt lat="46.77234" lon="6.46646"><ele></ele><time>2024-11-24T13:54:41Z</time></trkpt>
<trkpt lat="46.77234" lon="6.46644"><ele></ele><time>2024-11-24T13:54:44Z</time></trkpt>
<trkpt lat="46.77234" lon="6.46645"><ele></ele><time>2024-11-24T13:54:47Z</time></trkpt>
<trkpt lat="46.77234" lon="6.46644"><ele></ele><time>2024-11-24T13:54:50Z</time></trkpt>
<trkpt lat="46.77234" lon="6.46647"><ele></ele><time>2024-11-24T13:54:53Z</time></trkpt>
<trkpt lat="46.77234" lon="6.46647"><ele></ele><time>2024-11-24T13:54:56Z</time></trkpt>
<trkpt lat="46.77234" lon="6.46647"><ele></ele><time>2024-11-24T13:54:59Z</time></trkpt>
<trkpt lat="46.77233" lon="6.46647"><ele></ele><time>2024-11-24T13:55:2Z</time></trkpt>
<trkpt lat="46.77233" lon="6.46646"><ele></ele><time>2024-11-24T13:55:5Z</time></trkpt>
<trkpt lat="46.77231" lon="6.46642"><ele></ele><time>2024-11-24T13:55:8Z</time></trkpt>
<trkpt lat="46.7723" lon="6.46639"><ele></ele><time>2024-11-24T13:55:11Z</time></trkpt>
<trkpt lat="46.77229" lon="6.46635"><ele></ele><time>2024-11-24T13:55:14Z</time></trkpt>
<trkpt lat="46.77227" lon="6.46627"><ele></ele><time>2024-11-24T13:55:17Z</time></trkpt>
<trkpt lat="46.77226" lon="6.46622"><ele></ele><time>2024-11-24T13:55:20Z</time></trkpt>
<trkpt lat="46.77225" lon="6.46619"><ele></ele><time>2024-11-24T13:55:23Z</time></trkpt>
<trkpt lat="46.77225" lon="6.46618"><ele></ele><time>2024-11-24T13:55:26Z</time></trkpt>
<trkpt lat="46.77225" lon="6.46618"><ele></ele><time>2024-11-24T13:55:29Z</time></trkpt>
<trkpt lat="46.77225" lon="6.46618"><ele></ele><time>2024-11-24T13:55:32Z</time></trkpt>
<trkpt lat="46.77225" lon="6.46618"><ele></ele><time>2024-11-24T13:55:35Z</time></trkpt>
<trkpt lat="46.77225" lon="6.46618"><ele></ele><time>2024-11-24T13:55:38Z</time></trkpt>
<trkpt lat="46.77226" lon="6.46621"><ele></ele><time>2024-11-24T13:55:41Z</time></trkpt>
<trkpt lat="46.77226" lon="6.46621"><ele></ele><time>2024-11-24T13:55:44Z</time></trkpt>
<trkpt lat="46.77226" lon="6.46617"><ele></ele><time>2024-11-24T13:55:47Z</time></trkpt>
<trkpt lat="46.77225" lon="6.46616"><ele></ele><time>2024-11-24T13:55:50Z</time></trkpt>
<trkpt lat="46.77226" lon="6.46617"><ele></ele><time>2024-11-24T13:55:53Z</time></trkpt>
<trkpt lat="46.77226" lon="6.46617"><ele></ele><time>2024-11-24T13:55:56Z</time></trkpt>
<trkpt lat="46.77225" lon="6.46617"><ele></ele><time>2024-11-24T13:55:59Z</time></trkpt>
<trkpt lat="46.77226" lon="6.46624"><ele></ele><time>2024-11-24T13:56:2Z</time></trkpt>
<trkpt lat="46.77228" lon="6.46632"><ele></ele><time>2024-11-24T13:56:5Z</time></trkpt>
<trkpt lat="46.77231" lon="6.46639"><ele></ele><time>2024-11-24T13:56:8Z</time></trkpt>
<trkpt lat="46.77235" lon="6.46645"><ele></ele><time>2024-11-24T13:56:11Z</time></trkpt>
<trkpt lat="46.77234" lon="6.46646"><ele></ele><time>2024-11-24T13:56:14Z</time></trkpt>
<trkpt lat="46.77233" lon="6.46647"><ele></ele><time>2024-11-24T13:56:17Z</time></trkpt>
<trkpt lat="46.77234" lon="6.46647"><ele></ele><time>2024-11-24T13:56:20Z</time></trkpt>
<trkpt lat="46.77235" lon="6.46647"><ele></ele><time>2024-11-24T13:56:23Z</time></trkpt>
<trkpt lat="46.77235" lon="6.46647"><ele></ele><time>2024-11-24T13:56:26Z</time></trkpt>
<trkpt lat="46.77234" lon="6.46647"><ele></ele><time>2024-11-24T13:56:29Z</time></trkpt>
<trkpt lat="46.77235" lon="6.46647"><ele></ele><time>2024-11-24T13:56:32Z</time></trkpt>
<trkpt lat="46.77233" lon="6.46647"><ele></ele><time>2024-11-24T13:56:35Z</time></trkpt>
<trkpt lat="46.77234" lon="6.46646"><ele></ele><time>2024-11-24T13:56:38Z</time></trkpt>
<trkpt lat="46.77235" lon="6.46647"><ele></ele><time>2024-11-24T13:56:41Z</time></trkpt>
<trkpt lat="46.77235" lon="6.46647"><ele></ele><time>2024-11-24T13:56:44Z</time></trkpt>
<trkpt lat="46.77235" lon="6.46647"><ele></ele><time>2024-11-24T13:56:47Z</time></trkpt>
<trkpt lat="46.77235" lon="6.46647"><ele></ele><time>2024-11-24T13:56:50Z</time></trkpt>
<trkpt lat="46.77234" lon="6.46647"><ele></ele><time>2024-11-24T13:56:53Z</time></trkpt>
<trkpt lat="46.77234" lon="6.46647"><ele></ele><time>2024-11-24T13:56:56Z</time></trkpt>
<trkpt lat="46.77234" lon="6.46647"><ele></ele><time>2024-11-24T13:56:59Z</time></trkpt>
<trkpt lat="46.77234" lon="6.46646"><ele></ele><time>2024-11-24T13:57:2Z</time></trkpt>
<trkpt lat="46.77235" lon="6.46645"><ele></ele><time>2024-11-24T13:57:5Z</time></trkpt>
<trkpt lat="46.77234" lon="6.46646"><ele></ele><time>2024-11-24T13:57:8Z</time></trkpt>
<trkpt lat="46.77234" lon="6.46646"><ele></ele><time>2024-11-24T13:57:11Z</time></trkpt>
<trkpt lat="46.77233" lon="6.46646"><ele></ele><time>2024-11-24T13:57:14Z</time></trkpt>
<trkpt lat="46.77233" lon="6.46648"><ele></ele><time>2024-11-24T13:57:17Z</time></trkpt>
<trkpt lat="46.77233" lon="6.46648"><ele></ele><time>2024-11-24T13:57:20Z</time></trkpt>
<trkpt lat="46.77234" lon="6.46647"><ele></ele><time>2024-11-24T13:57:23Z</time></trkpt>
<trkpt lat="46.77233" lon="6.46648"><ele></ele><time>2024-11-24T13:57:26Z</time></trkpt>
<trkpt lat="46.77235" lon="6.46646"><ele></ele><time>2024-11-24T13:57:29Z</time></trkpt>
<trkpt lat="46.77235" lon="6.46647"><ele></ele><time>2024-11-24T13:57:32Z</time></trkpt>
<trkpt lat="46.77235" lon="6.46647"><ele></ele><time>2024-11-24T13:57:35Z</time></trkpt>
<trkpt lat="46.77235" lon="6.46647"><ele></ele><time>2024-11-24T13:57:38Z</time></trkpt>
<trkpt lat="46.77235" lon="6.46647"><ele></ele><time>2024-11-24T13:57:41Z</time></trkpt>
<trkpt lat="46.77235" lon="6.46647"><ele></ele><time>2024-11-24T13:57:44Z</time></trkpt>
<trkpt lat="46.77235" lon="6.46647"><ele></ele><time>2024-11-24T13:57:47Z</time></trkpt>
<trkpt lat="46.77235" lon="6.46647"><ele></ele><time>2024-11-24T13:57:50Z</time></trkpt>
<trkpt lat="46.77234" lon="6.46646"><ele></ele><time>2024-11-24T13:57:53Z</time></trkpt>
<trkpt lat="46.77235" lon="6.46647"><ele></ele><time>2024-11-24T13:57:56Z</time></trkpt>
<trkpt lat="46.77235" lon="6.46647"><ele></ele><time>2024-11-24T13:57:59Z</time></trkpt>
<trkpt lat="46.77233" lon="6.46646"><ele></ele><time>2024-11-24T13:58:2Z</time></trkpt>
<trkpt lat="46.77233" lon="6.46647"><ele></ele><time>2024-11-24T13:58:5Z</time></trkpt>
<trkpt lat="46.77233" lon="6.46646"><ele></ele><time>2024-11-24T13:58:8Z</time></trkpt>
<trkpt lat="46.77233" lon="6.46647"><ele></ele><time>2024-11-24T13:58:11Z</time></trkpt>
<trkpt lat="46.77233" lon="6.46648"><ele></ele><time>2024-11-24T13:58:14Z</time></trkpt>
<trkpt lat="46.77233" lon="6.46646"><ele></ele><time>2024-11-24T13:58:17Z</time></trkpt>
<trkpt lat="46.77235" lon="6.46647"><ele></ele><time>2024-11-24T13:58:20Z</time></trkpt>
<trkpt lat="46.77235" lon="6.46646"><ele></ele><time>2024-11-24T13:58:23Z</time></trkpt>
<trkpt lat="46.77234" lon="6.46646"><ele></ele><time>2024-11-24T13:58:26Z</time></trkpt>
<trkpt lat="46.77233" lon="6.46646"><ele></ele><time>2024-11-24T13:58:29Z</time></trkpt>
<trkpt lat="46.77234" lon="6.46648"><ele></ele><time>2024-11-24T13:58:32Z</time></trkpt>
<trkpt lat="46.77234" lon="6.46648"><ele></ele><time>2024-11-24T13:58:35Z</time></trkpt>
<trkpt lat="46.77234" lon="6.46646"><ele></ele><time>2024-11-24T13:58:38Z</time></trkpt>
<trkpt lat="46.77233" lon="6.46647"><ele></ele><time>2024-11-24T13:58:41Z</time></trkpt>
<trkpt lat="46.77234" lon="6.46647"><ele></ele><time>2024-11-24T13:58:44Z</time></trkpt>
<trkpt lat="46.77234" lon="6.46644"><ele></ele><time>2024-11-24T13:58:47Z</time></trkpt>
<trkpt lat="46.77234" lon="6.46644"><ele></ele><time>2024-11-24T13:58:50Z</time></trkpt>
<trkpt lat="46.77234" lon="6.46644"><ele></ele><time>2024-11-24T13:58:53Z</time></trkpt>
<trkpt lat="46.77233" lon="6.46645"><ele></ele><time>2024-11-24T13:58:56Z</time></trkpt>
<trkpt lat="46.77233" lon="6.46646"><ele></ele><time>2024-11-24T13:58:59Z</time></trkpt>
<trkpt lat="46.77231" lon="6.46648"><ele></ele><time>2024-11-24T13:59:2Z</time></trkpt>
<trkpt lat="46.77227" lon="6.46646"><ele></ele><time>2024-11-24T13:59:5Z</time></trkpt>
<trkpt lat="46.77225" lon="6.46641"><ele></ele><time>2024-11-24T13:59:8Z</time></trkpt>
<trkpt lat="46.77225" lon="6.46642"><ele></ele><time>2024-11-24T13:59:11Z</time></trkpt>
<trkpt lat="46.77225" lon="6.46642"><ele></ele><time>2024-11-24T13:59:14Z</time></trkpt>
<trkpt lat="46.77225" lon="6.46642"><ele></ele><time>2024-11-24T13:59:17Z</time></trkpt>
<trkpt lat="46.77225" lon="6.46642"><ele></ele><time>2024-11-24T13:59:20Z</time></trkpt>
<trkpt lat="46.77218" lon="6.46638"><ele></ele><time>2024-11-24T13:59:23Z</time></trkpt>
<trkpt lat="46.77212" lon="6.46633"><ele></ele><time>2024-11-24T13:59:26Z</time></trkpt>
<trkpt lat="46.77204" lon="6.46623"><ele></ele><time>2024-11-24T13:59:29Z</time></trkpt>
<trkpt lat="46.77201" lon="6.46613"><ele></ele><time>2024-11-24T13:59:32Z</time></trkpt>
<trkpt lat="46.77198" lon="6.46611"><ele></ele><time>2024-11-24T13:59:35Z</time></trkpt>
<trkpt lat="46.77196" lon="6.46612"><ele></ele><time>2024-11-24T13:59:38Z</time></trkpt>
<trkpt lat="46.77193" lon="6.46615"><ele></ele><time>2024-11-24T13:59:41Z</time></trkpt>
<trkpt lat="46.77191" lon="6.46618"><ele></ele><time>2024-11-24T13:59:44Z</time></trkpt>
<trkpt lat="46.77188" lon="6.46618"><ele></ele><time>2024-11-24T13:59:47Z</time></trkpt>
<trkpt lat="46.77187" lon="6.46616"><ele></ele><time>2024-11-24T13:59:50Z</time></trkpt>
<trkpt lat="46.77185" lon="6.46611"><ele></ele><time>2024-11-24T13:59:53Z</time></trkpt>
<trkpt lat="46.77184" lon="6.46607"><ele></ele><time>2024-11-24T13:59:56Z</time></trkpt>
<trkpt lat="46.77183" lon="6.46604"><ele></ele><time>2024-11-24T13:59:59Z</time></trkpt>
<trkpt lat="46.77179" lon="6.46597"><ele></ele><time>2024-11-24T14:0:2Z</time></trkpt>
<trkpt lat="46.77179" lon="6.46595"><ele></ele><time>2024-11-24T14:0:5Z</time></trkpt>
<trkpt lat="46.77179" lon="6.46592"><ele></ele><time>2024-11-24T14:0:8Z</time></trkpt>
<trkpt lat="46.77178" lon="6.46582"><ele></ele><time>2024-11-24T14:0:11Z</time></trkpt>
<trkpt lat="46.77176" lon="6.4658"><ele></ele><time>2024-11-24T14:0:14Z</time></trkpt>
<trkpt lat="46.77168" lon="6.46578"><ele></ele><time>2024-11-24T14:0:17Z</time></trkpt>
<trkpt lat="46.77162" lon="6.46581"><ele></ele><time>2024-11-24T14:0:20Z</time></trkpt>
<trkpt lat="46.77157" lon="6.46579"><ele></ele><time>2024-11-24T14:0:23Z</time></trkpt>
<trkpt lat="46.77154" lon="6.46573"><ele></ele><time>2024-11-24T14:0:26Z</time></trkpt>
<trkpt lat="46.77152" lon="6.46569"><ele></ele><time>2024-11-24T14:0:29Z</time></trkpt>
<trkpt lat="46.7715" lon="6.46565"><ele></ele><time>2024-11-24T14:0:32Z</time></trkpt>
<trkpt lat="46.77146" lon="6.46559"><ele></ele><time>2024-11-24T14:0:35Z</time></trkpt>
<trkpt lat="46.77143" lon="6.46557"><ele></ele><time>2024-11-24T14:0:38Z</time></trkpt>
<trkpt lat="46.77139" lon="6.46556"><ele></ele><time>2024-11-24T14:0:41Z</time></trkpt>
<trkpt lat="46.77135" lon="6.46554"><ele></ele><time>2024-11-24T14:0:44Z</time></trkpt>
<trkpt lat="46.77131" lon="6.46554"><ele></ele><time>2024-11-24T14:0:47Z</time></trkpt>
<trkpt lat="46.77126" lon="6.46555"><ele></ele><time>2024-11-24T14:0:50Z</time></trkpt>
<trkpt lat="46.77121" lon="6.46557"><ele></ele><time>2024-11-24T14:0:53Z</time></trkpt>
<trkpt lat="46.77116" lon="6.46557"><ele></ele><time>2024-11-24T14:0:56Z</time></trkpt>
<trkpt lat="46.77107" lon="6.46557"><ele></ele><time>2024-11-24T14:0:59Z</time></trkpt>
<trkpt lat="46.77103" lon="6.46557"><ele></ele><time>2024-11-24T14:1:2Z</time></trkpt>
<trkpt lat="46.77099" lon="6.46557"><ele></ele><time>2024-11-24T14:1:5Z</time></trkpt>
<trkpt lat="46.77095" lon="6.46557"><ele></ele><time>2024-11-24T14:1:8Z</time></trkpt>
<trkpt lat="46.77091" lon="6.46558"><ele></ele><time>2024-11-24T14:1:11Z</time></trkpt>
<trkpt lat="46.77086" lon="6.46559"><ele></ele><time>2024-11-24T14:1:14Z</time></trkpt>
<trkpt lat="46.77081" lon="6.4656"><ele></ele><time>2024-11-24T14:1:17Z</time></trkpt>
<trkpt lat="46.77075" lon="6.46561"><ele></ele><time>2024-11-24T14:1:20Z</time></trkpt>
<trkpt lat="46.77064" lon="6.46562"><ele></ele><time>2024-11-24T14:1:23Z</time></trkpt>
<trkpt lat="46.77057" lon="6.46562"><ele></ele><time>2024-11-24T14:1:26Z</time></trkpt>
<trkpt lat="46.77051" lon="6.46561"><ele></ele><time>2024-11-24T14:1:29Z</time></trkpt>
<trkpt lat="46.77045" lon="6.46556"><ele></ele><time>2024-11-24T14:1:32Z</time></trkpt>
<trkpt lat="46.77041" lon="6.4655"><ele></ele><time>2024-11-24T14:1:35Z</time></trkpt>
<trkpt lat="46.77038" lon="6.46543"><ele></ele><time>2024-11-24T14:1:38Z</time></trkpt>
<trkpt lat="46.77034" lon="6.46538"><ele></ele><time>2024-11-24T14:1:41Z</time></trkpt>
<trkpt lat="46.77022" lon="6.46527"><ele></ele><time>2024-11-24T14:1:44Z</time></trkpt>
<trkpt lat="46.77013" lon="6.46521"><ele></ele><time>2024-11-24T14:1:47Z</time></trkpt>
<trkpt lat="46.77004" lon="6.46516"><ele></ele><time>2024-11-24T14:1:50Z</time></trkpt>
<trkpt lat="46.76999" lon="6.46513"><ele></ele><time>2024-11-24T14:1:53Z</time></trkpt>
<trkpt lat="46.76994" lon="6.4651"><ele></ele><time>2024-11-24T14:1:56Z</time></trkpt>
<trkpt lat="46.76988" lon="6.46507"><ele></ele><time>2024-11-24T14:1:59Z</time></trkpt>
<trkpt lat="46.76982" lon="6.46504"><ele></ele><time>2024-11-24T14:2:2Z</time></trkpt>
<trkpt lat="46.7697" lon="6.46499"><ele></ele><time>2024-11-24T14:2:5Z</time></trkpt>
<trkpt lat="46.76965" lon="6.46496"><ele></ele><time>2024-11-24T14:2:8Z</time></trkpt>
<trkpt lat="46.7696" lon="6.46492"><ele></ele><time>2024-11-24T14:2:11Z</time></trkpt>
<trkpt lat="46.76956" lon="6.46487"><ele></ele><time>2024-11-24T14:2:14Z</time></trkpt>
<trkpt lat="46.76952" lon="6.46481"><ele></ele><time>2024-11-24T14:2:17Z</time></trkpt>
<trkpt lat="46.76949" lon="6.46477"><ele></ele><time>2024-11-24T14:2:20Z</time></trkpt>
<trkpt lat="46.76948" lon="6.46473"><ele></ele><time>2024-11-24T14:2:23Z</time></trkpt>
<trkpt lat="46.76948" lon="6.46473"><ele></ele><time>2024-11-24T14:2:26Z</time></trkpt>
<trkpt lat="46.76946" lon="6.46473"><ele></ele><time>2024-11-24T14:2:29Z</time></trkpt>
<trkpt lat="46.76943" lon="6.46467"><ele></ele><time>2024-11-24T14:2:32Z</time></trkpt>
<trkpt lat="46.76939" lon="6.46461"><ele></ele><time>2024-11-24T14:2:35Z</time></trkpt>
<trkpt lat="46.76936" lon="6.46456"><ele></ele><time>2024-11-24T14:2:38Z</time></trkpt>
<trkpt lat="46.76928" lon="6.46446"><ele></ele><time>2024-11-24T14:2:41Z</time></trkpt>
<trkpt lat="46.76925" lon="6.4644"><ele></ele><time>2024-11-24T14:2:44Z</time></trkpt>
<trkpt lat="46.76913" lon="6.46423"><ele></ele><time>2024-11-24T14:2:47Z</time></trkpt>
<trkpt lat="46.76904" lon="6.46413"><ele></ele><time>2024-11-24T14:2:50Z</time></trkpt>
<trkpt lat="46.769" lon="6.46409"><ele></ele><time>2024-11-24T14:2:53Z</time></trkpt>
<trkpt lat="46.76892" lon="6.464"><ele></ele><time>2024-11-24T14:2:56Z</time></trkpt>
<trkpt lat="46.76863" lon="6.46372"><ele></ele><time>2024-11-24T14:2:59Z</time></trkpt>
<trkpt lat="46.76857" lon="6.46366"><ele></ele><time>2024-11-24T14:3:2Z</time></trkpt>
<trkpt lat="46.76835" lon="6.46352"><ele></ele><time>2024-11-24T14:3:5Z</time></trkpt>
<trkpt lat="46.76815" lon="6.46339"><ele></ele><time>2024-11-24T14:3:8Z</time></trkpt>
<trkpt lat="46.76811" lon="6.46338"><ele></ele><time>2024-11-24T14:3:11Z</time></trkpt>
<trkpt lat="46.76803" lon="6.46342"><ele></ele><time>2024-11-24T14:3:14Z</time></trkpt>
<trkpt lat="46.76803" lon="6.46351"><ele></ele><time>2024-11-24T14:3:17Z</time></trkpt>
<trkpt lat="46.76804" lon="6.46353"><ele></ele><time>2024-11-24T14:3:20Z</time></trkpt>
<trkpt lat="46.76804" lon="6.46355"><ele></ele><time>2024-11-24T14:3:23Z</time></trkpt>
<trkpt lat="46.76806" lon="6.46357"><ele></ele><time>2024-11-24T14:3:26Z</time></trkpt>
<trkpt lat="46.76806" lon="6.46357"><ele></ele><time>2024-11-24T14:3:29Z</time></trkpt>
<trkpt lat="46.76806" lon="6.46357"><ele></ele><time>2024-11-24T14:3:32Z</time></trkpt>
<trkpt lat="46.76807" lon="6.46366"><ele></ele><time>2024-11-24T14:3:35Z</time></trkpt>
<trkpt lat="46.76812" lon="6.46389"><ele></ele><time>2024-11-24T14:3:38Z</time></trkpt>
<trkpt lat="46.76814" lon="6.46399"><ele></ele><time>2024-11-24T14:3:41Z</time></trkpt>
<trkpt lat="46.76818" lon="6.4641"><ele></ele><time>2024-11-24T14:3:44Z</time></trkpt>
<trkpt lat="46.76822" lon="6.4642"><ele></ele><time>2024-11-24T14:3:47Z</time></trkpt>
<trkpt lat="46.76826" lon="6.46432"><ele></ele><time>2024-11-24T14:3:50Z</time></trkpt>
<trkpt lat="46.76829" lon="6.46443"><ele></ele><time>2024-11-24T14:3:53Z</time></trkpt>
<trkpt lat="46.76837" lon="6.46463"><ele></ele><time>2024-11-24T14:3:56Z</time></trkpt>
<trkpt lat="46.76842" lon="6.46472"><ele></ele><time>2024-11-24T14:3:59Z</time></trkpt>
<trkpt lat="46.76846" lon="6.46478"><ele></ele><time>2024-11-24T14:4:2Z</time></trkpt>
<trkpt lat="46.7685" lon="6.46484"><ele></ele><time>2024-11-24T14:4:5Z</time></trkpt>
<trkpt lat="46.76852" lon="6.46489"><ele></ele><time>2024-11-24T14:4:8Z</time></trkpt>
<trkpt lat="46.7685" lon="6.46493"><ele></ele><time>2024-11-24T14:4:11Z</time></trkpt>
<trkpt lat="46.7685" lon="6.46493"><ele></ele><time>2024-11-24T14:4:14Z</time></trkpt>
<trkpt lat="46.76849" lon="6.46492"><ele></ele><time>2024-11-24T14:4:17Z</time></trkpt>
<trkpt lat="46.76845" lon="6.46488"><ele></ele><time>2024-11-24T14:4:20Z</time></trkpt>
<trkpt lat="46.76844" lon="6.46487"><ele></ele><time>2024-11-24T14:4:23Z</time></trkpt>
<trkpt lat="46.76843" lon="6.46486"><ele></ele><time>2024-11-24T14:4:26Z</time></trkpt>
<trkpt lat="46.76838" lon="6.46479"><ele></ele><time>2024-11-24T14:4:29Z</time></trkpt>
<trkpt lat="46.76833" lon="6.46471"><ele></ele><time>2024-11-24T14:4:32Z</time></trkpt>
<trkpt lat="46.7683" lon="6.46466"><ele></ele><time>2024-11-24T14:4:35Z</time></trkpt>
<trkpt lat="46.76827" lon="6.46461"><ele></ele><time>2024-11-24T14:4:38Z</time></trkpt>
<trkpt lat="46.76815" lon="6.46449"><ele></ele><time>2024-11-24T14:4:41Z</time></trkpt>
<trkpt lat="46.76804" lon="6.4644"><ele></ele><time>2024-11-24T14:4:44Z</time></trkpt>
<trkpt lat="46.768" lon="6.46434"><ele></ele><time>2024-11-24T14:4:47Z</time></trkpt>
<trkpt lat="46.76791" lon="6.46421"><ele></ele><time>2024-11-24T14:4:50Z</time></trkpt>
<trkpt lat="46.76785" lon="6.46412"><ele></ele><time>2024-11-24T14:4:53Z</time></trkpt>
<trkpt lat="46.76781" lon="6.46405"><ele></ele><time>2024-11-24T14:4:56Z</time></trkpt>
<trkpt lat="46.76776" lon="6.46396"><ele></ele><time>2024-11-24T14:4:59Z</time></trkpt>
<trkpt lat="46.76774" lon="6.46394"><ele></ele><time>2024-11-24T14:5:2Z</time></trkpt>
<trkpt lat="46.76773" lon="6.46392"><ele></ele><time>2024-11-24T14:5:5Z</time></trkpt>
<trkpt lat="46.76765" lon="6.46382"><ele></ele><time>2024-11-24T14:5:8Z</time></trkpt>
<trkpt lat="46.76762" lon="6.46379"><ele></ele><time>2024-11-24T14:5:11Z</time></trkpt>
<trkpt lat="46.76758" lon="6.46374"><ele></ele><time>2024-11-24T14:5:14Z</time></trkpt>
<trkpt lat="46.76756" lon="6.46369"><ele></ele><time>2024-11-24T14:5:17Z</time></trkpt>
<trkpt lat="46.76752" lon="6.46363"><ele></ele><time>2024-11-24T14:5:20Z</time></trkpt>
<trkpt lat="46.7675" lon="6.4636"><ele></ele><time>2024-11-24T14:5:23Z</time></trkpt>
<trkpt lat="46.76747" lon="6.46357"><ele></ele><time>2024-11-24T14:5:26Z</time></trkpt>
<trkpt lat="46.76746" lon="6.46355"><ele></ele><time>2024-11-24T14:5:29Z</time></trkpt>
<trkpt lat="46.76745" lon="6.46354"><ele></ele><time>2024-11-24T14:5:32Z</time></trkpt>
<trkpt lat="46.76742" lon="6.46349"><ele></ele><time>2024-11-24T14:5:35Z</time></trkpt>
<trkpt lat="46.76738" lon="6.46343"><ele></ele><time>2024-11-24T14:5:38Z</time></trkpt>
<trkpt lat="46.76734" lon="6.46337"><ele></ele><time>2024-11-24T14:5:41Z</time></trkpt>
<trkpt lat="46.76726" lon="6.46329"><ele></ele><time>2024-11-24T14:5:44Z</time></trkpt>
<trkpt lat="46.76718" lon="6.4632"><ele></ele><time>2024-11-24T14:5:47Z</time></trkpt>
<trkpt lat="46.76711" lon="6.46313"><ele></ele><time>2024-11-24T14:5:50Z</time></trkpt>
<trkpt lat="46.76704" lon="6.46303"><ele></ele><time>2024-11-24T14:5:53Z</time></trkpt>
<trkpt lat="46.76698" lon="6.46295"><ele></ele><time>2024-11-24T14:5:56Z</time></trkpt>
<trkpt lat="46.76694" lon="6.46292"><ele></ele><time>2024-11-24T14:5:59Z</time></trkpt>
<trkpt lat="46.76685" lon="6.4628"><ele></ele><time>2024-11-24T14:6:2Z</time></trkpt>
<trkpt lat="46.76681" lon="6.46274"><ele></ele><time>2024-11-24T14:6:5Z</time></trkpt>
<trkpt lat="46.76677" lon="6.46269"><ele></ele><time>2024-11-24T14:6:8Z</time></trkpt>
<trkpt lat="46.7667" lon="6.4626"><ele></ele><time>2024-11-24T14:6:11Z</time></trkpt>
<trkpt lat="46.7667" lon="6.46258"><ele></ele><time>2024-11-24T14:6:14Z</time></trkpt>
<trkpt lat="46.76663" lon="6.46248"><ele></ele><time>2024-11-24T14:6:17Z</time></trkpt>
<trkpt lat="46.76661" lon="6.46244"><ele></ele><time>2024-11-24T14:6:20Z</time></trkpt>
<trkpt lat="46.76657" lon="6.46239"><ele></ele><time>2024-11-24T14:6:23Z</time></trkpt>
<trkpt lat="46.76654" lon="6.46236"><ele></ele><time>2024-11-24T14:6:26Z</time></trkpt>
<trkpt lat="46.76651" lon="6.46234"><ele></ele><time>2024-11-24T14:6:29Z</time></trkpt>
<trkpt lat="46.76646" lon="6.4623"><ele></ele><time>2024-11-24T14:6:32Z</time></trkpt>
<trkpt lat="46.76645" lon="6.46227"><ele></ele><time>2024-11-24T14:6:35Z</time></trkpt>
<trkpt lat="46.76641" lon="6.46223"><ele></ele><time>2024-11-24T14:6:38Z</time></trkpt>
<trkpt lat="46.76641" lon="6.46223"><ele></ele><time>2024-11-24T14:6:41Z</time></trkpt>
<trkpt lat="46.76641" lon="6.46223"><ele></ele><time>2024-11-24T14:6:44Z</time></trkpt>
<trkpt lat="46.76637" lon="6.46218"><ele></ele><time>2024-11-24T14:6:47Z</time></trkpt>
<trkpt lat="46.76633" lon="6.46214"><ele></ele><time>2024-11-24T14:6:50Z</time></trkpt>
<trkpt lat="46.7663" lon="6.46211"><ele></ele><time>2024-11-24T14:6:53Z</time></trkpt>
<trkpt lat="46.76628" lon="6.4621"><ele></ele><time>2024-11-24T14:6:56Z</time></trkpt>
<trkpt lat="46.76627" lon="6.4621"><ele></ele><time>2024-11-24T14:6:59Z</time></trkpt>
<trkpt lat="46.76626" lon="6.46209"><ele></ele><time>2024-11-24T14:7:2Z</time></trkpt>
<trkpt lat="46.76626" lon="6.46209"><ele></ele><time>2024-11-24T14:7:5Z</time></trkpt>
<trkpt lat="46.76626" lon="6.46208"><ele></ele><time>2024-11-24T14:7:8Z</time></trkpt>
<trkpt lat="46.76626" lon="6.46208"><ele></ele><time>2024-11-24T14:7:11Z</time></trkpt>
<trkpt lat="46.76626" lon="6.46208"><ele></ele><time>2024-11-24T14:7:14Z</time></trkpt>
<trkpt lat="46.76626" lon="6.46208"><ele></ele><time>2024-11-24T14:7:17Z</time></trkpt>
<trkpt lat="46.76625" lon="6.46208"><ele></ele><time>2024-11-24T14:7:20Z</time></trkpt>
<trkpt lat="46.76623" lon="6.46205"><ele></ele><time>2024-11-24T14:7:23Z</time></trkpt>
<trkpt lat="46.76618" lon="6.46196"><ele></ele><time>2024-11-24T14:7:26Z</time></trkpt>
<trkpt lat="46.76615" lon="6.4619"><ele></ele><time>2024-11-24T14:7:29Z</time></trkpt>
<trkpt lat="46.76613" lon="6.46185"><ele></ele><time>2024-11-24T14:7:32Z</time></trkpt>
<trkpt lat="46.76599" lon="6.46167"><ele></ele><time>2024-11-24T14:7:35Z</time></trkpt>
<trkpt lat="46.76591" lon="6.46147"><ele></ele><time>2024-11-24T14:7:38Z</time></trkpt>
<trkpt lat="46.76588" lon="6.46142"><ele></ele><time>2024-11-24T14:7:41Z</time></trkpt>
<trkpt lat="46.7658" lon="6.46112"><ele></ele><time>2024-11-24T14:7:44Z</time></trkpt>
<trkpt lat="46.76574" lon="6.46095"><ele></ele><time>2024-11-24T14:7:47Z</time></trkpt>
<trkpt lat="46.76571" lon="6.46082"><ele></ele><time>2024-11-24T14:7:50Z</time></trkpt>
<trkpt lat="46.76569" lon="6.46073"><ele></ele><time>2024-11-24T14:7:53Z</time></trkpt>
<trkpt lat="46.76568" lon="6.46066"><ele></ele><time>2024-11-24T14:7:56Z</time></trkpt>
<trkpt lat="46.76563" lon="6.46057"><ele></ele><time>2024-11-24T14:7:59Z</time></trkpt>
<trkpt lat="46.76562" lon="6.4605"><ele></ele><time>2024-11-24T14:8:2Z</time></trkpt>
<trkpt lat="46.76558" lon="6.46039"><ele></ele><time>2024-11-24T14:8:5Z</time></trkpt>
<trkpt lat="46.76555" lon="6.46031"><ele></ele><time>2024-11-24T14:8:8Z</time></trkpt>
<trkpt lat="46.76553" lon="6.46024"><ele></ele><time>2024-11-24T14:8:11Z</time></trkpt>
<trkpt lat="46.76554" lon="6.46023"><ele></ele><time>2024-11-24T14:8:14Z</time></trkpt>
<trkpt lat="46.76554" lon="6.46023"><ele></ele><time>2024-11-24T14:8:17Z</time></trkpt>
<trkpt lat="46.76554" lon="6.46023"><ele></ele><time>2024-11-24T14:8:20Z</time></trkpt>
<trkpt lat="46.76552" lon="6.46022"><ele></ele><time>2024-11-24T14:8:23Z</time></trkpt>
<trkpt lat="46.7655" lon="6.4602"><ele></ele><time>2024-11-24T14:8:26Z</time></trkpt>
<trkpt lat="46.7655" lon="6.46017"><ele></ele><time>2024-11-24T14:8:29Z</time></trkpt>
<trkpt lat="46.76551" lon="6.46012"><ele></ele><time>2024-11-24T14:8:32Z</time></trkpt>
<trkpt lat="46.76551" lon="6.46012"><ele></ele><time>2024-11-24T14:8:35Z</time></trkpt>
<trkpt lat="46.76552" lon="6.46012"><ele></ele><time>2024-11-24T14:8:38Z</time></trkpt>
<trkpt lat="46.76551" lon="6.46013"><ele></ele><time>2024-11-24T14:8:41Z</time></trkpt>
<trkpt lat="46.76551" lon="6.46008"><ele></ele><time>2024-11-24T14:8:44Z</time></trkpt>
<trkpt lat="46.7655" lon="6.46002"><ele></ele><time>2024-11-24T14:8:47Z</time></trkpt>
<trkpt lat="46.76549" lon="6.46003"><ele></ele><time>2024-11-24T14:8:50Z</time></trkpt>
<trkpt lat="46.76551" lon="6.46011"><ele></ele><time>2024-11-24T14:8:53Z</time></trkpt>
<trkpt lat="46.76551" lon="6.46014"><ele></ele><time>2024-11-24T14:8:56Z</time></trkpt>
<trkpt lat="46.76551" lon="6.46012"><ele></ele><time>2024-11-24T14:8:59Z</time></trkpt>
<trkpt lat="46.76551" lon="6.46012"><ele></ele><time>2024-11-24T14:9:2Z</time></trkpt>
<trkpt lat="46.7655" lon="6.46003"><ele></ele><time>2024-11-24T14:9:5Z</time></trkpt>
<trkpt lat="46.76548" lon="6.45998"><ele></ele><time>2024-11-24T14:9:8Z</time></trkpt>
<trkpt lat="46.76548" lon="6.45996"><ele></ele><time>2024-11-24T14:9:11Z</time></trkpt>
<trkpt lat="46.76548" lon="6.45994"><ele></ele><time>2024-11-24T14:9:14Z</time></trkpt>
<trkpt lat="46.76547" lon="6.45994"><ele></ele><time>2024-11-24T14:9:17Z</time></trkpt>
<trkpt lat="46.76548" lon="6.45996"><ele></ele><time>2024-11-24T14:9:20Z</time></trkpt>
<trkpt lat="46.76549" lon="6.45994"><ele></ele><time>2024-11-24T14:9:23Z</time></trkpt>
<trkpt lat="46.76549" lon="6.45995"><ele></ele><time>2024-11-24T14:9:26Z</time></trkpt>
<trkpt lat="46.76548" lon="6.45995"><ele></ele><time>2024-11-24T14:9:29Z</time></trkpt>
<trkpt lat="46.76548" lon="6.45995"><ele></ele><time>2024-11-24T14:9:32Z</time></trkpt>
<trkpt lat="46.76549" lon="6.45994"><ele></ele><time>2024-11-24T14:9:35Z</time></trkpt>
<trkpt lat="46.76549" lon="6.45994"><ele></ele><time>2024-11-24T14:9:38Z</time></trkpt>
<trkpt lat="46.76549" lon="6.45994"><ele></ele><time>2024-11-24T14:9:41Z</time></trkpt>
<trkpt lat="46.76549" lon="6.45994"><ele></ele><time>2024-11-24T14:9:44Z</time></trkpt>
<trkpt lat="46.76549" lon="6.45994"><ele></ele><time>2024-11-24T14:9:47Z</time></trkpt>
<trkpt lat="46.76549" lon="6.45994"><ele></ele><time>2024-11-24T14:9:50Z</time></trkpt>
<trkpt lat="46.76549" lon="6.45994"><ele></ele><time>2024-11-24T14:9:53Z</time></trkpt>
<trkpt lat="46.76548" lon="6.45994"><ele></ele><time>2024-11-24T14:9:56Z</time></trkpt>
<trkpt lat="46.76548" lon="6.45995"><ele></ele><time>2024-11-24T14:9:59Z</time></trkpt>
<trkpt lat="46.76549" lon="6.46004"><ele></ele><time>2024-11-24T14:10:2Z</time></trkpt>
<trkpt lat="46.76551" lon="6.4601"><ele></ele><time>2024-11-24T14:10:5Z</time></trkpt>
<trkpt lat="46.76551" lon="6.46013"><ele></ele><time>2024-11-24T14:10:8Z</time></trkpt>
<trkpt lat="46.76552" lon="6.46014"><ele></ele><time>2024-11-24T14:10:11Z</time></trkpt>
<trkpt lat="46.76553" lon="6.46018"><ele></ele><time>2024-11-24T14:10:14Z</time></trkpt>
<trkpt lat="46.76552" lon="6.46015"><ele></ele><time>2024-11-24T14:10:17Z</time></trkpt>
<trkpt lat="46.76548" lon="6.45998"><ele></ele><time>2024-11-24T14:10:20Z</time></trkpt>
<trkpt lat="46.76547" lon="6.45985"><ele></ele><time>2024-11-24T14:10:23Z</time></trkpt>
<trkpt lat="46.76547" lon="6.45987"><ele></ele><time>2024-11-24T14:10:26Z</time></trkpt>
<trkpt lat="46.76548" lon="6.45993"><ele></ele><time>2024-11-24T14:10:29Z</time></trkpt>
<trkpt lat="46.76549" lon="6.45995"><ele></ele><time>2024-11-24T14:10:32Z</time></trkpt>
<trkpt lat="46.76548" lon="6.45994"><ele></ele><time>2024-11-24T14:10:35Z</time></trkpt>
<trkpt lat="46.76547" lon="6.45986"><ele></ele><time>2024-11-24T14:10:38Z</time></trkpt>
<trkpt lat="46.76546" lon="6.45988"><ele></ele><time>2024-11-24T14:10:41Z</time></trkpt>
<trkpt lat="46.76547" lon="6.45991"><ele></ele><time>2024-11-24T14:10:44Z</time></trkpt>
<trkpt lat="46.76548" lon="6.45994"><ele></ele><time>2024-11-24T14:10:47Z</time></trkpt>
<trkpt lat="46.76548" lon="6.45994"><ele></ele><time>2024-11-24T14:10:50Z</time></trkpt>
<trkpt lat="46.76548" lon="6.45994"><ele></ele><time>2024-11-24T14:10:53Z</time></trkpt>
<trkpt lat="46.76548" lon="6.45994"><ele></ele><time>2024-11-24T14:10:56Z</time></trkpt>
<trkpt lat="46.76548" lon="6.45995"><ele></ele><time>2024-11-24T14:10:59Z</time></trkpt>
<trkpt lat="46.76548" lon="6.45997"><ele></ele><time>2024-11-24T14:11:2Z</time></trkpt>
<trkpt lat="46.76549" lon="6.46001"><ele></ele><time>2024-11-24T14:11:5Z</time></trkpt>
<trkpt lat="46.76551" lon="6.4601"><ele></ele><time>2024-11-24T14:11:8Z</time></trkpt>
<trkpt lat="46.76552" lon="6.46013"><ele></ele><time>2024-11-24T14:11:11Z</time></trkpt>
<trkpt lat="46.76552" lon="6.46014"><ele></ele><time>2024-11-24T14:11:14Z</time></trkpt>
<trkpt lat="46.76548" lon="6.45995"><ele></ele><time>2024-11-24T14:11:17Z</time></trkpt>
<trkpt lat="46.76544" lon="6.45975"><ele></ele><time>2024-11-24T14:11:20Z</time></trkpt>
<trkpt lat="46.76539" lon="6.45966"><ele></ele><time>2024-11-24T14:11:23Z</time></trkpt>
<trkpt lat="46.76537" lon="6.45956"><ele></ele><time>2024-11-24T14:11:26Z</time></trkpt>
<trkpt lat="46.76538" lon="6.45954"><ele></ele><time>2024-11-24T14:11:29Z</time></trkpt>
<trkpt lat="46.76539" lon="6.45955"><ele></ele><time>2024-11-24T14:11:32Z</time></trkpt>
<trkpt lat="46.76539" lon="6.45956"><ele></ele><time>2024-11-24T14:11:35Z</time></trkpt>
<trkpt lat="46.76541" lon="6.45967"><ele></ele><time>2024-11-24T14:11:38Z</time></trkpt>
<trkpt lat="46.76544" lon="6.45973"><ele></ele><time>2024-11-24T14:11:41Z</time></trkpt>
<trkpt lat="46.76544" lon="6.45977"><ele></ele><time>2024-11-24T14:11:44Z</time></trkpt>
<trkpt lat="46.76546" lon="6.45983"><ele></ele><time>2024-11-24T14:11:47Z</time></trkpt>
<trkpt lat="46.76547" lon="6.45989"><ele></ele><time>2024-11-24T14:11:50Z</time></trkpt>
<trkpt lat="46.76548" lon="6.45991"><ele></ele><time>2024-11-24T14:11:53Z</time></trkpt>
<trkpt lat="46.76548" lon="6.45993"><ele></ele><time>2024-11-24T14:11:56Z</time></trkpt>
<trkpt lat="46.76548" lon="6.45992"><ele></ele><time>2024-11-24T14:11:59Z</time></trkpt>
<trkpt lat="46.76547" lon="6.45988"><ele></ele><time>2024-11-24T14:12:2Z</time></trkpt>
<trkpt lat="46.76544" lon="6.45981"><ele></ele><time>2024-11-24T14:12:5Z</time></trkpt>
<trkpt lat="46.76545" lon="6.45977"><ele></ele><time>2024-11-24T14:12:8Z</time></trkpt>
<trkpt lat="46.76543" lon="6.45973"><ele></ele><time>2024-11-24T14:12:11Z</time></trkpt>
<trkpt lat="46.76543" lon="6.45972"><ele></ele><time>2024-11-24T14:12:14Z</time></trkpt>
<trkpt lat="46.76542" lon="6.4597"><ele></ele><time>2024-11-24T14:12:17Z</time></trkpt>
<trkpt lat="46.76541" lon="6.45967"><ele></ele><time>2024-11-24T14:12:20Z</time></trkpt>
<trkpt lat="46.76539" lon="6.45964"><ele></ele><time>2024-11-24T14:12:23Z</time></trkpt>
<trkpt lat="46.76539" lon="6.45964"><ele></ele><time>2024-11-24T14:12:26Z</time></trkpt>
<trkpt lat="46.76538" lon="6.45963"><ele></ele><time>2024-11-24T14:12:29Z</time></trkpt>
<trkpt lat="46.76538" lon="6.45962"><ele></ele><time>2024-11-24T14:12:32Z</time></trkpt>
<trkpt lat="46.76538" lon="6.4596"><ele></ele><time>2024-11-24T14:12:35Z</time></trkpt>
<trkpt lat="46.76538" lon="6.45956"><ele></ele><time>2024-11-24T14:12:38Z</time></trkpt>
<trkpt lat="46.76538" lon="6.45956"><ele></ele><time>2024-11-24T14:12:41Z</time></trkpt>
<trkpt lat="46.76538" lon="6.45956"><ele></ele><time>2024-11-24T14:12:44Z</time></trkpt>
<trkpt lat="46.76538" lon="6.45955"><ele></ele><time>2024-11-24T14:12:47Z</time></trkpt>
<trkpt lat="46.76537" lon="6.45952"><ele></ele><time>2024-11-24T14:12:50Z</time></trkpt>
<trkpt lat="46.76531" lon="6.45934"><ele></ele><time>2024-11-24T14:12:53Z</time></trkpt>
<trkpt lat="46.76529" lon="6.45929"><ele></ele><time>2024-11-24T14:12:56Z</time></trkpt>
<trkpt lat="46.76525" lon="6.45918"><ele></ele><time>2024-11-24T14:12:59Z</time></trkpt>
<trkpt lat="46.76523" lon="6.45913"><ele></ele><time>2024-11-24T14:13:2Z</time></trkpt>
<trkpt lat="46.76522" lon="6.45909"><ele></ele><time>2024-11-24T14:13:5Z</time></trkpt>
<trkpt lat="46.76521" lon="6.45905"><ele></ele><time>2024-11-24T14:13:8Z</time></trkpt>
<trkpt lat="46.7652" lon="6.45901"><ele></ele><time>2024-11-24T14:13:11Z</time></trkpt>
<trkpt lat="46.76519" lon="6.45891"><ele></ele><time>2024-11-24T14:13:14Z</time></trkpt>
<trkpt lat="46.76516" lon="6.45884"><ele></ele><time>2024-11-24T14:13:17Z</time></trkpt>
<trkpt lat="46.76512" lon="6.45879"><ele></ele><time>2024-11-24T14:13:20Z</time></trkpt>
<trkpt lat="46.76507" lon="6.45874"><ele></ele><time>2024-11-24T14:13:23Z</time></trkpt>
<trkpt lat="46.76503" lon="6.4587"><ele></ele><time>2024-11-24T14:13:26Z</time></trkpt>
<trkpt lat="46.76499" lon="6.45866"><ele></ele><time>2024-11-24T14:13:29Z</time></trkpt>
<trkpt lat="46.76496" lon="6.45862"><ele></ele><time>2024-11-24T14:13:32Z</time></trkpt>
<trkpt lat="46.76493" lon="6.45856"><ele></ele><time>2024-11-24T14:13:35Z</time></trkpt>
<trkpt lat="46.7649" lon="6.45852"><ele></ele><time>2024-11-24T14:13:38Z</time></trkpt>
<trkpt lat="46.76485" lon="6.45847"><ele></ele><time>2024-11-24T14:13:41Z</time></trkpt>
<trkpt lat="46.76484" lon="6.45846"><ele></ele><time>2024-11-24T14:13:44Z</time></trkpt>
<trkpt lat="46.76482" lon="6.45843"><ele></ele><time>2024-11-24T14:13:47Z</time></trkpt>
<trkpt lat="46.76477" lon="6.4583"><ele></ele><time>2024-11-24T14:13:50Z</time></trkpt>
<trkpt lat="46.76478" lon="6.4582"><ele></ele><time>2024-11-24T14:13:53Z</time></trkpt>
<trkpt lat="46.76479" lon="6.45818"><ele></ele><time>2024-11-24T14:13:56Z</time></trkpt>
<trkpt lat="46.76479" lon="6.45816"><ele></ele><time>2024-11-24T14:13:59Z</time></trkpt>
<trkpt lat="46.76479" lon="6.45816"><ele></ele><time>2024-11-24T14:14:2Z</time></trkpt>
<trkpt lat="46.76479" lon="6.45811"><ele></ele><time>2024-11-24T14:14:5Z</time></trkpt>
<trkpt lat="46.76479" lon="6.4581"><ele></ele><time>2024-11-24T14:14:8Z</time></trkpt>
<trkpt lat="46.76479" lon="6.45807"><ele></ele><time>2024-11-24T14:14:11Z</time></trkpt>
<trkpt lat="46.76478" lon="6.45801"><ele></ele><time>2024-11-24T14:14:14Z</time></trkpt>
<trkpt lat="46.76478" lon="6.45797"><ele></ele><time>2024-11-24T14:14:17Z</time></trkpt>
<trkpt lat="46.76477" lon="6.45791"><ele></ele><time>2024-11-24T14:14:20Z</time></trkpt>
<trkpt lat="46.76478" lon="6.45789"><ele></ele><time>2024-11-24T14:14:23Z</time></trkpt>
<trkpt lat="46.76478" lon="6.45788"><ele></ele><time>2024-11-24T14:14:26Z</time></trkpt>
<trkpt lat="46.76478" lon="6.45787"><ele></ele><time>2024-11-24T14:14:29Z</time></trkpt>
<trkpt lat="46.76474" lon="6.45778"><ele></ele><time>2024-11-24T14:14:32Z</time></trkpt>
<trkpt lat="46.76473" lon="6.45775"><ele></ele><time>2024-11-24T14:14:35Z</time></trkpt>
<trkpt lat="46.76471" lon="6.4577"><ele></ele><time>2024-11-24T14:14:38Z</time></trkpt>
<trkpt lat="46.76471" lon="6.45765"><ele></ele><time>2024-11-24T14:14:41Z</time></trkpt>
<trkpt lat="46.7647" lon="6.45761"><ele></ele><time>2024-11-24T14:14:44Z</time></trkpt>
<trkpt lat="46.76471" lon="6.45756"><ele></ele><time>2024-11-24T14:14:47Z</time></trkpt>
<trkpt lat="46.76472" lon="6.45753"><ele></ele><time>2024-11-24T14:14:50Z</time></trkpt>
<trkpt lat="46.76472" lon="6.45742"><ele></ele><time>2024-11-24T14:14:53Z</time></trkpt>
<trkpt lat="46.76473" lon="6.45741"><ele></ele><time>2024-11-24T14:14:56Z</time></trkpt>
<trkpt lat="46.76473" lon="6.45741"><ele></ele><time>2024-11-24T14:14:59Z</time></trkpt>
<trkpt lat="46.76472" lon="6.45736"><ele></ele><time>2024-11-24T14:15:2Z</time></trkpt>
<trkpt lat="46.76471" lon="6.45735"><ele></ele><time>2024-11-24T14:15:5Z</time></trkpt>
<trkpt lat="46.7647" lon="6.45735"><ele></ele><time>2024-11-24T14:15:8Z</time></trkpt>
<trkpt lat="46.76469" lon="6.45733"><ele></ele><time>2024-11-24T14:15:11Z</time></trkpt>
<trkpt lat="46.76469" lon="6.45728"><ele></ele><time>2024-11-24T14:15:14Z</time></trkpt>
<trkpt lat="46.7647" lon="6.45727"><ele></ele><time>2024-11-24T14:15:17Z</time></trkpt>
<trkpt lat="46.76472" lon="6.45725"><ele></ele><time>2024-11-24T14:15:20Z</time></trkpt>
<trkpt lat="46.76476" lon="6.45719"><ele></ele><time>2024-11-24T14:15:23Z</time></trkpt>
<trkpt lat="46.76476" lon="6.45718"><ele></ele><time>2024-11-24T14:15:26Z</time></trkpt>
<trkpt lat="46.76479" lon="6.45714"><ele></ele><time>2024-11-24T14:15:29Z</time></trkpt>
<trkpt lat="46.76483" lon="6.45709"><ele></ele><time>2024-11-24T14:15:32Z</time></trkpt>
<trkpt lat="46.76485" lon="6.45707"><ele></ele><time>2024-11-24T14:15:35Z</time></trkpt>
<trkpt lat="46.76486" lon="6.45703"><ele></ele><time>2024-11-24T14:15:38Z</time></trkpt>
<trkpt lat="46.76489" lon="6.457"><ele></ele><time>2024-11-24T14:15:41Z</time></trkpt>
<trkpt lat="46.76491" lon="6.45699"><ele></ele><time>2024-11-24T14:15:44Z</time></trkpt>
<trkpt lat="46.76494" lon="6.45698"><ele></ele><time>2024-11-24T14:15:47Z</time></trkpt>
<trkpt lat="46.76497" lon="6.45697"><ele></ele><time>2024-11-24T14:15:50Z</time></trkpt>
<trkpt lat="46.76498" lon="6.45697"><ele></ele><time>2024-11-24T14:15:53Z</time></trkpt>
<trkpt lat="46.76499" lon="6.45695"><ele></ele><time>2024-11-24T14:15:56Z</time></trkpt>
<trkpt lat="46.76498" lon="6.45693"><ele></ele><time>2024-11-24T14:15:59Z</time></trkpt>
<trkpt lat="46.76498" lon="6.45692"><ele></ele><time>2024-11-24T14:16:2Z</time></trkpt>
<trkpt lat="46.76498" lon="6.45688"><ele></ele><time>2024-11-24T14:16:5Z</time></trkpt>
<trkpt lat="46.76497" lon="6.45685"><ele></ele><time>2024-11-24T14:16:8Z</time></trkpt>
<trkpt lat="46.76496" lon="6.45685"><ele></ele><time>2024-11-24T14:16:11Z</time></trkpt>
<trkpt lat="46.76494" lon="6.45683"><ele></ele><time>2024-11-24T14:16:14Z</time></trkpt>
<trkpt lat="46.76494" lon="6.45683"><ele></ele><time>2024-11-24T14:16:17Z</time></trkpt>
<trkpt lat="46.76493" lon="6.45683"><ele></ele><time>2024-11-24T14:16:20Z</time></trkpt>
<trkpt lat="46.76493" lon="6.45683"><ele></ele><time>2024-11-24T14:16:23Z</time></trkpt>
<trkpt lat="46.76493" lon="6.45683"><ele></ele><time>2024-11-24T14:16:26Z</time></trkpt>
<trkpt lat="46.76493" lon="6.45685"><ele></ele><time>2024-11-24T14:16:29Z</time></trkpt>
<trkpt lat="46.76495" lon="6.45686"><ele></ele><time>2024-11-24T14:16:32Z</time></trkpt>
<trkpt lat="46.76494" lon="6.45686"><ele></ele><time>2024-11-24T14:16:35Z</time></trkpt>
<trkpt lat="46.76492" lon="6.45686"><ele></ele><time>2024-11-24T14:16:38Z</time></trkpt>
<trkpt lat="46.76492" lon="6.45686"><ele></ele><time>2024-11-24T14:16:41Z</time></trkpt>
<trkpt lat="46.76492" lon="6.45685"><ele></ele><time>2024-11-24T14:16:44Z</time></trkpt>
<trkpt lat="46.76493" lon="6.45685"><ele></ele><time>2024-11-24T14:16:47Z</time></trkpt>
<trkpt lat="46.76493" lon="6.45687"><ele></ele><time>2024-11-24T14:16:50Z</time></trkpt>
<trkpt lat="46.76494" lon="6.45686"><ele></ele><time>2024-11-24T14:16:53Z</time></trkpt>
<trkpt lat="46.76495" lon="6.45687"><ele></ele><time>2024-11-24T14:16:56Z</time></trkpt>
<trkpt lat="46.76495" lon="6.45688"><ele></ele><time>2024-11-24T14:16:59Z</time></trkpt>
<trkpt lat="46.76494" lon="6.45687"><ele></ele><time>2024-11-24T14:17:2Z</time></trkpt>
<trkpt lat="46.76493" lon="6.45686"><ele></ele><time>2024-11-24T14:17:5Z</time></trkpt>
<trkpt lat="46.76491" lon="6.45686"><ele></ele><time>2024-11-24T14:17:8Z</time></trkpt>
<trkpt lat="46.76492" lon="6.45686"><ele></ele><time>2024-11-24T14:17:11Z</time></trkpt>
<trkpt lat="46.76494" lon="6.45683"><ele></ele><time>2024-11-24T14:17:14Z</time></trkpt>
<trkpt lat="46.76494" lon="6.45684"><ele></ele><time>2024-11-24T14:17:17Z</time></trkpt>
<trkpt lat="46.76494" lon="6.45686"><ele></ele><time>2024-11-24T14:17:20Z</time></trkpt>
<trkpt lat="46.76494" lon="6.45685"><ele></ele><time>2024-11-24T14:17:23Z</time></trkpt>
<trkpt lat="46.76494" lon="6.45684"><ele></ele><time>2024-11-24T14:17:26Z</time></trkpt>
<trkpt lat="46.76493" lon="6.45683"><ele></ele><time>2024-11-24T14:17:29Z</time></trkpt>
<trkpt lat="46.76493" lon="6.45681"><ele></ele><time>2024-11-24T14:17:32Z</time></trkpt>
<trkpt lat="46.76495" lon="6.45682"><ele></ele><time>2024-11-24T14:17:35Z</time></trkpt>
<trkpt lat="46.76496" lon="6.45683"><ele></ele><time>2024-11-24T14:17:38Z</time></trkpt>
<trkpt lat="46.76496" lon="6.45683"><ele></ele><time>2024-11-24T14:17:41Z</time></trkpt>
<trkpt lat="46.76495" lon="6.45682"><ele></ele><time>2024-11-24T14:17:44Z</time></trkpt>
<trkpt lat="46.76495" lon="6.45681"><ele></ele><time>2024-11-24T14:17:47Z</time></trkpt>
<trkpt lat="46.76494" lon="6.4568"><ele></ele><time>2024-11-24T14:17:50Z</time></trkpt>
<trkpt lat="46.76496" lon="6.45679"><ele></ele><time>2024-11-24T14:17:53Z</time></trkpt>
<trkpt lat="46.76496" lon="6.45681"><ele></ele><time>2024-11-24T14:17:56Z</time></trkpt>
<trkpt lat="46.76495" lon="6.4568"><ele></ele><time>2024-11-24T14:17:59Z</time></trkpt>
<trkpt lat="46.76495" lon="6.45678"><ele></ele><time>2024-11-24T14:18:2Z</time></trkpt>
<trkpt lat="46.76495" lon="6.4568"><ele></ele><time>2024-11-24T14:18:5Z</time></trkpt>
<trkpt lat="46.76494" lon="6.45682"><ele></ele><time>2024-11-24T14:18:8Z</time></trkpt>
<trkpt lat="46.76495" lon="6.45681"><ele></ele><time>2024-11-24T14:18:11Z</time></trkpt>
<trkpt lat="46.76493" lon="6.45679"><ele></ele><time>2024-11-24T14:18:14Z</time></trkpt>
<trkpt lat="46.76494" lon="6.4568"><ele></ele><time>2024-11-24T14:18:17Z</time></trkpt>
<trkpt lat="46.76495" lon="6.45681"><ele></ele><time>2024-11-24T14:18:20Z</time></trkpt>
<trkpt lat="46.76495" lon="6.45682"><ele></ele><time>2024-11-24T14:18:23Z</time></trkpt>
<trkpt lat="46.76496" lon="6.45682"><ele></ele><time>2024-11-24T14:18:26Z</time></trkpt>
<trkpt lat="46.76496" lon="6.45682"><ele></ele><time>2024-11-24T14:18:29Z</time></trkpt>
<trkpt lat="46.76496" lon="6.45681"><ele></ele><time>2024-11-24T14:18:32Z</time></trkpt>
<trkpt lat="46.76495" lon="6.4568"><ele></ele><time>2024-11-24T14:18:35Z</time></trkpt>
<trkpt lat="46.76489" lon="6.45676"><ele></ele><time>2024-11-24T14:18:38Z</time></trkpt>
<trkpt lat="46.76485" lon="6.45672"><ele></ele><time>2024-11-24T14:18:41Z</time></trkpt>
<trkpt lat="46.76484" lon="6.45671"><ele></ele><time>2024-11-24T14:18:44Z</time></trkpt>
<trkpt lat="46.76483" lon="6.45667"><ele></ele><time>2024-11-24T14:18:47Z</time></trkpt>
<trkpt lat="46.76481" lon="6.45664"><ele></ele><time>2024-11-24T14:18:50Z</time></trkpt>
<trkpt lat="46.76481" lon="6.45664"><ele></ele><time>2024-11-24T14:18:53Z</time></trkpt>
<trkpt lat="46.7648" lon="6.45663"><ele></ele><time>2024-11-24T14:18:56Z</time></trkpt>
<trkpt lat="46.76477" lon="6.4566"><ele></ele><time>2024-11-24T14:18:59Z</time></trkpt>
<trkpt lat="46.76474" lon="6.45654"><ele></ele><time>2024-11-24T14:19:2Z</time></trkpt>
<trkpt lat="46.76472" lon="6.45652"><ele></ele><time>2024-11-24T14:19:5Z</time></trkpt>
<trkpt lat="46.76472" lon="6.45651"><ele></ele><time>2024-11-24T14:19:8Z</time></trkpt>
<trkpt lat="46.76473" lon="6.45646"><ele></ele><time>2024-11-24T14:19:11Z</time></trkpt>
<trkpt lat="46.76472" lon="6.45644"><ele></ele><time>2024-11-24T14:19:14Z</time></trkpt>
<trkpt lat="46.7647" lon="6.45641"><ele></ele><time>2024-11-24T14:19:17Z</time></trkpt>
<trkpt lat="46.76469" lon="6.45639"><ele></ele><time>2024-11-24T14:19:20Z</time></trkpt>
<trkpt lat="46.76467" lon="6.45637"><ele></ele><time>2024-11-24T14:19:23Z</time></trkpt>
<trkpt lat="46.76465" lon="6.45633"><ele></ele><time>2024-11-24T14:19:26Z</time></trkpt>
<trkpt lat="46.76465" lon="6.45632"><ele></ele><time>2024-11-24T14:19:29Z</time></trkpt>
<trkpt lat="46.76465" lon="6.45632"><ele></ele><time>2024-11-24T14:19:32Z</time></trkpt>
<trkpt lat="46.76463" lon="6.45631"><ele></ele><time>2024-11-24T14:19:35Z</time></trkpt>
<trkpt lat="46.76462" lon="6.45631"><ele></ele><time>2024-11-24T14:19:38Z</time></trkpt>
<trkpt lat="46.76458" lon="6.45629"><ele></ele><time>2024-11-24T14:19:41Z</time></trkpt>
<trkpt lat="46.76453" lon="6.45623"><ele></ele><time>2024-11-24T14:19:44Z</time></trkpt>
<trkpt lat="46.76452" lon="6.45622"><ele></ele><time>2024-11-24T14:19:47Z</time></trkpt>
<trkpt lat="46.7645" lon="6.4562"><ele></ele><time>2024-11-24T14:19:50Z</time></trkpt>
<trkpt lat="46.76449" lon="6.45618"><ele></ele><time>2024-11-24T14:19:53Z</time></trkpt>
<trkpt lat="46.76447" lon="6.45615"><ele></ele><time>2024-11-24T14:19:56Z</time></trkpt>
<trkpt lat="46.76447" lon="6.45613"><ele></ele><time>2024-11-24T14:19:59Z</time></trkpt>
<trkpt lat="46.76447" lon="6.4561"><ele></ele><time>2024-11-24T14:20:2Z</time></trkpt>
<trkpt lat="46.76446" lon="6.45608"><ele></ele><time>2024-11-24T14:20:5Z</time></trkpt>
<trkpt lat="46.76444" lon="6.45605"><ele></ele><time>2024-11-24T14:20:8Z</time></trkpt>
<trkpt lat="46.76443" lon="6.45601"><ele></ele><time>2024-11-24T14:20:11Z</time></trkpt>
<trkpt lat="46.7644" lon="6.45598"><ele></ele><time>2024-11-24T14:20:14Z</time></trkpt>
<trkpt lat="46.76439" lon="6.45597"><ele></ele><time>2024-11-24T14:20:17Z</time></trkpt>
<trkpt lat="46.76434" lon="6.45595"><ele></ele><time>2024-11-24T14:20:20Z</time></trkpt>
<trkpt lat="46.76432" lon="6.45595"><ele></ele><time>2024-11-24T14:20:23Z</time></trkpt>
<trkpt lat="46.76425" lon="6.45593"><ele></ele><time>2024-11-24T14:20:26Z</time></trkpt>
<trkpt lat="46.76423" lon="6.45589"><ele></ele><time>2024-11-24T14:20:29Z</time></trkpt>
<trkpt lat="46.76422" lon="6.45588"><ele></ele><time>2024-11-24T14:20:32Z</time></trkpt>
<trkpt lat="46.76421" lon="6.45585"><ele></ele><time>2024-11-24T14:20:35Z</time></trkpt>
<trkpt lat="46.7642" lon="6.45584"><ele></ele><time>2024-11-24T14:20:38Z</time></trkpt>
<trkpt lat="46.7642" lon="6.45581"><ele></ele><time>2024-11-24T14:20:41Z</time></trkpt>
<trkpt lat="46.76419" lon="6.45581"><ele></ele><time>2024-11-24T14:20:44Z</time></trkpt>
<trkpt lat="46.76421" lon="6.45579"><ele></ele><time>2024-11-24T14:20:47Z</time></trkpt>
<trkpt lat="46.76423" lon="6.45579"><ele></ele><time>2024-11-24T14:20:50Z</time></trkpt>
<trkpt lat="46.76427" lon="6.45579"><ele></ele><time>2024-11-24T14:20:53Z</time></trkpt>
<trkpt lat="46.76429" lon="6.4558"><ele></ele><time>2024-11-24T14:20:56Z</time></trkpt>
<trkpt lat="46.7644" lon="6.45581"><ele></ele><time>2024-11-24T14:20:59Z</time></trkpt>
<trkpt lat="46.76451" lon="6.45579"><ele></ele><time>2024-11-24T14:21:2Z</time></trkpt>
<trkpt lat="46.76458" lon="6.45576"><ele></ele><time>2024-11-24T14:21:5Z</time></trkpt>
<trkpt lat="46.76458" lon="6.45575"><ele></ele><time>2024-11-24T14:21:8Z</time></trkpt>
<trkpt lat="46.7646" lon="6.45574"><ele></ele><time>2024-11-24T14:21:11Z</time></trkpt>
<trkpt lat="46.76467" lon="6.45573"><ele></ele><time>2024-11-24T14:21:14Z</time></trkpt>
<trkpt lat="46.76472" lon="6.45571"><ele></ele><time>2024-11-24T14:21:17Z</time></trkpt>
<trkpt lat="46.76475" lon="6.45566"><ele></ele><time>2024-11-24T14:21:20Z</time></trkpt>
<trkpt lat="46.76475" lon="6.45565"><ele></ele><time>2024-11-24T14:21:23Z</time></trkpt>
<trkpt lat="46.76475" lon="6.45562"><ele></ele><time>2024-11-24T14:21:26Z</time></trkpt>
<trkpt lat="46.76476" lon="6.4556"><ele></ele><time>2024-11-24T14:21:29Z</time></trkpt>
<trkpt lat="46.76476" lon="6.45559"><ele></ele><time>2024-11-24T14:21:32Z</time></trkpt>
<trkpt lat="46.76479" lon="6.45558"><ele></ele><time>2024-11-24T14:21:35Z</time></trkpt>
<trkpt lat="46.76488" lon="6.45562"><ele></ele><time>2024-11-24T14:21:38Z</time></trkpt>
<trkpt lat="46.76492" lon="6.45564"><ele></ele><time>2024-11-24T14:21:41Z</time></trkpt>
<trkpt lat="46.76503" lon="6.4557"><ele></ele><time>2024-11-24T14:21:44Z</time></trkpt>
<trkpt lat="46.76507" lon="6.45574"><ele></ele><time>2024-11-24T14:21:47Z</time></trkpt>
<trkpt lat="46.76512" lon="6.45575"><ele></ele><time>2024-11-24T14:21:50Z</time></trkpt>
<trkpt lat="46.76513" lon="6.45576"><ele></ele><time>2024-11-24T14:21:53Z</time></trkpt>
<trkpt lat="46.76516" lon="6.45579"><ele></ele><time>2024-11-24T14:21:56Z</time></trkpt>
<trkpt lat="46.76517" lon="6.45579"><ele></ele><time>2024-11-24T14:21:59Z</time></trkpt>
<trkpt lat="46.76522" lon="6.45582"><ele></ele><time>2024-11-24T14:22:2Z</time></trkpt>
<trkpt lat="46.76532" lon="6.45585"><ele></ele><time>2024-11-24T14:22:5Z</time></trkpt>
<trkpt lat="46.76537" lon="6.45586"><ele></ele><time>2024-11-24T14:22:8Z</time></trkpt>
<trkpt lat="46.76549" lon="6.45588"><ele></ele><time>2024-11-24T14:22:11Z</time></trkpt>
<trkpt lat="46.76554" lon="6.4559"><ele></ele><time>2024-11-24T14:22:14Z</time></trkpt>
<trkpt lat="46.76567" lon="6.45592"><ele></ele><time>2024-11-24T14:22:17Z</time></trkpt>
<trkpt lat="46.76574" lon="6.45593"><ele></ele><time>2024-11-24T14:22:20Z</time></trkpt>
<trkpt lat="46.7658" lon="6.45594"><ele></ele><time>2024-11-24T14:22:23Z</time></trkpt>
<trkpt lat="46.76592" lon="6.45595"><ele></ele><time>2024-11-24T14:22:26Z</time></trkpt>
<trkpt lat="46.76608" lon="6.45598"><ele></ele><time>2024-11-24T14:22:29Z</time></trkpt>
<trkpt lat="46.76614" lon="6.45599"><ele></ele><time>2024-11-24T14:22:32Z</time></trkpt>
<trkpt lat="46.76639" lon="6.45603"><ele></ele><time>2024-11-24T14:22:35Z</time></trkpt>
<trkpt lat="46.76658" lon="6.45605"><ele></ele><time>2024-11-24T14:22:38Z</time></trkpt>
<trkpt lat="46.76674" lon="6.45603"><ele></ele><time>2024-11-24T14:22:41Z</time></trkpt>
<trkpt lat="46.76689" lon="6.45601"><ele></ele><time>2024-11-24T14:22:44Z</time></trkpt>
<trkpt lat="46.76706" lon="6.45596"><ele></ele><time>2024-11-24T14:22:47Z</time></trkpt>
<trkpt lat="46.76711" lon="6.4558"><ele></ele><time>2024-11-24T14:22:50Z</time></trkpt>
<trkpt lat="46.76711" lon="6.45571"><ele></ele><time>2024-11-24T14:22:53Z</time></trkpt>
<trkpt lat="46.7671" lon="6.45561"><ele></ele><time>2024-11-24T14:22:56Z</time></trkpt>
<trkpt lat="46.76708" lon="6.45553"><ele></ele><time>2024-11-24T14:22:59Z</time></trkpt>
<trkpt lat="46.76707" lon="6.45547"><ele></ele><time>2024-11-24T14:23:2Z</time></trkpt>
<trkpt lat="46.76705" lon="6.45542"><ele></ele><time>2024-11-24T14:23:5Z</time></trkpt>
<trkpt lat="46.76702" lon="6.4554"><ele></ele><time>2024-11-24T14:23:8Z</time></trkpt>
<trkpt lat="46.76695" lon="6.45539"><ele></ele><time>2024-11-24T14:23:11Z</time></trkpt>
<trkpt lat="46.76686" lon="6.45537"><ele></ele><time>2024-11-24T14:23:14Z</time></trkpt>
<trkpt lat="46.76666" lon="6.45527"><ele></ele><time>2024-11-24T14:23:17Z</time></trkpt>
<trkpt lat="46.76655" lon="6.45521"><ele></ele><time>2024-11-24T14:23:20Z</time></trkpt>
<trkpt lat="46.76643" lon="6.45514"><ele></ele><time>2024-11-24T14:23:23Z</time></trkpt>
<trkpt lat="46.76638" lon="6.45511"><ele></ele><time>2024-11-24T14:23:26Z</time></trkpt>
<trkpt lat="46.76635" lon="6.45508"><ele></ele><time>2024-11-24T14:23:29Z</time></trkpt>
<trkpt lat="46.76635" lon="6.45508"><ele></ele><time>2024-11-24T14:23:32Z</time></trkpt>
<trkpt lat="46.76637" lon="6.4551"><ele></ele><time>2024-11-24T14:23:35Z</time></trkpt>
<trkpt lat="46.76637" lon="6.4551"><ele></ele><time>2024-11-24T14:23:38Z</time></trkpt>
<trkpt lat="46.76637" lon="6.45509"><ele></ele><time>2024-11-24T14:23:41Z</time></trkpt>
<trkpt lat="46.76635" lon="6.45509"><ele></ele><time>2024-11-24T14:23:44Z</time></trkpt>
<trkpt lat="46.76631" lon="6.45506"><ele></ele><time>2024-11-24T14:23:47Z</time></trkpt>
<trkpt lat="46.76624" lon="6.455"><ele></ele><time>2024-11-24T14:23:50Z</time></trkpt>
<trkpt lat="46.76615" lon="6.45492"><ele></ele><time>2024-11-24T14:23:53Z</time></trkpt>
<trkpt lat="46.76605" lon="6.45484"><ele></ele><time>2024-11-24T14:23:56Z</time></trkpt>
<trkpt lat="46.76593" lon="6.45477"><ele></ele><time>2024-11-24T14:23:59Z</time></trkpt>
<trkpt lat="46.76586" lon="6.45473"><ele></ele><time>2024-11-24T14:24:2Z</time></trkpt>
<trkpt lat="46.76572" lon="6.45462"><ele></ele><time>2024-11-24T14:24:5Z</time></trkpt>
<trkpt lat="46.76557" lon="6.45451"><ele></ele><time>2024-11-24T14:24:8Z</time></trkpt>
<trkpt lat="46.76549" lon="6.45445"><ele></ele><time>2024-11-24T14:24:11Z</time></trkpt>
<trkpt lat="46.76541" lon="6.4544"><ele></ele><time>2024-11-24T14:24:14Z</time></trkpt>
<trkpt lat="46.76524" lon="6.45429"><ele></ele><time>2024-11-24T14:24:17Z</time></trkpt>
<trkpt lat="46.76515" lon="6.45423"><ele></ele><time>2024-11-24T14:24:20Z</time></trkpt>
<trkpt lat="46.76508" lon="6.45417"><ele></ele><time>2024-11-24T14:24:23Z</time></trkpt>
<trkpt lat="46.76501" lon="6.45409"><ele></ele><time>2024-11-24T14:24:26Z</time></trkpt>
<trkpt lat="46.76494" lon="6.45402"><ele></ele><time>2024-11-24T14:24:29Z</time></trkpt>
<trkpt lat="46.7648" lon="6.45389"><ele></ele><time>2024-11-24T14:24:32Z</time></trkpt>
<trkpt lat="46.76473" lon="6.45384"><ele></ele><time>2024-11-24T14:24:35Z</time></trkpt>
<trkpt lat="46.76465" lon="6.45379"><ele></ele><time>2024-11-24T14:24:38Z</time></trkpt>
<trkpt lat="46.76457" lon="6.45374"><ele></ele><time>2024-11-24T14:24:41Z</time></trkpt>
<trkpt lat="46.76449" lon="6.45369"><ele></ele><time>2024-11-24T14:24:44Z</time></trkpt>
<trkpt lat="46.7644" lon="6.45364"><ele></ele><time>2024-11-24T14:24:47Z</time></trkpt>
<trkpt lat="46.76421" lon="6.45355"><ele></ele><time>2024-11-24T14:24:50Z</time></trkpt>
<trkpt lat="46.76411" lon="6.45351"><ele></ele><time>2024-11-24T14:24:53Z</time></trkpt>
<trkpt lat="46.76392" lon="6.45343"><ele></ele><time>2024-11-24T14:24:56Z</time></trkpt>
<trkpt lat="46.76375" lon="6.45338"><ele></ele><time>2024-11-24T14:24:59Z</time></trkpt>
<trkpt lat="46.76366" lon="6.45337"><ele></ele><time>2024-11-24T14:25:2Z</time></trkpt>
<trkpt lat="46.76358" lon="6.45337"><ele></ele><time>2024-11-24T14:25:5Z</time></trkpt>
<trkpt lat="46.76341" lon="6.4534"><ele></ele><time>2024-11-24T14:25:8Z</time></trkpt>
<trkpt lat="46.76325" lon="6.45343"><ele></ele><time>2024-11-24T14:25:11Z</time></trkpt>
<trkpt lat="46.76309" lon="6.45344"><ele></ele><time>2024-11-24T14:25:14Z</time></trkpt>
<trkpt lat="46.76293" lon="6.45341"><ele></ele><time>2024-11-24T14:25:17Z</time></trkpt>
<trkpt lat="46.76285" lon="6.45341"><ele></ele><time>2024-11-24T14:25:20Z</time></trkpt>
<trkpt lat="46.76262" lon="6.4534"><ele></ele><time>2024-11-24T14:25:23Z</time></trkpt>
<trkpt lat="46.76241" lon="6.4534"><ele></ele><time>2024-11-24T14:25:26Z</time></trkpt>
<trkpt lat="46.76216" lon="6.45337"><ele></ele><time>2024-11-24T14:25:29Z</time></trkpt>
<trkpt lat="46.76198" lon="6.45335"><ele></ele><time>2024-11-24T14:25:32Z</time></trkpt>
<trkpt lat="46.76187" lon="6.45334"><ele></ele><time>2024-11-24T14:25:35Z</time></trkpt>
<trkpt lat="46.76172" lon="6.45333"><ele></ele><time>2024-11-24T14:25:38Z</time></trkpt>
<trkpt lat="46.76167" lon="6.45333"><ele></ele><time>2024-11-24T14:25:41Z</time></trkpt>
<trkpt lat="46.76152" lon="6.45336"><ele></ele><time>2024-11-24T14:25:44Z</time></trkpt>
<trkpt lat="46.76142" lon="6.45328"><ele></ele><time>2024-11-24T14:25:47Z</time></trkpt>
<trkpt lat="46.7614" lon="6.45314"><ele></ele><time>2024-11-24T14:25:50Z</time></trkpt>
<trkpt lat="46.7614" lon="6.45309"><ele></ele><time>2024-11-24T14:25:53Z</time></trkpt>
<trkpt lat="46.76141" lon="6.45294"><ele></ele><time>2024-11-24T14:25:56Z</time></trkpt>
<trkpt lat="46.76138" lon="6.45265"><ele></ele><time>2024-11-24T14:25:59Z</time></trkpt>
<trkpt lat="46.76137" lon="6.4525"><ele></ele><time>2024-11-24T14:26:2Z</time></trkpt>
<trkpt lat="46.76137" lon="6.45233"><ele></ele><time>2024-11-24T14:26:5Z</time></trkpt>
<trkpt lat="46.76137" lon="6.45223"><ele></ele><time>2024-11-24T14:26:8Z</time></trkpt>
<trkpt lat="46.76137" lon="6.45213"><ele></ele><time>2024-11-24T14:26:11Z</time></trkpt>
<trkpt lat="46.76138" lon="6.45202"><ele></ele><time>2024-11-24T14:26:14Z</time></trkpt>
<trkpt lat="46.76139" lon="6.45192"><ele></ele><time>2024-11-24T14:26:17Z</time></trkpt>
<trkpt lat="46.76141" lon="6.45181"><ele></ele><time>2024-11-24T14:26:20Z</time></trkpt>
<trkpt lat="46.76145" lon="6.45138"><ele></ele><time>2024-11-24T14:26:23Z</time></trkpt>
<trkpt lat="46.76147" lon="6.45105"><ele></ele><time>2024-11-24T14:26:26Z</time></trkpt>
<trkpt lat="46.76146" lon="6.45094"><ele></ele><time>2024-11-24T14:26:29Z</time></trkpt>
<trkpt lat="46.76141" lon="6.45064"><ele></ele><time>2024-11-24T14:26:32Z</time></trkpt>
<trkpt lat="46.76121" lon="6.44988"><ele></ele><time>2024-11-24T14:26:35Z</time></trkpt>
<trkpt lat="46.76104" lon="6.44953"><ele></ele><time>2024-11-24T14:26:38Z</time></trkpt>
<trkpt lat="46.76094" lon="6.44936"><ele></ele><time>2024-11-24T14:26:41Z</time></trkpt>
<trkpt lat="46.76083" lon="6.44921"><ele></ele><time>2024-11-24T14:26:44Z</time></trkpt>
<trkpt lat="46.7606" lon="6.4489"><ele></ele><time>2024-11-24T14:26:47Z</time></trkpt>
<trkpt lat="46.76053" lon="6.44883"><ele></ele><time>2024-11-24T14:26:50Z</time></trkpt>
<trkpt lat="46.76039" lon="6.4487"><ele></ele><time>2024-11-24T14:26:53Z</time></trkpt>
<trkpt lat="46.76022" lon="6.44864"><ele></ele><time>2024-11-24T14:26:56Z</time></trkpt>
<trkpt lat="46.76013" lon="6.44862"><ele></ele><time>2024-11-24T14:26:59Z</time></trkpt>
<trkpt lat="46.75995" lon="6.4486"><ele></ele><time>2024-11-24T14:27:2Z</time></trkpt>
<trkpt lat="46.75986" lon="6.44858"><ele></ele><time>2024-11-24T14:27:5Z</time></trkpt>
<trkpt lat="46.75977" lon="6.44854"><ele></ele><time>2024-11-24T14:27:8Z</time></trkpt>
<trkpt lat="46.75952" lon="6.44841"><ele></ele><time>2024-11-24T14:27:11Z</time></trkpt>
<trkpt lat="46.75935" lon="6.44833"><ele></ele><time>2024-11-24T14:27:14Z</time></trkpt>
<trkpt lat="46.75926" lon="6.44831"><ele></ele><time>2024-11-24T14:27:17Z</time></trkpt>
<trkpt lat="46.75901" lon="6.44824"><ele></ele><time>2024-11-24T14:27:20Z</time></trkpt>
<trkpt lat="46.75895" lon="6.44817"><ele></ele><time>2024-11-24T14:27:23Z</time></trkpt>
<trkpt lat="46.75893" lon="6.44807"><ele></ele><time>2024-11-24T14:27:26Z</time></trkpt>
<trkpt lat="46.75893" lon="6.44797"><ele></ele><time>2024-11-24T14:27:29Z</time></trkpt>
<trkpt lat="46.75896" lon="6.44789"><ele></ele><time>2024-11-24T14:27:32Z</time></trkpt>
<trkpt lat="46.75901" lon="6.44776"><ele></ele><time>2024-11-24T14:27:35Z</time></trkpt>
<trkpt lat="46.75912" lon="6.44744"><ele></ele><time>2024-11-24T14:27:38Z</time></trkpt>
<trkpt lat="46.75915" lon="6.44736"><ele></ele><time>2024-11-24T14:27:41Z</time></trkpt>
<trkpt lat="46.75919" lon="6.44726"><ele></ele><time>2024-11-24T14:27:44Z</time></trkpt>
<trkpt lat="46.75924" lon="6.44717"><ele></ele><time>2024-11-24T14:27:47Z</time></trkpt>
<trkpt lat="46.75925" lon="6.44716"><ele></ele><time>2024-11-24T14:27:50Z</time></trkpt>
<trkpt lat="46.75935" lon="6.44707"><ele></ele><time>2024-11-24T14:27:53Z</time></trkpt>
<trkpt lat="46.75935" lon="6.44706"><ele></ele><time>2024-11-24T14:27:56Z</time></trkpt>
<trkpt lat="46.75943" lon="6.44704"><ele></ele><time>2024-11-24T14:27:59Z</time></trkpt>
<trkpt lat="46.75945" lon="6.44703"><ele></ele><time>2024-11-24T14:28:2Z</time></trkpt>
<trkpt lat="46.75954" lon="6.447"><ele></ele><time>2024-11-24T14:28:5Z</time></trkpt>
<trkpt lat="46.75954" lon="6.44699"><ele></ele><time>2024-11-24T14:28:8Z</time></trkpt>
<trkpt lat="46.75954" lon="6.44701"><ele></ele><time>2024-11-24T14:28:11Z</time></trkpt>
<trkpt lat="46.75954" lon="6.447"><ele></ele><time>2024-11-24T14:28:14Z</time></trkpt>
<trkpt lat="46.75954" lon="6.447"><ele></ele><time>2024-11-24T14:28:17Z</time></trkpt>
<trkpt lat="46.75954" lon="6.44701"><ele></ele><time>2024-11-24T14:28:20Z</time></trkpt>
<trkpt lat="46.75955" lon="6.44699"><ele></ele><time>2024-11-24T14:28:23Z</time></trkpt>
<trkpt lat="46.75955" lon="6.44698"><ele></ele><time>2024-11-24T14:28:26Z</time></trkpt>
<trkpt lat="46.75955" lon="6.44702"><ele></ele><time>2024-11-24T14:28:29Z</time></trkpt>
<trkpt lat="46.75955" lon="6.44701"><ele></ele><time>2024-11-24T14:28:32Z</time></trkpt>
<trkpt lat="46.75955" lon="6.44701"><ele></ele><time>2024-11-24T14:28:35Z</time></trkpt>
<trkpt lat="46.75955" lon="6.447"><ele></ele><time>2024-11-24T14:28:38Z</time></trkpt>
<trkpt lat="46.75958" lon="6.447"><ele></ele><time>2024-11-24T14:28:41Z</time></trkpt>
<trkpt lat="46.7596" lon="6.447"><ele></ele><time>2024-11-24T14:28:44Z</time></trkpt>
<trkpt lat="46.75955" lon="6.44701"><ele></ele><time>2024-11-24T14:28:47Z</time></trkpt>
<trkpt lat="46.75956" lon="6.44702"><ele></ele><time>2024-11-24T14:28:50Z</time></trkpt>
<trkpt lat="46.75957" lon="6.447"><ele></ele><time>2024-11-24T14:28:53Z</time></trkpt>
<trkpt lat="46.75956" lon="6.447"><ele></ele><time>2024-11-24T14:28:56Z</time></trkpt>
<trkpt lat="46.75956" lon="6.447"><ele></ele><time>2024-11-24T14:28:59Z</time></trkpt>
<trkpt lat="46.75953" lon="6.44699"><ele></ele><time>2024-11-24T14:29:2Z</time></trkpt>
<trkpt lat="46.75955" lon="6.447"><ele></ele><time>2024-11-24T14:29:5Z</time></trkpt>
<trkpt lat="46.75955" lon="6.44699"><ele></ele><time>2024-11-24T14:29:8Z</time></trkpt>
<trkpt lat="46.75955" lon="6.447"><ele></ele><time>2024-11-24T14:29:11Z</time></trkpt>
<trkpt lat="46.75955" lon="6.44701"><ele></ele><time>2024-11-24T14:29:14Z</time></trkpt>
<trkpt lat="46.75956" lon="6.44702"><ele></ele><time>2024-11-24T14:29:17Z</time></trkpt>
<trkpt lat="46.75957" lon="6.44702"><ele></ele><time>2024-11-24T14:29:20Z</time></trkpt>
<trkpt lat="46.75959" lon="6.44703"><ele></ele><time>2024-11-24T14:29:23Z</time></trkpt>
<trkpt lat="46.75965" lon="6.44704"><ele></ele><time>2024-11-24T14:29:26Z</time></trkpt>
<trkpt lat="46.75966" lon="6.44705"><ele></ele><time>2024-11-24T14:29:29Z</time></trkpt>
<trkpt lat="46.75977" lon="6.44705"><ele></ele><time>2024-11-24T14:29:32Z</time></trkpt>
<trkpt lat="46.75983" lon="6.44706"><ele></ele><time>2024-11-24T14:29:35Z</time></trkpt>
<trkpt lat="46.75987" lon="6.44706"><ele></ele><time>2024-11-24T14:29:38Z</time></trkpt>
<trkpt lat="46.75992" lon="6.44705"><ele></ele><time>2024-11-24T14:29:41Z</time></trkpt>
<trkpt lat="46.75993" lon="6.44705"><ele></ele><time>2024-11-24T14:29:44Z</time></trkpt>
<trkpt lat="46.76004" lon="6.44706"><ele></ele><time>2024-11-24T14:29:47Z</time></trkpt>
<trkpt lat="46.76005" lon="6.44706"><ele></ele><time>2024-11-24T14:29:50Z</time></trkpt>
<trkpt lat="46.76013" lon="6.44704"><ele></ele><time>2024-11-24T14:29:53Z</time></trkpt>
<trkpt lat="46.76015" lon="6.44704"><ele></ele><time>2024-11-24T14:29:56Z</time></trkpt>
<trkpt lat="46.76023" lon="6.44701"><ele></ele><time>2024-11-24T14:29:59Z</time></trkpt>
<trkpt lat="46.76025" lon="6.44698"><ele></ele><time>2024-11-24T14:30:2Z</time></trkpt>
<trkpt lat="46.76031" lon="6.4469"><ele></ele><time>2024-11-24T14:30:5Z</time></trkpt>
<trkpt lat="46.76032" lon="6.44686"><ele></ele><time>2024-11-24T14:30:8Z</time></trkpt>
<trkpt lat="46.76033" lon="6.44675"><ele></ele><time>2024-11-24T14:30:11Z</time></trkpt>
<trkpt lat="46.76032" lon="6.44671"><ele></ele><time>2024-11-24T14:30:14Z</time></trkpt>
<trkpt lat="46.76032" lon="6.44664"><ele></ele><time>2024-11-24T14:30:17Z</time></trkpt>
<trkpt lat="46.76031" lon="6.44658"><ele></ele><time>2024-11-24T14:30:20Z</time></trkpt>
<trkpt lat="46.7603" lon="6.44651"><ele></ele><time>2024-11-24T14:30:23Z</time></trkpt>
<trkpt lat="46.76029" lon="6.44644"><ele></ele><time>2024-11-24T14:30:26Z</time></trkpt>
<trkpt lat="46.76026" lon="6.44628"><ele></ele><time>2024-11-24T14:30:29Z</time></trkpt>
<trkpt lat="46.76025" lon="6.44622"><ele></ele><time>2024-11-24T14:30:32Z</time></trkpt>
<trkpt lat="46.76023" lon="6.44615"><ele></ele><time>2024-11-24T14:30:35Z</time></trkpt>
<trkpt lat="46.76018" lon="6.44611"><ele></ele><time>2024-11-24T14:30:38Z</time></trkpt>
<trkpt lat="46.76013" lon="6.44609"><ele></ele><time>2024-11-24T14:30:41Z</time></trkpt>
<trkpt lat="46.76008" lon="6.44608"><ele></ele><time>2024-11-24T14:30:44Z</time></trkpt>
<trkpt lat="46.76001" lon="6.44607"><ele></ele><time>2024-11-24T14:30:47Z</time></trkpt>
<trkpt lat="46.75994" lon="6.44607"><ele></ele><time>2024-11-24T14:30:50Z</time></trkpt>
<trkpt lat="46.75991" lon="6.44608"><ele></ele><time>2024-11-24T14:30:53Z</time></trkpt>
<trkpt lat="46.75984" lon="6.44612"><ele></ele><time>2024-11-24T14:30:56Z</time></trkpt>
<trkpt lat="46.75978" lon="6.44614"><ele></ele><time>2024-11-24T14:30:59Z</time></trkpt>
<trkpt lat="46.75967" lon="6.44619"><ele></ele><time>2024-11-24T14:31:2Z</time></trkpt>
<trkpt lat="46.75962" lon="6.44623"><ele></ele><time>2024-11-24T14:31:5Z</time></trkpt>
<trkpt lat="46.75955" lon="6.44627"><ele></ele><time>2024-11-24T14:31:8Z</time></trkpt>
<trkpt lat="46.75953" lon="6.44627"><ele></ele><time>2024-11-24T14:31:11Z</time></trkpt>
<trkpt lat="46.75946" lon="6.44629"><ele></ele><time>2024-11-24T14:31:14Z</time></trkpt>
<trkpt lat="46.75944" lon="6.44629"><ele></ele><time>2024-11-24T14:31:17Z</time></trkpt>
<trkpt lat="46.75935" lon="6.44629"><ele></ele><time>2024-11-24T14:31:20Z</time></trkpt>
<trkpt lat="46.7593" lon="6.44629"><ele></ele><time>2024-11-24T14:31:23Z</time></trkpt>
<trkpt lat="46.75923" lon="6.44626"><ele></ele><time>2024-11-24T14:31:26Z</time></trkpt>
<trkpt lat="46.75919" lon="6.44622"><ele></ele><time>2024-11-24T14:31:29Z</time></trkpt>
<trkpt lat="46.75917" lon="6.44618"><ele></ele><time>2024-11-24T14:31:32Z</time></trkpt>
<trkpt lat="46.75914" lon="6.44613"><ele></ele><time>2024-11-24T14:31:35Z</time></trkpt>
<trkpt lat="46.7591" lon="6.44606"><ele></ele><time>2024-11-24T14:31:38Z</time></trkpt>
<trkpt lat="46.75909" lon="6.44602"><ele></ele><time>2024-11-24T14:31:41Z</time></trkpt>
<trkpt lat="46.75903" lon="6.44593"><ele></ele><time>2024-11-24T14:31:44Z</time></trkpt>
<trkpt lat="46.75902" lon="6.44591"><ele></ele><time>2024-11-24T14:31:47Z</time></trkpt>
<trkpt lat="46.75894" lon="6.44582"><ele></ele><time>2024-11-24T14:31:50Z</time></trkpt>
<trkpt lat="46.75891" lon="6.44577"><ele></ele><time>2024-11-24T14:31:53Z</time></trkpt>
<trkpt lat="46.75886" lon="6.4457"><ele></ele><time>2024-11-24T14:31:56Z</time></trkpt>
<trkpt lat="46.75885" lon="6.44568"><ele></ele><time>2024-11-24T14:31:59Z</time></trkpt>
<trkpt lat="46.75876" lon="6.44556"><ele></ele><time>2024-11-24T14:32:2Z</time></trkpt>
<trkpt lat="46.75875" lon="6.44554"><ele></ele><time>2024-11-24T14:32:5Z</time></trkpt>
<trkpt lat="46.75869" lon="6.44544"><ele></ele><time>2024-11-24T14:32:8Z</time></trkpt>
<trkpt lat="46.75867" lon="6.44541"><ele></ele><time>2024-11-24T14:32:11Z</time></trkpt>
<trkpt lat="46.75858" lon="6.44529"><ele></ele><time>2024-11-24T14:32:14Z</time></trkpt>
<trkpt lat="46.75852" lon="6.44517"><ele></ele><time>2024-11-24T14:32:17Z</time></trkpt>
<trkpt lat="46.7585" lon="6.4451"><ele></ele><time>2024-11-24T14:32:20Z</time></trkpt>
<trkpt lat="46.75845" lon="6.44502"><ele></ele><time>2024-11-24T14:32:23Z</time></trkpt>
<trkpt lat="46.75843" lon="6.44498"><ele></ele><time>2024-11-24T14:32:26Z</time></trkpt>
<trkpt lat="46.75841" lon="6.44489"><ele></ele><time>2024-11-24T14:32:29Z</time></trkpt>
<trkpt lat="46.75841" lon="6.44479"><ele></ele><time>2024-11-24T14:32:32Z</time></trkpt>
<trkpt lat="46.75842" lon="6.44475"><ele></ele><time>2024-11-24T14:32:35Z</time></trkpt>
<trkpt lat="46.75845" lon="6.44465"><ele></ele><time>2024-11-24T14:32:38Z</time></trkpt>
<trkpt lat="46.75847" lon="6.44459"><ele></ele><time>2024-11-24T14:32:41Z</time></trkpt>
<trkpt lat="46.75852" lon="6.4445"><ele></ele><time>2024-11-24T14:32:44Z</time></trkpt>
<trkpt lat="46.75855" lon="6.44443"><ele></ele><time>2024-11-24T14:32:47Z</time></trkpt>
<trkpt lat="46.7586" lon="6.44435"><ele></ele><time>2024-11-24T14:32:50Z</time></trkpt>
<trkpt lat="46.75861" lon="6.44432"><ele></ele><time>2024-11-24T14:32:53Z</time></trkpt>
<trkpt lat="46.75863" lon="6.44429"><ele></ele><time>2024-11-24T14:32:56Z</time></trkpt>
<trkpt lat="46.75867" lon="6.44421"><ele></ele><time>2024-11-24T14:32:59Z</time></trkpt>
<trkpt lat="46.7587" lon="6.44416"><ele></ele><time>2024-11-24T14:33:2Z</time></trkpt>
<trkpt lat="46.75874" lon="6.4441"><ele></ele><time>2024-11-24T14:33:5Z</time></trkpt>
<trkpt lat="46.75876" lon="6.44408"><ele></ele><time>2024-11-24T14:33:8Z</time></trkpt>
<trkpt lat="46.75882" lon="6.44397"><ele></ele><time>2024-11-24T14:33:11Z</time></trkpt>
<trkpt lat="46.75883" lon="6.44392"><ele></ele><time>2024-11-24T14:33:14Z</time></trkpt>
<trkpt lat="46.75886" lon="6.44382"><ele></ele><time>2024-11-24T14:33:17Z</time></trkpt>
<trkpt lat="46.75888" lon="6.44371"><ele></ele><time>2024-11-24T14:33:20Z</time></trkpt>
<trkpt lat="46.75888" lon="6.44362"><ele></ele><time>2024-11-24T14:33:23Z</time></trkpt>
<trkpt lat="46.75885" lon="6.44345"><ele></ele><time>2024-11-24T14:33:26Z</time></trkpt>
<trkpt lat="46.75879" lon="6.44329"><ele></ele><time>2024-11-24T14:33:29Z</time></trkpt>
<trkpt lat="46.7587" lon="6.44318"><ele></ele><time>2024-11-24T14:33:32Z</time></trkpt>
<trkpt lat="46.75868" lon="6.44317"><ele></ele><time>2024-11-24T14:33:35Z</time></trkpt>
<trkpt lat="46.75854" lon="6.44316"><ele></ele><time>2024-11-24T14:33:38Z</time></trkpt>
<trkpt lat="46.75838" lon="6.44322"><ele></ele><time>2024-11-24T14:33:41Z</time></trkpt>
<trkpt lat="46.75836" lon="6.44323"><ele></ele><time>2024-11-24T14:33:44Z</time></trkpt>
<trkpt lat="46.75818" lon="6.44329"><ele></ele><time>2024-11-24T14:33:47Z</time></trkpt>
<trkpt lat="46.75804" lon="6.44333"><ele></ele><time>2024-11-24T14:33:50Z</time></trkpt>
<trkpt lat="46.75792" lon="6.44335"><ele></ele><time>2024-11-24T14:33:53Z</time></trkpt>
<trkpt lat="46.75791" lon="6.44335"><ele></ele><time>2024-11-24T14:33:56Z</time></trkpt>
<trkpt lat="46.75788" lon="6.44332"><ele></ele><time>2024-11-24T14:33:59Z</time></trkpt>
<trkpt lat="46.75782" lon="6.44324"><ele></ele><time>2024-11-24T14:34:2Z</time></trkpt>
<trkpt lat="46.75779" lon="6.44317"><ele></ele><time>2024-11-24T14:34:5Z</time></trkpt>
<trkpt lat="46.75779" lon="6.44315"><ele></ele><time>2024-11-24T14:34:8Z</time></trkpt>
<trkpt lat="46.75778" lon="6.4431"><ele></ele><time>2024-11-24T14:34:11Z</time></trkpt>
<trkpt lat="46.75777" lon="6.44304"><ele></ele><time>2024-11-24T14:34:14Z</time></trkpt>
<trkpt lat="46.75777" lon="6.4429"><ele></ele><time>2024-11-24T14:34:17Z</time></trkpt>
<trkpt lat="46.75777" lon="6.44284"><ele></ele><time>2024-11-24T14:34:20Z</time></trkpt>
<trkpt lat="46.75776" lon="6.44278"><ele></ele><time>2024-11-24T14:34:23Z</time></trkpt>
<trkpt lat="46.75775" lon="6.44265"><ele></ele><time>2024-11-24T14:34:26Z</time></trkpt>
<trkpt lat="46.75775" lon="6.44251"><ele></ele><time>2024-11-24T14:34:29Z</time></trkpt>
<trkpt lat="46.75774" lon="6.44237"><ele></ele><time>2024-11-24T14:34:32Z</time></trkpt>
<trkpt lat="46.75774" lon="6.44233"><ele></ele><time>2024-11-24T14:34:35Z</time></trkpt>
<trkpt lat="46.75773" lon="6.44222"><ele></ele><time>2024-11-24T14:34:38Z</time></trkpt>
<trkpt lat="46.75771" lon="6.44214"><ele></ele><time>2024-11-24T14:34:41Z</time></trkpt>
<trkpt lat="46.75768" lon="6.44207"><ele></ele><time>2024-11-24T14:34:44Z</time></trkpt>
<trkpt lat="46.75758" lon="6.44196"><ele></ele><time>2024-11-24T14:34:47Z</time></trkpt>
<trkpt lat="46.75753" lon="6.44192"><ele></ele><time>2024-11-24T14:34:50Z</time></trkpt>
<trkpt lat="46.75744" lon="6.44187"><ele></ele><time>2024-11-24T14:34:53Z</time></trkpt>
<trkpt lat="46.75727" lon="6.44173"><ele></ele><time>2024-11-24T14:34:56Z</time></trkpt>
<trkpt lat="46.75718" lon="6.44156"><ele></ele><time>2024-11-24T14:34:59Z</time></trkpt>
<trkpt lat="46.75714" lon="6.44143"><ele></ele><time>2024-11-24T14:35:2Z</time></trkpt>
<trkpt lat="46.75712" lon="6.44137"><ele></ele><time>2024-11-24T14:35:5Z</time></trkpt>
<trkpt lat="46.75706" lon="6.44114"><ele></ele><time>2024-11-24T14:35:8Z</time></trkpt>
<trkpt lat="46.75703" lon="6.44103"><ele></ele><time>2024-11-24T14:35:11Z</time></trkpt>
<trkpt lat="46.75699" lon="6.44087"><ele></ele><time>2024-11-24T14:35:14Z</time></trkpt>
<trkpt lat="46.75693" lon="6.44063"><ele></ele><time>2024-11-24T14:35:17Z</time></trkpt>
<trkpt lat="46.75692" lon="6.44052"><ele></ele><time>2024-11-24T14:35:20Z</time></trkpt>
<trkpt lat="46.75691" lon="6.44035"><ele></ele><time>2024-11-24T14:35:23Z</time></trkpt>
<trkpt lat="46.75692" lon="6.44009"><ele></ele><time>2024-11-24T14:35:26Z</time></trkpt>
<trkpt lat="46.75701" lon="6.43979"><ele></ele><time>2024-11-24T14:35:29Z</time></trkpt>
<trkpt lat="46.75716" lon="6.43939"><ele></ele><time>2024-11-24T14:35:32Z</time></trkpt>
<trkpt lat="46.75718" lon="6.43918"><ele></ele><time>2024-11-24T14:35:35Z</time></trkpt>
<trkpt lat="46.75717" lon="6.43915"><ele></ele><time>2024-11-24T14:35:38Z</time></trkpt>
<trkpt lat="46.75714" lon="6.43899"><ele></ele><time>2024-11-24T14:35:41Z</time></trkpt>
<trkpt lat="46.75714" lon="6.43897"><ele></ele><time>2024-11-24T14:35:44Z</time></trkpt>
<trkpt lat="46.75711" lon="6.43873"><ele></ele><time>2024-11-24T14:35:47Z</time></trkpt>
<trkpt lat="46.75712" lon="6.43838"><ele></ele><time>2024-11-24T14:35:50Z</time></trkpt>
<trkpt lat="46.75715" lon="6.43821"><ele></ele><time>2024-11-24T14:35:53Z</time></trkpt>
<trkpt lat="46.7572" lon="6.43806"><ele></ele><time>2024-11-24T14:35:56Z</time></trkpt>
<trkpt lat="46.75732" lon="6.4379"><ele></ele><time>2024-11-24T14:35:59Z</time></trkpt>
<trkpt lat="46.7574" lon="6.43783"><ele></ele><time>2024-11-24T14:36:2Z</time></trkpt>
<trkpt lat="46.7575" lon="6.4377"><ele></ele><time>2024-11-24T14:36:5Z</time></trkpt>
<trkpt lat="46.75753" lon="6.43757"><ele></ele><time>2024-11-24T14:36:8Z</time></trkpt>
<trkpt lat="46.75753" lon="6.43755"><ele></ele><time>2024-11-24T14:36:11Z</time></trkpt>
<trkpt lat="46.75757" lon="6.4374"><ele></ele><time>2024-11-24T14:36:14Z</time></trkpt>
<trkpt lat="46.75757" lon="6.43738"><ele></ele><time>2024-11-24T14:36:17Z</time></trkpt>
<trkpt lat="46.75759" lon="6.43722"><ele></ele><time>2024-11-24T14:36:20Z</time></trkpt>
<trkpt lat="46.75759" lon="6.43719"><ele></ele><time>2024-11-24T14:36:23Z</time></trkpt>
<trkpt lat="46.75762" lon="6.43699"><ele></ele><time>2024-11-24T14:36:26Z</time></trkpt>
<trkpt lat="46.75763" lon="6.43696"><ele></ele><time>2024-11-24T14:36:29Z</time></trkpt>
<trkpt lat="46.75771" lon="6.43678"><ele></ele><time>2024-11-24T14:36:32Z</time></trkpt>
<trkpt lat="46.75771" lon="6.43679"><ele></ele><time>2024-11-24T14:36:35Z</time></trkpt>
<trkpt lat="46.7577" lon="6.43679"><ele></ele><time>2024-11-24T14:36:38Z</time></trkpt>
<trkpt lat="46.7577" lon="6.43679"><ele></ele><time>2024-11-24T14:36:41Z</time></trkpt>
<trkpt lat="46.7577" lon="6.43679"><ele></ele><time>2024-11-24T14:36:44Z</time></trkpt>
<trkpt lat="46.7577" lon="6.43679"><ele></ele><time>2024-11-24T14:36:47Z</time></trkpt>
<trkpt lat="46.7577" lon="6.43679"><ele></ele><time>2024-11-24T14:36:50Z</time></trkpt>
<trkpt lat="46.7577" lon="6.4368"><ele></ele><time>2024-11-24T14:36:53Z</time></trkpt>
<trkpt lat="46.7577" lon="6.43679"><ele></ele><time>2024-11-24T14:36:56Z</time></trkpt>
<trkpt lat="46.7577" lon="6.4368"><ele></ele><time>2024-11-24T14:36:59Z</time></trkpt>
<trkpt lat="46.7577" lon="6.4368"><ele></ele><time>2024-11-24T14:37:2Z</time></trkpt>
<trkpt lat="46.7577" lon="6.43679"><ele></ele><time>2024-11-24T14:37:5Z</time></trkpt>
<trkpt lat="46.75769" lon="6.4368"><ele></ele><time>2024-11-24T14:37:8Z</time></trkpt>
<trkpt lat="46.7577" lon="6.43679"><ele></ele><time>2024-11-24T14:37:11Z</time></trkpt>
<trkpt lat="46.7577" lon="6.4368"><ele></ele><time>2024-11-24T14:37:14Z</time></trkpt>
<trkpt lat="46.7577" lon="6.43681"><ele></ele><time>2024-11-24T14:37:17Z</time></trkpt>
<trkpt lat="46.7577" lon="6.43681"><ele></ele><time>2024-11-24T14:37:20Z</time></trkpt>
<trkpt lat="46.7577" lon="6.43679"><ele></ele><time>2024-11-24T14:37:23Z</time></trkpt>
<trkpt lat="46.7577" lon="6.43679"><ele></ele><time>2024-11-24T14:37:26Z</time></trkpt>
<trkpt lat="46.7577" lon="6.43679"><ele></ele><time>2024-11-24T14:37:29Z</time></trkpt>
<trkpt lat="46.7577" lon="6.43679"><ele></ele><time>2024-11-24T14:37:32Z</time></trkpt>
<trkpt lat="46.75771" lon="6.43681"><ele></ele><time>2024-11-24T14:37:35Z</time></trkpt>
<trkpt lat="46.75771" lon="6.43681"><ele></ele><time>2024-11-24T14:37:38Z</time></trkpt>
<trkpt lat="46.7577" lon="6.4368"><ele></ele><time>2024-11-24T14:37:41Z</time></trkpt>
<trkpt lat="46.7577" lon="6.4368"><ele></ele><time>2024-11-24T14:37:44Z</time></trkpt>
<trkpt lat="46.7577" lon="6.43671"><ele></ele><time>2024-11-24T14:37:47Z</time></trkpt>
<trkpt lat="46.75769" lon="6.43654"><ele></ele><time>2024-11-24T14:37:50Z</time></trkpt>
<trkpt lat="46.75766" lon="6.43649"><ele></ele><time>2024-11-24T14:37:53Z</time></trkpt>
<trkpt lat="46.75762" lon="6.43644"><ele></ele><time>2024-11-24T14:37:56Z</time></trkpt>
<trkpt lat="46.75752" lon="6.43635"><ele></ele><time>2024-11-24T14:37:59Z</time></trkpt>
<trkpt lat="46.75729" lon="6.43608"><ele></ele><time>2024-11-24T14:38:2Z</time></trkpt>
<trkpt lat="46.75714" lon="6.43591"><ele></ele><time>2024-11-24T14:38:5Z</time></trkpt>
<trkpt lat="46.75705" lon="6.43586"><ele></ele><time>2024-11-24T14:38:8Z</time></trkpt>
<trkpt lat="46.75695" lon="6.43584"><ele></ele><time>2024-11-24T14:38:11Z</time></trkpt>
<trkpt lat="46.75684" lon="6.43584"><ele></ele><time>2024-11-24T14:38:14Z</time></trkpt>
<trkpt lat="46.75674" lon="6.43583"><ele></ele><time>2024-11-24T14:38:17Z</time></trkpt>
<trkpt lat="46.75665" lon="6.43579"><ele></ele><time>2024-11-24T14:38:20Z</time></trkpt>
<trkpt lat="46.75656" lon="6.43574"><ele></ele><time>2024-11-24T14:38:23Z</time></trkpt>
<trkpt lat="46.75649" lon="6.43567"><ele></ele><time>2024-11-24T14:38:26Z</time></trkpt>
<trkpt lat="46.75642" lon="6.43558"><ele></ele><time>2024-11-24T14:38:29Z</time></trkpt>
<trkpt lat="46.75636" lon="6.43548"><ele></ele><time>2024-11-24T14:38:32Z</time></trkpt>
<trkpt lat="46.75632" lon="6.43537"><ele></ele><time>2024-11-24T14:38:35Z</time></trkpt>
<trkpt lat="46.75628" lon="6.43524"><ele></ele><time>2024-11-24T14:38:38Z</time></trkpt>
<trkpt lat="46.75624" lon="6.4351"><ele></ele><time>2024-11-24T14:38:41Z</time></trkpt>
<trkpt lat="46.7562" lon="6.43496"><ele></ele><time>2024-11-24T14:38:44Z</time></trkpt>
<trkpt lat="46.75613" lon="6.43464"><ele></ele><time>2024-11-24T14:38:47Z</time></trkpt>
<trkpt lat="46.75609" lon="6.43448"><ele></ele><time>2024-11-24T14:38:50Z</time></trkpt>
<trkpt lat="46.75601" lon="6.43415"><ele></ele><time>2024-11-24T14:38:53Z</time></trkpt>
<trkpt lat="46.75596" lon="6.43398"><ele></ele><time>2024-11-24T14:38:56Z</time></trkpt>
<trkpt lat="46.75593" lon="6.4338"><ele></ele><time>2024-11-24T14:38:59Z</time></trkpt>
<trkpt lat="46.75591" lon="6.43363"><ele></ele><time>2024-11-24T14:39:2Z</time></trkpt>
<trkpt lat="46.75589" lon="6.43344"><ele></ele><time>2024-11-24T14:39:5Z</time></trkpt>
<trkpt lat="46.75588" lon="6.43327"><ele></ele><time>2024-11-24T14:39:8Z</time></trkpt>
<trkpt lat="46.75586" lon="6.4331"><ele></ele><time>2024-11-24T14:39:11Z</time></trkpt>
<trkpt lat="46.75583" lon="6.43295"><ele></ele><time>2024-11-24T14:39:14Z</time></trkpt>
<trkpt lat="46.75578" lon="6.43282"><ele></ele><time>2024-11-24T14:39:17Z</time></trkpt>
<trkpt lat="46.7557" lon="6.4327"><ele></ele><time>2024-11-24T14:39:20Z</time></trkpt>
<trkpt lat="46.75562" lon="6.4326"><ele></ele><time>2024-11-24T14:39:23Z</time></trkpt>
<trkpt lat="46.75546" lon="6.43238"><ele></ele><time>2024-11-24T14:39:26Z</time></trkpt>
<trkpt lat="46.75539" lon="6.43229"><ele></ele><time>2024-11-24T14:39:29Z</time></trkpt>
<trkpt lat="46.75533" lon="6.43222"><ele></ele><time>2024-11-24T14:39:32Z</time></trkpt>
<trkpt lat="46.75525" lon="6.43219"><ele></ele><time>2024-11-24T14:39:35Z</time></trkpt>
<trkpt lat="46.75516" lon="6.43219"><ele></ele><time>2024-11-24T14:39:38Z</time></trkpt>
<trkpt lat="46.75508" lon="6.43219"><ele></ele><time>2024-11-24T14:39:41Z</time></trkpt>
<trkpt lat="46.755" lon="6.43216"><ele></ele><time>2024-11-24T14:39:44Z</time></trkpt>
<trkpt lat="46.75493" lon="6.43212"><ele></ele><time>2024-11-24T14:39:47Z</time></trkpt>
<trkpt lat="46.75487" lon="6.43206"><ele></ele><time>2024-11-24T14:39:50Z</time></trkpt>
<trkpt lat="46.75481" lon="6.43198"><ele></ele><time>2024-11-24T14:39:53Z</time></trkpt>
<trkpt lat="46.75477" lon="6.43188"><ele></ele><time>2024-11-24T14:39:56Z</time></trkpt>
<trkpt lat="46.75473" lon="6.43177"><ele></ele><time>2024-11-24T14:39:59Z</time></trkpt>
<trkpt lat="46.7547" lon="6.43165"><ele></ele><time>2024-11-24T14:40:2Z</time></trkpt>
<trkpt lat="46.75468" lon="6.43152"><ele></ele><time>2024-11-24T14:40:5Z</time></trkpt>
<trkpt lat="46.75466" lon="6.43138"><ele></ele><time>2024-11-24T14:40:8Z</time></trkpt>
<trkpt lat="46.75463" lon="6.43123"><ele></ele><time>2024-11-24T14:40:11Z</time></trkpt>
<trkpt lat="46.75461" lon="6.43108"><ele></ele><time>2024-11-24T14:40:14Z</time></trkpt>
<trkpt lat="46.75459" lon="6.43093"><ele></ele><time>2024-11-24T14:40:17Z</time></trkpt>
<trkpt lat="46.75458" lon="6.43079"><ele></ele><time>2024-11-24T14:40:20Z</time></trkpt>
<trkpt lat="46.75455" lon="6.43065"><ele></ele><time>2024-11-24T14:40:23Z</time></trkpt>
<trkpt lat="46.75451" lon="6.43054"><ele></ele><time>2024-11-24T14:40:26Z</time></trkpt>
<trkpt lat="46.75439" lon="6.4304"><ele></ele><time>2024-11-24T14:40:29Z</time></trkpt>
<trkpt lat="46.75431" lon="6.43037"><ele></ele><time>2024-11-24T14:40:32Z</time></trkpt>
<trkpt lat="46.75425" lon="6.43034"><ele></ele><time>2024-11-24T14:40:35Z</time></trkpt>
<trkpt lat="46.75421" lon="6.43029"><ele></ele><time>2024-11-24T14:40:38Z</time></trkpt>
<trkpt lat="46.75419" lon="6.43025"><ele></ele><time>2024-11-24T14:40:41Z</time></trkpt>
<trkpt lat="46.75416" lon="6.43014"><ele></ele><time>2024-11-24T14:40:44Z</time></trkpt>
<trkpt lat="46.75415" lon="6.42991"><ele></ele><time>2024-11-24T14:40:47Z</time></trkpt>
<trkpt lat="46.75413" lon="6.42973"><ele></ele><time>2024-11-24T14:40:50Z</time></trkpt>
<trkpt lat="46.7541" lon="6.42953"><ele></ele><time>2024-11-24T14:40:53Z</time></trkpt>
<trkpt lat="46.75409" lon="6.42942"><ele></ele><time>2024-11-24T14:40:56Z</time></trkpt>
<trkpt lat="46.75408" lon="6.42931"><ele></ele><time>2024-11-24T14:40:59Z</time></trkpt>
<trkpt lat="46.75407" lon="6.4292"><ele></ele><time>2024-11-24T14:41:2Z</time></trkpt>
<trkpt lat="46.75405" lon="6.42902"><ele></ele><time>2024-11-24T14:41:5Z</time></trkpt>
<trkpt lat="46.75404" lon="6.42894"><ele></ele><time>2024-11-24T14:41:8Z</time></trkpt>
<trkpt lat="46.75403" lon="6.42889"><ele></ele><time>2024-11-24T14:41:11Z</time></trkpt>
<trkpt lat="46.75401" lon="6.4288"><ele></ele><time>2024-11-24T14:41:14Z</time></trkpt>
<trkpt lat="46.75401" lon="6.42877"><ele></ele><time>2024-11-24T14:41:17Z</time></trkpt>
<trkpt lat="46.75401" lon="6.42877"><ele></ele><time>2024-11-24T14:41:20Z</time></trkpt>
<trkpt lat="46.75401" lon="6.42877"><ele></ele><time>2024-11-24T14:41:23Z</time></trkpt>
<trkpt lat="46.75401" lon="6.42878"><ele></ele><time>2024-11-24T14:41:26Z</time></trkpt>
<trkpt lat="46.75401" lon="6.42877"><ele></ele><time>2024-11-24T14:41:29Z</time></trkpt>
<trkpt lat="46.75401" lon="6.42878"><ele></ele><time>2024-11-24T14:41:32Z</time></trkpt>
<trkpt lat="46.75401" lon="6.42878"><ele></ele><time>2024-11-24T14:41:35Z</time></trkpt>
<trkpt lat="46.75401" lon="6.42878"><ele></ele><time>2024-11-24T14:41:38Z</time></trkpt>
<trkpt lat="46.75399" lon="6.42876"><ele></ele><time>2024-11-24T14:41:41Z</time></trkpt>
<trkpt lat="46.75399" lon="6.42875"><ele></ele><time>2024-11-24T14:41:44Z</time></trkpt>
<trkpt lat="46.75399" lon="6.42875"><ele></ele><time>2024-11-24T14:41:47Z</time></trkpt>
<trkpt lat="46.754" lon="6.42874"><ele></ele><time>2024-11-24T14:41:50Z</time></trkpt>
<trkpt lat="46.75399" lon="6.42875"><ele></ele><time>2024-11-24T14:41:53Z</time></trkpt>
<trkpt lat="46.75399" lon="6.42875"><ele></ele><time>2024-11-24T14:41:56Z</time></trkpt>
<trkpt lat="46.75399" lon="6.42875"><ele></ele><time>2024-11-24T14:41:59Z</time></trkpt>
<trkpt lat="46.754" lon="6.42874"><ele></ele><time>2024-11-24T14:42:2Z</time></trkpt>
<trkpt lat="46.754" lon="6.42875"><ele></ele><time>2024-11-24T14:42:5Z</time></trkpt>
<trkpt lat="46.75399" lon="6.42875"><ele></ele><time>2024-11-24T14:42:8Z</time></trkpt>
<trkpt lat="46.754" lon="6.42875"><ele></ele><time>2024-11-24T14:42:11Z</time></trkpt>
<trkpt lat="46.754" lon="6.42877"><ele></ele><time>2024-11-24T14:42:14Z</time></trkpt>
<trkpt lat="46.754" lon="6.42877"><ele></ele><time>2024-11-24T14:42:17Z</time></trkpt>
<trkpt lat="46.75401" lon="6.42879"><ele></ele><time>2024-11-24T14:42:20Z</time></trkpt>
<trkpt lat="46.75401" lon="6.42879"><ele></ele><time>2024-11-24T14:42:23Z</time></trkpt>
<trkpt lat="46.75403" lon="6.4288"><ele></ele><time>2024-11-24T14:42:26Z</time></trkpt>
<trkpt lat="46.75404" lon="6.42879"><ele></ele><time>2024-11-24T14:42:29Z</time></trkpt>
<trkpt lat="46.75404" lon="6.42879"><ele></ele><time>2024-11-24T14:42:32Z</time></trkpt>
<trkpt lat="46.75404" lon="6.42879"><ele></ele><time>2024-11-24T14:42:35Z</time></trkpt>
<trkpt lat="46.75402" lon="6.4288"><ele></ele><time>2024-11-24T14:42:38Z</time></trkpt>
<trkpt lat="46.75401" lon="6.4288"><ele></ele><time>2024-11-24T14:42:41Z</time></trkpt>
<trkpt lat="46.754" lon="6.4288"><ele></ele><time>2024-11-24T14:42:44Z</time></trkpt>
<trkpt lat="46.754" lon="6.42881"><ele></ele><time>2024-11-24T14:42:47Z</time></trkpt>
<trkpt lat="46.75401" lon="6.42882"><ele></ele><time>2024-11-24T14:42:50Z</time></trkpt>
<trkpt lat="46.75401" lon="6.42883"><ele></ele><time>2024-11-24T14:42:53Z</time></trkpt>
<trkpt lat="46.75403" lon="6.42896"><ele></ele><time>2024-11-24T14:42:56Z</time></trkpt>
<trkpt lat="46.75405" lon="6.42913"><ele></ele><time>2024-11-24T14:42:59Z</time></trkpt>
<trkpt lat="46.75406" lon="6.42922"><ele></ele><time>2024-11-24T14:43:2Z</time></trkpt>
<trkpt lat="46.75406" lon="6.42931"><ele></ele><time>2024-11-24T14:43:5Z</time></trkpt>
<trkpt lat="46.75407" lon="6.42941"><ele></ele><time>2024-11-24T14:43:8Z</time></trkpt>
<trkpt lat="46.75408" lon="6.42941"><ele></ele><time>2024-11-24T14:43:11Z</time></trkpt>
<trkpt lat="46.75408" lon="6.4294"><ele></ele><time>2024-11-24T14:43:14Z</time></trkpt>
<trkpt lat="46.75408" lon="6.42926"><ele></ele><time>2024-11-24T14:43:17Z</time></trkpt>
<trkpt lat="46.75405" lon="6.42897"><ele></ele><time>2024-11-24T14:43:20Z</time></trkpt>
<trkpt lat="46.75403" lon="6.42886"><ele></ele><time>2024-11-24T14:43:23Z</time></trkpt>
<trkpt lat="46.75399" lon="6.42875"><ele></ele><time>2024-11-24T14:43:26Z</time></trkpt>
<trkpt lat="46.75395" lon="6.42866"><ele></ele><time>2024-11-24T14:43:29Z</time></trkpt>
<trkpt lat="46.75392" lon="6.42859"><ele></ele><time>2024-11-24T14:43:32Z</time></trkpt>
<trkpt lat="46.7539" lon="6.42855"><ele></ele><time>2024-11-24T14:43:35Z</time></trkpt>
<trkpt lat="46.75388" lon="6.42855"><ele></ele><time>2024-11-24T14:43:38Z</time></trkpt>
<trkpt lat="46.75387" lon="6.42855"><ele></ele><time>2024-11-24T14:43:41Z</time></trkpt>
<trkpt lat="46.75388" lon="6.42856"><ele></ele><time>2024-11-24T14:43:44Z</time></trkpt>
<trkpt lat="46.75388" lon="6.42857"><ele></ele><time>2024-11-24T14:43:47Z</time></trkpt>
<trkpt lat="46.75396" lon="6.42867"><ele></ele><time>2024-11-24T14:43:50Z</time></trkpt>
<trkpt lat="46.754" lon="6.42877"><ele></ele><time>2024-11-24T14:43:53Z</time></trkpt>
<trkpt lat="46.75402" lon="6.42882"><ele></ele><time>2024-11-24T14:43:56Z</time></trkpt>
<trkpt lat="46.75401" lon="6.42881"><ele></ele><time>2024-11-24T14:43:59Z</time></trkpt>
<trkpt lat="46.75403" lon="6.42879"><ele></ele><time>2024-11-24T14:44:2Z</time></trkpt>
<trkpt lat="46.75403" lon="6.42879"><ele></ele><time>2024-11-24T14:44:5Z</time></trkpt>
<trkpt lat="46.75402" lon="6.42881"><ele></ele><time>2024-11-24T14:44:8Z</time></trkpt>
<trkpt lat="46.75402" lon="6.4288"><ele></ele><time>2024-11-24T14:44:11Z</time></trkpt>
<trkpt lat="46.75401" lon="6.42882"><ele></ele><time>2024-11-24T14:44:14Z</time></trkpt>
<trkpt lat="46.754" lon="6.42881"><ele></ele><time>2024-11-24T14:44:17Z</time></trkpt>
<trkpt lat="46.754" lon="6.42881"><ele></ele><time>2024-11-24T14:44:20Z</time></trkpt>
<trkpt lat="46.75399" lon="6.42875"><ele></ele><time>2024-11-24T14:44:23Z</time></trkpt>
<trkpt lat="46.75391" lon="6.42859"><ele></ele><time>2024-11-24T14:44:26Z</time></trkpt>
<trkpt lat="46.75388" lon="6.42853"><ele></ele><time>2024-11-24T14:44:29Z</time></trkpt>
<trkpt lat="46.75384" lon="6.42847"><ele></ele><time>2024-11-24T14:44:32Z</time></trkpt>
<trkpt lat="46.7538" lon="6.42841"><ele></ele><time>2024-11-24T14:44:35Z</time></trkpt>
<trkpt lat="46.75376" lon="6.42834"><ele></ele><time>2024-11-24T14:44:38Z</time></trkpt>
<trkpt lat="46.75366" lon="6.42819"><ele></ele><time>2024-11-24T14:44:41Z</time></trkpt>
<trkpt lat="46.75361" lon="6.42811"><ele></ele><time>2024-11-24T14:44:44Z</time></trkpt>
<trkpt lat="46.75348" lon="6.42793"><ele></ele><time>2024-11-24T14:44:47Z</time></trkpt>
<trkpt lat="46.75336" lon="6.42773"><ele></ele><time>2024-11-24T14:44:50Z</time></trkpt>
<trkpt lat="46.75329" lon="6.42763"><ele></ele><time>2024-11-24T14:44:53Z</time></trkpt>
<trkpt lat="46.75317" lon="6.42746"><ele></ele><time>2024-11-24T14:44:56Z</time></trkpt>
<trkpt lat="46.75312" lon="6.42737"><ele></ele><time>2024-11-24T14:44:59Z</time></trkpt>
<trkpt lat="46.75301" lon="6.42721"><ele></ele><time>2024-11-24T14:45:2Z</time></trkpt>
<trkpt lat="46.75291" lon="6.42706"><ele></ele><time>2024-11-24T14:45:5Z</time></trkpt>
<trkpt lat="46.75287" lon="6.42697"><ele></ele><time>2024-11-24T14:45:8Z</time></trkpt>
<trkpt lat="46.75283" lon="6.42688"><ele></ele><time>2024-11-24T14:45:11Z</time></trkpt>
<trkpt lat="46.75274" lon="6.42657"><ele></ele><time>2024-11-24T14:45:14Z</time></trkpt>
<trkpt lat="46.75273" lon="6.42646"><ele></ele><time>2024-11-24T14:45:17Z</time></trkpt>
<trkpt lat="46.75271" lon="6.42634"><ele></ele><time>2024-11-24T14:45:20Z</time></trkpt>
<trkpt lat="46.75271" lon="6.42611"><ele></ele><time>2024-11-24T14:45:23Z</time></trkpt>
<trkpt lat="46.75272" lon="6.42588"><ele></ele><time>2024-11-24T14:45:26Z</time></trkpt>
<trkpt lat="46.75273" lon="6.42577"><ele></ele><time>2024-11-24T14:45:29Z</time></trkpt>
<trkpt lat="46.75273" lon="6.42566"><ele></ele><time>2024-11-24T14:45:32Z</time></trkpt>
<trkpt lat="46.75273" lon="6.42543"><ele></ele><time>2024-11-24T14:45:35Z</time></trkpt>
<trkpt lat="46.75275" lon="6.42521"><ele></ele><time>2024-11-24T14:45:38Z</time></trkpt>
<trkpt lat="46.75277" lon="6.4251"><ele></ele><time>2024-11-24T14:45:41Z</time></trkpt>
<trkpt lat="46.7528" lon="6.425"><ele></ele><time>2024-11-24T14:45:44Z</time></trkpt>
<trkpt lat="46.75283" lon="6.42491"><ele></ele><time>2024-11-24T14:45:47Z</time></trkpt>
<trkpt lat="46.75287" lon="6.42482"><ele></ele><time>2024-11-24T14:45:50Z</time></trkpt>
<trkpt lat="46.75296" lon="6.42465"><ele></ele><time>2024-11-24T14:45:53Z</time></trkpt>
<trkpt lat="46.75307" lon="6.42449"><ele></ele><time>2024-11-24T14:45:56Z</time></trkpt>
<trkpt lat="46.75312" lon="6.42439"><ele></ele><time>2024-11-24T14:45:59Z</time></trkpt>
<trkpt lat="46.75318" lon="6.42428"><ele></ele><time>2024-11-24T14:46:2Z</time></trkpt>
<trkpt lat="46.75324" lon="6.42417"><ele></ele><time>2024-11-24T14:46:5Z</time></trkpt>
<trkpt lat="46.75336" lon="6.42393"><ele></ele><time>2024-11-24T14:46:8Z</time></trkpt>
<trkpt lat="46.7535" lon="6.42369"><ele></ele><time>2024-11-24T14:46:11Z</time></trkpt>
<trkpt lat="46.75355" lon="6.42357"><ele></ele><time>2024-11-24T14:46:14Z</time></trkpt>
<trkpt lat="46.75358" lon="6.42342"><ele></ele><time>2024-11-24T14:46:17Z</time></trkpt>
<trkpt lat="46.75359" lon="6.42328"><ele></ele><time>2024-11-24T14:46:20Z</time></trkpt>
<trkpt lat="46.75357" lon="6.42314"><ele></ele><time>2024-11-24T14:46:23Z</time></trkpt>
<trkpt lat="46.75353" lon="6.423"><ele></ele><time>2024-11-24T14:46:26Z</time></trkpt>
<trkpt lat="46.7535" lon="6.42286"><ele></ele><time>2024-11-24T14:46:29Z</time></trkpt>
<trkpt lat="46.75346" lon="6.42272"><ele></ele><time>2024-11-24T14:46:32Z</time></trkpt>
<trkpt lat="46.75342" lon="6.42243"><ele></ele><time>2024-11-24T14:46:35Z</time></trkpt>
<trkpt lat="46.75341" lon="6.42227"><ele></ele><time>2024-11-24T14:46:38Z</time></trkpt>
<trkpt lat="46.75342" lon="6.42212"><ele></ele><time>2024-11-24T14:46:41Z</time></trkpt>
<trkpt lat="46.75343" lon="6.42197"><ele></ele><time>2024-11-24T14:46:44Z</time></trkpt>
<trkpt lat="46.75344" lon="6.42183"><ele></ele><time>2024-11-24T14:46:47Z</time></trkpt>
<trkpt lat="46.75345" lon="6.42159"><ele></ele><time>2024-11-24T14:46:50Z</time></trkpt>
<trkpt lat="46.75344" lon="6.42149"><ele></ele><time>2024-11-24T14:46:53Z</time></trkpt>
<trkpt lat="46.7534" lon="6.42141"><ele></ele><time>2024-11-24T14:46:56Z</time></trkpt>
<trkpt lat="46.75335" lon="6.42135"><ele></ele><time>2024-11-24T14:46:59Z</time></trkpt>
<trkpt lat="46.75329" lon="6.42129"><ele></ele><time>2024-11-24T14:47:2Z</time></trkpt>
<trkpt lat="46.75309" lon="6.4211"><ele></ele><time>2024-11-24T14:47:5Z</time></trkpt>
<trkpt lat="46.75304" lon="6.42101"><ele></ele><time>2024-11-24T14:47:8Z</time></trkpt>
<trkpt lat="46.75303" lon="6.42083"><ele></ele><time>2024-11-24T14:47:11Z</time></trkpt>
<trkpt lat="46.75314" lon="6.42075"><ele></ele><time>2024-11-24T14:47:14Z</time></trkpt>
<trkpt lat="46.75332" lon="6.42059"><ele></ele><time>2024-11-24T14:47:17Z</time></trkpt>
<trkpt lat="46.75335" lon="6.4205"><ele></ele><time>2024-11-24T14:47:20Z</time></trkpt>
<trkpt lat="46.75333" lon="6.42041"><ele></ele><time>2024-11-24T14:47:23Z</time></trkpt>
<trkpt lat="46.7533" lon="6.42033"><ele></ele><time>2024-11-24T14:47:26Z</time></trkpt>
<trkpt lat="46.75324" lon="6.42025"><ele></ele><time>2024-11-24T14:47:29Z</time></trkpt>
<trkpt lat="46.75317" lon="6.42017"><ele></ele><time>2024-11-24T14:47:32Z</time></trkpt>
<trkpt lat="46.7531" lon="6.42007"><ele></ele><time>2024-11-24T14:47:35Z</time></trkpt>
<trkpt lat="46.75303" lon="6.41998"><ele></ele><time>2024-11-24T14:47:38Z</time></trkpt>
<trkpt lat="46.75298" lon="6.41986"><ele></ele><time>2024-11-24T14:47:41Z</time></trkpt>
<trkpt lat="46.75295" lon="6.41974"><ele></ele><time>2024-11-24T14:47:44Z</time></trkpt>
<trkpt lat="46.75294" lon="6.41961"><ele></ele><time>2024-11-24T14:47:47Z</time></trkpt>
<trkpt lat="46.75295" lon="6.41932"><ele></ele><time>2024-11-24T14:47:50Z</time></trkpt>
<trkpt lat="46.75297" lon="6.41916"><ele></ele><time>2024-11-24T14:47:53Z</time></trkpt>
<trkpt lat="46.75297" lon="6.41884"><ele></ele><time>2024-11-24T14:47:56Z</time></trkpt>
<trkpt lat="46.75296" lon="6.4187"><ele></ele><time>2024-11-24T14:47:59Z</time></trkpt>
<trkpt lat="46.75293" lon="6.41857"><ele></ele><time>2024-11-24T14:48:2Z</time></trkpt>
<trkpt lat="46.75282" lon="6.41839"><ele></ele><time>2024-11-24T14:48:5Z</time></trkpt>
<trkpt lat="46.75266" lon="6.41831"><ele></ele><time>2024-11-24T14:48:8Z</time></trkpt>
<trkpt lat="46.75256" lon="6.41828"><ele></ele><time>2024-11-24T14:48:11Z</time></trkpt>
<trkpt lat="46.75247" lon="6.41823"><ele></ele><time>2024-11-24T14:48:14Z</time></trkpt>
<trkpt lat="46.75237" lon="6.41819"><ele></ele><time>2024-11-24T14:48:17Z</time></trkpt>
<trkpt lat="46.75228" lon="6.41813"><ele></ele><time>2024-11-24T14:48:20Z</time></trkpt>
<trkpt lat="46.7522" lon="6.41805"><ele></ele><time>2024-11-24T14:48:23Z</time></trkpt>
<trkpt lat="46.75214" lon="6.41796"><ele></ele><time>2024-11-24T14:48:26Z</time></trkpt>
<trkpt lat="46.7521" lon="6.41785"><ele></ele><time>2024-11-24T14:48:29Z</time></trkpt>
<trkpt lat="46.75207" lon="6.41774"><ele></ele><time>2024-11-24T14:48:32Z</time></trkpt>
<trkpt lat="46.75203" lon="6.41763"><ele></ele><time>2024-11-24T14:48:35Z</time></trkpt>
<trkpt lat="46.7519" lon="6.41746"><ele></ele><time>2024-11-24T14:48:38Z</time></trkpt>
<trkpt lat="46.75182" lon="6.4174"><ele></ele><time>2024-11-24T14:48:41Z</time></trkpt>
<trkpt lat="46.75175" lon="6.41738"><ele></ele><time>2024-11-24T14:48:44Z</time></trkpt>
<trkpt lat="46.75169" lon="6.41739"><ele></ele><time>2024-11-24T14:48:47Z</time></trkpt>
<trkpt lat="46.75165" lon="6.41741"><ele></ele><time>2024-11-24T14:48:50Z</time></trkpt>
<trkpt lat="46.7516" lon="6.41747"><ele></ele><time>2024-11-24T14:48:53Z</time></trkpt>
<trkpt lat="46.75157" lon="6.41756"><ele></ele><time>2024-11-24T14:48:56Z</time></trkpt>
<trkpt lat="46.75154" lon="6.41761"><ele></ele><time>2024-11-24T14:48:59Z</time></trkpt>
<trkpt lat="46.75149" lon="6.41765"><ele></ele><time>2024-11-24T14:49:2Z</time></trkpt>
<trkpt lat="46.75143" lon="6.41768"><ele></ele><time>2024-11-24T14:49:5Z</time></trkpt>
<trkpt lat="46.75135" lon="6.41771"><ele></ele><time>2024-11-24T14:49:8Z</time></trkpt>
<trkpt lat="46.75127" lon="6.41774"><ele></ele><time>2024-11-24T14:49:11Z</time></trkpt>
<trkpt lat="46.75119" lon="6.41779"><ele></ele><time>2024-11-24T14:49:14Z</time></trkpt>
<trkpt lat="46.751" lon="6.41787"><ele></ele><time>2024-11-24T14:49:17Z</time></trkpt>
<trkpt lat="46.7509" lon="6.41787"><ele></ele><time>2024-11-24T14:49:20Z</time></trkpt>
<trkpt lat="46.7508" lon="6.41785"><ele></ele><time>2024-11-24T14:49:23Z</time></trkpt>
<trkpt lat="46.75071" lon="6.4178"><ele></ele><time>2024-11-24T14:49:26Z</time></trkpt>
<trkpt lat="46.75064" lon="6.41772"><ele></ele><time>2024-11-24T14:49:29Z</time></trkpt>
<trkpt lat="46.75059" lon="6.4176"><ele></ele><time>2024-11-24T14:49:32Z</time></trkpt>
<trkpt lat="46.75056" lon="6.41748"><ele></ele><time>2024-11-24T14:49:35Z</time></trkpt>
<trkpt lat="46.75053" lon="6.41735"><ele></ele><time>2024-11-24T14:49:38Z</time></trkpt>
<trkpt lat="46.75044" lon="6.4171"><ele></ele><time>2024-11-24T14:49:41Z</time></trkpt>
<trkpt lat="46.75038" lon="6.41699"><ele></ele><time>2024-11-24T14:49:44Z</time></trkpt>
<trkpt lat="46.75029" lon="6.41692"><ele></ele><time>2024-11-24T14:49:47Z</time></trkpt>
<trkpt lat="46.75011" lon="6.41685"><ele></ele><time>2024-11-24T14:49:50Z</time></trkpt>
<trkpt lat="46.75002" lon="6.41683"><ele></ele><time>2024-11-24T14:49:53Z</time></trkpt>
<trkpt lat="46.74974" lon="6.41678"><ele></ele><time>2024-11-24T14:49:56Z</time></trkpt>
<trkpt lat="46.74956" lon="6.41675"><ele></ele><time>2024-11-24T14:49:59Z</time></trkpt>
<trkpt lat="46.74934" lon="6.41673"><ele></ele><time>2024-11-24T14:50:2Z</time></trkpt>
<trkpt lat="46.74927" lon="6.41673"><ele></ele><time>2024-11-24T14:50:5Z</time></trkpt>
<trkpt lat="46.74914" lon="6.41669"><ele></ele><time>2024-11-24T14:50:8Z</time></trkpt>
<trkpt lat="46.74902" lon="6.41659"><ele></ele><time>2024-11-24T14:50:11Z</time></trkpt>
<trkpt lat="46.74889" lon="6.41649"><ele></ele><time>2024-11-24T14:50:14Z</time></trkpt>
<trkpt lat="46.74882" lon="6.41648"><ele></ele><time>2024-11-24T14:50:17Z</time></trkpt>
<trkpt lat="46.74875" lon="6.41649"><ele></ele><time>2024-11-24T14:50:20Z</time></trkpt>
<trkpt lat="46.74868" lon="6.41652"><ele></ele><time>2024-11-24T14:50:23Z</time></trkpt>
<trkpt lat="46.74861" lon="6.41656"><ele></ele><time>2024-11-24T14:50:26Z</time></trkpt>
<trkpt lat="46.74855" lon="6.41662"><ele></ele><time>2024-11-24T14:50:29Z</time></trkpt>
<trkpt lat="46.74849" lon="6.41669"><ele></ele><time>2024-11-24T14:50:32Z</time></trkpt>
<trkpt lat="46.7484" lon="6.41687"><ele></ele><time>2024-11-24T14:50:35Z</time></trkpt>
<trkpt lat="46.74836" lon="6.41697"><ele></ele><time>2024-11-24T14:50:38Z</time></trkpt>
<trkpt lat="46.74834" lon="6.41708"><ele></ele><time>2024-11-24T14:50:41Z</time></trkpt>
<trkpt lat="46.74833" lon="6.4172"><ele></ele><time>2024-11-24T14:50:44Z</time></trkpt>
<trkpt lat="46.74833" lon="6.41733"><ele></ele><time>2024-11-24T14:50:47Z</time></trkpt>
<trkpt lat="46.74834" lon="6.4177"><ele></ele><time>2024-11-24T14:50:50Z</time></trkpt>
<trkpt lat="46.74836" lon="6.41793"><ele></ele><time>2024-11-24T14:50:53Z</time></trkpt>
<trkpt lat="46.7484" lon="6.41814"><ele></ele><time>2024-11-24T14:50:56Z</time></trkpt>
<trkpt lat="46.74841" lon="6.41825"><ele></ele><time>2024-11-24T14:50:59Z</time></trkpt>
<trkpt lat="46.7484" lon="6.41837"><ele></ele><time>2024-11-24T14:51:2Z</time></trkpt>
<trkpt lat="46.74838" lon="6.41848"><ele></ele><time>2024-11-24T14:51:5Z</time></trkpt>
<trkpt lat="46.74834" lon="6.41857"><ele></ele><time>2024-11-24T14:51:8Z</time></trkpt>
<trkpt lat="46.74828" lon="6.41864"><ele></ele><time>2024-11-24T14:51:11Z</time></trkpt>
<trkpt lat="46.74822" lon="6.41869"><ele></ele><time>2024-11-24T14:51:14Z</time></trkpt>
<trkpt lat="46.74816" lon="6.41873"><ele></ele><time>2024-11-24T14:51:17Z</time></trkpt>
<trkpt lat="46.7481" lon="6.41878"><ele></ele><time>2024-11-24T14:51:20Z</time></trkpt>
<trkpt lat="46.74802" lon="6.41895"><ele></ele><time>2024-11-24T14:51:23Z</time></trkpt>
<trkpt lat="46.74797" lon="6.41916"><ele></ele><time>2024-11-24T14:51:26Z</time></trkpt>
<trkpt lat="46.74792" lon="6.4194"><ele></ele><time>2024-11-24T14:51:29Z</time></trkpt>
<trkpt lat="46.74792" lon="6.41954"><ele></ele><time>2024-11-24T14:51:32Z</time></trkpt>
<trkpt lat="46.7479" lon="6.41981"><ele></ele><time>2024-11-24T14:51:35Z</time></trkpt>
<trkpt lat="46.74787" lon="6.41995"><ele></ele><time>2024-11-24T14:51:38Z</time></trkpt>
<trkpt lat="46.74779" lon="6.42024"><ele></ele><time>2024-11-24T14:51:41Z</time></trkpt>
<trkpt lat="46.74775" lon="6.42038"><ele></ele><time>2024-11-24T14:51:44Z</time></trkpt>
<trkpt lat="46.74771" lon="6.42052"><ele></ele><time>2024-11-24T14:51:47Z</time></trkpt>
<trkpt lat="46.74768" lon="6.42067"><ele></ele><time>2024-11-24T14:51:50Z</time></trkpt>
<trkpt lat="46.74764" lon="6.42097"><ele></ele><time>2024-11-24T14:51:53Z</time></trkpt>
<trkpt lat="46.74761" lon="6.42112"><ele></ele><time>2024-11-24T14:51:56Z</time></trkpt>
<trkpt lat="46.74758" lon="6.42139"><ele></ele><time>2024-11-24T14:51:59Z</time></trkpt>
<trkpt lat="46.74754" lon="6.42165"><ele></ele><time>2024-11-24T14:52:2Z</time></trkpt>
<trkpt lat="46.74752" lon="6.42177"><ele></ele><time>2024-11-24T14:52:5Z</time></trkpt>
<trkpt lat="46.7475" lon="6.42191"><ele></ele><time>2024-11-24T14:52:8Z</time></trkpt>
<trkpt lat="46.74746" lon="6.4222"><ele></ele><time>2024-11-24T14:52:11Z</time></trkpt>
<trkpt lat="46.74743" lon="6.42233"><ele></ele><time>2024-11-24T14:52:14Z</time></trkpt>
<trkpt lat="46.74738" lon="6.42246"><ele></ele><time>2024-11-24T14:52:17Z</time></trkpt>
<trkpt lat="46.74732" lon="6.42257"><ele></ele><time>2024-11-24T14:52:20Z</time></trkpt>
<trkpt lat="46.74725" lon="6.42266"><ele></ele><time>2024-11-24T14:52:23Z</time></trkpt>
<trkpt lat="46.74717" lon="6.42276"><ele></ele><time>2024-11-24T14:52:26Z</time></trkpt>
<trkpt lat="46.7471" lon="6.42287"><ele></ele><time>2024-11-24T14:52:29Z</time></trkpt>
<trkpt lat="46.74698" lon="6.42315"><ele></ele><time>2024-11-24T14:52:32Z</time></trkpt>
<trkpt lat="46.74689" lon="6.4234"><ele></ele><time>2024-11-24T14:52:35Z</time></trkpt>
<trkpt lat="46.74685" lon="6.42351"><ele></ele><time>2024-11-24T14:52:38Z</time></trkpt>
<trkpt lat="46.74681" lon="6.42359"><ele></ele><time>2024-11-24T14:52:41Z</time></trkpt>
<trkpt lat="46.74675" lon="6.42377"><ele></ele><time>2024-11-24T14:52:44Z</time></trkpt>
<trkpt lat="46.74676" lon="6.42381"><ele></ele><time>2024-11-24T14:52:47Z</time></trkpt>
<trkpt lat="46.74679" lon="6.4239"><ele></ele><time>2024-11-24T14:52:50Z</time></trkpt>
<trkpt lat="46.74678" lon="6.424"><ele></ele><time>2024-11-24T14:52:53Z</time></trkpt>
<trkpt lat="46.74678" lon="6.424"><ele></ele><time>2024-11-24T14:52:56Z</time></trkpt>
<trkpt lat="46.74678" lon="6.424"><ele></ele><time>2024-11-24T14:52:59Z</time></trkpt>
<trkpt lat="46.74678" lon="6.42399"><ele></ele><time>2024-11-24T14:53:2Z</time></trkpt>
<trkpt lat="46.74677" lon="6.42401"><ele></ele><time>2024-11-24T14:53:5Z</time></trkpt>
<trkpt lat="46.74675" lon="6.42401"><ele></ele><time>2024-11-24T14:53:8Z</time></trkpt>
<trkpt lat="46.74674" lon="6.424"><ele></ele><time>2024-11-24T14:53:11Z</time></trkpt>
<trkpt lat="46.74664" lon="6.42399"><ele></ele><time>2024-11-24T14:53:14Z</time></trkpt>
<trkpt lat="46.74657" lon="6.42415"><ele></ele><time>2024-11-24T14:53:17Z</time></trkpt>
<trkpt lat="46.74649" lon="6.42432"><ele></ele><time>2024-11-24T14:53:20Z</time></trkpt>
<trkpt lat="46.74647" lon="6.42438"><ele></ele><time>2024-11-24T14:53:23Z</time></trkpt>
<trkpt lat="46.74641" lon="6.42452"><ele></ele><time>2024-11-24T14:53:26Z</time></trkpt>
<trkpt lat="46.7463" lon="6.42478"><ele></ele><time>2024-11-24T14:53:29Z</time></trkpt>
<trkpt lat="46.74622" lon="6.42497"><ele></ele><time>2024-11-24T14:53:32Z</time></trkpt>
<trkpt lat="46.74613" lon="6.42517"><ele></ele><time>2024-11-24T14:53:35Z</time></trkpt>
<trkpt lat="46.74607" lon="6.42527"><ele></ele><time>2024-11-24T14:53:38Z</time></trkpt>
<trkpt lat="46.74602" lon="6.42538"><ele></ele><time>2024-11-24T14:53:41Z</time></trkpt>
<trkpt lat="46.74596" lon="6.42548"><ele></ele><time>2024-11-24T14:53:44Z</time></trkpt>
<trkpt lat="46.74585" lon="6.42571"><ele></ele><time>2024-11-24T14:53:47Z</time></trkpt>
<trkpt lat="46.7458" lon="6.42582"><ele></ele><time>2024-11-24T14:53:50Z</time></trkpt>
<trkpt lat="46.74575" lon="6.42594"><ele></ele><time>2024-11-24T14:53:53Z</time></trkpt>
<trkpt lat="46.7457" lon="6.42606"><ele></ele><time>2024-11-24T14:53:56Z</time></trkpt>
<trkpt lat="46.74564" lon="6.42619"><ele></ele><time>2024-11-24T14:53:59Z</time></trkpt>
<trkpt lat="46.74558" lon="6.42631"><ele></ele><time>2024-11-24T14:54:2Z</time></trkpt>
<trkpt lat="46.74553" lon="6.42643"><ele></ele><time>2024-11-24T14:54:5Z</time></trkpt>
<trkpt lat="46.74547" lon="6.42654"><ele></ele><time>2024-11-24T14:54:8Z</time></trkpt>
<trkpt lat="46.74542" lon="6.42665"><ele></ele><time>2024-11-24T14:54:11Z</time></trkpt>
<trkpt lat="46.74535" lon="6.42691"><ele></ele><time>2024-11-24T14:54:14Z</time></trkpt>
<trkpt lat="46.74532" lon="6.42706"><ele></ele><time>2024-11-24T14:54:17Z</time></trkpt>
<trkpt lat="46.74531" lon="6.42721"><ele></ele><time>2024-11-24T14:54:20Z</time></trkpt>
<trkpt lat="46.74529" lon="6.42736"><ele></ele><time>2024-11-24T14:54:23Z</time></trkpt>
<trkpt lat="46.74528" lon="6.42751"><ele></ele><time>2024-11-24T14:54:26Z</time></trkpt>
<trkpt lat="46.74526" lon="6.42765"><ele></ele><time>2024-11-24T14:54:29Z</time></trkpt>
<trkpt lat="46.74523" lon="6.42779"><ele></ele><time>2024-11-24T14:54:32Z</time></trkpt>
<trkpt lat="46.74519" lon="6.42793"><ele></ele><time>2024-11-24T14:54:35Z</time></trkpt>
<trkpt lat="46.74515" lon="6.42805"><ele></ele><time>2024-11-24T14:54:38Z</time></trkpt>
<trkpt lat="46.74512" lon="6.42817"><ele></ele><time>2024-11-24T14:54:41Z</time></trkpt>
<trkpt lat="46.74507" lon="6.42827"><ele></ele><time>2024-11-24T14:54:44Z</time></trkpt>
<trkpt lat="46.74504" lon="6.42837"><ele></ele><time>2024-11-24T14:54:47Z</time></trkpt>
<trkpt lat="46.745" lon="6.42848"><ele></ele><time>2024-11-24T14:54:50Z</time></trkpt>
<trkpt lat="46.74497" lon="6.42857"><ele></ele><time>2024-11-24T14:54:53Z</time></trkpt>
<trkpt lat="46.74494" lon="6.42866"><ele></ele><time>2024-11-24T14:54:56Z</time></trkpt>
<trkpt lat="46.7449" lon="6.42874"><ele></ele><time>2024-11-24T14:54:59Z</time></trkpt>
<trkpt lat="46.74485" lon="6.42879"><ele></ele><time>2024-11-24T14:55:2Z</time></trkpt>
<trkpt lat="46.7448" lon="6.42885"><ele></ele><time>2024-11-24T14:55:5Z</time></trkpt>
<trkpt lat="46.74472" lon="6.42895"><ele></ele><time>2024-11-24T14:55:8Z</time></trkpt>
<trkpt lat="46.74471" lon="6.429"><ele></ele><time>2024-11-24T14:55:11Z</time></trkpt>
<trkpt lat="46.74471" lon="6.42906"><ele></ele><time>2024-11-24T14:55:14Z</time></trkpt>
<trkpt lat="46.74473" lon="6.42911"><ele></ele><time>2024-11-24T14:55:17Z</time></trkpt>
<trkpt lat="46.74475" lon="6.42916"><ele></ele><time>2024-11-24T14:55:20Z</time></trkpt>
<trkpt lat="46.74478" lon="6.42928"><ele></ele><time>2024-11-24T14:55:23Z</time></trkpt>
<trkpt lat="46.74479" lon="6.42935"><ele></ele><time>2024-11-24T14:55:26Z</time></trkpt>
<trkpt lat="46.74481" lon="6.42952"><ele></ele><time>2024-11-24T14:55:29Z</time></trkpt>
<trkpt lat="46.74481" lon="6.42962"><ele></ele><time>2024-11-24T14:55:32Z</time></trkpt>
<trkpt lat="46.7448" lon="6.42971"><ele></ele><time>2024-11-24T14:55:35Z</time></trkpt>
<trkpt lat="46.74479" lon="6.42989"><ele></ele><time>2024-11-24T14:55:38Z</time></trkpt>
<trkpt lat="46.74479" lon="6.42999"><ele></ele><time>2024-11-24T14:55:41Z</time></trkpt>
<trkpt lat="46.74478" lon="6.43009"><ele></ele><time>2024-11-24T14:55:44Z</time></trkpt>
<trkpt lat="46.74476" lon="6.43029"><ele></ele><time>2024-11-24T14:55:47Z</time></trkpt>
<trkpt lat="46.74475" lon="6.43039"><ele></ele><time>2024-11-24T14:55:50Z</time></trkpt>
<trkpt lat="46.74473" lon="6.4306"><ele></ele><time>2024-11-24T14:55:53Z</time></trkpt>
<trkpt lat="46.74473" lon="6.4308"><ele></ele><time>2024-11-24T14:55:56Z</time></trkpt>
<trkpt lat="46.74473" lon="6.431"><ele></ele><time>2024-11-24T14:55:59Z</time></trkpt>
<trkpt lat="46.74473" lon="6.4311"><ele></ele><time>2024-11-24T14:56:2Z</time></trkpt>
<trkpt lat="46.74475" lon="6.43131"><ele></ele><time>2024-11-24T14:56:5Z</time></trkpt>
<trkpt lat="46.74475" lon="6.43141"><ele></ele><time>2024-11-24T14:56:8Z</time></trkpt>
<trkpt lat="46.74475" lon="6.43161"><ele></ele><time>2024-11-24T14:56:11Z</time></trkpt>
<trkpt lat="46.74473" lon="6.4317"><ele></ele><time>2024-11-24T14:56:14Z</time></trkpt>
<trkpt lat="46.7447" lon="6.4318"><ele></ele><time>2024-11-24T14:56:17Z</time></trkpt>
<trkpt lat="46.74468" lon="6.4319"><ele></ele><time>2024-11-24T14:56:20Z</time></trkpt>
<trkpt lat="46.74463" lon="6.43209"><ele></ele><time>2024-11-24T14:56:23Z</time></trkpt>
<trkpt lat="46.74458" lon="6.43229"><ele></ele><time>2024-11-24T14:56:26Z</time></trkpt>
<trkpt lat="46.74455" lon="6.43238"><ele></ele><time>2024-11-24T14:56:29Z</time></trkpt>
<trkpt lat="46.74452" lon="6.43248"><ele></ele><time>2024-11-24T14:56:32Z</time></trkpt>
<trkpt lat="46.74448" lon="6.43255"><ele></ele><time>2024-11-24T14:56:35Z</time></trkpt>
<trkpt lat="46.74443" lon="6.43262"><ele></ele><time>2024-11-24T14:56:38Z</time></trkpt>
<trkpt lat="46.74437" lon="6.43267"><ele></ele><time>2024-11-24T14:56:41Z</time></trkpt>
<trkpt lat="46.7443" lon="6.4327"><ele></ele><time>2024-11-24T14:56:44Z</time></trkpt>
<trkpt lat="46.74423" lon="6.43272"><ele></ele><time>2024-11-24T14:56:47Z</time></trkpt>
<trkpt lat="46.74416" lon="6.43272"><ele></ele><time>2024-11-24T14:56:50Z</time></trkpt>
<trkpt lat="46.74409" lon="6.43272"><ele></ele><time>2024-11-24T14:56:53Z</time></trkpt>
<trkpt lat="46.74395" lon="6.43273"><ele></ele><time>2024-11-24T14:56:56Z</time></trkpt>
<trkpt lat="46.74388" lon="6.43273"><ele></ele><time>2024-11-24T14:56:59Z</time></trkpt>
<trkpt lat="46.74381" lon="6.43273"><ele></ele><time>2024-11-24T14:57:2Z</time></trkpt>
<trkpt lat="46.74373" lon="6.43273"><ele></ele><time>2024-11-24T14:57:5Z</time></trkpt>
<trkpt lat="46.74359" lon="6.43268"><ele></ele><time>2024-11-24T14:57:8Z</time></trkpt>
<trkpt lat="46.74353" lon="6.43266"><ele></ele><time>2024-11-24T14:57:11Z</time></trkpt>
<trkpt lat="46.7434" lon="6.43265"><ele></ele><time>2024-11-24T14:57:14Z</time></trkpt>
<trkpt lat="46.74326" lon="6.43269"><ele></ele><time>2024-11-24T14:57:17Z</time></trkpt>
<trkpt lat="46.7432" lon="6.43274"><ele></ele><time>2024-11-24T14:57:20Z</time></trkpt>
<trkpt lat="46.74307" lon="6.43284"><ele></ele><time>2024-11-24T14:57:23Z</time></trkpt>
<trkpt lat="46.743" lon="6.43289"><ele></ele><time>2024-11-24T14:57:26Z</time></trkpt>
<trkpt lat="46.74293" lon="6.43294"><ele></ele><time>2024-11-24T14:57:29Z</time></trkpt>
<trkpt lat="46.74279" lon="6.43302"><ele></ele><time>2024-11-24T14:57:32Z</time></trkpt>
<trkpt lat="46.74266" lon="6.4331"><ele></ele><time>2024-11-24T14:57:35Z</time></trkpt>
<trkpt lat="46.74258" lon="6.43314"><ele></ele><time>2024-11-24T14:57:38Z</time></trkpt>
<trkpt lat="46.74244" lon="6.43322"><ele></ele><time>2024-11-24T14:57:41Z</time></trkpt>
<trkpt lat="46.74237" lon="6.43325"><ele></ele><time>2024-11-24T14:57:44Z</time></trkpt>
<trkpt lat="46.74224" lon="6.43335"><ele></ele><time>2024-11-24T14:57:47Z</time></trkpt>
<trkpt lat="46.74219" lon="6.43341"><ele></ele><time>2024-11-24T14:57:50Z</time></trkpt>
<trkpt lat="46.74214" lon="6.43348"><ele></ele><time>2024-11-24T14:57:53Z</time></trkpt>
<trkpt lat="46.74209" lon="6.43356"><ele></ele><time>2024-11-24T14:57:56Z</time></trkpt>
<trkpt lat="46.74204" lon="6.43365"><ele></ele><time>2024-11-24T14:57:59Z</time></trkpt>
<trkpt lat="46.74198" lon="6.43376"><ele></ele><time>2024-11-24T14:58:2Z</time></trkpt>
<trkpt lat="46.7419" lon="6.43396"><ele></ele><time>2024-11-24T14:58:5Z</time></trkpt>
<trkpt lat="46.74186" lon="6.43407"><ele></ele><time>2024-11-24T14:58:8Z</time></trkpt>
<trkpt lat="46.74181" lon="6.43417"><ele></ele><time>2024-11-24T14:58:11Z</time></trkpt>
<trkpt lat="46.74177" lon="6.43426"><ele></ele><time>2024-11-24T14:58:14Z</time></trkpt>
<trkpt lat="46.74171" lon="6.43435"><ele></ele><time>2024-11-24T14:58:17Z</time></trkpt>
<trkpt lat="46.74166" lon="6.43444"><ele></ele><time>2024-11-24T14:58:20Z</time></trkpt>
<trkpt lat="46.74162" lon="6.43454"><ele></ele><time>2024-11-24T14:58:23Z</time></trkpt>
<trkpt lat="46.74158" lon="6.43462"><ele></ele><time>2024-11-24T14:58:26Z</time></trkpt>
<trkpt lat="46.74153" lon="6.43472"><ele></ele><time>2024-11-24T14:58:29Z</time></trkpt>
<trkpt lat="46.74149" lon="6.43482"><ele></ele><time>2024-11-24T14:58:32Z</time></trkpt>
<trkpt lat="46.74145" lon="6.43492"><ele></ele><time>2024-11-24T14:58:35Z</time></trkpt>
<trkpt lat="46.74141" lon="6.43501"><ele></ele><time>2024-11-24T14:58:38Z</time></trkpt>
<trkpt lat="46.74137" lon="6.43512"><ele></ele><time>2024-11-24T14:58:41Z</time></trkpt>
<trkpt lat="46.74132" lon="6.43523"><ele></ele><time>2024-11-24T14:58:44Z</time></trkpt>
<trkpt lat="46.74128" lon="6.43533"><ele></ele><time>2024-11-24T14:58:47Z</time></trkpt>
<trkpt lat="46.74123" lon="6.43543"><ele></ele><time>2024-11-24T14:58:50Z</time></trkpt>
<trkpt lat="46.74113" lon="6.43563"><ele></ele><time>2024-11-24T14:58:53Z</time></trkpt>
<trkpt lat="46.74108" lon="6.43571"><ele></ele><time>2024-11-24T14:58:56Z</time></trkpt>
<trkpt lat="46.74103" lon="6.43579"><ele></ele><time>2024-11-24T14:58:59Z</time></trkpt>
<trkpt lat="46.74098" lon="6.43588"><ele></ele><time>2024-11-24T14:59:2Z</time></trkpt>
<trkpt lat="46.74094" lon="6.43598"><ele></ele><time>2024-11-24T14:59:5Z</time></trkpt>
<trkpt lat="46.74086" lon="6.43617"><ele></ele><time>2024-11-24T14:59:8Z</time></trkpt>
<trkpt lat="46.74082" lon="6.43625"><ele></ele><time>2024-11-24T14:59:11Z</time></trkpt>
<trkpt lat="46.74078" lon="6.43635"><ele></ele><time>2024-11-24T14:59:14Z</time></trkpt>
<trkpt lat="46.74075" lon="6.43643"><ele></ele><time>2024-11-24T14:59:17Z</time></trkpt>
<trkpt lat="46.74071" lon="6.43652"><ele></ele><time>2024-11-24T14:59:20Z</time></trkpt>
<trkpt lat="46.74063" lon="6.43667"><ele></ele><time>2024-11-24T14:59:23Z</time></trkpt>
<trkpt lat="46.74053" lon="6.43682"><ele></ele><time>2024-11-24T14:59:26Z</time></trkpt>
<trkpt lat="46.74048" lon="6.43691"><ele></ele><time>2024-11-24T14:59:29Z</time></trkpt>
<trkpt lat="46.74043" lon="6.437"><ele></ele><time>2024-11-24T14:59:32Z</time></trkpt>
<trkpt lat="46.74038" lon="6.43709"><ele></ele><time>2024-11-24T14:59:35Z</time></trkpt>
<trkpt lat="46.74033" lon="6.43717"><ele></ele><time>2024-11-24T14:59:38Z</time></trkpt>
<trkpt lat="46.74028" lon="6.43726"><ele></ele><time>2024-11-24T14:59:41Z</time></trkpt>
<trkpt lat="46.74023" lon="6.43735"><ele></ele><time>2024-11-24T14:59:44Z</time></trkpt>
<trkpt lat="46.74018" lon="6.43744"><ele></ele><time>2024-11-24T14:59:47Z</time></trkpt>
<trkpt lat="46.74012" lon="6.43752"><ele></ele><time>2024-11-24T14:59:50Z</time></trkpt>
<trkpt lat="46.74008" lon="6.4376"><ele></ele><time>2024-11-24T14:59:53Z</time></trkpt>
<trkpt lat="46.74003" lon="6.43768"><ele></ele><time>2024-11-24T14:59:56Z</time></trkpt>
<trkpt lat="46.73999" lon="6.43775"><ele></ele><time>2024-11-24T14:59:59Z</time></trkpt>
<trkpt lat="46.73996" lon="6.43782"><ele></ele><time>2024-11-24T15:0:2Z</time></trkpt>
<trkpt lat="46.73993" lon="6.43791"><ele></ele><time>2024-11-24T15:0:5Z</time></trkpt>
<trkpt lat="46.73991" lon="6.43799"><ele></ele><time>2024-11-24T15:0:8Z</time></trkpt>
<trkpt lat="46.7399" lon="6.43808"><ele></ele><time>2024-11-24T15:0:11Z</time></trkpt>
<trkpt lat="46.73989" lon="6.43817"><ele></ele><time>2024-11-24T15:0:14Z</time></trkpt>
<trkpt lat="46.73988" lon="6.43827"><ele></ele><time>2024-11-24T15:0:17Z</time></trkpt>
<trkpt lat="46.73987" lon="6.43837"><ele></ele><time>2024-11-24T15:0:20Z</time></trkpt>
<trkpt lat="46.73986" lon="6.43847"><ele></ele><time>2024-11-24T15:0:23Z</time></trkpt>
<trkpt lat="46.73985" lon="6.43866"><ele></ele><time>2024-11-24T15:0:26Z</time></trkpt>
<trkpt lat="46.73985" lon="6.43876"><ele></ele><time>2024-11-24T15:0:29Z</time></trkpt>
<trkpt lat="46.73985" lon="6.43886"><ele></ele><time>2024-11-24T15:0:32Z</time></trkpt>
<trkpt lat="46.73986" lon="6.43896"><ele></ele><time>2024-11-24T15:0:35Z</time></trkpt>
<trkpt lat="46.73987" lon="6.43906"><ele></ele><time>2024-11-24T15:0:38Z</time></trkpt>
<trkpt lat="46.73988" lon="6.43916"><ele></ele><time>2024-11-24T15:0:41Z</time></trkpt>
<trkpt lat="46.7399" lon="6.43937"><ele></ele><time>2024-11-24T15:0:44Z</time></trkpt>
<trkpt lat="46.73991" lon="6.43947"><ele></ele><time>2024-11-24T15:0:47Z</time></trkpt>
<trkpt lat="46.73991" lon="6.43957"><ele></ele><time>2024-11-24T15:0:50Z</time></trkpt>
<trkpt lat="46.73993" lon="6.43976"><ele></ele><time>2024-11-24T15:0:53Z</time></trkpt>
<trkpt lat="46.73994" lon="6.43986"><ele></ele><time>2024-11-24T15:0:56Z</time></trkpt>
<trkpt lat="46.73995" lon="6.43995"><ele></ele><time>2024-11-24T15:0:59Z</time></trkpt>
<trkpt lat="46.73997" lon="6.44004"><ele></ele><time>2024-11-24T15:1:2Z</time></trkpt>
<trkpt lat="46.73999" lon="6.44013"><ele></ele><time>2024-11-24T15:1:5Z</time></trkpt>
<trkpt lat="46.74001" lon="6.44022"><ele></ele><time>2024-11-24T15:1:8Z</time></trkpt>
<trkpt lat="46.74003" lon="6.4403"><ele></ele><time>2024-11-24T15:1:11Z</time></trkpt>
<trkpt lat="46.74007" lon="6.44045"><ele></ele><time>2024-11-24T15:1:14Z</time></trkpt>
<trkpt lat="46.74009" lon="6.44054"><ele></ele><time>2024-11-24T15:1:17Z</time></trkpt>
<trkpt lat="46.74009" lon="6.44054"><ele></ele><time>2024-11-24T15:1:20Z</time></trkpt>
<trkpt lat="46.74008" lon="6.44055"><ele></ele><time>2024-11-24T15:1:23Z</time></trkpt>
<trkpt lat="46.74007" lon="6.44055"><ele></ele><time>2024-11-24T15:1:26Z</time></trkpt>
<trkpt lat="46.74008" lon="6.44055"><ele></ele><time>2024-11-24T15:1:29Z</time></trkpt>
<trkpt lat="46.74008" lon="6.44055"><ele></ele><time>2024-11-24T15:1:32Z</time></trkpt>
<trkpt lat="46.74008" lon="6.44057"><ele></ele><time>2024-11-24T15:1:35Z</time></trkpt>
<trkpt lat="46.74008" lon="6.44057"><ele></ele><time>2024-11-24T15:1:38Z</time></trkpt>
<trkpt lat="46.74008" lon="6.44057"><ele></ele><time>2024-11-24T15:1:41Z</time></trkpt>
<trkpt lat="46.74008" lon="6.44057"><ele></ele><time>2024-11-24T15:1:44Z</time></trkpt>
<trkpt lat="46.74008" lon="6.44056"><ele></ele><time>2024-11-24T15:1:47Z</time></trkpt>
<trkpt lat="46.74008" lon="6.44056"><ele></ele><time>2024-11-24T15:1:50Z</time></trkpt>
<trkpt lat="46.74009" lon="6.44056"><ele></ele><time>2024-11-24T15:1:53Z</time></trkpt>
<trkpt lat="46.74009" lon="6.44055"><ele></ele><time>2024-11-24T15:1:56Z</time></trkpt>
<trkpt lat="46.74008" lon="6.44062"><ele></ele><time>2024-11-24T15:1:59Z</time></trkpt>
<trkpt lat="46.74009" lon="6.44074"><ele></ele><time>2024-11-24T15:2:2Z</time></trkpt>
<trkpt lat="46.7401" lon="6.44083"><ele></ele><time>2024-11-24T15:2:5Z</time></trkpt>
<trkpt lat="46.74011" lon="6.44092"><ele></ele><time>2024-11-24T15:2:8Z</time></trkpt>
<trkpt lat="46.74012" lon="6.44113"><ele></ele><time>2024-11-24T15:2:11Z</time></trkpt>
<trkpt lat="46.74013" lon="6.44124"><ele></ele><time>2024-11-24T15:2:14Z</time></trkpt>
<trkpt lat="46.74014" lon="6.44135"><ele></ele><time>2024-11-24T15:2:17Z</time></trkpt>
<trkpt lat="46.74014" lon="6.44158"><ele></ele><time>2024-11-24T15:2:20Z</time></trkpt>
<trkpt lat="46.74015" lon="6.44182"><ele></ele><time>2024-11-24T15:2:23Z</time></trkpt>
<trkpt lat="46.74016" lon="6.44194"><ele></ele><time>2024-11-24T15:2:26Z</time></trkpt>
<trkpt lat="46.74017" lon="6.44206"><ele></ele><time>2024-11-24T15:2:29Z</time></trkpt>
<trkpt lat="46.74018" lon="6.44218"><ele></ele><time>2024-11-24T15:2:32Z</time></trkpt>
<trkpt lat="46.74019" lon="6.44242"><ele></ele><time>2024-11-24T15:2:35Z</time></trkpt>
<trkpt lat="46.7402" lon="6.44254"><ele></ele><time>2024-11-24T15:2:38Z</time></trkpt>
<trkpt lat="46.7402" lon="6.44266"><ele></ele><time>2024-11-24T15:2:41Z</time></trkpt>
<trkpt lat="46.7402" lon="6.44278"><ele></ele><time>2024-11-24T15:2:44Z</time></trkpt>
<trkpt lat="46.7402" lon="6.44289"><ele></ele><time>2024-11-24T15:2:47Z</time></trkpt>
<trkpt lat="46.7402" lon="6.443"><ele></ele><time>2024-11-24T15:2:50Z</time></trkpt>
<trkpt lat="46.74022" lon="6.44312"><ele></ele><time>2024-11-24T15:2:53Z</time></trkpt>
<trkpt lat="46.74023" lon="6.44325"><ele></ele><time>2024-11-24T15:2:56Z</time></trkpt>
<trkpt lat="46.74024" lon="6.44337"><ele></ele><time>2024-11-24T15:2:59Z</time></trkpt>
<trkpt lat="46.74026" lon="6.44349"><ele></ele><time>2024-11-24T15:3:2Z</time></trkpt>
<trkpt lat="46.74028" lon="6.44361"><ele></ele><time>2024-11-24T15:3:5Z</time></trkpt>
<trkpt lat="46.7403" lon="6.44372"><ele></ele><time>2024-11-24T15:3:8Z</time></trkpt>
<trkpt lat="46.74033" lon="6.44383"><ele></ele><time>2024-11-24T15:3:11Z</time></trkpt>
<trkpt lat="46.74038" lon="6.44405"><ele></ele><time>2024-11-24T15:3:14Z</time></trkpt>
<trkpt lat="46.74041" lon="6.44418"><ele></ele><time>2024-11-24T15:3:17Z</time></trkpt>
<trkpt lat="46.74043" lon="6.44431"><ele></ele><time>2024-11-24T15:3:20Z</time></trkpt>
<trkpt lat="46.74044" lon="6.44444"><ele></ele><time>2024-11-24T15:3:23Z</time></trkpt>
<trkpt lat="46.74045" lon="6.44456"><ele></ele><time>2024-11-24T15:3:26Z</time></trkpt>
<trkpt lat="46.74046" lon="6.44468"><ele></ele><time>2024-11-24T15:3:29Z</time></trkpt>
<trkpt lat="46.74047" lon="6.4448"><ele></ele><time>2024-11-24T15:3:32Z</time></trkpt>
<trkpt lat="46.74048" lon="6.44491"><ele></ele><time>2024-11-24T15:3:35Z</time></trkpt>
<trkpt lat="46.74048" lon="6.44501"><ele></ele><time>2024-11-24T15:3:38Z</time></trkpt>
<trkpt lat="46.74049" lon="6.44511"><ele></ele><time>2024-11-24T15:3:41Z</time></trkpt>
<trkpt lat="46.7405" lon="6.44521"><ele></ele><time>2024-11-24T15:3:44Z</time></trkpt>
<trkpt lat="46.74052" lon="6.4453"><ele></ele><time>2024-11-24T15:3:47Z</time></trkpt>
<trkpt lat="46.74055" lon="6.44539"><ele></ele><time>2024-11-24T15:3:50Z</time></trkpt>
<trkpt lat="46.74058" lon="6.44548"><ele></ele><time>2024-11-24T15:3:53Z</time></trkpt>
<trkpt lat="46.74065" lon="6.44568"><ele></ele><time>2024-11-24T15:3:56Z</time></trkpt>
<trkpt lat="46.74072" lon="6.44589"><ele></ele><time>2024-11-24T15:3:59Z</time></trkpt>
<trkpt lat="46.7408" lon="6.44609"><ele></ele><time>2024-11-24T15:4:2Z</time></trkpt>
<trkpt lat="46.74086" lon="6.44631"><ele></ele><time>2024-11-24T15:4:5Z</time></trkpt>
<trkpt lat="46.7409" lon="6.44641"><ele></ele><time>2024-11-24T15:4:8Z</time></trkpt>
<trkpt lat="46.74094" lon="6.44651"><ele></ele><time>2024-11-24T15:4:11Z</time></trkpt>
<trkpt lat="46.74103" lon="6.4467"><ele></ele><time>2024-11-24T15:4:14Z</time></trkpt>
<trkpt lat="46.7411" lon="6.44689"><ele></ele><time>2024-11-24T15:4:17Z</time></trkpt>
<trkpt lat="46.74113" lon="6.44699"><ele></ele><time>2024-11-24T15:4:20Z</time></trkpt>
<trkpt lat="46.74114" lon="6.44709"><ele></ele><time>2024-11-24T15:4:23Z</time></trkpt>
<trkpt lat="46.74115" lon="6.44729"><ele></ele><time>2024-11-24T15:4:26Z</time></trkpt>
<trkpt lat="46.74116" lon="6.44739"><ele></ele><time>2024-11-24T15:4:29Z</time></trkpt>
<trkpt lat="46.74117" lon="6.44749"><ele></ele><time>2024-11-24T15:4:32Z</time></trkpt>
<trkpt lat="46.7412" lon="6.44758"><ele></ele><time>2024-11-24T15:4:35Z</time></trkpt>
<trkpt lat="46.74122" lon="6.44767"><ele></ele><time>2024-11-24T15:4:38Z</time></trkpt>
<trkpt lat="46.74124" lon="6.44776"><ele></ele><time>2024-11-24T15:4:41Z</time></trkpt>
<trkpt lat="46.74126" lon="6.44784"><ele></ele><time>2024-11-24T15:4:44Z</time></trkpt>
<trkpt lat="46.7413" lon="6.44798"><ele></ele><time>2024-11-24T15:4:47Z</time></trkpt>
<trkpt lat="46.74132" lon="6.44804"><ele></ele><time>2024-11-24T15:4:50Z</time></trkpt>
<trkpt lat="46.74133" lon="6.4481"><ele></ele><time>2024-11-24T15:4:53Z</time></trkpt>
<trkpt lat="46.74134" lon="6.44816"><ele></ele><time>2024-11-24T15:4:56Z</time></trkpt>
<trkpt lat="46.74135" lon="6.44821"><ele></ele><time>2024-11-24T15:4:59Z</time></trkpt>
<trkpt lat="46.74136" lon="6.44827"><ele></ele><time>2024-11-24T15:5:2Z</time></trkpt>
<trkpt lat="46.74138" lon="6.44838"><ele></ele><time>2024-11-24T15:5:5Z</time></trkpt>
<trkpt lat="46.74139" lon="6.44845"><ele></ele><time>2024-11-24T15:5:8Z</time></trkpt>
<trkpt lat="46.7414" lon="6.44852"><ele></ele><time>2024-11-24T15:5:11Z</time></trkpt>
<trkpt lat="46.74143" lon="6.44868"><ele></ele><time>2024-11-24T15:5:14Z</time></trkpt>
<trkpt lat="46.74146" lon="6.44877"><ele></ele><time>2024-11-24T15:5:17Z</time></trkpt>
<trkpt lat="46.74148" lon="6.44886"><ele></ele><time>2024-11-24T15:5:20Z</time></trkpt>
<trkpt lat="46.74151" lon="6.44896"><ele></ele><time>2024-11-24T15:5:23Z</time></trkpt>
<trkpt lat="46.74159" lon="6.44919"><ele></ele><time>2024-11-24T15:5:26Z</time></trkpt>
<trkpt lat="46.74162" lon="6.44931"><ele></ele><time>2024-11-24T15:5:29Z</time></trkpt>
<trkpt lat="46.74166" lon="6.44944"><ele></ele><time>2024-11-24T15:5:32Z</time></trkpt>
<trkpt lat="46.74169" lon="6.44959"><ele></ele><time>2024-11-24T15:5:35Z</time></trkpt>
<trkpt lat="46.74175" lon="6.44988"><ele></ele><time>2024-11-24T15:5:38Z</time></trkpt>
<trkpt lat="46.74179" lon="6.45003"><ele></ele><time>2024-11-24T15:5:41Z</time></trkpt>
<trkpt lat="46.74182" lon="6.45018"><ele></ele><time>2024-11-24T15:5:44Z</time></trkpt>
<trkpt lat="46.74189" lon="6.45046"><ele></ele><time>2024-11-24T15:5:47Z</time></trkpt>
<trkpt lat="46.74195" lon="6.45076"><ele></ele><time>2024-11-24T15:5:50Z</time></trkpt>
<trkpt lat="46.74199" lon="6.45092"><ele></ele><time>2024-11-24T15:5:53Z</time></trkpt>
<trkpt lat="46.74202" lon="6.45107"><ele></ele><time>2024-11-24T15:5:56Z</time></trkpt>
<trkpt lat="46.74206" lon="6.45123"><ele></ele><time>2024-11-24T15:5:59Z</time></trkpt>
<trkpt lat="46.74212" lon="6.45156"><ele></ele><time>2024-11-24T15:6:2Z</time></trkpt>
<trkpt lat="46.74214" lon="6.4519"><ele></ele><time>2024-11-24T15:6:5Z</time></trkpt>
<trkpt lat="46.74215" lon="6.45207"><ele></ele><time>2024-11-24T15:6:8Z</time></trkpt>
<trkpt lat="46.74216" lon="6.45243"><ele></ele><time>2024-11-24T15:6:11Z</time></trkpt>
<trkpt lat="46.74217" lon="6.45261"><ele></ele><time>2024-11-24T15:6:14Z</time></trkpt>
<trkpt lat="46.74217" lon="6.45279"><ele></ele><time>2024-11-24T15:6:17Z</time></trkpt>
<trkpt lat="46.74216" lon="6.45297"><ele></ele><time>2024-11-24T15:6:20Z</time></trkpt>
<trkpt lat="46.74216" lon="6.45315"><ele></ele><time>2024-11-24T15:6:23Z</time></trkpt>
<trkpt lat="46.74216" lon="6.45331"><ele></ele><time>2024-11-24T15:6:26Z</time></trkpt>
<trkpt lat="46.74216" lon="6.45345"><ele></ele><time>2024-11-24T15:6:29Z</time></trkpt>
<trkpt lat="46.74216" lon="6.45358"><ele></ele><time>2024-11-24T15:6:32Z</time></trkpt>
<trkpt lat="46.74215" lon="6.45382"><ele></ele><time>2024-11-24T15:6:35Z</time></trkpt>
<trkpt lat="46.74216" lon="6.45395"><ele></ele><time>2024-11-24T15:6:38Z</time></trkpt>
<trkpt lat="46.74216" lon="6.45407"><ele></ele><time>2024-11-24T15:6:41Z</time></trkpt>
<trkpt lat="46.74216" lon="6.4542"><ele></ele><time>2024-11-24T15:6:44Z</time></trkpt>
<trkpt lat="46.74215" lon="6.45433"><ele></ele><time>2024-11-24T15:6:47Z</time></trkpt>
<trkpt lat="46.74214" lon="6.45446"><ele></ele><time>2024-11-24T15:6:50Z</time></trkpt>
<trkpt lat="46.74213" lon="6.45458"><ele></ele><time>2024-11-24T15:6:53Z</time></trkpt>
<trkpt lat="46.74212" lon="6.45469"><ele></ele><time>2024-11-24T15:6:56Z</time></trkpt>
<trkpt lat="46.74211" lon="6.45481"><ele></ele><time>2024-11-24T15:6:59Z</time></trkpt>
<trkpt lat="46.74209" lon="6.45502"><ele></ele><time>2024-11-24T15:7:2Z</time></trkpt>
<trkpt lat="46.74207" lon="6.45524"><ele></ele><time>2024-11-24T15:7:5Z</time></trkpt>
<trkpt lat="46.74205" lon="6.45535"><ele></ele><time>2024-11-24T15:7:8Z</time></trkpt>
<trkpt lat="46.74204" lon="6.45545"><ele></ele><time>2024-11-24T15:7:11Z</time></trkpt>
<trkpt lat="46.742" lon="6.45576"><ele></ele><time>2024-11-24T15:7:14Z</time></trkpt>
<trkpt lat="46.74198" lon="6.45604"><ele></ele><time>2024-11-24T15:7:17Z</time></trkpt>
<trkpt lat="46.74196" lon="6.45619"><ele></ele><time>2024-11-24T15:7:20Z</time></trkpt>
<trkpt lat="46.74195" lon="6.45643"><ele></ele><time>2024-11-24T15:7:23Z</time></trkpt>
<trkpt lat="46.74195" lon="6.45651"><ele></ele><time>2024-11-24T15:7:26Z</time></trkpt>
<trkpt lat="46.74193" lon="6.45659"><ele></ele><time>2024-11-24T15:7:29Z</time></trkpt>
<trkpt lat="46.7419" lon="6.45667"><ele></ele><time>2024-11-24T15:7:32Z</time></trkpt>
<trkpt lat="46.74185" lon="6.45674"><ele></ele><time>2024-11-24T15:7:35Z</time></trkpt>
<trkpt lat="46.74181" lon="6.45683"><ele></ele><time>2024-11-24T15:7:38Z</time></trkpt>
<trkpt lat="46.7417" lon="6.45694"><ele></ele><time>2024-11-24T15:7:41Z</time></trkpt>
<trkpt lat="46.74163" lon="6.45696"><ele></ele><time>2024-11-24T15:7:44Z</time></trkpt>
<trkpt lat="46.74157" lon="6.45693"><ele></ele><time>2024-11-24T15:7:47Z</time></trkpt>
<trkpt lat="46.74144" lon="6.45682"><ele></ele><time>2024-11-24T15:7:50Z</time></trkpt>
<trkpt lat="46.7414" lon="6.45673"><ele></ele><time>2024-11-24T15:7:53Z</time></trkpt>
<trkpt lat="46.74136" lon="6.45663"><ele></ele><time>2024-11-24T15:7:56Z</time></trkpt>
<trkpt lat="46.74131" lon="6.45654"><ele></ele><time>2024-11-24T15:7:59Z</time></trkpt>
<trkpt lat="46.74117" lon="6.45647"><ele></ele><time>2024-11-24T15:8:2Z</time></trkpt>
<trkpt lat="46.741" lon="6.45649"><ele></ele><time>2024-11-24T15:8:5Z</time></trkpt>
<trkpt lat="46.7409" lon="6.45652"><ele></ele><time>2024-11-24T15:8:8Z</time></trkpt>
<trkpt lat="46.74081" lon="6.45655"><ele></ele><time>2024-11-24T15:8:11Z</time></trkpt>
<trkpt lat="46.74073" lon="6.45658"><ele></ele><time>2024-11-24T15:8:14Z</time></trkpt>
<trkpt lat="46.74065" lon="6.45661"><ele></ele><time>2024-11-24T15:8:17Z</time></trkpt>
<trkpt lat="46.74056" lon="6.45662"><ele></ele><time>2024-11-24T15:8:20Z</time></trkpt>
<trkpt lat="46.74049" lon="6.4566"><ele></ele><time>2024-11-24T15:8:23Z</time></trkpt>
<trkpt lat="46.74042" lon="6.45656"><ele></ele><time>2024-11-24T15:8:26Z</time></trkpt>
<trkpt lat="46.74036" lon="6.45652"><ele></ele><time>2024-11-24T15:8:29Z</time></trkpt>
<trkpt lat="46.74032" lon="6.45647"><ele></ele><time>2024-11-24T15:8:32Z</time></trkpt>
<trkpt lat="46.74028" lon="6.45642"><ele></ele><time>2024-11-24T15:8:35Z</time></trkpt>
<trkpt lat="46.74026" lon="6.45635"><ele></ele><time>2024-11-24T15:8:38Z</time></trkpt>
<trkpt lat="46.74021" lon="6.45612"><ele></ele><time>2024-11-24T15:8:41Z</time></trkpt>
<trkpt lat="46.74018" lon="6.45606"><ele></ele><time>2024-11-24T15:8:44Z</time></trkpt>
<trkpt lat="46.74014" lon="6.45603"><ele></ele><time>2024-11-24T15:8:47Z</time></trkpt>
<trkpt lat="46.74007" lon="6.45599"><ele></ele><time>2024-11-24T15:8:50Z</time></trkpt>
<trkpt lat="46.74001" lon="6.45604"><ele></ele><time>2024-11-24T15:8:53Z</time></trkpt>
<trkpt lat="46.74" lon="6.4561"><ele></ele><time>2024-11-24T15:8:56Z</time></trkpt>
<trkpt lat="46.73998" lon="6.45617"><ele></ele><time>2024-11-24T15:8:59Z</time></trkpt>
<trkpt lat="46.73994" lon="6.45646"><ele></ele><time>2024-11-24T15:9:2Z</time></trkpt>
<trkpt lat="46.73993" lon="6.45657"><ele></ele><time>2024-11-24T15:9:5Z</time></trkpt>
<trkpt lat="46.73988" lon="6.45694"><ele></ele><time>2024-11-24T15:9:8Z</time></trkpt>
<trkpt lat="46.73986" lon="6.45707"><ele></ele><time>2024-11-24T15:9:11Z</time></trkpt>
<trkpt lat="46.73977" lon="6.4574"><ele></ele><time>2024-11-24T15:9:14Z</time></trkpt>
<trkpt lat="46.73982" lon="6.4575"><ele></ele><time>2024-11-24T15:9:17Z</time></trkpt>
<trkpt lat="46.73991" lon="6.45749"><ele></ele><time>2024-11-24T15:9:20Z</time></trkpt>
</trkseg></trk></gpx>